<?xml version="1.0" encoding="UTF-8" standalone="no" ?>
<gpx xmlns="http://www.topografix.com/GPX/1/1" xmlns:xsi="http://www.w3.org/2001/XMLSchema-instance" xsi:schemaLocation="http://www.topografix.com/GPX/1/1 http://www.topografix.com/GPX/1/1/gpx.xsd" version="1.1" creator="VisuGPX - https://www.visugpx.com">
  <metadata>
    <name>Grande Sassière par le glacier de la Sassière depuis Chenal</name>
    <desc><![CDATA[Chaussage des skis ferme et définitif à 2312 m, après 4,8 km à pied skis sur le sac. Glacier bien bouché, très bon ski excellente neige.]]></desc>
  </metadata>
  <trk>
    <name><![CDATA[2013-05-07 13:19:59]]></name>
    <trkseg>
      <trkpt lat="45.5461" lon="6.91343">
        <ele>1692.54</ele>
        <time>2013-05-07T03:34:19Z</time>
      </trkpt>
      <trkpt lat="45.5461" lon="6.91343">
        <ele>1695.9</ele>
        <time>2013-05-07T03:34:26Z</time>
      </trkpt>
      <trkpt lat="45.5461" lon="6.91342">
        <ele>1698.79</ele>
        <time>2013-05-07T03:34:38Z</time>
      </trkpt>
      <trkpt lat="45.54612" lon="6.91343">
        <ele>1702.15</ele>
        <time>2013-05-07T03:34:54Z</time>
      </trkpt>
      <trkpt lat="45.54611" lon="6.91347">
        <ele>1702.63</ele>
        <time>2013-05-07T03:35:07Z</time>
      </trkpt>
      <trkpt lat="45.54608" lon="6.91344">
        <ele>1702.63</ele>
        <time>2013-05-07T03:35:20Z</time>
      </trkpt>
      <trkpt lat="45.54611" lon="6.91344">
        <ele>1702.63</ele>
        <time>2013-05-07T03:35:31Z</time>
      </trkpt>
      <trkpt lat="45.5461" lon="6.91342">
        <ele>1703.59</ele>
        <time>2013-05-07T03:35:49Z</time>
      </trkpt>
      <trkpt lat="45.54609" lon="6.91342">
        <ele>1702.15</ele>
        <time>2013-05-07T03:35:53Z</time>
      </trkpt>
      <trkpt lat="45.5461" lon="6.91344">
        <ele>1703.11</ele>
        <time>2013-05-07T03:36:10Z</time>
      </trkpt>
      <trkpt lat="45.54611" lon="6.91343">
        <ele>1703.11</ele>
        <time>2013-05-07T03:36:15Z</time>
      </trkpt>
      <trkpt lat="45.54609" lon="6.91345">
        <ele>1703.11</ele>
        <time>2013-05-07T03:36:27Z</time>
      </trkpt>
      <trkpt lat="45.54614" lon="6.91346">
        <ele>1703.11</ele>
        <time>2013-05-07T03:36:40Z</time>
      </trkpt>
      <trkpt lat="45.54617" lon="6.91344">
        <ele>1703.11</ele>
        <time>2013-05-07T03:36:43Z</time>
      </trkpt>
      <trkpt lat="45.54624" lon="6.91338">
        <ele>1703.59</ele>
        <time>2013-05-07T03:36:50Z</time>
      </trkpt>
      <trkpt lat="45.54634" lon="6.91346">
        <ele>1703.59</ele>
        <time>2013-05-07T03:37:02Z</time>
      </trkpt>
      <trkpt lat="45.54631" lon="6.9135">
        <ele>1704.07</ele>
        <time>2013-05-07T03:37:09Z</time>
      </trkpt>
      <trkpt lat="45.54621" lon="6.91362">
        <ele>1706.48</ele>
        <time>2013-05-07T03:37:23Z</time>
      </trkpt>
      <trkpt lat="45.54611" lon="6.91372">
        <ele>1708.88</ele>
        <time>2013-05-07T03:37:36Z</time>
      </trkpt>
      <trkpt lat="45.54606" lon="6.91378">
        <ele>1709.84</ele>
        <time>2013-05-07T03:37:43Z</time>
      </trkpt>
      <trkpt lat="45.54593" lon="6.91389">
        <ele>1712.73</ele>
        <time>2013-05-07T03:37:58Z</time>
      </trkpt>
      <trkpt lat="45.54586" lon="6.91395">
        <ele>1714.17</ele>
        <time>2013-05-07T03:38:06Z</time>
      </trkpt>
      <trkpt lat="45.54583" lon="6.91414">
        <ele>1716.57</ele>
        <time>2013-05-07T03:38:21Z</time>
      </trkpt>
      <trkpt lat="45.54583" lon="6.91416">
        <ele>1716.57</ele>
        <time>2013-05-07T03:38:22Z</time>
      </trkpt>
      <trkpt lat="45.54579" lon="6.91432">
        <ele>1718.01</ele>
        <time>2013-05-07T03:38:32Z</time>
      </trkpt>
      <trkpt lat="45.54573" lon="6.91443">
        <ele>1719.94</ele>
        <time>2013-05-07T03:38:42Z</time>
      </trkpt>
      <trkpt lat="45.54563" lon="6.91462">
        <ele>1722.34</ele>
        <time>2013-05-07T03:38:58Z</time>
      </trkpt>
      <trkpt lat="45.54563" lon="6.91463">
        <ele>1722.82</ele>
        <time>2013-05-07T03:38:59Z</time>
      </trkpt>
      <trkpt lat="45.54567" lon="6.91485">
        <ele>1725.22</ele>
        <time>2013-05-07T03:39:13Z</time>
      </trkpt>
      <trkpt lat="45.54566" lon="6.91504">
        <ele>1727.63</ele>
        <time>2013-05-07T03:39:26Z</time>
      </trkpt>
      <trkpt lat="45.54559" lon="6.91513">
        <ele>1729.07</ele>
        <time>2013-05-07T03:39:36Z</time>
      </trkpt>
      <trkpt lat="45.54547" lon="6.91525">
        <ele>1731.95</ele>
        <time>2013-05-07T03:39:50Z</time>
      </trkpt>
      <trkpt lat="45.54532" lon="6.91538">
        <ele>1734.84</ele>
        <time>2013-05-07T03:40:06Z</time>
      </trkpt>
      <trkpt lat="45.54527" lon="6.91557">
        <ele>1737.24</ele>
        <time>2013-05-07T03:40:20Z</time>
      </trkpt>
      <trkpt lat="45.54525" lon="6.91576">
        <ele>1739.64</ele>
        <time>2013-05-07T03:40:34Z</time>
      </trkpt>
      <trkpt lat="45.54523" lon="6.91596">
        <ele>1741.57</ele>
        <time>2013-05-07T03:40:47Z</time>
      </trkpt>
      <trkpt lat="45.54521" lon="6.91607">
        <ele>1743.01</ele>
        <time>2013-05-07T03:40:55Z</time>
      </trkpt>
      <trkpt lat="45.5452" lon="6.91609">
        <ele>1743.01</ele>
        <time>2013-05-07T03:40:57Z</time>
      </trkpt>
      <trkpt lat="45.54515" lon="6.9163">
        <ele>1745.89</ele>
        <time>2013-05-07T03:41:11Z</time>
      </trkpt>
      <trkpt lat="45.54514" lon="6.91635">
        <ele>1745.89</ele>
        <time>2013-05-07T03:41:14Z</time>
      </trkpt>
      <trkpt lat="45.54498" lon="6.91651">
        <ele>1746.37</ele>
        <time>2013-05-07T03:41:29Z</time>
      </trkpt>
      <trkpt lat="45.54485" lon="6.91678">
        <ele>1746.37</ele>
        <time>2013-05-07T03:41:45Z</time>
      </trkpt>
      <trkpt lat="45.54482" lon="6.91685">
        <ele>1744.93</ele>
        <time>2013-05-07T03:41:49Z</time>
      </trkpt>
      <trkpt lat="45.54466" lon="6.91713">
        <ele>1744.93</ele>
        <time>2013-05-07T03:42:06Z</time>
      </trkpt>
      <trkpt lat="45.54446" lon="6.91739">
        <ele>1744.45</ele>
        <time>2013-05-07T03:42:24Z</time>
      </trkpt>
      <trkpt lat="45.54426" lon="6.9176">
        <ele>1744.45</ele>
        <time>2013-05-07T03:42:41Z</time>
      </trkpt>
      <trkpt lat="45.54403" lon="6.91768">
        <ele>1745.41</ele>
        <time>2013-05-07T03:42:58Z</time>
      </trkpt>
      <trkpt lat="45.54401" lon="6.91768">
        <ele>1745.41</ele>
        <time>2013-05-07T03:43:00Z</time>
      </trkpt>
      <trkpt lat="45.54396" lon="6.91766">
        <ele>1745.41</ele>
        <time>2013-05-07T03:43:04Z</time>
      </trkpt>
      <trkpt lat="45.54376" lon="6.91767">
        <ele>1746.85</ele>
        <time>2013-05-07T03:43:20Z</time>
      </trkpt>
      <trkpt lat="45.54364" lon="6.91775">
        <ele>1746.85</ele>
        <time>2013-05-07T03:43:28Z</time>
      </trkpt>
      <trkpt lat="45.54344" lon="6.91787">
        <ele>1746.85</ele>
        <time>2013-05-07T03:43:43Z</time>
      </trkpt>
      <trkpt lat="45.54333" lon="6.9179">
        <ele>1746.85</ele>
        <time>2013-05-07T03:43:52Z</time>
      </trkpt>
      <trkpt lat="45.54311" lon="6.91795">
        <ele>1746.85</ele>
        <time>2013-05-07T03:44:08Z</time>
      </trkpt>
      <trkpt lat="45.54305" lon="6.91798">
        <ele>1746.85</ele>
        <time>2013-05-07T03:44:15Z</time>
      </trkpt>
      <trkpt lat="45.54299" lon="6.91799">
        <ele>1746.85</ele>
        <time>2013-05-07T03:44:20Z</time>
      </trkpt>
      <trkpt lat="45.54295" lon="6.918">
        <ele>1746.85</ele>
        <time>2013-05-07T03:44:23Z</time>
      </trkpt>
      <trkpt lat="45.54288" lon="6.91806">
        <ele>1746.37</ele>
        <time>2013-05-07T03:44:29Z</time>
      </trkpt>
      <trkpt lat="45.54281" lon="6.91808">
        <ele>1746.37</ele>
        <time>2013-05-07T03:44:34Z</time>
      </trkpt>
      <trkpt lat="45.54273" lon="6.91809">
        <ele>1746.37</ele>
        <time>2013-05-07T03:44:46Z</time>
      </trkpt>
      <trkpt lat="45.54266" lon="6.91811">
        <ele>1746.37</ele>
        <time>2013-05-07T03:44:56Z</time>
      </trkpt>
      <trkpt lat="45.54252" lon="6.91804">
        <ele>1746.85</ele>
        <time>2013-05-07T03:45:10Z</time>
      </trkpt>
      <trkpt lat="45.54251" lon="6.91803">
        <ele>1747.33</ele>
        <time>2013-05-07T03:45:13Z</time>
      </trkpt>
      <trkpt lat="45.5424" lon="6.91796">
        <ele>1748.78</ele>
        <time>2013-05-07T03:45:25Z</time>
      </trkpt>
      <trkpt lat="45.54231" lon="6.91791">
        <ele>1750.7</ele>
        <time>2013-05-07T03:45:36Z</time>
      </trkpt>
      <trkpt lat="45.54222" lon="6.91792">
        <ele>1752.62</ele>
        <time>2013-05-07T03:45:45Z</time>
      </trkpt>
      <trkpt lat="45.54216" lon="6.91793">
        <ele>1753.58</ele>
        <time>2013-05-07T03:45:51Z</time>
      </trkpt>
      <trkpt lat="45.54203" lon="6.91798">
        <ele>1755.99</ele>
        <time>2013-05-07T03:46:05Z</time>
      </trkpt>
      <trkpt lat="45.54198" lon="6.91797">
        <ele>1756.95</ele>
        <time>2013-05-07T03:46:10Z</time>
      </trkpt>
      <trkpt lat="45.54192" lon="6.91796">
        <ele>1757.91</ele>
        <time>2013-05-07T03:46:16Z</time>
      </trkpt>
      <trkpt lat="45.54183" lon="6.91804">
        <ele>1760.79</ele>
        <time>2013-05-07T03:46:30Z</time>
      </trkpt>
      <trkpt lat="45.54181" lon="6.91806">
        <ele>1760.79</ele>
        <time>2013-05-07T03:46:32Z</time>
      </trkpt>
      <trkpt lat="45.5418" lon="6.9181">
        <ele>1761.27</ele>
        <time>2013-05-07T03:46:35Z</time>
      </trkpt>
      <trkpt lat="45.54175" lon="6.91815">
        <ele>1762.23</ele>
        <time>2013-05-07T03:46:40Z</time>
      </trkpt>
      <trkpt lat="45.5417" lon="6.9182">
        <ele>1762.71</ele>
        <time>2013-05-07T03:46:45Z</time>
      </trkpt>
      <trkpt lat="45.54158" lon="6.91833">
        <ele>1764.16</ele>
        <time>2013-05-07T03:46:58Z</time>
      </trkpt>
      <trkpt lat="45.54142" lon="6.91847">
        <ele>1767.04</ele>
        <time>2013-05-07T03:47:14Z</time>
      </trkpt>
      <trkpt lat="45.54136" lon="6.91854">
        <ele>1768.48</ele>
        <time>2013-05-07T03:47:22Z</time>
      </trkpt>
      <trkpt lat="45.54131" lon="6.91858">
        <ele>1768.96</ele>
        <time>2013-05-07T03:47:27Z</time>
      </trkpt>
      <trkpt lat="45.54115" lon="6.91874">
        <ele>1771.85</ele>
        <time>2013-05-07T03:47:43Z</time>
      </trkpt>
      <trkpt lat="45.54104" lon="6.91889">
        <ele>1774.25</ele>
        <time>2013-05-07T03:47:57Z</time>
      </trkpt>
      <trkpt lat="45.54096" lon="6.91904">
        <ele>1776.65</ele>
        <time>2013-05-07T03:48:10Z</time>
      </trkpt>
      <trkpt lat="45.54094" lon="6.9191">
        <ele>1777.61</ele>
        <time>2013-05-07T03:48:15Z</time>
      </trkpt>
      <trkpt lat="45.54092" lon="6.91914">
        <ele>1778.1</ele>
        <time>2013-05-07T03:48:19Z</time>
      </trkpt>
      <trkpt lat="45.54086" lon="6.91928">
        <ele>1780.5</ele>
        <time>2013-05-07T03:48:31Z</time>
      </trkpt>
      <trkpt lat="45.54082" lon="6.91932">
        <ele>1781.46</ele>
        <time>2013-05-07T03:48:37Z</time>
      </trkpt>
      <trkpt lat="45.5408" lon="6.91938">
        <ele>1781.94</ele>
        <time>2013-05-07T03:48:41Z</time>
      </trkpt>
      <trkpt lat="45.54077" lon="6.91945">
        <ele>1783.38</ele>
        <time>2013-05-07T03:48:46Z</time>
      </trkpt>
      <trkpt lat="45.54064" lon="6.91956">
        <ele>1784.82</ele>
        <time>2013-05-07T03:49:00Z</time>
      </trkpt>
      <trkpt lat="45.54051" lon="6.91964">
        <ele>1787.23</ele>
        <time>2013-05-07T03:49:14Z</time>
      </trkpt>
      <trkpt lat="45.54048" lon="6.91967">
        <ele>1788.19</ele>
        <time>2013-05-07T03:49:18Z</time>
      </trkpt>
      <trkpt lat="45.54037" lon="6.91977">
        <ele>1790.11</ele>
        <time>2013-05-07T03:49:33Z</time>
      </trkpt>
      <trkpt lat="45.54033" lon="6.91983">
        <ele>1790.59</ele>
        <time>2013-05-07T03:49:38Z</time>
      </trkpt>
      <trkpt lat="45.5402" lon="6.91996">
        <ele>1791.07</ele>
        <time>2013-05-07T03:49:52Z</time>
      </trkpt>
      <trkpt lat="45.54016" lon="6.92">
        <ele>1791.07</ele>
        <time>2013-05-07T03:49:57Z</time>
      </trkpt>
      <trkpt lat="45.54012" lon="6.92002">
        <ele>1791.55</ele>
        <time>2013-05-07T03:50:02Z</time>
      </trkpt>
      <trkpt lat="45.53998" lon="6.92015">
        <ele>1791.55</ele>
        <time>2013-05-07T03:50:15Z</time>
      </trkpt>
      <trkpt lat="45.53994" lon="6.92017">
        <ele>1792.03</ele>
        <time>2013-05-07T03:50:19Z</time>
      </trkpt>
      <trkpt lat="45.53991" lon="6.92021">
        <ele>1792.52</ele>
        <time>2013-05-07T03:50:24Z</time>
      </trkpt>
      <trkpt lat="45.53982" lon="6.92029">
        <ele>1793.48</ele>
        <time>2013-05-07T03:50:33Z</time>
      </trkpt>
      <trkpt lat="45.53973" lon="6.92046">
        <ele>1794.44</ele>
        <time>2013-05-07T03:50:48Z</time>
      </trkpt>
      <trkpt lat="45.53962" lon="6.9206">
        <ele>1795.4</ele>
        <time>2013-05-07T03:51:02Z</time>
      </trkpt>
      <trkpt lat="45.53949" lon="6.92078">
        <ele>1796.84</ele>
        <time>2013-05-07T03:51:17Z</time>
      </trkpt>
      <trkpt lat="45.53941" lon="6.9209">
        <ele>1798.28</ele>
        <time>2013-05-07T03:51:29Z</time>
      </trkpt>
      <trkpt lat="45.53939" lon="6.92092">
        <ele>1798.76</ele>
        <time>2013-05-07T03:51:31Z</time>
      </trkpt>
      <trkpt lat="45.53937" lon="6.92093">
        <ele>1798.76</ele>
        <time>2013-05-07T03:51:33Z</time>
      </trkpt>
      <trkpt lat="45.53927" lon="6.92106">
        <ele>1800.21</ele>
        <time>2013-05-07T03:51:47Z</time>
      </trkpt>
      <trkpt lat="45.53916" lon="6.92121">
        <ele>1802.13</ele>
        <time>2013-05-07T03:52:02Z</time>
      </trkpt>
      <trkpt lat="45.53907" lon="6.9213">
        <ele>1804.05</ele>
        <time>2013-05-07T03:52:15Z</time>
      </trkpt>
      <trkpt lat="45.539" lon="6.92139">
        <ele>1805.49</ele>
        <time>2013-05-07T03:52:26Z</time>
      </trkpt>
      <trkpt lat="45.53891" lon="6.92143">
        <ele>1805.97</ele>
        <time>2013-05-07T03:52:35Z</time>
      </trkpt>
      <trkpt lat="45.53886" lon="6.92143">
        <ele>1806.94</ele>
        <time>2013-05-07T03:52:40Z</time>
      </trkpt>
      <trkpt lat="45.53873" lon="6.92151">
        <ele>1807.9</ele>
        <time>2013-05-07T03:52:52Z</time>
      </trkpt>
      <trkpt lat="45.53869" lon="6.92156">
        <ele>1808.38</ele>
        <time>2013-05-07T03:52:57Z</time>
      </trkpt>
      <trkpt lat="45.53856" lon="6.9217">
        <ele>1810.3</ele>
        <time>2013-05-07T03:53:13Z</time>
      </trkpt>
      <trkpt lat="45.53843" lon="6.92181">
        <ele>1812.22</ele>
        <time>2013-05-07T03:53:27Z</time>
      </trkpt>
      <trkpt lat="45.53828" lon="6.92199">
        <ele>1813.18</ele>
        <time>2013-05-07T03:53:43Z</time>
      </trkpt>
      <trkpt lat="45.53813" lon="6.92212">
        <ele>1813.66</ele>
        <time>2013-05-07T03:53:56Z</time>
      </trkpt>
      <trkpt lat="45.5381" lon="6.92214">
        <ele>1813.66</ele>
        <time>2013-05-07T03:53:59Z</time>
      </trkpt>
      <trkpt lat="45.5379" lon="6.92224">
        <ele>1814.63</ele>
        <time>2013-05-07T03:54:16Z</time>
      </trkpt>
      <trkpt lat="45.53789" lon="6.92224">
        <ele>1814.63</ele>
        <time>2013-05-07T03:54:17Z</time>
      </trkpt>
      <trkpt lat="45.53769" lon="6.92228">
        <ele>1815.11</ele>
        <time>2013-05-07T03:54:34Z</time>
      </trkpt>
      <trkpt lat="45.53765" lon="6.9223">
        <ele>1815.11</ele>
        <time>2013-05-07T03:54:37Z</time>
      </trkpt>
      <trkpt lat="45.53749" lon="6.92238">
        <ele>1815.59</ele>
        <time>2013-05-07T03:54:51Z</time>
      </trkpt>
      <trkpt lat="45.53731" lon="6.92241">
        <ele>1815.59</ele>
        <time>2013-05-07T03:55:06Z</time>
      </trkpt>
      <trkpt lat="45.53713" lon="6.92243">
        <ele>1816.07</ele>
        <time>2013-05-07T03:55:20Z</time>
      </trkpt>
      <trkpt lat="45.53696" lon="6.92256">
        <ele>1817.51</ele>
        <time>2013-05-07T03:55:35Z</time>
      </trkpt>
      <trkpt lat="45.53685" lon="6.92264">
        <ele>1817.99</ele>
        <time>2013-05-07T03:55:45Z</time>
      </trkpt>
      <trkpt lat="45.53677" lon="6.92266">
        <ele>1818.47</ele>
        <time>2013-05-07T03:55:52Z</time>
      </trkpt>
      <trkpt lat="45.53656" lon="6.92267">
        <ele>1818.95</ele>
        <time>2013-05-07T03:56:09Z</time>
      </trkpt>
      <trkpt lat="45.53653" lon="6.92269">
        <ele>1818.95</ele>
        <time>2013-05-07T03:56:11Z</time>
      </trkpt>
      <trkpt lat="45.53645" lon="6.92273">
        <ele>1818.95</ele>
        <time>2013-05-07T03:56:18Z</time>
      </trkpt>
      <trkpt lat="45.53634" lon="6.92278">
        <ele>1819.43</ele>
        <time>2013-05-07T03:56:27Z</time>
      </trkpt>
      <trkpt lat="45.53614" lon="6.92279">
        <ele>1819.91</ele>
        <time>2013-05-07T03:56:43Z</time>
      </trkpt>
      <trkpt lat="45.53596" lon="6.92288">
        <ele>1820.39</ele>
        <time>2013-05-07T03:56:58Z</time>
      </trkpt>
      <trkpt lat="45.53579" lon="6.923">
        <ele>1822.32</ele>
        <time>2013-05-07T03:57:13Z</time>
      </trkpt>
      <trkpt lat="45.53564" lon="6.92311">
        <ele>1822.32</ele>
        <time>2013-05-07T03:57:26Z</time>
      </trkpt>
      <trkpt lat="45.53557" lon="6.92315">
        <ele>1823.28</ele>
        <time>2013-05-07T03:57:32Z</time>
      </trkpt>
      <trkpt lat="45.53542" lon="6.92317">
        <ele>1824.72</ele>
        <time>2013-05-07T03:57:46Z</time>
      </trkpt>
      <trkpt lat="45.53529" lon="6.92319">
        <ele>1826.64</ele>
        <time>2013-05-07T03:57:59Z</time>
      </trkpt>
      <trkpt lat="45.53522" lon="6.92322">
        <ele>1827.6</ele>
        <time>2013-05-07T03:58:06Z</time>
      </trkpt>
      <trkpt lat="45.53513" lon="6.9233">
        <ele>1830.01</ele>
        <time>2013-05-07T03:58:19Z</time>
      </trkpt>
      <trkpt lat="45.53511" lon="6.92331">
        <ele>1830.49</ele>
        <time>2013-05-07T03:58:22Z</time>
      </trkpt>
      <trkpt lat="45.53499" lon="6.92341">
        <ele>1832.89</ele>
        <time>2013-05-07T03:58:36Z</time>
      </trkpt>
      <trkpt lat="45.53488" lon="6.92346">
        <ele>1835.29</ele>
        <time>2013-05-07T03:58:49Z</time>
      </trkpt>
      <trkpt lat="45.53477" lon="6.92347">
        <ele>1838.18</ele>
        <time>2013-05-07T03:59:02Z</time>
      </trkpt>
      <trkpt lat="45.53465" lon="6.92352">
        <ele>1839.62</ele>
        <time>2013-05-07T03:59:15Z</time>
      </trkpt>
      <trkpt lat="45.53456" lon="6.92353">
        <ele>1841.54</ele>
        <time>2013-05-07T03:59:26Z</time>
      </trkpt>
      <trkpt lat="45.53442" lon="6.92356">
        <ele>1844.43</ele>
        <time>2013-05-07T03:59:40Z</time>
      </trkpt>
      <trkpt lat="45.5343" lon="6.92354">
        <ele>1845.39</ele>
        <time>2013-05-07T03:59:54Z</time>
      </trkpt>
      <trkpt lat="45.5342" lon="6.92346">
        <ele>1847.31</ele>
        <time>2013-05-07T04:00:06Z</time>
      </trkpt>
      <trkpt lat="45.53414" lon="6.92345">
        <ele>1847.31</ele>
        <time>2013-05-07T04:00:11Z</time>
      </trkpt>
      <trkpt lat="45.53404" lon="6.92341">
        <ele>1847.79</ele>
        <time>2013-05-07T04:00:23Z</time>
      </trkpt>
      <trkpt lat="45.53394" lon="6.92347">
        <ele>1848.75</ele>
        <time>2013-05-07T04:00:36Z</time>
      </trkpt>
      <trkpt lat="45.53392" lon="6.9235">
        <ele>1849.23</ele>
        <time>2013-05-07T04:00:40Z</time>
      </trkpt>
      <trkpt lat="45.5338" lon="6.92357">
        <ele>1850.19</ele>
        <time>2013-05-07T04:00:53Z</time>
      </trkpt>
      <trkpt lat="45.53371" lon="6.92372">
        <ele>1851.64</ele>
        <time>2013-05-07T04:01:05Z</time>
      </trkpt>
      <trkpt lat="45.53367" lon="6.92378">
        <ele>1852.12</ele>
        <time>2013-05-07T04:01:10Z</time>
      </trkpt>
      <trkpt lat="45.53363" lon="6.92378">
        <ele>1852.6</ele>
        <time>2013-05-07T04:01:13Z</time>
      </trkpt>
      <trkpt lat="45.53361" lon="6.92382">
        <ele>1852.6</ele>
        <time>2013-05-07T04:01:16Z</time>
      </trkpt>
      <trkpt lat="45.53346" lon="6.92396">
        <ele>1853.56</ele>
        <time>2013-05-07T04:01:31Z</time>
      </trkpt>
      <trkpt lat="45.53334" lon="6.92408">
        <ele>1855.48</ele>
        <time>2013-05-07T04:01:45Z</time>
      </trkpt>
      <trkpt lat="45.53322" lon="6.92417">
        <ele>1856.44</ele>
        <time>2013-05-07T04:01:58Z</time>
      </trkpt>
      <trkpt lat="45.53315" lon="6.92423">
        <ele>1859.33</ele>
        <time>2013-05-07T04:02:09Z</time>
      </trkpt>
      <trkpt lat="45.53306" lon="6.92433">
        <ele>1860.77</ele>
        <time>2013-05-07T04:02:22Z</time>
      </trkpt>
      <trkpt lat="45.533" lon="6.92436">
        <ele>1861.73</ele>
        <time>2013-05-07T04:02:29Z</time>
      </trkpt>
      <trkpt lat="45.53289" lon="6.92429">
        <ele>1864.13</ele>
        <time>2013-05-07T04:02:43Z</time>
      </trkpt>
      <trkpt lat="45.53278" lon="6.92424">
        <ele>1866.06</ele>
        <time>2013-05-07T04:02:56Z</time>
      </trkpt>
      <trkpt lat="45.53271" lon="6.92428">
        <ele>1867.5</ele>
        <time>2013-05-07T04:03:05Z</time>
      </trkpt>
      <trkpt lat="45.53264" lon="6.92442">
        <ele>1870.38</ele>
        <time>2013-05-07T04:03:20Z</time>
      </trkpt>
      <trkpt lat="45.53264" lon="6.92443">
        <ele>1870.38</ele>
        <time>2013-05-07T04:03:21Z</time>
      </trkpt>
      <trkpt lat="45.5326" lon="6.92449">
        <ele>1871.34</ele>
        <time>2013-05-07T04:03:28Z</time>
      </trkpt>
      <trkpt lat="45.53254" lon="6.92456">
        <ele>1872.79</ele>
        <time>2013-05-07T04:03:38Z</time>
      </trkpt>
      <trkpt lat="45.53245" lon="6.92462">
        <ele>1875.19</ele>
        <time>2013-05-07T04:03:51Z</time>
      </trkpt>
      <trkpt lat="45.53234" lon="6.92463">
        <ele>1877.59</ele>
        <time>2013-05-07T04:04:03Z</time>
      </trkpt>
      <trkpt lat="45.53227" lon="6.92467">
        <ele>1880</ele>
        <time>2013-05-07T04:04:15Z</time>
      </trkpt>
      <trkpt lat="45.53218" lon="6.92478">
        <ele>1882.4</ele>
        <time>2013-05-07T04:04:28Z</time>
      </trkpt>
      <trkpt lat="45.53212" lon="6.92484">
        <ele>1884.32</ele>
        <time>2013-05-07T04:04:41Z</time>
      </trkpt>
      <trkpt lat="45.53206" lon="6.92491">
        <ele>1886.24</ele>
        <time>2013-05-07T04:04:50Z</time>
      </trkpt>
      <trkpt lat="45.53198" lon="6.92504">
        <ele>1887.69</ele>
        <time>2013-05-07T04:05:03Z</time>
      </trkpt>
      <trkpt lat="45.5319" lon="6.92513">
        <ele>1889.61</ele>
        <time>2013-05-07T04:05:16Z</time>
      </trkpt>
      <trkpt lat="45.5318" lon="6.92517">
        <ele>1892.49</ele>
        <time>2013-05-07T04:05:30Z</time>
      </trkpt>
      <trkpt lat="45.53175" lon="6.92527">
        <ele>1894.9</ele>
        <time>2013-05-07T04:05:43Z</time>
      </trkpt>
      <trkpt lat="45.53169" lon="6.92538">
        <ele>1896.82</ele>
        <time>2013-05-07T04:05:57Z</time>
      </trkpt>
      <trkpt lat="45.53168" lon="6.92539">
        <ele>1896.82</ele>
        <time>2013-05-07T04:05:58Z</time>
      </trkpt>
      <trkpt lat="45.53167" lon="6.92553">
        <ele>1898.74</ele>
        <time>2013-05-07T04:06:11Z</time>
      </trkpt>
      <trkpt lat="45.53165" lon="6.92568">
        <ele>1901.14</ele>
        <time>2013-05-07T04:06:25Z</time>
      </trkpt>
      <trkpt lat="45.53162" lon="6.92579">
        <ele>1903.55</ele>
        <time>2013-05-07T04:06:37Z</time>
      </trkpt>
      <trkpt lat="45.5316" lon="6.9258">
        <ele>1904.51</ele>
        <time>2013-05-07T04:06:40Z</time>
      </trkpt>
      <trkpt lat="45.53146" lon="6.92591">
        <ele>1904.99</ele>
        <time>2013-05-07T04:06:53Z</time>
      </trkpt>
      <trkpt lat="45.53143" lon="6.92595">
        <ele>1904.99</ele>
        <time>2013-05-07T04:06:56Z</time>
      </trkpt>
      <trkpt lat="45.53141" lon="6.92599">
        <ele>1904.99</ele>
        <time>2013-05-07T04:06:59Z</time>
      </trkpt>
      <trkpt lat="45.5314" lon="6.92601">
        <ele>1905.95</ele>
        <time>2013-05-07T04:07:01Z</time>
      </trkpt>
      <trkpt lat="45.53137" lon="6.92608">
        <ele>1905.95</ele>
        <time>2013-05-07T04:07:06Z</time>
      </trkpt>
      <trkpt lat="45.53136" lon="6.92614">
        <ele>1905.95</ele>
        <time>2013-05-07T04:07:10Z</time>
      </trkpt>
      <trkpt lat="45.53133" lon="6.92632">
        <ele>1906.91</ele>
        <time>2013-05-07T04:07:23Z</time>
      </trkpt>
      <trkpt lat="45.53131" lon="6.92637">
        <ele>1906.91</ele>
        <time>2013-05-07T04:07:27Z</time>
      </trkpt>
      <trkpt lat="45.5313" lon="6.9264">
        <ele>1907.39</ele>
        <time>2013-05-07T04:07:29Z</time>
      </trkpt>
      <trkpt lat="45.53128" lon="6.92651">
        <ele>1908.35</ele>
        <time>2013-05-07T04:07:36Z</time>
      </trkpt>
      <trkpt lat="45.53123" lon="6.92668">
        <ele>1909.32</ele>
        <time>2013-05-07T04:07:48Z</time>
      </trkpt>
      <trkpt lat="45.53119" lon="6.92684">
        <ele>1910.76</ele>
        <time>2013-05-07T04:07:59Z</time>
      </trkpt>
      <trkpt lat="45.53118" lon="6.92687">
        <ele>1911.24</ele>
        <time>2013-05-07T04:08:01Z</time>
      </trkpt>
      <trkpt lat="45.53116" lon="6.92691">
        <ele>1912.2</ele>
        <time>2013-05-07T04:08:04Z</time>
      </trkpt>
      <trkpt lat="45.53114" lon="6.927">
        <ele>1912.68</ele>
        <time>2013-05-07T04:08:12Z</time>
      </trkpt>
      <trkpt lat="45.53113" lon="6.92705">
        <ele>1913.64</ele>
        <time>2013-05-07T04:08:16Z</time>
      </trkpt>
      <trkpt lat="45.5311" lon="6.92713">
        <ele>1914.12</ele>
        <time>2013-05-07T04:08:22Z</time>
      </trkpt>
      <trkpt lat="45.53105" lon="6.92735">
        <ele>1916.53</ele>
        <time>2013-05-07T04:08:36Z</time>
      </trkpt>
      <trkpt lat="45.53102" lon="6.92743">
        <ele>1917.01</ele>
        <time>2013-05-07T04:08:42Z</time>
      </trkpt>
      <trkpt lat="45.53097" lon="6.92756">
        <ele>1919.41</ele>
        <time>2013-05-07T04:08:55Z</time>
      </trkpt>
      <trkpt lat="45.53091" lon="6.92763">
        <ele>1921.33</ele>
        <time>2013-05-07T04:09:08Z</time>
      </trkpt>
      <trkpt lat="45.53085" lon="6.92775">
        <ele>1923.74</ele>
        <time>2013-05-07T04:09:22Z</time>
      </trkpt>
      <trkpt lat="45.53081" lon="6.92784">
        <ele>1925.66</ele>
        <time>2013-05-07T04:09:35Z</time>
      </trkpt>
      <trkpt lat="45.53075" lon="6.92795">
        <ele>1927.58</ele>
        <time>2013-05-07T04:09:49Z</time>
      </trkpt>
      <trkpt lat="45.5307" lon="6.92803">
        <ele>1930.46</ele>
        <time>2013-05-07T04:10:02Z</time>
      </trkpt>
      <trkpt lat="45.53065" lon="6.92814">
        <ele>1931.91</ele>
        <time>2013-05-07T04:10:14Z</time>
      </trkpt>
      <trkpt lat="45.53061" lon="6.92814">
        <ele>1932.87</ele>
        <time>2013-05-07T04:10:20Z</time>
      </trkpt>
      <trkpt lat="45.53052" lon="6.9281">
        <ele>1933.83</ele>
        <time>2013-05-07T04:10:28Z</time>
      </trkpt>
      <trkpt lat="45.53045" lon="6.92819">
        <ele>1935.27</ele>
        <time>2013-05-07T04:10:40Z</time>
      </trkpt>
      <trkpt lat="45.53036" lon="6.92832">
        <ele>1936.71</ele>
        <time>2013-05-07T04:10:55Z</time>
      </trkpt>
      <trkpt lat="45.5303" lon="6.92838">
        <ele>1938.64</ele>
        <time>2013-05-07T04:11:06Z</time>
      </trkpt>
      <trkpt lat="45.53026" lon="6.92849">
        <ele>1940.08</ele>
        <time>2013-05-07T04:11:17Z</time>
      </trkpt>
      <trkpt lat="45.53022" lon="6.92857">
        <ele>1941.04</ele>
        <time>2013-05-07T04:11:27Z</time>
      </trkpt>
      <trkpt lat="45.53017" lon="6.92868">
        <ele>1942.96</ele>
        <time>2013-05-07T04:11:36Z</time>
      </trkpt>
      <trkpt lat="45.53009" lon="6.92881">
        <ele>1944.4</ele>
        <time>2013-05-07T04:11:50Z</time>
      </trkpt>
      <trkpt lat="45.53005" lon="6.92891">
        <ele>1945.36</ele>
        <time>2013-05-07T04:12:03Z</time>
      </trkpt>
      <trkpt lat="45.53006" lon="6.92899">
        <ele>1947.29</ele>
        <time>2013-05-07T04:12:16Z</time>
      </trkpt>
      <trkpt lat="45.5301" lon="6.9291">
        <ele>1949.21</ele>
        <time>2013-05-07T04:12:29Z</time>
      </trkpt>
      <trkpt lat="45.53016" lon="6.92918">
        <ele>1952.09</ele>
        <time>2013-05-07T04:12:42Z</time>
      </trkpt>
      <trkpt lat="45.53018" lon="6.92918">
        <ele>1952.57</ele>
        <time>2013-05-07T04:12:45Z</time>
      </trkpt>
      <trkpt lat="45.53019" lon="6.92924">
        <ele>1954.02</ele>
        <time>2013-05-07T04:12:56Z</time>
      </trkpt>
      <trkpt lat="45.53015" lon="6.92934">
        <ele>1955.46</ele>
        <time>2013-05-07T04:13:09Z</time>
      </trkpt>
      <trkpt lat="45.53012" lon="6.92947">
        <ele>1957.38</ele>
        <time>2013-05-07T04:13:21Z</time>
      </trkpt>
      <trkpt lat="45.53012" lon="6.92953">
        <ele>1956.9</ele>
        <time>2013-05-07T04:13:26Z</time>
      </trkpt>
      <trkpt lat="45.5301" lon="6.92961">
        <ele>1958.82</ele>
        <time>2013-05-07T04:13:38Z</time>
      </trkpt>
      <trkpt lat="45.53011" lon="6.92973">
        <ele>1960.75</ele>
        <time>2013-05-07T04:13:50Z</time>
      </trkpt>
      <trkpt lat="45.53015" lon="6.92983">
        <ele>1962.19</ele>
        <time>2013-05-07T04:14:01Z</time>
      </trkpt>
      <trkpt lat="45.53019" lon="6.92993">
        <ele>1963.63</ele>
        <time>2013-05-07T04:14:11Z</time>
      </trkpt>
      <trkpt lat="45.5302" lon="6.92998">
        <ele>1964.59</ele>
        <time>2013-05-07T04:14:17Z</time>
      </trkpt>
      <trkpt lat="45.53018" lon="6.93008">
        <ele>1966.03</ele>
        <time>2013-05-07T04:14:29Z</time>
      </trkpt>
      <trkpt lat="45.53015" lon="6.93021">
        <ele>1967.96</ele>
        <time>2013-05-07T04:14:42Z</time>
      </trkpt>
      <trkpt lat="45.53014" lon="6.93035">
        <ele>1969.88</ele>
        <time>2013-05-07T04:14:56Z</time>
      </trkpt>
      <trkpt lat="45.53008" lon="6.93036">
        <ele>1971.8</ele>
        <time>2013-05-07T04:15:06Z</time>
      </trkpt>
      <trkpt lat="45.53006" lon="6.93047">
        <ele>1973.24</ele>
        <time>2013-05-07T04:15:18Z</time>
      </trkpt>
      <trkpt lat="45.52999" lon="6.9305">
        <ele>1975.17</ele>
        <time>2013-05-07T04:15:30Z</time>
      </trkpt>
      <trkpt lat="45.52992" lon="6.9306">
        <ele>1977.09</ele>
        <time>2013-05-07T04:15:44Z</time>
      </trkpt>
      <trkpt lat="45.52987" lon="6.93068">
        <ele>1979.01</ele>
        <time>2013-05-07T04:15:57Z</time>
      </trkpt>
      <trkpt lat="45.52993" lon="6.93075">
        <ele>1980.45</ele>
        <time>2013-05-07T04:16:08Z</time>
      </trkpt>
      <trkpt lat="45.52992" lon="6.93082">
        <ele>1982.86</ele>
        <time>2013-05-07T04:16:22Z</time>
      </trkpt>
      <trkpt lat="45.52994" lon="6.93092">
        <ele>1985.26</ele>
        <time>2013-05-07T04:16:35Z</time>
      </trkpt>
      <trkpt lat="45.52992" lon="6.93098">
        <ele>1986.7</ele>
        <time>2013-05-07T04:16:48Z</time>
      </trkpt>
      <trkpt lat="45.52993" lon="6.93108">
        <ele>1988.62</ele>
        <time>2013-05-07T04:17:01Z</time>
      </trkpt>
      <trkpt lat="45.52991" lon="6.93115">
        <ele>1991.03</ele>
        <time>2013-05-07T04:17:13Z</time>
      </trkpt>
      <trkpt lat="45.52992" lon="6.93124">
        <ele>1992.47</ele>
        <time>2013-05-07T04:17:23Z</time>
      </trkpt>
      <trkpt lat="45.5299" lon="6.93132">
        <ele>1994.39</ele>
        <time>2013-05-07T04:17:35Z</time>
      </trkpt>
      <trkpt lat="45.52993" lon="6.93142">
        <ele>1996.32</ele>
        <time>2013-05-07T04:17:48Z</time>
      </trkpt>
      <trkpt lat="45.52994" lon="6.93148">
        <ele>1998.24</ele>
        <time>2013-05-07T04:17:59Z</time>
      </trkpt>
      <trkpt lat="45.52995" lon="6.93156">
        <ele>2000.64</ele>
        <time>2013-05-07T04:18:12Z</time>
      </trkpt>
      <trkpt lat="45.52992" lon="6.93163">
        <ele>2003.04</ele>
        <time>2013-05-07T04:18:26Z</time>
      </trkpt>
      <trkpt lat="45.52991" lon="6.93169">
        <ele>2004.97</ele>
        <time>2013-05-07T04:18:39Z</time>
      </trkpt>
      <trkpt lat="45.52991" lon="6.93177">
        <ele>2006.89</ele>
        <time>2013-05-07T04:18:52Z</time>
      </trkpt>
      <trkpt lat="45.5299" lon="6.93178">
        <ele>2007.85</ele>
        <time>2013-05-07T04:19:08Z</time>
      </trkpt>
      <trkpt lat="45.52992" lon="6.93186">
        <ele>2009.29</ele>
        <time>2013-05-07T04:19:24Z</time>
      </trkpt>
      <trkpt lat="45.52996" lon="6.93192">
        <ele>2011.7</ele>
        <time>2013-05-07T04:19:37Z</time>
      </trkpt>
      <trkpt lat="45.53002" lon="6.93195">
        <ele>2014.58</ele>
        <time>2013-05-07T04:19:51Z</time>
      </trkpt>
      <trkpt lat="45.52998" lon="6.93206">
        <ele>2016.98</ele>
        <time>2013-05-07T04:20:05Z</time>
      </trkpt>
      <trkpt lat="45.52994" lon="6.93215">
        <ele>2019.39</ele>
        <time>2013-05-07T04:20:17Z</time>
      </trkpt>
      <trkpt lat="45.52992" lon="6.93224">
        <ele>2021.79</ele>
        <time>2013-05-07T04:20:31Z</time>
      </trkpt>
      <trkpt lat="45.52991" lon="6.93229">
        <ele>2023.71</ele>
        <time>2013-05-07T04:20:43Z</time>
      </trkpt>
      <trkpt lat="45.52994" lon="6.93228">
        <ele>2023.71</ele>
        <time>2013-05-07T04:20:47Z</time>
      </trkpt>
      <trkpt lat="45.52998" lon="6.93227">
        <ele>2024.19</ele>
        <time>2013-05-07T04:20:51Z</time>
      </trkpt>
      <trkpt lat="45.53005" lon="6.93224">
        <ele>2025.64</ele>
        <time>2013-05-07T04:21:03Z</time>
      </trkpt>
      <trkpt lat="45.53005" lon="6.93231">
        <ele>2027.56</ele>
        <time>2013-05-07T04:21:18Z</time>
      </trkpt>
      <trkpt lat="45.53006" lon="6.93235">
        <ele>2029.48</ele>
        <time>2013-05-07T04:21:30Z</time>
      </trkpt>
      <trkpt lat="45.53009" lon="6.93236">
        <ele>2030.92</ele>
        <time>2013-05-07T04:21:41Z</time>
      </trkpt>
      <trkpt lat="45.53014" lon="6.93235">
        <ele>2032.36</ele>
        <time>2013-05-07T04:21:54Z</time>
      </trkpt>
      <trkpt lat="45.53016" lon="6.93238">
        <ele>2034.77</ele>
        <time>2013-05-07T04:22:08Z</time>
      </trkpt>
      <trkpt lat="45.53017" lon="6.93241">
        <ele>2036.21</ele>
        <time>2013-05-07T04:22:15Z</time>
      </trkpt>
      <trkpt lat="45.53019" lon="6.93247">
        <ele>2038.13</ele>
        <time>2013-05-07T04:22:27Z</time>
      </trkpt>
      <trkpt lat="45.53017" lon="6.9325">
        <ele>2040.54</ele>
        <time>2013-05-07T04:22:40Z</time>
      </trkpt>
      <trkpt lat="45.53021" lon="6.93252">
        <ele>2041.02</ele>
        <time>2013-05-07T04:22:54Z</time>
      </trkpt>
      <trkpt lat="45.53028" lon="6.93248">
        <ele>2043.42</ele>
        <time>2013-05-07T04:23:07Z</time>
      </trkpt>
      <trkpt lat="45.53033" lon="6.93245">
        <ele>2045.34</ele>
        <time>2013-05-07T04:23:17Z</time>
      </trkpt>
      <trkpt lat="45.53038" lon="6.93244">
        <ele>2046.78</ele>
        <time>2013-05-07T04:23:30Z</time>
      </trkpt>
      <trkpt lat="45.53045" lon="6.93241">
        <ele>2049.19</ele>
        <time>2013-05-07T04:23:42Z</time>
      </trkpt>
      <trkpt lat="45.53044" lon="6.93247">
        <ele>2050.63</ele>
        <time>2013-05-07T04:23:54Z</time>
      </trkpt>
      <trkpt lat="45.53038" lon="6.93253">
        <ele>2052.07</ele>
        <time>2013-05-07T04:24:06Z</time>
      </trkpt>
      <trkpt lat="45.53038" lon="6.93254">
        <ele>2052.07</ele>
        <time>2013-05-07T04:24:10Z</time>
      </trkpt>
      <trkpt lat="45.53036" lon="6.93258">
        <ele>2053.03</ele>
        <time>2013-05-07T04:24:14Z</time>
      </trkpt>
      <trkpt lat="45.53038" lon="6.93261">
        <ele>2053.99</ele>
        <time>2013-05-07T04:24:26Z</time>
      </trkpt>
      <trkpt lat="45.53045" lon="6.93258">
        <ele>2055.92</ele>
        <time>2013-05-07T04:24:40Z</time>
      </trkpt>
      <trkpt lat="45.53046" lon="6.93259">
        <ele>2055.92</ele>
        <time>2013-05-07T04:24:41Z</time>
      </trkpt>
      <trkpt lat="45.53053" lon="6.93258">
        <ele>2057.84</ele>
        <time>2013-05-07T04:24:53Z</time>
      </trkpt>
      <trkpt lat="45.53056" lon="6.93255">
        <ele>2059.76</ele>
        <time>2013-05-07T04:25:02Z</time>
      </trkpt>
      <trkpt lat="45.53063" lon="6.93251">
        <ele>2062.65</ele>
        <time>2013-05-07T04:25:16Z</time>
      </trkpt>
      <trkpt lat="45.53068" lon="6.9325">
        <ele>2064.57</ele>
        <time>2013-05-07T04:25:29Z</time>
      </trkpt>
      <trkpt lat="45.53072" lon="6.93247">
        <ele>2065.53</ele>
        <time>2013-05-07T04:25:43Z</time>
      </trkpt>
      <trkpt lat="45.53076" lon="6.93247">
        <ele>2067.93</ele>
        <time>2013-05-07T04:25:55Z</time>
      </trkpt>
      <trkpt lat="45.53074" lon="6.93253">
        <ele>2069.38</ele>
        <time>2013-05-07T04:26:07Z</time>
      </trkpt>
      <trkpt lat="45.53079" lon="6.93253">
        <ele>2070.82</ele>
        <time>2013-05-07T04:26:18Z</time>
      </trkpt>
      <trkpt lat="45.53078" lon="6.93254">
        <ele>2071.78</ele>
        <time>2013-05-07T04:26:23Z</time>
      </trkpt>
      <trkpt lat="45.53069" lon="6.93269">
        <ele>2073.7</ele>
        <time>2013-05-07T04:26:38Z</time>
      </trkpt>
      <trkpt lat="45.53063" lon="6.93284">
        <ele>2075.62</ele>
        <time>2013-05-07T04:26:52Z</time>
      </trkpt>
      <trkpt lat="45.53058" lon="6.93293">
        <ele>2077.07</ele>
        <time>2013-05-07T04:27:00Z</time>
      </trkpt>
      <trkpt lat="45.53056" lon="6.93294">
        <ele>2077.07</ele>
        <time>2013-05-07T04:27:02Z</time>
      </trkpt>
      <trkpt lat="45.53046" lon="6.93309">
        <ele>2079.47</ele>
        <time>2013-05-07T04:27:17Z</time>
      </trkpt>
      <trkpt lat="45.53039" lon="6.93318">
        <ele>2081.87</ele>
        <time>2013-05-07T04:27:30Z</time>
      </trkpt>
      <trkpt lat="45.53034" lon="6.93324">
        <ele>2083.31</ele>
        <time>2013-05-07T04:27:38Z</time>
      </trkpt>
      <trkpt lat="45.53031" lon="6.93331">
        <ele>2083.79</ele>
        <time>2013-05-07T04:27:45Z</time>
      </trkpt>
      <trkpt lat="45.53027" lon="6.93339">
        <ele>2085.24</ele>
        <time>2013-05-07T04:27:54Z</time>
      </trkpt>
      <trkpt lat="45.53011" lon="6.93353">
        <ele>2086.2</ele>
        <time>2013-05-07T04:28:10Z</time>
      </trkpt>
      <trkpt lat="45.53002" lon="6.93364">
        <ele>2089.08</ele>
        <time>2013-05-07T04:28:24Z</time>
      </trkpt>
      <trkpt lat="45.52994" lon="6.93371">
        <ele>2090.52</ele>
        <time>2013-05-07T04:28:34Z</time>
      </trkpt>
      <trkpt lat="45.52986" lon="6.9338">
        <ele>2091.97</ele>
        <time>2013-05-07T04:28:46Z</time>
      </trkpt>
      <trkpt lat="45.52981" lon="6.93385">
        <ele>2092.45</ele>
        <time>2013-05-07T04:28:53Z</time>
      </trkpt>
      <trkpt lat="45.52973" lon="6.93396">
        <ele>2094.37</ele>
        <time>2013-05-07T04:29:06Z</time>
      </trkpt>
      <trkpt lat="45.52968" lon="6.934">
        <ele>2095.81</ele>
        <time>2013-05-07T04:29:17Z</time>
      </trkpt>
      <trkpt lat="45.52962" lon="6.93408">
        <ele>2097.25</ele>
        <time>2013-05-07T04:29:28Z</time>
      </trkpt>
      <trkpt lat="45.52955" lon="6.93416">
        <ele>2099.18</ele>
        <time>2013-05-07T04:29:42Z</time>
      </trkpt>
      <trkpt lat="45.52952" lon="6.93418">
        <ele>2099.66</ele>
        <time>2013-05-07T04:29:47Z</time>
      </trkpt>
      <trkpt lat="45.52949" lon="6.93426">
        <ele>2101.58</ele>
        <time>2013-05-07T04:30:00Z</time>
      </trkpt>
      <trkpt lat="45.52942" lon="6.93435">
        <ele>2103.02</ele>
        <time>2013-05-07T04:30:13Z</time>
      </trkpt>
      <trkpt lat="45.52932" lon="6.9344">
        <ele>2104.46</ele>
        <time>2013-05-07T04:30:26Z</time>
      </trkpt>
      <trkpt lat="45.52926" lon="6.93446">
        <ele>2105.91</ele>
        <time>2013-05-07T04:30:33Z</time>
      </trkpt>
      <trkpt lat="45.52923" lon="6.93451">
        <ele>2105.91</ele>
        <time>2013-05-07T04:30:39Z</time>
      </trkpt>
      <trkpt lat="45.5292" lon="6.93455">
        <ele>2106.87</ele>
        <time>2013-05-07T04:30:44Z</time>
      </trkpt>
      <trkpt lat="45.5291" lon="6.93465">
        <ele>2108.79</ele>
        <time>2013-05-07T04:30:57Z</time>
      </trkpt>
      <trkpt lat="45.52909" lon="6.93467">
        <ele>2109.75</ele>
        <time>2013-05-07T04:31:00Z</time>
      </trkpt>
      <trkpt lat="45.52907" lon="6.93468">
        <ele>2109.27</ele>
        <time>2013-05-07T04:31:03Z</time>
      </trkpt>
      <trkpt lat="45.52901" lon="6.93474">
        <ele>2110.23</ele>
        <time>2013-05-07T04:31:11Z</time>
      </trkpt>
      <trkpt lat="45.52892" lon="6.93481">
        <ele>2112.63</ele>
        <time>2013-05-07T04:31:24Z</time>
      </trkpt>
      <trkpt lat="45.52888" lon="6.93489">
        <ele>2113.12</ele>
        <time>2013-05-07T04:31:32Z</time>
      </trkpt>
      <trkpt lat="45.52887" lon="6.93492">
        <ele>2114.08</ele>
        <time>2013-05-07T04:31:35Z</time>
      </trkpt>
      <trkpt lat="45.52883" lon="6.93499">
        <ele>2114.56</ele>
        <time>2013-05-07T04:31:41Z</time>
      </trkpt>
      <trkpt lat="45.52881" lon="6.93501">
        <ele>2115.52</ele>
        <time>2013-05-07T04:31:44Z</time>
      </trkpt>
      <trkpt lat="45.5287" lon="6.93518">
        <ele>2116.96</ele>
        <time>2013-05-07T04:31:58Z</time>
      </trkpt>
      <trkpt lat="45.52864" lon="6.93529">
        <ele>2118.4</ele>
        <time>2013-05-07T04:32:10Z</time>
      </trkpt>
      <trkpt lat="45.52848" lon="6.93537">
        <ele>2117.92</ele>
        <time>2013-05-07T04:32:25Z</time>
      </trkpt>
      <trkpt lat="45.52838" lon="6.93547">
        <ele>2117.44</ele>
        <time>2013-05-07T04:32:38Z</time>
      </trkpt>
      <trkpt lat="45.52828" lon="6.93557">
        <ele>2118.4</ele>
        <time>2013-05-07T04:32:51Z</time>
      </trkpt>
      <trkpt lat="45.52819" lon="6.93569">
        <ele>2117.44</ele>
        <time>2013-05-07T04:33:03Z</time>
      </trkpt>
      <trkpt lat="45.52804" lon="6.93589">
        <ele>2117.44</ele>
        <time>2013-05-07T04:33:18Z</time>
      </trkpt>
      <trkpt lat="45.52789" lon="6.93605">
        <ele>2117.44</ele>
        <time>2013-05-07T04:33:32Z</time>
      </trkpt>
      <trkpt lat="45.52788" lon="6.93606">
        <ele>2118.4</ele>
        <time>2013-05-07T04:33:33Z</time>
      </trkpt>
      <trkpt lat="45.52784" lon="6.93623">
        <ele>2119.84</ele>
        <time>2013-05-07T04:33:48Z</time>
      </trkpt>
      <trkpt lat="45.52781" lon="6.93638">
        <ele>2121.29</ele>
        <time>2013-05-07T04:34:03Z</time>
      </trkpt>
      <trkpt lat="45.52779" lon="6.93645">
        <ele>2123.21</ele>
        <time>2013-05-07T04:34:11Z</time>
      </trkpt>
      <trkpt lat="45.52777" lon="6.93662">
        <ele>2125.13</ele>
        <time>2013-05-07T04:34:26Z</time>
      </trkpt>
      <trkpt lat="45.52775" lon="6.93674">
        <ele>2126.57</ele>
        <time>2013-05-07T04:34:38Z</time>
      </trkpt>
      <trkpt lat="45.52773" lon="6.93691">
        <ele>2128.5</ele>
        <time>2013-05-07T04:34:52Z</time>
      </trkpt>
      <trkpt lat="45.52768" lon="6.93705">
        <ele>2130.42</ele>
        <time>2013-05-07T04:35:04Z</time>
      </trkpt>
      <trkpt lat="45.52765" lon="6.93719">
        <ele>2132.34</ele>
        <time>2013-05-07T04:35:16Z</time>
      </trkpt>
      <trkpt lat="45.5276" lon="6.93736">
        <ele>2134.26</ele>
        <time>2013-05-07T04:35:29Z</time>
      </trkpt>
      <trkpt lat="45.52757" lon="6.93752">
        <ele>2136.19</ele>
        <time>2013-05-07T04:35:41Z</time>
      </trkpt>
      <trkpt lat="45.52752" lon="6.9377">
        <ele>2138.59</ele>
        <time>2013-05-07T04:35:56Z</time>
      </trkpt>
      <trkpt lat="45.52746" lon="6.93775">
        <ele>2140.03</ele>
        <time>2013-05-07T04:36:07Z</time>
      </trkpt>
      <trkpt lat="45.52747" lon="6.93777">
        <ele>2140.03</ele>
        <time>2013-05-07T04:36:12Z</time>
      </trkpt>
      <trkpt lat="45.52748" lon="6.93788">
        <ele>2140.03</ele>
        <time>2013-05-07T04:36:19Z</time>
      </trkpt>
      <trkpt lat="45.52749" lon="6.93796">
        <ele>2140.99</ele>
        <time>2013-05-07T04:36:24Z</time>
      </trkpt>
      <trkpt lat="45.52748" lon="6.93799">
        <ele>2141.47</ele>
        <time>2013-05-07T04:36:26Z</time>
      </trkpt>
      <trkpt lat="45.52749" lon="6.93814">
        <ele>2142.44</ele>
        <time>2013-05-07T04:36:40Z</time>
      </trkpt>
      <trkpt lat="45.52752" lon="6.93825">
        <ele>2143.88</ele>
        <time>2013-05-07T04:36:55Z</time>
      </trkpt>
      <trkpt lat="45.52752" lon="6.9384">
        <ele>2146.28</ele>
        <time>2013-05-07T04:37:09Z</time>
      </trkpt>
      <trkpt lat="45.52753" lon="6.93845">
        <ele>2147.24</ele>
        <time>2013-05-07T04:37:13Z</time>
      </trkpt>
      <trkpt lat="45.52752" lon="6.93853">
        <ele>2148.2</ele>
        <time>2013-05-07T04:37:19Z</time>
      </trkpt>
      <trkpt lat="45.52751" lon="6.9386">
        <ele>2148.68</ele>
        <time>2013-05-07T04:37:24Z</time>
      </trkpt>
      <trkpt lat="45.52751" lon="6.93873">
        <ele>2150.13</ele>
        <time>2013-05-07T04:37:39Z</time>
      </trkpt>
      <trkpt lat="45.52751" lon="6.93894">
        <ele>2151.09</ele>
        <time>2013-05-07T04:37:52Z</time>
      </trkpt>
      <trkpt lat="45.52749" lon="6.93897">
        <ele>2152.05</ele>
        <time>2013-05-07T04:37:55Z</time>
      </trkpt>
      <trkpt lat="45.5274" lon="6.93912">
        <ele>2153.97</ele>
        <time>2013-05-07T04:38:10Z</time>
      </trkpt>
      <trkpt lat="45.52739" lon="6.93914">
        <ele>2154.45</ele>
        <time>2013-05-07T04:38:12Z</time>
      </trkpt>
      <trkpt lat="45.52735" lon="6.93918">
        <ele>2155.41</ele>
        <time>2013-05-07T04:38:17Z</time>
      </trkpt>
      <trkpt lat="45.52733" lon="6.9392">
        <ele>2155.41</ele>
        <time>2013-05-07T04:38:19Z</time>
      </trkpt>
      <trkpt lat="45.52729" lon="6.93929">
        <ele>2156.37</ele>
        <time>2013-05-07T04:38:31Z</time>
      </trkpt>
      <trkpt lat="45.52725" lon="6.93932">
        <ele>2155.41</ele>
        <time>2013-05-07T04:38:44Z</time>
      </trkpt>
      <trkpt lat="45.52724" lon="6.93932">
        <ele>2155.41</ele>
        <time>2013-05-07T04:38:45Z</time>
      </trkpt>
      <trkpt lat="45.52721" lon="6.93933">
        <ele>2153.97</ele>
        <time>2013-05-07T04:38:49Z</time>
      </trkpt>
      <trkpt lat="45.52717" lon="6.93938">
        <ele>2155.41</ele>
        <time>2013-05-07T04:38:54Z</time>
      </trkpt>
      <trkpt lat="45.52708" lon="6.93947">
        <ele>2156.86</ele>
        <time>2013-05-07T04:39:05Z</time>
      </trkpt>
      <trkpt lat="45.52701" lon="6.93955">
        <ele>2156.86</ele>
        <time>2013-05-07T04:39:12Z</time>
      </trkpt>
      <trkpt lat="45.52696" lon="6.93976">
        <ele>2157.34</ele>
        <time>2013-05-07T04:39:26Z</time>
      </trkpt>
      <trkpt lat="45.52692" lon="6.93982">
        <ele>2157.34</ele>
        <time>2013-05-07T04:39:37Z</time>
      </trkpt>
      <trkpt lat="45.52691" lon="6.9399">
        <ele>2157.82</ele>
        <time>2013-05-07T04:39:48Z</time>
      </trkpt>
      <trkpt lat="45.52692" lon="6.94">
        <ele>2159.26</ele>
        <time>2013-05-07T04:39:59Z</time>
      </trkpt>
      <trkpt lat="45.52689" lon="6.94013">
        <ele>2160.7</ele>
        <time>2013-05-07T04:40:12Z</time>
      </trkpt>
      <trkpt lat="45.52688" lon="6.94025">
        <ele>2162.14</ele>
        <time>2013-05-07T04:40:25Z</time>
      </trkpt>
      <trkpt lat="45.52682" lon="6.94038">
        <ele>2164.06</ele>
        <time>2013-05-07T04:40:37Z</time>
      </trkpt>
      <trkpt lat="45.52679" lon="6.94052">
        <ele>2165.51</ele>
        <time>2013-05-07T04:40:51Z</time>
      </trkpt>
      <trkpt lat="45.52679" lon="6.94061">
        <ele>2165.99</ele>
        <time>2013-05-07T04:40:59Z</time>
      </trkpt>
      <trkpt lat="45.52676" lon="6.94073">
        <ele>2166.47</ele>
        <time>2013-05-07T04:41:11Z</time>
      </trkpt>
      <trkpt lat="45.52677" lon="6.94076">
        <ele>2166.47</ele>
        <time>2013-05-07T04:41:13Z</time>
      </trkpt>
      <trkpt lat="45.52676" lon="6.94079">
        <ele>2167.43</ele>
        <time>2013-05-07T04:41:17Z</time>
      </trkpt>
      <trkpt lat="45.52675" lon="6.94096">
        <ele>2169.83</ele>
        <time>2013-05-07T04:41:32Z</time>
      </trkpt>
      <trkpt lat="45.52675" lon="6.94097">
        <ele>2169.83</ele>
        <time>2013-05-07T04:41:33Z</time>
      </trkpt>
      <trkpt lat="45.52673" lon="6.94106">
        <ele>2170.31</ele>
        <time>2013-05-07T04:41:39Z</time>
      </trkpt>
      <trkpt lat="45.52672" lon="6.94111">
        <ele>2170.79</ele>
        <time>2013-05-07T04:41:44Z</time>
      </trkpt>
      <trkpt lat="45.5267" lon="6.94129">
        <ele>2172.72</ele>
        <time>2013-05-07T04:41:57Z</time>
      </trkpt>
      <trkpt lat="45.5267" lon="6.94145">
        <ele>2173.2</ele>
        <time>2013-05-07T04:42:09Z</time>
      </trkpt>
      <trkpt lat="45.5267" lon="6.94155">
        <ele>2173.2</ele>
        <time>2013-05-07T04:42:17Z</time>
      </trkpt>
      <trkpt lat="45.52666" lon="6.94163">
        <ele>2173.2</ele>
        <time>2013-05-07T04:42:24Z</time>
      </trkpt>
      <trkpt lat="45.52664" lon="6.94165">
        <ele>2173.2</ele>
        <time>2013-05-07T04:42:26Z</time>
      </trkpt>
      <trkpt lat="45.52663" lon="6.94172">
        <ele>2174.64</ele>
        <time>2013-05-07T04:42:32Z</time>
      </trkpt>
      <trkpt lat="45.5266" lon="6.94178">
        <ele>2175.6</ele>
        <time>2013-05-07T04:42:38Z</time>
      </trkpt>
      <trkpt lat="45.52661" lon="6.94182">
        <ele>2175.6</ele>
        <time>2013-05-07T04:42:43Z</time>
      </trkpt>
      <trkpt lat="45.52658" lon="6.94188">
        <ele>2176.56</ele>
        <time>2013-05-07T04:42:50Z</time>
      </trkpt>
      <trkpt lat="45.52657" lon="6.94191">
        <ele>2177.04</ele>
        <time>2013-05-07T04:42:53Z</time>
      </trkpt>
      <trkpt lat="45.52659" lon="6.94202">
        <ele>2178.97</ele>
        <time>2013-05-07T04:43:06Z</time>
      </trkpt>
      <trkpt lat="45.52661" lon="6.94217">
        <ele>2181.37</ele>
        <time>2013-05-07T04:43:17Z</time>
      </trkpt>
      <trkpt lat="45.52662" lon="6.94218">
        <ele>2181.37</ele>
        <time>2013-05-07T04:43:18Z</time>
      </trkpt>
      <trkpt lat="45.52661" lon="6.9422">
        <ele>2181.37</ele>
        <time>2013-05-07T04:43:21Z</time>
      </trkpt>
      <trkpt lat="45.5266" lon="6.94234">
        <ele>2182.81</ele>
        <time>2013-05-07T04:43:32Z</time>
      </trkpt>
      <trkpt lat="45.5266" lon="6.94236">
        <ele>2183.29</ele>
        <time>2013-05-07T04:43:33Z</time>
      </trkpt>
      <trkpt lat="45.52659" lon="6.9424">
        <ele>2183.29</ele>
        <time>2013-05-07T04:43:36Z</time>
      </trkpt>
      <trkpt lat="45.5266" lon="6.94257">
        <ele>2185.69</ele>
        <time>2013-05-07T04:43:50Z</time>
      </trkpt>
      <trkpt lat="45.5266" lon="6.94257">
        <ele>2185.69</ele>
        <time>2013-05-07T04:43:51Z</time>
      </trkpt>
      <trkpt lat="45.52659" lon="6.94259">
        <ele>2186.18</ele>
        <time>2013-05-07T04:43:54Z</time>
      </trkpt>
      <trkpt lat="45.52658" lon="6.94262">
        <ele>2187.14</ele>
        <time>2013-05-07T04:43:57Z</time>
      </trkpt>
      <trkpt lat="45.52658" lon="6.94266">
        <ele>2187.62</ele>
        <time>2013-05-07T04:44:00Z</time>
      </trkpt>
      <trkpt lat="45.52656" lon="6.94278">
        <ele>2188.1</ele>
        <time>2013-05-07T04:44:11Z</time>
      </trkpt>
      <trkpt lat="45.52656" lon="6.94287">
        <ele>2189.54</ele>
        <time>2013-05-07T04:44:22Z</time>
      </trkpt>
      <trkpt lat="45.52652" lon="6.94296">
        <ele>2190.98</ele>
        <time>2013-05-07T04:44:32Z</time>
      </trkpt>
      <trkpt lat="45.5265" lon="6.94303">
        <ele>2191.94</ele>
        <time>2013-05-07T04:44:43Z</time>
      </trkpt>
      <trkpt lat="45.52654" lon="6.94304">
        <ele>2193.39</ele>
        <time>2013-05-07T04:44:49Z</time>
      </trkpt>
      <trkpt lat="45.52661" lon="6.94314">
        <ele>2194.83</ele>
        <time>2013-05-07T04:45:02Z</time>
      </trkpt>
      <trkpt lat="45.52667" lon="6.94324">
        <ele>2197.71</ele>
        <time>2013-05-07T04:45:15Z</time>
      </trkpt>
      <trkpt lat="45.52667" lon="6.94333">
        <ele>2199.15</ele>
        <time>2013-05-07T04:45:29Z</time>
      </trkpt>
      <trkpt lat="45.52666" lon="6.94333">
        <ele>2199.15</ele>
        <time>2013-05-07T04:45:32Z</time>
      </trkpt>
      <trkpt lat="45.52665" lon="6.94345">
        <ele>2200.11</ele>
        <time>2013-05-07T04:45:44Z</time>
      </trkpt>
      <trkpt lat="45.52658" lon="6.94356">
        <ele>2201.56</ele>
        <time>2013-05-07T04:45:55Z</time>
      </trkpt>
      <trkpt lat="45.52657" lon="6.9436">
        <ele>2201.56</ele>
        <time>2013-05-07T04:45:58Z</time>
      </trkpt>
      <trkpt lat="45.52648" lon="6.9437">
        <ele>2201.56</ele>
        <time>2013-05-07T04:46:09Z</time>
      </trkpt>
      <trkpt lat="45.52639" lon="6.94376">
        <ele>2203.96</ele>
        <time>2013-05-07T04:46:22Z</time>
      </trkpt>
      <trkpt lat="45.52637" lon="6.94385">
        <ele>2205.88</ele>
        <time>2013-05-07T04:46:34Z</time>
      </trkpt>
      <trkpt lat="45.52637" lon="6.94387">
        <ele>2206.36</ele>
        <time>2013-05-07T04:46:37Z</time>
      </trkpt>
      <trkpt lat="45.52635" lon="6.94392">
        <ele>2206.84</ele>
        <time>2013-05-07T04:46:43Z</time>
      </trkpt>
      <trkpt lat="45.52631" lon="6.94403">
        <ele>2207.81</ele>
        <time>2013-05-07T04:46:54Z</time>
      </trkpt>
      <trkpt lat="45.52626" lon="6.94415">
        <ele>2210.21</ele>
        <time>2013-05-07T04:47:07Z</time>
      </trkpt>
      <trkpt lat="45.52623" lon="6.94425">
        <ele>2212.61</ele>
        <time>2013-05-07T04:47:20Z</time>
      </trkpt>
      <trkpt lat="45.52618" lon="6.94434">
        <ele>2215.5</ele>
        <time>2013-05-07T04:47:35Z</time>
      </trkpt>
      <trkpt lat="45.52614" lon="6.94439">
        <ele>2217.42</ele>
        <time>2013-05-07T04:47:46Z</time>
      </trkpt>
      <trkpt lat="45.52613" lon="6.94449">
        <ele>2218.86</ele>
        <time>2013-05-07T04:47:59Z</time>
      </trkpt>
      <trkpt lat="45.52612" lon="6.9446">
        <ele>2221.26</ele>
        <time>2013-05-07T04:48:11Z</time>
      </trkpt>
      <trkpt lat="45.52611" lon="6.94469">
        <ele>2223.19</ele>
        <time>2013-05-07T04:48:23Z</time>
      </trkpt>
      <trkpt lat="45.52607" lon="6.9448">
        <ele>2225.11</ele>
        <time>2013-05-07T04:48:36Z</time>
      </trkpt>
      <trkpt lat="45.52602" lon="6.94494">
        <ele>2227.51</ele>
        <time>2013-05-07T04:48:48Z</time>
      </trkpt>
      <trkpt lat="45.52596" lon="6.94506">
        <ele>2228.47</ele>
        <time>2013-05-07T04:49:00Z</time>
      </trkpt>
      <trkpt lat="45.52595" lon="6.94508">
        <ele>2228.95</ele>
        <time>2013-05-07T04:49:02Z</time>
      </trkpt>
      <trkpt lat="45.52594" lon="6.94518">
        <ele>2229.92</ele>
        <time>2013-05-07T04:49:16Z</time>
      </trkpt>
      <trkpt lat="45.52594" lon="6.94527">
        <ele>2230.4</ele>
        <time>2013-05-07T04:49:27Z</time>
      </trkpt>
      <trkpt lat="45.52592" lon="6.94535">
        <ele>2230.88</ele>
        <time>2013-05-07T04:49:39Z</time>
      </trkpt>
      <trkpt lat="45.52591" lon="6.94536">
        <ele>2231.84</ele>
        <time>2013-05-07T04:49:55Z</time>
      </trkpt>
      <trkpt lat="45.5259" lon="6.94544">
        <ele>2232.8</ele>
        <time>2013-05-07T04:50:08Z</time>
      </trkpt>
      <trkpt lat="45.5259" lon="6.94558">
        <ele>2234.24</ele>
        <time>2013-05-07T04:50:22Z</time>
      </trkpt>
      <trkpt lat="45.5259" lon="6.94565">
        <ele>2235.68</ele>
        <time>2013-05-07T04:50:34Z</time>
      </trkpt>
      <trkpt lat="45.52589" lon="6.94569">
        <ele>2236.16</ele>
        <time>2013-05-07T04:50:45Z</time>
      </trkpt>
      <trkpt lat="45.52589" lon="6.94572">
        <ele>2236.16</ele>
        <time>2013-05-07T04:50:58Z</time>
      </trkpt>
      <trkpt lat="45.52586" lon="6.94579">
        <ele>2236.64</ele>
        <time>2013-05-07T04:51:10Z</time>
      </trkpt>
      <trkpt lat="45.52577" lon="6.9458">
        <ele>2237.13</ele>
        <time>2013-05-07T04:51:23Z</time>
      </trkpt>
      <trkpt lat="45.52575" lon="6.9458">
        <ele>2237.13</ele>
        <time>2013-05-07T04:51:25Z</time>
      </trkpt>
      <trkpt lat="45.52567" lon="6.94587">
        <ele>2237.61</ele>
        <time>2013-05-07T04:51:37Z</time>
      </trkpt>
      <trkpt lat="45.52563" lon="6.94605">
        <ele>2240.01</ele>
        <time>2013-05-07T04:51:51Z</time>
      </trkpt>
      <trkpt lat="45.52564" lon="6.94605">
        <ele>2240.01</ele>
        <time>2013-05-07T04:51:53Z</time>
      </trkpt>
      <trkpt lat="45.52565" lon="6.94613">
        <ele>2240.01</ele>
        <time>2013-05-07T04:52:06Z</time>
      </trkpt>
      <trkpt lat="45.52565" lon="6.94619">
        <ele>2240.49</ele>
        <time>2013-05-07T04:52:16Z</time>
      </trkpt>
      <trkpt lat="45.52565" lon="6.94631">
        <ele>2240.97</ele>
        <time>2013-05-07T04:52:27Z</time>
      </trkpt>
      <trkpt lat="45.52567" lon="6.94643">
        <ele>2242.41</ele>
        <time>2013-05-07T04:52:41Z</time>
      </trkpt>
      <trkpt lat="45.5257" lon="6.9465">
        <ele>2243.37</ele>
        <time>2013-05-07T04:52:54Z</time>
      </trkpt>
      <trkpt lat="45.5257" lon="6.94666">
        <ele>2245.78</ele>
        <time>2013-05-07T04:53:05Z</time>
      </trkpt>
      <trkpt lat="45.52568" lon="6.94674">
        <ele>2246.74</ele>
        <time>2013-05-07T04:53:12Z</time>
      </trkpt>
      <trkpt lat="45.52565" lon="6.94684">
        <ele>2248.66</ele>
        <time>2013-05-07T04:53:28Z</time>
      </trkpt>
      <trkpt lat="45.52565" lon="6.94681">
        <ele>2249.14</ele>
        <time>2013-05-07T04:53:47Z</time>
      </trkpt>
      <trkpt lat="45.52567" lon="6.9468">
        <ele>2249.14</ele>
        <time>2013-05-07T04:53:51Z</time>
      </trkpt>
      <trkpt lat="45.52575" lon="6.94675">
        <ele>2249.62</ele>
        <time>2013-05-07T04:53:59Z</time>
      </trkpt>
      <trkpt lat="45.52577" lon="6.94676">
        <ele>2250.1</ele>
        <time>2013-05-07T04:54:01Z</time>
      </trkpt>
      <trkpt lat="45.52582" lon="6.94682">
        <ele>2251.54</ele>
        <time>2013-05-07T04:54:13Z</time>
      </trkpt>
      <trkpt lat="45.52584" lon="6.94687">
        <ele>2253.47</ele>
        <time>2013-05-07T04:54:25Z</time>
      </trkpt>
      <trkpt lat="45.52587" lon="6.94695">
        <ele>2255.87</ele>
        <time>2013-05-07T04:54:38Z</time>
      </trkpt>
      <trkpt lat="45.52588" lon="6.94699">
        <ele>2256.83</ele>
        <time>2013-05-07T04:54:42Z</time>
      </trkpt>
      <trkpt lat="45.52592" lon="6.94708">
        <ele>2258.75</ele>
        <time>2013-05-07T04:54:55Z</time>
      </trkpt>
      <trkpt lat="45.52594" lon="6.94722">
        <ele>2260.68</ele>
        <time>2013-05-07T04:55:10Z</time>
      </trkpt>
      <trkpt lat="45.52594" lon="6.94729">
        <ele>2262.12</ele>
        <time>2013-05-07T04:55:23Z</time>
      </trkpt>
      <trkpt lat="45.52594" lon="6.94737">
        <ele>2265</ele>
        <time>2013-05-07T04:55:35Z</time>
      </trkpt>
      <trkpt lat="45.52597" lon="6.94743">
        <ele>2266.45</ele>
        <time>2013-05-07T04:55:47Z</time>
      </trkpt>
      <trkpt lat="45.52599" lon="6.94749">
        <ele>2267.89</ele>
        <time>2013-05-07T04:55:57Z</time>
      </trkpt>
      <trkpt lat="45.52594" lon="6.94759">
        <ele>2268.85</ele>
        <time>2013-05-07T04:56:09Z</time>
      </trkpt>
      <trkpt lat="45.52585" lon="6.94768">
        <ele>2271.25</ele>
        <time>2013-05-07T04:56:22Z</time>
      </trkpt>
      <trkpt lat="45.52581" lon="6.94775">
        <ele>2272.69</ele>
        <time>2013-05-07T04:56:27Z</time>
      </trkpt>
      <trkpt lat="45.52574" lon="6.94793">
        <ele>2272.69</ele>
        <time>2013-05-07T04:56:42Z</time>
      </trkpt>
      <trkpt lat="45.5257" lon="6.94806">
        <ele>2274.14</ele>
        <time>2013-05-07T04:56:54Z</time>
      </trkpt>
      <trkpt lat="45.52569" lon="6.94818">
        <ele>2275.1</ele>
        <time>2013-05-07T04:57:07Z</time>
      </trkpt>
      <trkpt lat="45.52567" lon="6.94829">
        <ele>2275.1</ele>
        <time>2013-05-07T04:57:20Z</time>
      </trkpt>
      <trkpt lat="45.52566" lon="6.94832">
        <ele>2275.1</ele>
        <time>2013-05-07T04:57:23Z</time>
      </trkpt>
      <trkpt lat="45.52564" lon="6.94836">
        <ele>2274.62</ele>
        <time>2013-05-07T04:57:27Z</time>
      </trkpt>
      <trkpt lat="45.5256" lon="6.9485">
        <ele>2275.1</ele>
        <time>2013-05-07T04:57:40Z</time>
      </trkpt>
      <trkpt lat="45.52559" lon="6.94857">
        <ele>2276.54</ele>
        <time>2013-05-07T04:57:49Z</time>
      </trkpt>
      <trkpt lat="45.52551" lon="6.94873">
        <ele>2277.5</ele>
        <time>2013-05-07T04:58:03Z</time>
      </trkpt>
      <trkpt lat="45.5255" lon="6.94884">
        <ele>2278.94</ele>
        <time>2013-05-07T04:58:12Z</time>
      </trkpt>
      <trkpt lat="45.5255" lon="6.94896">
        <ele>2279.9</ele>
        <time>2013-05-07T04:58:25Z</time>
      </trkpt>
      <trkpt lat="45.52551" lon="6.94901">
        <ele>2280.87</ele>
        <time>2013-05-07T04:58:37Z</time>
      </trkpt>
      <trkpt lat="45.52548" lon="6.94908">
        <ele>2279.42</ele>
        <time>2013-05-07T04:58:47Z</time>
      </trkpt>
      <trkpt lat="45.52547" lon="6.94913">
        <ele>2278.94</ele>
        <time>2013-05-07T04:58:54Z</time>
      </trkpt>
      <trkpt lat="45.52544" lon="6.94919">
        <ele>2280.38</ele>
        <time>2013-05-07T04:58:59Z</time>
      </trkpt>
      <trkpt lat="45.52543" lon="6.94921">
        <ele>2280.38</ele>
        <time>2013-05-07T04:59:00Z</time>
      </trkpt>
      <trkpt lat="45.52536" lon="6.94937">
        <ele>2281.83</ele>
        <time>2013-05-07T04:59:14Z</time>
      </trkpt>
      <trkpt lat="45.52532" lon="6.94951">
        <ele>2282.79</ele>
        <time>2013-05-07T04:59:27Z</time>
      </trkpt>
      <trkpt lat="45.5253" lon="6.94956">
        <ele>2283.27</ele>
        <time>2013-05-07T04:59:30Z</time>
      </trkpt>
      <trkpt lat="45.52527" lon="6.94962">
        <ele>2283.27</ele>
        <time>2013-05-07T04:59:34Z</time>
      </trkpt>
      <trkpt lat="45.52526" lon="6.94967">
        <ele>2283.27</ele>
        <time>2013-05-07T04:59:37Z</time>
      </trkpt>
      <trkpt lat="45.52522" lon="6.94985">
        <ele>2286.15</ele>
        <time>2013-05-07T04:59:51Z</time>
      </trkpt>
      <trkpt lat="45.52516" lon="6.94999">
        <ele>2287.11</ele>
        <time>2013-05-07T05:00:03Z</time>
      </trkpt>
      <trkpt lat="45.52509" lon="6.95016">
        <ele>2289.52</ele>
        <time>2013-05-07T05:00:17Z</time>
      </trkpt>
      <trkpt lat="45.52502" lon="6.95024">
        <ele>2291.92</ele>
        <time>2013-05-07T05:00:30Z</time>
      </trkpt>
      <trkpt lat="45.52495" lon="6.95035">
        <ele>2294.32</ele>
        <time>2013-05-07T05:00:45Z</time>
      </trkpt>
      <trkpt lat="45.52492" lon="6.95045">
        <ele>2295.77</ele>
        <time>2013-05-07T05:00:58Z</time>
      </trkpt>
      <trkpt lat="45.52489" lon="6.95054">
        <ele>2298.65</ele>
        <time>2013-05-07T05:01:09Z</time>
      </trkpt>
      <trkpt lat="45.52486" lon="6.95067">
        <ele>2299.61</ele>
        <time>2013-05-07T05:01:22Z</time>
      </trkpt>
      <trkpt lat="45.52483" lon="6.9508">
        <ele>2301.05</ele>
        <time>2013-05-07T05:01:34Z</time>
      </trkpt>
      <trkpt lat="45.52481" lon="6.95091">
        <ele>2303.94</ele>
        <time>2013-05-07T05:01:46Z</time>
      </trkpt>
      <trkpt lat="45.52479" lon="6.95104">
        <ele>2307.3</ele>
        <time>2013-05-07T05:02:00Z</time>
      </trkpt>
      <trkpt lat="45.5248" lon="6.95108">
        <ele>2307.78</ele>
        <time>2013-05-07T05:02:06Z</time>
      </trkpt>
      <trkpt lat="45.52478" lon="6.95112">
        <ele>2308.74</ele>
        <time>2013-05-07T05:02:09Z</time>
      </trkpt>
      <trkpt lat="45.52476" lon="6.95115">
        <ele>2309.22</ele>
        <time>2013-05-07T05:02:12Z</time>
      </trkpt>
      <trkpt lat="45.52471" lon="6.9513">
        <ele>2310.67</ele>
        <time>2013-05-07T05:02:26Z</time>
      </trkpt>
      <trkpt lat="45.52467" lon="6.95141">
        <ele>2312.59</ele>
        <time>2013-05-07T05:02:34Z</time>
      </trkpt>
      <trkpt lat="45.52463" lon="6.95158">
        <ele>2314.03</ele>
        <time>2013-05-07T05:02:48Z</time>
      </trkpt>
      <trkpt lat="45.52462" lon="6.95168">
        <ele>2314.99</ele>
        <time>2013-05-07T05:03:01Z</time>
      </trkpt>
      <trkpt lat="45.5246" lon="6.9517">
        <ele>2314.51</ele>
        <time>2013-05-07T05:03:05Z</time>
      </trkpt>
      <trkpt lat="45.52458" lon="6.95173">
        <ele>2314.99</ele>
        <time>2013-05-07T05:03:09Z</time>
      </trkpt>
      <trkpt lat="45.52452" lon="6.95179">
        <ele>2313.55</ele>
        <time>2013-05-07T05:03:15Z</time>
      </trkpt>
      <trkpt lat="45.52444" lon="6.95178">
        <ele>2313.07</ele>
        <time>2013-05-07T05:03:28Z</time>
      </trkpt>
      <trkpt lat="45.52442" lon="6.95176">
        <ele>2312.11</ele>
        <time>2013-05-07T05:03:46Z</time>
      </trkpt>
      <trkpt lat="45.52442" lon="6.95178">
        <ele>2301.53</ele>
        <time>2013-05-07T05:04:01Z</time>
      </trkpt>
      <trkpt lat="45.52442" lon="6.95178">
        <ele>2312.11</ele>
        <time>2013-05-07T05:04:02Z</time>
      </trkpt>
      <trkpt lat="45.52442" lon="6.95178">
        <ele>2316.43</ele>
        <time>2013-05-07T05:04:03Z</time>
      </trkpt>
      <trkpt lat="45.52442" lon="6.95178">
        <ele>2314.99</ele>
        <time>2013-05-07T05:04:04Z</time>
      </trkpt>
      <trkpt lat="45.52442" lon="6.95177">
        <ele>2312.11</ele>
        <time>2013-05-07T05:04:12Z</time>
      </trkpt>
      <trkpt lat="45.52443" lon="6.95173">
        <ele>2312.11</ele>
        <time>2013-05-07T05:04:49Z</time>
      </trkpt>
      <trkpt lat="45.52441" lon="6.95176">
        <ele>2312.11</ele>
        <time>2013-05-07T05:05:25Z</time>
      </trkpt>
      <trkpt lat="45.52443" lon="6.95177">
        <ele>2311.63</ele>
        <time>2013-05-07T05:05:55Z</time>
      </trkpt>
      <trkpt lat="45.52443" lon="6.95176">
        <ele>2313.07</ele>
        <time>2013-05-07T05:05:58Z</time>
      </trkpt>
      <trkpt lat="45.52443" lon="6.95175">
        <ele>2311.63</ele>
        <time>2013-05-07T05:06:04Z</time>
      </trkpt>
      <trkpt lat="45.52443" lon="6.95175">
        <ele>2314.03</ele>
        <time>2013-05-07T05:06:06Z</time>
      </trkpt>
      <trkpt lat="45.52443" lon="6.95175">
        <ele>2312.59</ele>
        <time>2013-05-07T05:06:09Z</time>
      </trkpt>
      <trkpt lat="45.52444" lon="6.95174">
        <ele>2313.55</ele>
        <time>2013-05-07T05:06:22Z</time>
      </trkpt>
      <trkpt lat="45.52443" lon="6.95176">
        <ele>2313.55</ele>
        <time>2013-05-07T05:06:24Z</time>
      </trkpt>
      <trkpt lat="45.52442" lon="6.95172">
        <ele>2312.59</ele>
        <time>2013-05-07T05:06:40Z</time>
      </trkpt>
      <trkpt lat="45.52443" lon="6.95172">
        <ele>2312.59</ele>
        <time>2013-05-07T05:07:11Z</time>
      </trkpt>
      <trkpt lat="45.52443" lon="6.95173">
        <ele>2314.03</ele>
        <time>2013-05-07T05:07:19Z</time>
      </trkpt>
      <trkpt lat="45.52442" lon="6.95175">
        <ele>2314.99</ele>
        <time>2013-05-07T05:07:28Z</time>
      </trkpt>
      <trkpt lat="45.52442" lon="6.95174">
        <ele>2314.99</ele>
        <time>2013-05-07T05:07:46Z</time>
      </trkpt>
      <trkpt lat="45.52439" lon="6.95173">
        <ele>2314.99</ele>
        <time>2013-05-07T05:08:21Z</time>
      </trkpt>
      <trkpt lat="45.5244" lon="6.95173">
        <ele>2314.99</ele>
        <time>2013-05-07T05:08:43Z</time>
      </trkpt>
      <trkpt lat="45.52441" lon="6.95174">
        <ele>2314.99</ele>
        <time>2013-05-07T05:09:12Z</time>
      </trkpt>
      <trkpt lat="45.52441" lon="6.95174">
        <ele>2315.47</ele>
        <time>2013-05-07T05:09:38Z</time>
      </trkpt>
      <trkpt lat="45.52442" lon="6.95174">
        <ele>2315.47</ele>
        <time>2013-05-07T05:10:09Z</time>
      </trkpt>
      <trkpt lat="45.52442" lon="6.95176">
        <ele>2315.47</ele>
        <time>2013-05-07T05:10:11Z</time>
      </trkpt>
      <trkpt lat="45.52442" lon="6.95182">
        <ele>2315.47</ele>
        <time>2013-05-07T05:10:15Z</time>
      </trkpt>
      <trkpt lat="45.52442" lon="6.95186">
        <ele>2315.95</ele>
        <time>2013-05-07T05:10:19Z</time>
      </trkpt>
      <trkpt lat="45.52435" lon="6.95195">
        <ele>2318.84</ele>
        <time>2013-05-07T05:10:30Z</time>
      </trkpt>
      <trkpt lat="45.5243" lon="6.95195">
        <ele>2319.8</ele>
        <time>2013-05-07T05:10:37Z</time>
      </trkpt>
      <trkpt lat="45.52423" lon="6.95202">
        <ele>2321.24</ele>
        <time>2013-05-07T05:10:47Z</time>
      </trkpt>
      <trkpt lat="45.52419" lon="6.95207">
        <ele>2321.72</ele>
        <time>2013-05-07T05:10:59Z</time>
      </trkpt>
      <trkpt lat="45.52414" lon="6.95214">
        <ele>2322.68</ele>
        <time>2013-05-07T05:11:09Z</time>
      </trkpt>
      <trkpt lat="45.52412" lon="6.95218">
        <ele>2323.16</ele>
        <time>2013-05-07T05:11:14Z</time>
      </trkpt>
      <trkpt lat="45.52407" lon="6.95225">
        <ele>2324.12</ele>
        <time>2013-05-07T05:11:21Z</time>
      </trkpt>
      <trkpt lat="45.52403" lon="6.95232">
        <ele>2324.61</ele>
        <time>2013-05-07T05:11:33Z</time>
      </trkpt>
      <trkpt lat="45.524" lon="6.95238">
        <ele>2325.09</ele>
        <time>2013-05-07T05:11:38Z</time>
      </trkpt>
      <trkpt lat="45.52394" lon="6.95249">
        <ele>2328.45</ele>
        <time>2013-05-07T05:11:52Z</time>
      </trkpt>
      <trkpt lat="45.52387" lon="6.9526">
        <ele>2330.85</ele>
        <time>2013-05-07T05:12:04Z</time>
      </trkpt>
      <trkpt lat="45.52386" lon="6.95265">
        <ele>2332.3</ele>
        <time>2013-05-07T05:12:10Z</time>
      </trkpt>
      <trkpt lat="45.52383" lon="6.95274">
        <ele>2333.74</ele>
        <time>2013-05-07T05:12:16Z</time>
      </trkpt>
      <trkpt lat="45.5238" lon="6.95281">
        <ele>2335.66</ele>
        <time>2013-05-07T05:12:24Z</time>
      </trkpt>
      <trkpt lat="45.5238" lon="6.95286">
        <ele>2336.62</ele>
        <time>2013-05-07T05:12:30Z</time>
      </trkpt>
      <trkpt lat="45.52375" lon="6.95298">
        <ele>2339.02</ele>
        <time>2013-05-07T05:12:41Z</time>
      </trkpt>
      <trkpt lat="45.52375" lon="6.95305">
        <ele>2339.99</ele>
        <time>2013-05-07T05:12:47Z</time>
      </trkpt>
      <trkpt lat="45.52367" lon="6.95311">
        <ele>2341.91</ele>
        <time>2013-05-07T05:12:58Z</time>
      </trkpt>
      <trkpt lat="45.52358" lon="6.95313">
        <ele>2343.83</ele>
        <time>2013-05-07T05:13:11Z</time>
      </trkpt>
      <trkpt lat="45.52353" lon="6.95313">
        <ele>2345.27</ele>
        <time>2013-05-07T05:13:21Z</time>
      </trkpt>
      <trkpt lat="45.52352" lon="6.95316">
        <ele>2345.75</ele>
        <time>2013-05-07T05:13:25Z</time>
      </trkpt>
      <trkpt lat="45.52348" lon="6.95322">
        <ele>2346.72</ele>
        <time>2013-05-07T05:13:30Z</time>
      </trkpt>
      <trkpt lat="45.52345" lon="6.95335">
        <ele>2348.64</ele>
        <time>2013-05-07T05:13:42Z</time>
      </trkpt>
      <trkpt lat="45.52341" lon="6.95346">
        <ele>2351.04</ele>
        <time>2013-05-07T05:13:56Z</time>
      </trkpt>
      <trkpt lat="45.52339" lon="6.95357">
        <ele>2353.44</ele>
        <time>2013-05-07T05:14:08Z</time>
      </trkpt>
      <trkpt lat="45.52338" lon="6.95359">
        <ele>2353.93</ele>
        <time>2013-05-07T05:14:10Z</time>
      </trkpt>
      <trkpt lat="45.52336" lon="6.95362">
        <ele>2354.89</ele>
        <time>2013-05-07T05:14:19Z</time>
      </trkpt>
      <trkpt lat="45.52336" lon="6.95359">
        <ele>2354.89</ele>
        <time>2013-05-07T05:14:41Z</time>
      </trkpt>
      <trkpt lat="45.52336" lon="6.95361">
        <ele>2355.37</ele>
        <time>2013-05-07T05:14:56Z</time>
      </trkpt>
      <trkpt lat="45.52332" lon="6.95364">
        <ele>2356.81</ele>
        <time>2013-05-07T05:15:08Z</time>
      </trkpt>
      <trkpt lat="45.52328" lon="6.95369">
        <ele>2359.69</ele>
        <time>2013-05-07T05:15:20Z</time>
      </trkpt>
      <trkpt lat="45.52325" lon="6.95374">
        <ele>2362.58</ele>
        <time>2013-05-07T05:15:33Z</time>
      </trkpt>
      <trkpt lat="45.5232" lon="6.9538">
        <ele>2365.94</ele>
        <time>2013-05-07T05:15:48Z</time>
      </trkpt>
      <trkpt lat="45.52313" lon="6.95389">
        <ele>2369.31</ele>
        <time>2013-05-07T05:16:02Z</time>
      </trkpt>
      <trkpt lat="45.5231" lon="6.95398">
        <ele>2372.19</ele>
        <time>2013-05-07T05:16:16Z</time>
      </trkpt>
      <trkpt lat="45.52307" lon="6.95409">
        <ele>2375.07</ele>
        <time>2013-05-07T05:16:29Z</time>
      </trkpt>
      <trkpt lat="45.52306" lon="6.95419">
        <ele>2377</ele>
        <time>2013-05-07T05:16:43Z</time>
      </trkpt>
      <trkpt lat="45.52307" lon="6.95418">
        <ele>2377</ele>
        <time>2013-05-07T05:16:55Z</time>
      </trkpt>
      <trkpt lat="45.52306" lon="6.95416">
        <ele>2377.48</ele>
        <time>2013-05-07T05:17:12Z</time>
      </trkpt>
      <trkpt lat="45.52305" lon="6.95418">
        <ele>2377.96</ele>
        <time>2013-05-07T05:17:23Z</time>
      </trkpt>
      <trkpt lat="45.52305" lon="6.95418">
        <ele>2377.96</ele>
        <time>2013-05-07T05:17:27Z</time>
      </trkpt>
      <trkpt lat="45.52299" lon="6.95423">
        <ele>2379.4</ele>
        <time>2013-05-07T05:17:38Z</time>
      </trkpt>
      <trkpt lat="45.52295" lon="6.9543">
        <ele>2381.32</ele>
        <time>2013-05-07T05:17:46Z</time>
      </trkpt>
      <trkpt lat="45.52291" lon="6.9544">
        <ele>2384.69</ele>
        <time>2013-05-07T05:17:59Z</time>
      </trkpt>
      <trkpt lat="45.52287" lon="6.95448">
        <ele>2387.09</ele>
        <time>2013-05-07T05:18:12Z</time>
      </trkpt>
      <trkpt lat="45.52286" lon="6.95454">
        <ele>2388.53</ele>
        <time>2013-05-07T05:18:19Z</time>
      </trkpt>
      <trkpt lat="45.52282" lon="6.95467">
        <ele>2390.94</ele>
        <time>2013-05-07T05:18:31Z</time>
      </trkpt>
      <trkpt lat="45.52282" lon="6.9548">
        <ele>2394.3</ele>
        <time>2013-05-07T05:18:46Z</time>
      </trkpt>
      <trkpt lat="45.52281" lon="6.95481">
        <ele>2394.3</ele>
        <time>2013-05-07T05:18:47Z</time>
      </trkpt>
      <trkpt lat="45.52279" lon="6.9549">
        <ele>2397.18</ele>
        <time>2013-05-07T05:19:00Z</time>
      </trkpt>
      <trkpt lat="45.52274" lon="6.95497">
        <ele>2398.63</ele>
        <time>2013-05-07T05:19:08Z</time>
      </trkpt>
      <trkpt lat="45.52266" lon="6.95511">
        <ele>2401.03</ele>
        <time>2013-05-07T05:19:22Z</time>
      </trkpt>
      <trkpt lat="45.52261" lon="6.95522">
        <ele>2402.95</ele>
        <time>2013-05-07T05:19:34Z</time>
      </trkpt>
      <trkpt lat="45.52253" lon="6.95529">
        <ele>2404.39</ele>
        <time>2013-05-07T05:19:45Z</time>
      </trkpt>
      <trkpt lat="45.52248" lon="6.95533">
        <ele>2404.88</ele>
        <time>2013-05-07T05:19:50Z</time>
      </trkpt>
      <trkpt lat="45.52244" lon="6.95545">
        <ele>2407.76</ele>
        <time>2013-05-07T05:20:04Z</time>
      </trkpt>
      <trkpt lat="45.52237" lon="6.95555">
        <ele>2410.16</ele>
        <time>2013-05-07T05:20:17Z</time>
      </trkpt>
      <trkpt lat="45.5223" lon="6.95568">
        <ele>2412.57</ele>
        <time>2013-05-07T05:20:32Z</time>
      </trkpt>
      <trkpt lat="45.52225" lon="6.95579">
        <ele>2414.97</ele>
        <time>2013-05-07T05:20:45Z</time>
      </trkpt>
      <trkpt lat="45.52222" lon="6.95588">
        <ele>2416.89</ele>
        <time>2013-05-07T05:20:55Z</time>
      </trkpt>
      <trkpt lat="45.52215" lon="6.95598">
        <ele>2418.33</ele>
        <time>2013-05-07T05:21:07Z</time>
      </trkpt>
      <trkpt lat="45.52211" lon="6.95608">
        <ele>2420.26</ele>
        <time>2013-05-07T05:21:19Z</time>
      </trkpt>
      <trkpt lat="45.52201" lon="6.95611">
        <ele>2423.14</ele>
        <time>2013-05-07T05:21:33Z</time>
      </trkpt>
      <trkpt lat="45.52192" lon="6.95611">
        <ele>2426.02</ele>
        <time>2013-05-07T05:21:46Z</time>
      </trkpt>
      <trkpt lat="45.5219" lon="6.95612">
        <ele>2426.5</ele>
        <time>2013-05-07T05:21:49Z</time>
      </trkpt>
      <trkpt lat="45.52185" lon="6.95614">
        <ele>2426.99</ele>
        <time>2013-05-07T05:21:54Z</time>
      </trkpt>
      <trkpt lat="45.52174" lon="6.95619">
        <ele>2429.39</ele>
        <time>2013-05-07T05:22:08Z</time>
      </trkpt>
      <trkpt lat="45.52165" lon="6.95624">
        <ele>2431.79</ele>
        <time>2013-05-07T05:22:21Z</time>
      </trkpt>
      <trkpt lat="45.52159" lon="6.95627">
        <ele>2433.71</ele>
        <time>2013-05-07T05:22:32Z</time>
      </trkpt>
      <trkpt lat="45.52159" lon="6.95627">
        <ele>2433.71</ele>
        <time>2013-05-07T05:22:33Z</time>
      </trkpt>
      <trkpt lat="45.52159" lon="6.95637">
        <ele>2436.12</ele>
        <time>2013-05-07T05:22:46Z</time>
      </trkpt>
      <trkpt lat="45.52159" lon="6.95638">
        <ele>2436.12</ele>
        <time>2013-05-07T05:22:47Z</time>
      </trkpt>
      <trkpt lat="45.52166" lon="6.95648">
        <ele>2439</ele>
        <time>2013-05-07T05:23:00Z</time>
      </trkpt>
      <trkpt lat="45.52166" lon="6.9565">
        <ele>2439.48</ele>
        <time>2013-05-07T05:23:02Z</time>
      </trkpt>
      <trkpt lat="45.52171" lon="6.95662">
        <ele>2442.37</ele>
        <time>2013-05-07T05:23:16Z</time>
      </trkpt>
      <trkpt lat="45.52171" lon="6.95663">
        <ele>2442.85</ele>
        <time>2013-05-07T05:23:18Z</time>
      </trkpt>
      <trkpt lat="45.52169" lon="6.95672">
        <ele>2444.29</ele>
        <time>2013-05-07T05:23:26Z</time>
      </trkpt>
      <trkpt lat="45.52168" lon="6.95678">
        <ele>2444.77</ele>
        <time>2013-05-07T05:23:32Z</time>
      </trkpt>
      <trkpt lat="45.52167" lon="6.95688">
        <ele>2446.69</ele>
        <time>2013-05-07T05:23:40Z</time>
      </trkpt>
      <trkpt lat="45.52166" lon="6.95703">
        <ele>2449.1</ele>
        <time>2013-05-07T05:23:55Z</time>
      </trkpt>
      <trkpt lat="45.52167" lon="6.95714">
        <ele>2451.02</ele>
        <time>2013-05-07T05:24:05Z</time>
      </trkpt>
      <trkpt lat="45.52167" lon="6.95728">
        <ele>2452.94</ele>
        <time>2013-05-07T05:24:18Z</time>
      </trkpt>
      <trkpt lat="45.52166" lon="6.9573">
        <ele>2453.42</ele>
        <time>2013-05-07T05:24:19Z</time>
      </trkpt>
      <trkpt lat="45.52164" lon="6.95743">
        <ele>2455.34</ele>
        <time>2013-05-07T05:24:33Z</time>
      </trkpt>
      <trkpt lat="45.52161" lon="6.95751">
        <ele>2457.27</ele>
        <time>2013-05-07T05:24:40Z</time>
      </trkpt>
      <trkpt lat="45.52155" lon="6.95763">
        <ele>2458.71</ele>
        <time>2013-05-07T05:24:53Z</time>
      </trkpt>
      <trkpt lat="45.52151" lon="6.95771">
        <ele>2460.63</ele>
        <time>2013-05-07T05:25:03Z</time>
      </trkpt>
      <trkpt lat="45.52148" lon="6.95774">
        <ele>2460.63</ele>
        <time>2013-05-07T05:25:07Z</time>
      </trkpt>
      <trkpt lat="45.52146" lon="6.95779">
        <ele>2461.11</ele>
        <time>2013-05-07T05:25:12Z</time>
      </trkpt>
      <trkpt lat="45.52138" lon="6.95794">
        <ele>2464</ele>
        <time>2013-05-07T05:25:27Z</time>
      </trkpt>
      <trkpt lat="45.52137" lon="6.95801">
        <ele>2464.96</ele>
        <time>2013-05-07T05:25:33Z</time>
      </trkpt>
      <trkpt lat="45.52132" lon="6.95816">
        <ele>2467.36</ele>
        <time>2013-05-07T05:25:47Z</time>
      </trkpt>
      <trkpt lat="45.52132" lon="6.95817">
        <ele>2467.84</ele>
        <time>2013-05-07T05:25:49Z</time>
      </trkpt>
      <trkpt lat="45.5213" lon="6.95824">
        <ele>2468.8</ele>
        <time>2013-05-07T05:25:55Z</time>
      </trkpt>
      <trkpt lat="45.52128" lon="6.95828">
        <ele>2468.8</ele>
        <time>2013-05-07T05:25:59Z</time>
      </trkpt>
      <trkpt lat="45.5212" lon="6.95841">
        <ele>2470.73</ele>
        <time>2013-05-07T05:26:12Z</time>
      </trkpt>
      <trkpt lat="45.52111" lon="6.95855">
        <ele>2472.17</ele>
        <time>2013-05-07T05:26:25Z</time>
      </trkpt>
      <trkpt lat="45.52105" lon="6.95867">
        <ele>2473.61</ele>
        <time>2013-05-07T05:26:37Z</time>
      </trkpt>
      <trkpt lat="45.52102" lon="6.95869">
        <ele>2473.61</ele>
        <time>2013-05-07T05:26:41Z</time>
      </trkpt>
      <trkpt lat="45.521" lon="6.95875">
        <ele>2474.09</ele>
        <time>2013-05-07T05:26:47Z</time>
      </trkpt>
      <trkpt lat="45.521" lon="6.9588">
        <ele>2474.57</ele>
        <time>2013-05-07T05:26:52Z</time>
      </trkpt>
      <trkpt lat="45.52104" lon="6.95888">
        <ele>2476.97</ele>
        <time>2013-05-07T05:27:01Z</time>
      </trkpt>
      <trkpt lat="45.52102" lon="6.95892">
        <ele>2477.94</ele>
        <time>2013-05-07T05:27:05Z</time>
      </trkpt>
      <trkpt lat="45.52101" lon="6.95902">
        <ele>2479.38</ele>
        <time>2013-05-07T05:27:13Z</time>
      </trkpt>
      <trkpt lat="45.52099" lon="6.95912">
        <ele>2480.82</ele>
        <time>2013-05-07T05:27:21Z</time>
      </trkpt>
      <trkpt lat="45.52099" lon="6.95917">
        <ele>2481.3</ele>
        <time>2013-05-07T05:27:25Z</time>
      </trkpt>
      <trkpt lat="45.52098" lon="6.95932">
        <ele>2482.74</ele>
        <time>2013-05-07T05:27:39Z</time>
      </trkpt>
      <trkpt lat="45.52094" lon="6.95942">
        <ele>2483.22</ele>
        <time>2013-05-07T05:27:51Z</time>
      </trkpt>
      <trkpt lat="45.52086" lon="6.95968">
        <ele>2483.7</ele>
        <time>2013-05-07T05:28:06Z</time>
      </trkpt>
      <trkpt lat="45.52077" lon="6.95989">
        <ele>2481.3</ele>
        <time>2013-05-07T05:28:18Z</time>
      </trkpt>
      <trkpt lat="45.52071" lon="6.96005">
        <ele>2481.3</ele>
        <time>2013-05-07T05:28:27Z</time>
      </trkpt>
      <trkpt lat="45.52064" lon="6.96016">
        <ele>2480.34</ele>
        <time>2013-05-07T05:28:34Z</time>
      </trkpt>
      <trkpt lat="45.52056" lon="6.96033">
        <ele>2481.78</ele>
        <time>2013-05-07T05:28:46Z</time>
      </trkpt>
      <trkpt lat="45.52051" lon="6.96055">
        <ele>2483.22</ele>
        <time>2013-05-07T05:28:59Z</time>
      </trkpt>
      <trkpt lat="45.52049" lon="6.96063">
        <ele>2483.7</ele>
        <time>2013-05-07T05:29:04Z</time>
      </trkpt>
      <trkpt lat="45.52045" lon="6.96073">
        <ele>2484.18</ele>
        <time>2013-05-07T05:29:11Z</time>
      </trkpt>
      <trkpt lat="45.52042" lon="6.96079">
        <ele>2485.15</ele>
        <time>2013-05-07T05:29:16Z</time>
      </trkpt>
      <trkpt lat="45.52038" lon="6.9609">
        <ele>2487.55</ele>
        <time>2013-05-07T05:29:28Z</time>
      </trkpt>
      <trkpt lat="45.52038" lon="6.96092">
        <ele>2488.03</ele>
        <time>2013-05-07T05:29:29Z</time>
      </trkpt>
      <trkpt lat="45.52037" lon="6.96104">
        <ele>2489.47</ele>
        <time>2013-05-07T05:29:38Z</time>
      </trkpt>
      <trkpt lat="45.52034" lon="6.96112">
        <ele>2489.95</ele>
        <time>2013-05-07T05:29:44Z</time>
      </trkpt>
      <trkpt lat="45.52033" lon="6.96115">
        <ele>2489.95</ele>
        <time>2013-05-07T05:29:46Z</time>
      </trkpt>
      <trkpt lat="45.52031" lon="6.96123">
        <ele>2489.95</ele>
        <time>2013-05-07T05:29:52Z</time>
      </trkpt>
      <trkpt lat="45.52031" lon="6.96127">
        <ele>2490.43</ele>
        <time>2013-05-07T05:29:54Z</time>
      </trkpt>
      <trkpt lat="45.52028" lon="6.96135">
        <ele>2491.87</ele>
        <time>2013-05-07T05:30:01Z</time>
      </trkpt>
      <trkpt lat="45.52027" lon="6.96139">
        <ele>2492.36</ele>
        <time>2013-05-07T05:30:05Z</time>
      </trkpt>
      <trkpt lat="45.52024" lon="6.96156">
        <ele>2494.28</ele>
        <time>2013-05-07T05:30:18Z</time>
      </trkpt>
      <trkpt lat="45.52024" lon="6.96158">
        <ele>2494.28</ele>
        <time>2013-05-07T05:30:20Z</time>
      </trkpt>
      <trkpt lat="45.52021" lon="6.96167">
        <ele>2494.76</ele>
        <time>2013-05-07T05:30:27Z</time>
      </trkpt>
      <trkpt lat="45.5202" lon="6.96176">
        <ele>2495.24</ele>
        <time>2013-05-07T05:30:34Z</time>
      </trkpt>
      <trkpt lat="45.52019" lon="6.96179">
        <ele>2495.24</ele>
        <time>2013-05-07T05:30:36Z</time>
      </trkpt>
      <trkpt lat="45.52018" lon="6.96184">
        <ele>2495.24</ele>
        <time>2013-05-07T05:30:40Z</time>
      </trkpt>
      <trkpt lat="45.52016" lon="6.96194">
        <ele>2495.24</ele>
        <time>2013-05-07T05:30:46Z</time>
      </trkpt>
      <trkpt lat="45.52012" lon="6.96213">
        <ele>2495.72</ele>
        <time>2013-05-07T05:30:58Z</time>
      </trkpt>
      <trkpt lat="45.52005" lon="6.96235">
        <ele>2495.72</ele>
        <time>2013-05-07T05:31:11Z</time>
      </trkpt>
      <trkpt lat="45.52005" lon="6.96238">
        <ele>2495.72</ele>
        <time>2013-05-07T05:31:13Z</time>
      </trkpt>
      <trkpt lat="45.52004" lon="6.96241">
        <ele>2495.72</ele>
        <time>2013-05-07T05:31:15Z</time>
      </trkpt>
      <trkpt lat="45.52002" lon="6.96252">
        <ele>2496.2</ele>
        <time>2013-05-07T05:31:23Z</time>
      </trkpt>
      <trkpt lat="45.51999" lon="6.96264">
        <ele>2498.12</ele>
        <time>2013-05-07T05:31:34Z</time>
      </trkpt>
      <trkpt lat="45.51996" lon="6.96285">
        <ele>2499.08</ele>
        <time>2013-05-07T05:31:48Z</time>
      </trkpt>
      <trkpt lat="45.5199" lon="6.96305">
        <ele>2499.08</ele>
        <time>2013-05-07T05:32:00Z</time>
      </trkpt>
      <trkpt lat="45.51988" lon="6.96324">
        <ele>2499.08</ele>
        <time>2013-05-07T05:32:11Z</time>
      </trkpt>
      <trkpt lat="45.51987" lon="6.96326">
        <ele>2499.57</ele>
        <time>2013-05-07T05:32:13Z</time>
      </trkpt>
      <trkpt lat="45.51987" lon="6.96331">
        <ele>2499.57</ele>
        <time>2013-05-07T05:32:16Z</time>
      </trkpt>
      <trkpt lat="45.51984" lon="6.96345">
        <ele>2500.53</ele>
        <time>2013-05-07T05:32:25Z</time>
      </trkpt>
      <trkpt lat="45.51984" lon="6.96361">
        <ele>2501.49</ele>
        <time>2013-05-07T05:32:35Z</time>
      </trkpt>
      <trkpt lat="45.51978" lon="6.96375">
        <ele>2502.93</ele>
        <time>2013-05-07T05:32:47Z</time>
      </trkpt>
      <trkpt lat="45.51978" lon="6.9638">
        <ele>2503.41</ele>
        <time>2013-05-07T05:32:50Z</time>
      </trkpt>
      <trkpt lat="45.51975" lon="6.96404">
        <ele>2503.89</ele>
        <time>2013-05-07T05:33:02Z</time>
      </trkpt>
      <trkpt lat="45.51974" lon="6.96408">
        <ele>2503.89</ele>
        <time>2013-05-07T05:33:04Z</time>
      </trkpt>
      <trkpt lat="45.51974" lon="6.96419">
        <ele>2503.89</ele>
        <time>2013-05-07T05:33:10Z</time>
      </trkpt>
      <trkpt lat="45.51973" lon="6.9643">
        <ele>2504.37</ele>
        <time>2013-05-07T05:33:18Z</time>
      </trkpt>
      <trkpt lat="45.51974" lon="6.96433">
        <ele>2504.85</ele>
        <time>2013-05-07T05:33:34Z</time>
      </trkpt>
      <trkpt lat="45.51973" lon="6.96436">
        <ele>2504.85</ele>
        <time>2013-05-07T05:33:53Z</time>
      </trkpt>
      <trkpt lat="45.51964" lon="6.9646">
        <ele>2505.33</ele>
        <time>2013-05-07T05:34:08Z</time>
      </trkpt>
      <trkpt lat="45.51958" lon="6.9648">
        <ele>2505.33</ele>
        <time>2013-05-07T05:34:21Z</time>
      </trkpt>
      <trkpt lat="45.51954" lon="6.96496">
        <ele>2506.77</ele>
        <time>2013-05-07T05:34:33Z</time>
      </trkpt>
      <trkpt lat="45.51952" lon="6.96502">
        <ele>2507.26</ele>
        <time>2013-05-07T05:34:38Z</time>
      </trkpt>
      <trkpt lat="45.51944" lon="6.96522">
        <ele>2508.7</ele>
        <time>2013-05-07T05:34:52Z</time>
      </trkpt>
      <trkpt lat="45.51938" lon="6.96535">
        <ele>2509.66</ele>
        <time>2013-05-07T05:35:02Z</time>
      </trkpt>
      <trkpt lat="45.51935" lon="6.96547">
        <ele>2510.62</ele>
        <time>2013-05-07T05:35:11Z</time>
      </trkpt>
      <trkpt lat="45.51931" lon="6.96554">
        <ele>2511.1</ele>
        <time>2013-05-07T05:35:17Z</time>
      </trkpt>
      <trkpt lat="45.51928" lon="6.96563">
        <ele>2511.58</ele>
        <time>2013-05-07T05:35:23Z</time>
      </trkpt>
      <trkpt lat="45.51925" lon="6.96574">
        <ele>2512.06</ele>
        <time>2013-05-07T05:35:30Z</time>
      </trkpt>
      <trkpt lat="45.51919" lon="6.96593">
        <ele>2513.5</ele>
        <time>2013-05-07T05:35:44Z</time>
      </trkpt>
      <trkpt lat="45.51915" lon="6.96609">
        <ele>2513.5</ele>
        <time>2013-05-07T05:35:53Z</time>
      </trkpt>
      <trkpt lat="45.51906" lon="6.96632">
        <ele>2513.98</ele>
        <time>2013-05-07T05:36:09Z</time>
      </trkpt>
      <trkpt lat="45.51905" lon="6.96634">
        <ele>2514.47</ele>
        <time>2013-05-07T05:36:11Z</time>
      </trkpt>
      <trkpt lat="45.51899" lon="6.96655">
        <ele>2515.91</ele>
        <time>2013-05-07T05:36:25Z</time>
      </trkpt>
      <trkpt lat="45.51895" lon="6.96666">
        <ele>2516.87</ele>
        <time>2013-05-07T05:36:34Z</time>
      </trkpt>
      <trkpt lat="45.51893" lon="6.96688">
        <ele>2517.35</ele>
        <time>2013-05-07T05:36:46Z</time>
      </trkpt>
      <trkpt lat="45.51892" lon="6.96691">
        <ele>2517.35</ele>
        <time>2013-05-07T05:36:48Z</time>
      </trkpt>
      <trkpt lat="45.51889" lon="6.96704">
        <ele>2518.31</ele>
        <time>2013-05-07T05:36:57Z</time>
      </trkpt>
      <trkpt lat="45.51889" lon="6.9672">
        <ele>2519.27</ele>
        <time>2013-05-07T05:37:07Z</time>
      </trkpt>
      <trkpt lat="45.51888" lon="6.96736">
        <ele>2519.75</ele>
        <time>2013-05-07T05:37:18Z</time>
      </trkpt>
      <trkpt lat="45.51885" lon="6.96759">
        <ele>2520.71</ele>
        <time>2013-05-07T05:37:31Z</time>
      </trkpt>
      <trkpt lat="45.51884" lon="6.9676">
        <ele>2520.71</ele>
        <time>2013-05-07T05:37:32Z</time>
      </trkpt>
      <trkpt lat="45.51883" lon="6.96767">
        <ele>2521.19</ele>
        <time>2013-05-07T05:37:36Z</time>
      </trkpt>
      <trkpt lat="45.51879" lon="6.96787">
        <ele>2522.64</ele>
        <time>2013-05-07T05:37:50Z</time>
      </trkpt>
      <trkpt lat="45.51877" lon="6.96802">
        <ele>2523.12</ele>
        <time>2013-05-07T05:38:00Z</time>
      </trkpt>
      <trkpt lat="45.51869" lon="6.96817">
        <ele>2524.56</ele>
        <time>2013-05-07T05:38:13Z</time>
      </trkpt>
      <trkpt lat="45.51862" lon="6.96838">
        <ele>2525.52</ele>
        <time>2013-05-07T05:38:27Z</time>
      </trkpt>
      <trkpt lat="45.51859" lon="6.96847">
        <ele>2526.48</ele>
        <time>2013-05-07T05:38:34Z</time>
      </trkpt>
      <trkpt lat="45.51857" lon="6.96855">
        <ele>2526.96</ele>
        <time>2013-05-07T05:38:39Z</time>
      </trkpt>
      <trkpt lat="45.51854" lon="6.96867">
        <ele>2527.92</ele>
        <time>2013-05-07T05:38:47Z</time>
      </trkpt>
      <trkpt lat="45.51853" lon="6.96872">
        <ele>2528.4</ele>
        <time>2013-05-07T05:38:51Z</time>
      </trkpt>
      <trkpt lat="45.5185" lon="6.96879">
        <ele>2528.89</ele>
        <time>2013-05-07T05:38:57Z</time>
      </trkpt>
      <trkpt lat="45.51849" lon="6.96882">
        <ele>2529.37</ele>
        <time>2013-05-07T05:38:59Z</time>
      </trkpt>
      <trkpt lat="45.5184" lon="6.96902">
        <ele>2530.81</ele>
        <time>2013-05-07T05:39:13Z</time>
      </trkpt>
      <trkpt lat="45.51838" lon="6.96907">
        <ele>2531.29</ele>
        <time>2013-05-07T05:39:18Z</time>
      </trkpt>
      <trkpt lat="45.51836" lon="6.96912">
        <ele>2531.29</ele>
        <time>2013-05-07T05:39:21Z</time>
      </trkpt>
      <trkpt lat="45.51828" lon="6.96928">
        <ele>2531.77</ele>
        <time>2013-05-07T05:39:33Z</time>
      </trkpt>
      <trkpt lat="45.51827" lon="6.96926">
        <ele>2531.77</ele>
        <time>2013-05-07T05:40:03Z</time>
      </trkpt>
      <trkpt lat="45.51828" lon="6.96925">
        <ele>2531.77</ele>
        <time>2013-05-07T05:40:23Z</time>
      </trkpt>
      <trkpt lat="45.51824" lon="6.96927">
        <ele>2531.77</ele>
        <time>2013-05-07T05:40:51Z</time>
      </trkpt>
      <trkpt lat="45.51824" lon="6.96934">
        <ele>2532.25</ele>
        <time>2013-05-07T05:41:06Z</time>
      </trkpt>
      <trkpt lat="45.51824" lon="6.96936">
        <ele>2532.25</ele>
        <time>2013-05-07T05:41:08Z</time>
      </trkpt>
      <trkpt lat="45.51822" lon="6.96952">
        <ele>2532.25</ele>
        <time>2013-05-07T05:41:20Z</time>
      </trkpt>
      <trkpt lat="45.51818" lon="6.96964">
        <ele>2533.69</ele>
        <time>2013-05-07T05:41:31Z</time>
      </trkpt>
      <trkpt lat="45.51816" lon="6.96969">
        <ele>2534.17</ele>
        <time>2013-05-07T05:41:35Z</time>
      </trkpt>
      <trkpt lat="45.51814" lon="6.96984">
        <ele>2535.61</ele>
        <time>2013-05-07T05:41:48Z</time>
      </trkpt>
      <trkpt lat="45.51805" lon="6.96997">
        <ele>2536.58</ele>
        <time>2013-05-07T05:41:59Z</time>
      </trkpt>
      <trkpt lat="45.51802" lon="6.97008">
        <ele>2537.54</ele>
        <time>2013-05-07T05:42:12Z</time>
      </trkpt>
      <trkpt lat="45.51802" lon="6.97025">
        <ele>2538.5</ele>
        <time>2013-05-07T05:42:28Z</time>
      </trkpt>
      <trkpt lat="45.51802" lon="6.97033">
        <ele>2539.94</ele>
        <time>2013-05-07T05:42:35Z</time>
      </trkpt>
      <trkpt lat="45.51802" lon="6.97046">
        <ele>2541.38</ele>
        <time>2013-05-07T05:42:46Z</time>
      </trkpt>
      <trkpt lat="45.51805" lon="6.97062">
        <ele>2542.82</ele>
        <time>2013-05-07T05:43:00Z</time>
      </trkpt>
      <trkpt lat="45.51807" lon="6.97076">
        <ele>2544.27</ele>
        <time>2013-05-07T05:43:14Z</time>
      </trkpt>
      <trkpt lat="45.51809" lon="6.97092">
        <ele>2545.71</ele>
        <time>2013-05-07T05:43:28Z</time>
      </trkpt>
      <trkpt lat="45.51808" lon="6.97104">
        <ele>2547.15</ele>
        <time>2013-05-07T05:43:41Z</time>
      </trkpt>
      <trkpt lat="45.51807" lon="6.97121">
        <ele>2548.59</ele>
        <time>2013-05-07T05:43:55Z</time>
      </trkpt>
      <trkpt lat="45.51806" lon="6.97124">
        <ele>2548.59</ele>
        <time>2013-05-07T05:43:57Z</time>
      </trkpt>
      <trkpt lat="45.51806" lon="6.97144">
        <ele>2550.51</ele>
        <time>2013-05-07T05:44:13Z</time>
      </trkpt>
      <trkpt lat="45.51808" lon="6.97158">
        <ele>2551.48</ele>
        <time>2013-05-07T05:44:23Z</time>
      </trkpt>
      <trkpt lat="45.51808" lon="6.97171">
        <ele>2552.92</ele>
        <time>2013-05-07T05:44:35Z</time>
      </trkpt>
      <trkpt lat="45.51808" lon="6.97175">
        <ele>2553.4</ele>
        <time>2013-05-07T05:44:39Z</time>
      </trkpt>
      <trkpt lat="45.51807" lon="6.97188">
        <ele>2555.8</ele>
        <time>2013-05-07T05:44:52Z</time>
      </trkpt>
      <trkpt lat="45.51805" lon="6.97207">
        <ele>2558.69</ele>
        <time>2013-05-07T05:45:08Z</time>
      </trkpt>
      <trkpt lat="45.51803" lon="6.97216">
        <ele>2560.61</ele>
        <time>2013-05-07T05:45:20Z</time>
      </trkpt>
      <trkpt lat="45.51802" lon="6.97227">
        <ele>2563.01</ele>
        <time>2013-05-07T05:45:33Z</time>
      </trkpt>
      <trkpt lat="45.518" lon="6.97242">
        <ele>2564.93</ele>
        <time>2013-05-07T05:45:46Z</time>
      </trkpt>
      <trkpt lat="45.51798" lon="6.97253">
        <ele>2567.34</ele>
        <time>2013-05-07T05:45:59Z</time>
      </trkpt>
      <trkpt lat="45.51796" lon="6.97262">
        <ele>2568.3</ele>
        <time>2013-05-07T05:46:07Z</time>
      </trkpt>
      <trkpt lat="45.51791" lon="6.97274">
        <ele>2570.22</ele>
        <time>2013-05-07T05:46:19Z</time>
      </trkpt>
      <trkpt lat="45.51788" lon="6.97278">
        <ele>2571.18</ele>
        <time>2013-05-07T05:46:23Z</time>
      </trkpt>
      <trkpt lat="45.51782" lon="6.97281">
        <ele>2572.63</ele>
        <time>2013-05-07T05:46:36Z</time>
      </trkpt>
      <trkpt lat="45.51773" lon="6.9729">
        <ele>2574.07</ele>
        <time>2013-05-07T05:46:48Z</time>
      </trkpt>
      <trkpt lat="45.51766" lon="6.97295">
        <ele>2576.95</ele>
        <time>2013-05-07T05:47:02Z</time>
      </trkpt>
      <trkpt lat="45.5176" lon="6.97299">
        <ele>2578.87</ele>
        <time>2013-05-07T05:47:12Z</time>
      </trkpt>
      <trkpt lat="45.51751" lon="6.97306">
        <ele>2580.8</ele>
        <time>2013-05-07T05:47:24Z</time>
      </trkpt>
      <trkpt lat="45.51744" lon="6.97311">
        <ele>2582.24</ele>
        <time>2013-05-07T05:47:36Z</time>
      </trkpt>
      <trkpt lat="45.51742" lon="6.97314">
        <ele>2584.64</ele>
        <time>2013-05-07T05:47:49Z</time>
      </trkpt>
      <trkpt lat="45.51736" lon="6.97319">
        <ele>2586.08</ele>
        <time>2013-05-07T05:48:01Z</time>
      </trkpt>
      <trkpt lat="45.51728" lon="6.97326">
        <ele>2588.97</ele>
        <time>2013-05-07T05:48:15Z</time>
      </trkpt>
      <trkpt lat="45.51721" lon="6.97332">
        <ele>2590.41</ele>
        <time>2013-05-07T05:48:28Z</time>
      </trkpt>
      <trkpt lat="45.51712" lon="6.97342">
        <ele>2592.81</ele>
        <time>2013-05-07T05:48:42Z</time>
      </trkpt>
      <trkpt lat="45.51705" lon="6.97347">
        <ele>2596.18</ele>
        <time>2013-05-07T05:48:56Z</time>
      </trkpt>
      <trkpt lat="45.51709" lon="6.97343">
        <ele>2596.18</ele>
        <time>2013-05-07T05:49:13Z</time>
      </trkpt>
      <trkpt lat="45.5171" lon="6.97327">
        <ele>2598.58</ele>
        <time>2013-05-07T05:49:28Z</time>
      </trkpt>
      <trkpt lat="45.51708" lon="6.97319">
        <ele>2600.02</ele>
        <time>2013-05-07T05:49:42Z</time>
      </trkpt>
      <trkpt lat="45.5171" lon="6.97308">
        <ele>2602.91</ele>
        <time>2013-05-07T05:49:58Z</time>
      </trkpt>
      <trkpt lat="45.5171" lon="6.97296">
        <ele>2604.83</ele>
        <time>2013-05-07T05:50:13Z</time>
      </trkpt>
      <trkpt lat="45.51707" lon="6.97285">
        <ele>2606.75</ele>
        <time>2013-05-07T05:50:27Z</time>
      </trkpt>
      <trkpt lat="45.51701" lon="6.97278">
        <ele>2608.67</ele>
        <time>2013-05-07T05:50:39Z</time>
      </trkpt>
      <trkpt lat="45.51703" lon="6.97265">
        <ele>2610.12</ele>
        <time>2013-05-07T05:50:51Z</time>
      </trkpt>
      <trkpt lat="45.51705" lon="6.97254">
        <ele>2611.56</ele>
        <time>2013-05-07T05:51:04Z</time>
      </trkpt>
      <trkpt lat="45.51707" lon="6.97254">
        <ele>2612.52</ele>
        <time>2013-05-07T05:51:19Z</time>
      </trkpt>
      <trkpt lat="45.51706" lon="6.97262">
        <ele>2613.48</ele>
        <time>2013-05-07T05:51:32Z</time>
      </trkpt>
      <trkpt lat="45.51702" lon="6.97273">
        <ele>2616.37</ele>
        <time>2013-05-07T05:51:45Z</time>
      </trkpt>
      <trkpt lat="45.51699" lon="6.9728">
        <ele>2617.81</ele>
        <time>2013-05-07T05:52:00Z</time>
      </trkpt>
      <trkpt lat="45.51691" lon="6.97288">
        <ele>2619.73</ele>
        <time>2013-05-07T05:52:12Z</time>
      </trkpt>
      <trkpt lat="45.51682" lon="6.97297">
        <ele>2621.65</ele>
        <time>2013-05-07T05:52:25Z</time>
      </trkpt>
      <trkpt lat="45.51676" lon="6.97305">
        <ele>2623.58</ele>
        <time>2013-05-07T05:52:37Z</time>
      </trkpt>
      <trkpt lat="45.51669" lon="6.97315">
        <ele>2625.02</ele>
        <time>2013-05-07T05:52:50Z</time>
      </trkpt>
      <trkpt lat="45.51663" lon="6.97323">
        <ele>2627.42</ele>
        <time>2013-05-07T05:53:03Z</time>
      </trkpt>
      <trkpt lat="45.51654" lon="6.97334">
        <ele>2629.34</ele>
        <time>2013-05-07T05:53:17Z</time>
      </trkpt>
      <trkpt lat="45.51652" lon="6.97346">
        <ele>2631.75</ele>
        <time>2013-05-07T05:53:30Z</time>
      </trkpt>
      <trkpt lat="45.51651" lon="6.97346">
        <ele>2632.71</ele>
        <time>2013-05-07T05:53:41Z</time>
      </trkpt>
      <trkpt lat="45.51648" lon="6.97341">
        <ele>2633.67</ele>
        <time>2013-05-07T05:53:53Z</time>
      </trkpt>
      <trkpt lat="45.51647" lon="6.97331">
        <ele>2635.59</ele>
        <time>2013-05-07T05:54:04Z</time>
      </trkpt>
      <trkpt lat="45.51644" lon="6.97334">
        <ele>2636.55</ele>
        <time>2013-05-07T05:54:19Z</time>
      </trkpt>
      <trkpt lat="45.51643" lon="6.97341">
        <ele>2637.99</ele>
        <time>2013-05-07T05:54:27Z</time>
      </trkpt>
      <trkpt lat="45.51645" lon="6.97358">
        <ele>2639.92</ele>
        <time>2013-05-07T05:54:42Z</time>
      </trkpt>
      <trkpt lat="45.5165" lon="6.9737">
        <ele>2642.32</ele>
        <time>2013-05-07T05:54:55Z</time>
      </trkpt>
      <trkpt lat="45.51654" lon="6.97383">
        <ele>2644.24</ele>
        <time>2013-05-07T05:55:09Z</time>
      </trkpt>
      <trkpt lat="45.51656" lon="6.97396">
        <ele>2646.65</ele>
        <time>2013-05-07T05:55:22Z</time>
      </trkpt>
      <trkpt lat="45.51655" lon="6.97404">
        <ele>2648.09</ele>
        <time>2013-05-07T05:55:36Z</time>
      </trkpt>
      <trkpt lat="45.51652" lon="6.97415">
        <ele>2650.49</ele>
        <time>2013-05-07T05:55:49Z</time>
      </trkpt>
      <trkpt lat="45.51651" lon="6.97421">
        <ele>2651.45</ele>
        <time>2013-05-07T05:55:55Z</time>
      </trkpt>
      <trkpt lat="45.51648" lon="6.97435">
        <ele>2654.34</ele>
        <time>2013-05-07T05:56:08Z</time>
      </trkpt>
      <trkpt lat="45.51647" lon="6.97446">
        <ele>2655.78</ele>
        <time>2013-05-07T05:56:22Z</time>
      </trkpt>
      <trkpt lat="45.51646" lon="6.97443">
        <ele>2656.26</ele>
        <time>2013-05-07T05:56:36Z</time>
      </trkpt>
      <trkpt lat="45.51643" lon="6.97435">
        <ele>2657.7</ele>
        <time>2013-05-07T05:56:49Z</time>
      </trkpt>
      <trkpt lat="45.51637" lon="6.97424">
        <ele>2660.11</ele>
        <time>2013-05-07T05:57:02Z</time>
      </trkpt>
      <trkpt lat="45.51635" lon="6.97418">
        <ele>2661.07</ele>
        <time>2013-05-07T05:57:08Z</time>
      </trkpt>
      <trkpt lat="45.51629" lon="6.97406">
        <ele>2662.99</ele>
        <time>2013-05-07T05:57:20Z</time>
      </trkpt>
      <trkpt lat="45.51629" lon="6.97408">
        <ele>2663.47</ele>
        <time>2013-05-07T05:57:33Z</time>
      </trkpt>
      <trkpt lat="45.51627" lon="6.97417">
        <ele>2665.39</ele>
        <time>2013-05-07T05:57:47Z</time>
      </trkpt>
      <trkpt lat="45.51624" lon="6.97428">
        <ele>2668.76</ele>
        <time>2013-05-07T05:58:00Z</time>
      </trkpt>
      <trkpt lat="45.51621" lon="6.97437">
        <ele>2670.68</ele>
        <time>2013-05-07T05:58:15Z</time>
      </trkpt>
      <trkpt lat="45.5162" lon="6.97435">
        <ele>2671.64</ele>
        <time>2013-05-07T05:58:28Z</time>
      </trkpt>
      <trkpt lat="45.51615" lon="6.97426">
        <ele>2673.56</ele>
        <time>2013-05-07T05:58:40Z</time>
      </trkpt>
      <trkpt lat="45.51614" lon="6.97428">
        <ele>2674.04</ele>
        <time>2013-05-07T05:58:55Z</time>
      </trkpt>
      <trkpt lat="45.51612" lon="6.97442">
        <ele>2677.41</ele>
        <time>2013-05-07T05:59:10Z</time>
      </trkpt>
      <trkpt lat="45.51611" lon="6.97453">
        <ele>2679.33</ele>
        <time>2013-05-07T05:59:22Z</time>
      </trkpt>
      <trkpt lat="45.51611" lon="6.97459">
        <ele>2681.25</ele>
        <time>2013-05-07T05:59:35Z</time>
      </trkpt>
      <trkpt lat="45.51609" lon="6.97459">
        <ele>2681.73</ele>
        <time>2013-05-07T05:59:47Z</time>
      </trkpt>
      <trkpt lat="45.51605" lon="6.97456">
        <ele>2683.18</ele>
        <time>2013-05-07T06:00:00Z</time>
      </trkpt>
      <trkpt lat="45.51602" lon="6.97446">
        <ele>2685.58</ele>
        <time>2013-05-07T06:00:13Z</time>
      </trkpt>
      <trkpt lat="45.51597" lon="6.97437">
        <ele>2687.02</ele>
        <time>2013-05-07T06:00:24Z</time>
      </trkpt>
      <trkpt lat="45.51592" lon="6.97426">
        <ele>2688.94</ele>
        <time>2013-05-07T06:00:36Z</time>
      </trkpt>
      <trkpt lat="45.51586" lon="6.97418">
        <ele>2691.35</ele>
        <time>2013-05-07T06:00:48Z</time>
      </trkpt>
      <trkpt lat="45.51583" lon="6.97417">
        <ele>2691.83</ele>
        <time>2013-05-07T06:00:51Z</time>
      </trkpt>
      <trkpt lat="45.51573" lon="6.97415">
        <ele>2694.71</ele>
        <time>2013-05-07T06:01:06Z</time>
      </trkpt>
      <trkpt lat="45.51563" lon="6.97411">
        <ele>2697.6</ele>
        <time>2013-05-07T06:01:20Z</time>
      </trkpt>
      <trkpt lat="45.51556" lon="6.97408">
        <ele>2700.48</ele>
        <time>2013-05-07T06:01:36Z</time>
      </trkpt>
      <trkpt lat="45.51553" lon="6.97414">
        <ele>2701.92</ele>
        <time>2013-05-07T06:01:49Z</time>
      </trkpt>
      <trkpt lat="45.51553" lon="6.97415">
        <ele>2701.92</ele>
        <time>2013-05-07T06:01:50Z</time>
      </trkpt>
      <trkpt lat="45.51553" lon="6.97428">
        <ele>2704.33</ele>
        <time>2013-05-07T06:02:04Z</time>
      </trkpt>
      <trkpt lat="45.51554" lon="6.97439">
        <ele>2706.73</ele>
        <time>2013-05-07T06:02:18Z</time>
      </trkpt>
      <trkpt lat="45.51554" lon="6.97451">
        <ele>2709.13</ele>
        <time>2013-05-07T06:02:31Z</time>
      </trkpt>
      <trkpt lat="45.51557" lon="6.97463">
        <ele>2711.54</ele>
        <time>2013-05-07T06:02:44Z</time>
      </trkpt>
      <trkpt lat="45.51558" lon="6.97474">
        <ele>2713.46</ele>
        <time>2013-05-07T06:02:57Z</time>
      </trkpt>
      <trkpt lat="45.51555" lon="6.97477">
        <ele>2715.38</ele>
        <time>2013-05-07T06:03:03Z</time>
      </trkpt>
      <trkpt lat="45.51546" lon="6.97476">
        <ele>2717.3</ele>
        <time>2013-05-07T06:03:15Z</time>
      </trkpt>
      <trkpt lat="45.51538" lon="6.9747">
        <ele>2719.71</ele>
        <time>2013-05-07T06:03:30Z</time>
      </trkpt>
      <trkpt lat="45.51534" lon="6.97465">
        <ele>2721.63</ele>
        <time>2013-05-07T06:03:40Z</time>
      </trkpt>
      <trkpt lat="45.51526" lon="6.97459">
        <ele>2724.03</ele>
        <time>2013-05-07T06:03:55Z</time>
      </trkpt>
      <trkpt lat="45.51523" lon="6.97456">
        <ele>2724.99</ele>
        <time>2013-05-07T06:03:59Z</time>
      </trkpt>
      <trkpt lat="45.5152" lon="6.97452">
        <ele>2726.92</ele>
        <time>2013-05-07T06:04:13Z</time>
      </trkpt>
      <trkpt lat="45.51518" lon="6.97454">
        <ele>2727.4</ele>
        <time>2013-05-07T06:04:21Z</time>
      </trkpt>
      <trkpt lat="45.51515" lon="6.97467">
        <ele>2729.32</ele>
        <time>2013-05-07T06:04:36Z</time>
      </trkpt>
      <trkpt lat="45.51513" lon="6.9748">
        <ele>2731.24</ele>
        <time>2013-05-07T06:04:49Z</time>
      </trkpt>
      <trkpt lat="45.51514" lon="6.97486">
        <ele>2732.2</ele>
        <time>2013-05-07T06:04:55Z</time>
      </trkpt>
      <trkpt lat="45.51517" lon="6.97499">
        <ele>2735.09</ele>
        <time>2013-05-07T06:05:09Z</time>
      </trkpt>
      <trkpt lat="45.51516" lon="6.975">
        <ele>2735.09</ele>
        <time>2013-05-07T06:05:10Z</time>
      </trkpt>
      <trkpt lat="45.51518" lon="6.97514">
        <ele>2737.01</ele>
        <time>2013-05-07T06:05:24Z</time>
      </trkpt>
      <trkpt lat="45.51519" lon="6.97526">
        <ele>2739.41</ele>
        <time>2013-05-07T06:05:38Z</time>
      </trkpt>
      <trkpt lat="45.5152" lon="6.97538">
        <ele>2741.34</ele>
        <time>2013-05-07T06:05:52Z</time>
      </trkpt>
      <trkpt lat="45.5152" lon="6.97552">
        <ele>2743.26</ele>
        <time>2013-05-07T06:06:04Z</time>
      </trkpt>
      <trkpt lat="45.51521" lon="6.97563">
        <ele>2745.18</ele>
        <time>2013-05-07T06:06:16Z</time>
      </trkpt>
      <trkpt lat="45.51524" lon="6.97575">
        <ele>2747.1</ele>
        <time>2013-05-07T06:06:30Z</time>
      </trkpt>
      <trkpt lat="45.51526" lon="6.97587">
        <ele>2749.03</ele>
        <time>2013-05-07T06:06:42Z</time>
      </trkpt>
      <trkpt lat="45.51528" lon="6.976">
        <ele>2751.43</ele>
        <time>2013-05-07T06:06:55Z</time>
      </trkpt>
      <trkpt lat="45.51527" lon="6.97612">
        <ele>2753.35</ele>
        <time>2013-05-07T06:07:08Z</time>
      </trkpt>
      <trkpt lat="45.51529" lon="6.97624">
        <ele>2756.24</ele>
        <time>2013-05-07T06:07:21Z</time>
      </trkpt>
      <trkpt lat="45.51532" lon="6.97636">
        <ele>2757.68</ele>
        <time>2013-05-07T06:07:34Z</time>
      </trkpt>
      <trkpt lat="45.51534" lon="6.97648">
        <ele>2760.56</ele>
        <time>2013-05-07T06:07:48Z</time>
      </trkpt>
      <trkpt lat="45.51533" lon="6.97656">
        <ele>2763.45</ele>
        <time>2013-05-07T06:08:00Z</time>
      </trkpt>
      <trkpt lat="45.51524" lon="6.97656">
        <ele>2764.89</ele>
        <time>2013-05-07T06:08:11Z</time>
      </trkpt>
      <trkpt lat="45.51515" lon="6.97655">
        <ele>2766.81</ele>
        <time>2013-05-07T06:08:24Z</time>
      </trkpt>
      <trkpt lat="45.51517" lon="6.97664">
        <ele>2768.73</ele>
        <time>2013-05-07T06:08:35Z</time>
      </trkpt>
      <trkpt lat="45.5152" lon="6.97678">
        <ele>2770.66</ele>
        <time>2013-05-07T06:08:48Z</time>
      </trkpt>
      <trkpt lat="45.51526" lon="6.97685">
        <ele>2773.54</ele>
        <time>2013-05-07T06:09:01Z</time>
      </trkpt>
      <trkpt lat="45.51532" lon="6.97694">
        <ele>2774.98</ele>
        <time>2013-05-07T06:09:14Z</time>
      </trkpt>
      <trkpt lat="45.5154" lon="6.97702">
        <ele>2777.39</ele>
        <time>2013-05-07T06:09:28Z</time>
      </trkpt>
      <trkpt lat="45.51544" lon="6.97711">
        <ele>2779.31</ele>
        <time>2013-05-07T06:09:40Z</time>
      </trkpt>
      <trkpt lat="45.51538" lon="6.97718">
        <ele>2781.71</ele>
        <time>2013-05-07T06:09:51Z</time>
      </trkpt>
      <trkpt lat="45.51531" lon="6.97721">
        <ele>2783.15</ele>
        <time>2013-05-07T06:10:03Z</time>
      </trkpt>
      <trkpt lat="45.51523" lon="6.97722">
        <ele>2784.6</ele>
        <time>2013-05-07T06:10:14Z</time>
      </trkpt>
      <trkpt lat="45.51525" lon="6.97724">
        <ele>2785.56</ele>
        <time>2013-05-07T06:10:19Z</time>
      </trkpt>
      <trkpt lat="45.51531" lon="6.97729">
        <ele>2787.48</ele>
        <time>2013-05-07T06:10:31Z</time>
      </trkpt>
      <trkpt lat="45.51535" lon="6.97737">
        <ele>2789.4</ele>
        <time>2013-05-07T06:10:43Z</time>
      </trkpt>
      <trkpt lat="45.51539" lon="6.97748">
        <ele>2791.81</ele>
        <time>2013-05-07T06:10:56Z</time>
      </trkpt>
      <trkpt lat="45.51535" lon="6.97748">
        <ele>2792.77</ele>
        <time>2013-05-07T06:11:07Z</time>
      </trkpt>
      <trkpt lat="45.51527" lon="6.9775">
        <ele>2794.21</ele>
        <time>2013-05-07T06:11:19Z</time>
      </trkpt>
      <trkpt lat="45.51521" lon="6.97748">
        <ele>2796.61</ele>
        <time>2013-05-07T06:11:30Z</time>
      </trkpt>
      <trkpt lat="45.51521" lon="6.97749">
        <ele>2797.09</ele>
        <time>2013-05-07T06:11:42Z</time>
      </trkpt>
      <trkpt lat="45.51526" lon="6.97757">
        <ele>2798.54</ele>
        <time>2013-05-07T06:11:53Z</time>
      </trkpt>
      <trkpt lat="45.5153" lon="6.97765">
        <ele>2800.46</ele>
        <time>2013-05-07T06:12:05Z</time>
      </trkpt>
      <trkpt lat="45.51533" lon="6.97777">
        <ele>2802.38</ele>
        <time>2013-05-07T06:12:17Z</time>
      </trkpt>
      <trkpt lat="45.51533" lon="6.97781">
        <ele>2802.86</ele>
        <time>2013-05-07T06:12:20Z</time>
      </trkpt>
      <trkpt lat="45.51541" lon="6.97791">
        <ele>2805.26</ele>
        <time>2013-05-07T06:12:33Z</time>
      </trkpt>
      <trkpt lat="45.51545" lon="6.97801">
        <ele>2807.19</ele>
        <time>2013-05-07T06:12:45Z</time>
      </trkpt>
      <trkpt lat="45.51546" lon="6.97802">
        <ele>2807.67</ele>
        <time>2013-05-07T06:12:47Z</time>
      </trkpt>
      <trkpt lat="45.51552" lon="6.97815">
        <ele>2809.11</ele>
        <time>2013-05-07T06:13:01Z</time>
      </trkpt>
      <trkpt lat="45.51557" lon="6.97829">
        <ele>2811.03</ele>
        <time>2013-05-07T06:13:14Z</time>
      </trkpt>
      <trkpt lat="45.51562" lon="6.97841">
        <ele>2812.96</ele>
        <time>2013-05-07T06:13:27Z</time>
      </trkpt>
      <trkpt lat="45.51567" lon="6.97857">
        <ele>2814.88</ele>
        <time>2013-05-07T06:13:41Z</time>
      </trkpt>
      <trkpt lat="45.51577" lon="6.97866">
        <ele>2816.32</ele>
        <time>2013-05-07T06:13:54Z</time>
      </trkpt>
      <trkpt lat="45.51586" lon="6.97873">
        <ele>2818.24</ele>
        <time>2013-05-07T06:14:07Z</time>
      </trkpt>
      <trkpt lat="45.51596" lon="6.97879">
        <ele>2821.13</ele>
        <time>2013-05-07T06:14:21Z</time>
      </trkpt>
      <trkpt lat="45.51603" lon="6.97885">
        <ele>2823.53</ele>
        <time>2013-05-07T06:14:35Z</time>
      </trkpt>
      <trkpt lat="45.51604" lon="6.97888">
        <ele>2824.49</ele>
        <time>2013-05-07T06:14:40Z</time>
      </trkpt>
      <trkpt lat="45.51613" lon="6.97899">
        <ele>2826.89</ele>
        <time>2013-05-07T06:14:55Z</time>
      </trkpt>
      <trkpt lat="45.51619" lon="6.97908">
        <ele>2829.3</ele>
        <time>2013-05-07T06:15:08Z</time>
      </trkpt>
      <trkpt lat="45.51625" lon="6.97915">
        <ele>2831.22</ele>
        <time>2013-05-07T06:15:20Z</time>
      </trkpt>
      <trkpt lat="45.51628" lon="6.97918">
        <ele>2832.66</ele>
        <time>2013-05-07T06:15:26Z</time>
      </trkpt>
      <trkpt lat="45.51639" lon="6.97922">
        <ele>2834.58</ele>
        <time>2013-05-07T06:15:40Z</time>
      </trkpt>
      <trkpt lat="45.51649" lon="6.97924">
        <ele>2836.51</ele>
        <time>2013-05-07T06:15:54Z</time>
      </trkpt>
      <trkpt lat="45.51658" lon="6.97924">
        <ele>2837.95</ele>
        <time>2013-05-07T06:16:06Z</time>
      </trkpt>
      <trkpt lat="45.51667" lon="6.97924">
        <ele>2839.39</ele>
        <time>2013-05-07T06:16:18Z</time>
      </trkpt>
      <trkpt lat="45.51676" lon="6.97923">
        <ele>2841.31</ele>
        <time>2013-05-07T06:16:31Z</time>
      </trkpt>
      <trkpt lat="45.51686" lon="6.97922">
        <ele>2842.76</ele>
        <time>2013-05-07T06:16:44Z</time>
      </trkpt>
      <trkpt lat="45.51696" lon="6.9792">
        <ele>2845.16</ele>
        <time>2013-05-07T06:16:57Z</time>
      </trkpt>
      <trkpt lat="45.51705" lon="6.97921">
        <ele>2847.08</ele>
        <time>2013-05-07T06:17:10Z</time>
      </trkpt>
      <trkpt lat="45.51715" lon="6.97925">
        <ele>2849</ele>
        <time>2013-05-07T06:17:23Z</time>
      </trkpt>
      <trkpt lat="45.51723" lon="6.97927">
        <ele>2851.41</ele>
        <time>2013-05-07T06:17:35Z</time>
      </trkpt>
      <trkpt lat="45.51734" lon="6.97927">
        <ele>2853.81</ele>
        <time>2013-05-07T06:17:49Z</time>
      </trkpt>
      <trkpt lat="45.51741" lon="6.97928">
        <ele>2856.69</ele>
        <time>2013-05-07T06:18:03Z</time>
      </trkpt>
      <trkpt lat="45.5174" lon="6.97922">
        <ele>2856.69</ele>
        <time>2013-05-07T06:18:29Z</time>
      </trkpt>
      <trkpt lat="45.5174" lon="6.97925">
        <ele>2856.69</ele>
        <time>2013-05-07T06:18:44Z</time>
      </trkpt>
      <trkpt lat="45.51742" lon="6.97931">
        <ele>2857.18</ele>
        <time>2013-05-07T06:18:50Z</time>
      </trkpt>
      <trkpt lat="45.51743" lon="6.97949">
        <ele>2859.58</ele>
        <time>2013-05-07T06:19:04Z</time>
      </trkpt>
      <trkpt lat="45.51745" lon="6.97966">
        <ele>2861.98</ele>
        <time>2013-05-07T06:19:21Z</time>
      </trkpt>
      <trkpt lat="45.51743" lon="6.97984">
        <ele>2864.39</ele>
        <time>2013-05-07T06:19:39Z</time>
      </trkpt>
      <trkpt lat="45.51741" lon="6.98002">
        <ele>2867.27</ele>
        <time>2013-05-07T06:19:56Z</time>
      </trkpt>
      <trkpt lat="45.51741" lon="6.98019">
        <ele>2869.67</ele>
        <time>2013-05-07T06:20:13Z</time>
      </trkpt>
      <trkpt lat="45.51741" lon="6.98035">
        <ele>2872.08</ele>
        <time>2013-05-07T06:20:29Z</time>
      </trkpt>
      <trkpt lat="45.51742" lon="6.98048">
        <ele>2874.48</ele>
        <time>2013-05-07T06:20:44Z</time>
      </trkpt>
      <trkpt lat="45.51738" lon="6.98067">
        <ele>2877.36</ele>
        <time>2013-05-07T06:21:01Z</time>
      </trkpt>
      <trkpt lat="45.51738" lon="6.98082">
        <ele>2879.29</ele>
        <time>2013-05-07T06:21:17Z</time>
      </trkpt>
      <trkpt lat="45.51738" lon="6.98089">
        <ele>2879.77</ele>
        <time>2013-05-07T06:21:22Z</time>
      </trkpt>
      <trkpt lat="45.51738" lon="6.98105">
        <ele>2882.65</ele>
        <time>2013-05-07T06:21:40Z</time>
      </trkpt>
      <trkpt lat="45.51735" lon="6.98118">
        <ele>2884.57</ele>
        <time>2013-05-07T06:21:53Z</time>
      </trkpt>
      <trkpt lat="45.51734" lon="6.98134">
        <ele>2886.98</ele>
        <time>2013-05-07T06:22:08Z</time>
      </trkpt>
      <trkpt lat="45.51735" lon="6.98141">
        <ele>2888.42</ele>
        <time>2013-05-07T06:22:22Z</time>
      </trkpt>
      <trkpt lat="45.51735" lon="6.98142">
        <ele>2888.42</ele>
        <time>2013-05-07T06:22:23Z</time>
      </trkpt>
      <trkpt lat="45.51731" lon="6.98158">
        <ele>2891.3</ele>
        <time>2013-05-07T06:22:40Z</time>
      </trkpt>
      <trkpt lat="45.51727" lon="6.9817">
        <ele>2894.67</ele>
        <time>2013-05-07T06:22:56Z</time>
      </trkpt>
      <trkpt lat="45.51725" lon="6.98179">
        <ele>2896.59</ele>
        <time>2013-05-07T06:23:10Z</time>
      </trkpt>
      <trkpt lat="45.51723" lon="6.98189">
        <ele>2898.99</ele>
        <time>2013-05-07T06:23:23Z</time>
      </trkpt>
      <trkpt lat="45.5172" lon="6.98197">
        <ele>2901.4</ele>
        <time>2013-05-07T06:23:36Z</time>
      </trkpt>
      <trkpt lat="45.51719" lon="6.98207">
        <ele>2903.8</ele>
        <time>2013-05-07T06:23:49Z</time>
      </trkpt>
      <trkpt lat="45.51717" lon="6.98215">
        <ele>2905.72</ele>
        <time>2013-05-07T06:24:03Z</time>
      </trkpt>
      <trkpt lat="45.51716" lon="6.98223">
        <ele>2908.13</ele>
        <time>2013-05-07T06:24:16Z</time>
      </trkpt>
      <trkpt lat="45.5171" lon="6.98227">
        <ele>2910.05</ele>
        <time>2013-05-07T06:24:28Z</time>
      </trkpt>
      <trkpt lat="45.51699" lon="6.98227">
        <ele>2911.97</ele>
        <time>2013-05-07T06:24:44Z</time>
      </trkpt>
      <trkpt lat="45.5169" lon="6.98227">
        <ele>2914.37</ele>
        <time>2013-05-07T06:24:58Z</time>
      </trkpt>
      <trkpt lat="45.51685" lon="6.98228">
        <ele>2916.3</ele>
        <time>2013-05-07T06:25:11Z</time>
      </trkpt>
      <trkpt lat="45.51676" lon="6.98226">
        <ele>2919.18</ele>
        <time>2013-05-07T06:25:30Z</time>
      </trkpt>
      <trkpt lat="45.51666" lon="6.98225">
        <ele>2921.58</ele>
        <time>2013-05-07T06:25:46Z</time>
      </trkpt>
      <trkpt lat="45.51659" lon="6.98224">
        <ele>2923.51</ele>
        <time>2013-05-07T06:25:59Z</time>
      </trkpt>
      <trkpt lat="45.51647" lon="6.98222">
        <ele>2925.43</ele>
        <time>2013-05-07T06:26:14Z</time>
      </trkpt>
      <trkpt lat="45.5164" lon="6.98226">
        <ele>2927.83</ele>
        <time>2013-05-07T06:26:28Z</time>
      </trkpt>
      <trkpt lat="45.51637" lon="6.98229">
        <ele>2930.24</ele>
        <time>2013-05-07T06:26:41Z</time>
      </trkpt>
      <trkpt lat="45.51632" lon="6.9823">
        <ele>2932.16</ele>
        <time>2013-05-07T06:26:52Z</time>
      </trkpt>
      <trkpt lat="45.51627" lon="6.98234">
        <ele>2934.08</ele>
        <time>2013-05-07T06:27:04Z</time>
      </trkpt>
      <trkpt lat="45.51623" lon="6.98236">
        <ele>2936</ele>
        <time>2013-05-07T06:27:15Z</time>
      </trkpt>
      <trkpt lat="45.51617" lon="6.98238">
        <ele>2938.41</ele>
        <time>2013-05-07T06:27:27Z</time>
      </trkpt>
      <trkpt lat="45.51612" lon="6.9824">
        <ele>2940.33</ele>
        <time>2013-05-07T06:27:39Z</time>
      </trkpt>
      <trkpt lat="45.51607" lon="6.9824">
        <ele>2942.25</ele>
        <time>2013-05-07T06:27:52Z</time>
      </trkpt>
      <trkpt lat="45.51602" lon="6.98242">
        <ele>2944.66</ele>
        <time>2013-05-07T06:28:04Z</time>
      </trkpt>
      <trkpt lat="45.51597" lon="6.98242">
        <ele>2946.58</ele>
        <time>2013-05-07T06:28:17Z</time>
      </trkpt>
      <trkpt lat="45.51592" lon="6.98243">
        <ele>2948.02</ele>
        <time>2013-05-07T06:28:30Z</time>
      </trkpt>
      <trkpt lat="45.51588" lon="6.98242">
        <ele>2948.5</ele>
        <time>2013-05-07T06:28:59Z</time>
      </trkpt>
      <trkpt lat="45.51591" lon="6.98244">
        <ele>2947.54</ele>
        <time>2013-05-07T06:29:12Z</time>
      </trkpt>
      <trkpt lat="45.51593" lon="6.98245">
        <ele>2947.54</ele>
        <time>2013-05-07T06:29:39Z</time>
      </trkpt>
      <trkpt lat="45.51593" lon="6.98247">
        <ele>2947.54</ele>
        <time>2013-05-07T06:29:57Z</time>
      </trkpt>
      <trkpt lat="45.51594" lon="6.98246">
        <ele>2948.98</ele>
        <time>2013-05-07T06:30:07Z</time>
      </trkpt>
      <trkpt lat="45.51594" lon="6.98246">
        <ele>2949.46</ele>
        <time>2013-05-07T06:30:24Z</time>
      </trkpt>
      <trkpt lat="45.51591" lon="6.98245">
        <ele>2949.94</ele>
        <time>2013-05-07T06:30:41Z</time>
      </trkpt>
      <trkpt lat="45.51586" lon="6.98247">
        <ele>2950.9</ele>
        <time>2013-05-07T06:30:54Z</time>
      </trkpt>
      <trkpt lat="45.51579" lon="6.9825">
        <ele>2952.83</ele>
        <time>2013-05-07T06:31:07Z</time>
      </trkpt>
      <trkpt lat="45.51571" lon="6.98252">
        <ele>2955.23</ele>
        <time>2013-05-07T06:31:20Z</time>
      </trkpt>
      <trkpt lat="45.51564" lon="6.98253">
        <ele>2957.15</ele>
        <time>2013-05-07T06:31:33Z</time>
      </trkpt>
      <trkpt lat="45.51557" lon="6.98254">
        <ele>2959.08</ele>
        <time>2013-05-07T06:31:46Z</time>
      </trkpt>
      <trkpt lat="45.5155" lon="6.98254">
        <ele>2961</ele>
        <time>2013-05-07T06:31:59Z</time>
      </trkpt>
      <trkpt lat="45.51544" lon="6.98255">
        <ele>2962.92</ele>
        <time>2013-05-07T06:32:13Z</time>
      </trkpt>
      <trkpt lat="45.51539" lon="6.98255">
        <ele>2964.36</ele>
        <time>2013-05-07T06:32:26Z</time>
      </trkpt>
      <trkpt lat="45.51533" lon="6.98255">
        <ele>2966.29</ele>
        <time>2013-05-07T06:32:39Z</time>
      </trkpt>
      <trkpt lat="45.51526" lon="6.98255">
        <ele>2968.21</ele>
        <time>2013-05-07T06:32:52Z</time>
      </trkpt>
      <trkpt lat="45.51525" lon="6.98256">
        <ele>2969.17</ele>
        <time>2013-05-07T06:33:05Z</time>
      </trkpt>
      <trkpt lat="45.5152" lon="6.98257">
        <ele>2971.09</ele>
        <time>2013-05-07T06:33:17Z</time>
      </trkpt>
      <trkpt lat="45.51514" lon="6.98257">
        <ele>2972.53</ele>
        <time>2013-05-07T06:33:28Z</time>
      </trkpt>
      <trkpt lat="45.5151" lon="6.98258">
        <ele>2974.46</ele>
        <time>2013-05-07T06:33:39Z</time>
      </trkpt>
      <trkpt lat="45.51504" lon="6.98257">
        <ele>2976.38</ele>
        <time>2013-05-07T06:33:50Z</time>
      </trkpt>
      <trkpt lat="45.51499" lon="6.98255">
        <ele>2977.82</ele>
        <time>2013-05-07T06:34:01Z</time>
      </trkpt>
      <trkpt lat="45.51495" lon="6.98253">
        <ele>2979.26</ele>
        <time>2013-05-07T06:34:12Z</time>
      </trkpt>
      <trkpt lat="45.5149" lon="6.98249">
        <ele>2981.19</ele>
        <time>2013-05-07T06:34:24Z</time>
      </trkpt>
      <trkpt lat="45.51485" lon="6.98245">
        <ele>2982.63</ele>
        <time>2013-05-07T06:34:37Z</time>
      </trkpt>
      <trkpt lat="45.51483" lon="6.98249">
        <ele>2983.11</ele>
        <time>2013-05-07T06:34:47Z</time>
      </trkpt>
      <trkpt lat="45.51486" lon="6.98257">
        <ele>2984.07</ele>
        <time>2013-05-07T06:34:58Z</time>
      </trkpt>
      <trkpt lat="45.51485" lon="6.98265">
        <ele>2985.99</ele>
        <time>2013-05-07T06:35:11Z</time>
      </trkpt>
      <trkpt lat="45.51485" lon="6.98272">
        <ele>2987.43</ele>
        <time>2013-05-07T06:35:24Z</time>
      </trkpt>
      <trkpt lat="45.51485" lon="6.98284">
        <ele>2989.36</ele>
        <time>2013-05-07T06:35:35Z</time>
      </trkpt>
      <trkpt lat="45.51487" lon="6.9829">
        <ele>2990.8</ele>
        <time>2013-05-07T06:35:46Z</time>
      </trkpt>
      <trkpt lat="45.51487" lon="6.98301">
        <ele>2992.24</ele>
        <time>2013-05-07T06:35:57Z</time>
      </trkpt>
      <trkpt lat="45.51488" lon="6.98311">
        <ele>2993.68</ele>
        <time>2013-05-07T06:36:10Z</time>
      </trkpt>
      <trkpt lat="45.51486" lon="6.98308">
        <ele>2995.12</ele>
        <time>2013-05-07T06:36:25Z</time>
      </trkpt>
      <trkpt lat="45.51479" lon="6.98304">
        <ele>2996.57</ele>
        <time>2013-05-07T06:36:36Z</time>
      </trkpt>
      <trkpt lat="45.51473" lon="6.98299">
        <ele>2998.49</ele>
        <time>2013-05-07T06:36:46Z</time>
      </trkpt>
      <trkpt lat="45.5147" lon="6.98294">
        <ele>2999.93</ele>
        <time>2013-05-07T06:36:57Z</time>
      </trkpt>
      <trkpt lat="45.51466" lon="6.98291">
        <ele>3001.37</ele>
        <time>2013-05-07T06:37:08Z</time>
      </trkpt>
      <trkpt lat="45.51462" lon="6.98286">
        <ele>3003.3</ele>
        <time>2013-05-07T06:37:19Z</time>
      </trkpt>
      <trkpt lat="45.51459" lon="6.98287">
        <ele>3004.74</ele>
        <time>2013-05-07T06:37:32Z</time>
      </trkpt>
      <trkpt lat="45.51458" lon="6.98298">
        <ele>3006.18</ele>
        <time>2013-05-07T06:37:47Z</time>
      </trkpt>
      <trkpt lat="45.51456" lon="6.98307">
        <ele>3008.1</ele>
        <time>2013-05-07T06:38:00Z</time>
      </trkpt>
      <trkpt lat="45.51453" lon="6.98315">
        <ele>3010.03</ele>
        <time>2013-05-07T06:38:13Z</time>
      </trkpt>
      <trkpt lat="45.51452" lon="6.98329">
        <ele>3011.47</ele>
        <time>2013-05-07T06:38:27Z</time>
      </trkpt>
      <trkpt lat="45.51456" lon="6.98343">
        <ele>3013.87</ele>
        <time>2013-05-07T06:38:40Z</time>
      </trkpt>
      <trkpt lat="45.51456" lon="6.98351">
        <ele>3015.79</ele>
        <time>2013-05-07T06:38:54Z</time>
      </trkpt>
      <trkpt lat="45.51459" lon="6.98362">
        <ele>3017.72</ele>
        <time>2013-05-07T06:39:07Z</time>
      </trkpt>
      <trkpt lat="45.5146" lon="6.98374">
        <ele>3020.12</ele>
        <time>2013-05-07T06:39:22Z</time>
      </trkpt>
      <trkpt lat="45.51463" lon="6.98384">
        <ele>3022.04</ele>
        <time>2013-05-07T06:39:34Z</time>
      </trkpt>
      <trkpt lat="45.51466" lon="6.98396">
        <ele>3023.48</ele>
        <time>2013-05-07T06:39:46Z</time>
      </trkpt>
      <trkpt lat="45.51465" lon="6.98404">
        <ele>3025.89</ele>
        <time>2013-05-07T06:40:00Z</time>
      </trkpt>
      <trkpt lat="45.51466" lon="6.98413">
        <ele>3027.81</ele>
        <time>2013-05-07T06:40:13Z</time>
      </trkpt>
      <trkpt lat="45.51469" lon="6.98425">
        <ele>3030.21</ele>
        <time>2013-05-07T06:40:27Z</time>
      </trkpt>
      <trkpt lat="45.51472" lon="6.98439">
        <ele>3032.14</ele>
        <time>2013-05-07T06:40:43Z</time>
      </trkpt>
      <trkpt lat="45.51473" lon="6.98451">
        <ele>3034.06</ele>
        <time>2013-05-07T06:40:56Z</time>
      </trkpt>
      <trkpt lat="45.51474" lon="6.9846">
        <ele>3035.98</ele>
        <time>2013-05-07T06:41:10Z</time>
      </trkpt>
      <trkpt lat="45.51472" lon="6.9847">
        <ele>3037.9</ele>
        <time>2013-05-07T06:41:24Z</time>
      </trkpt>
      <trkpt lat="45.5147" lon="6.9848">
        <ele>3039.83</ele>
        <time>2013-05-07T06:41:37Z</time>
      </trkpt>
      <trkpt lat="45.5147" lon="6.98489">
        <ele>3042.71</ele>
        <time>2013-05-07T06:41:53Z</time>
      </trkpt>
      <trkpt lat="45.51468" lon="6.98498">
        <ele>3044.63</ele>
        <time>2013-05-07T06:42:06Z</time>
      </trkpt>
      <trkpt lat="45.51466" lon="6.98507">
        <ele>3047.04</ele>
        <time>2013-05-07T06:42:20Z</time>
      </trkpt>
      <trkpt lat="45.51461" lon="6.98517">
        <ele>3049.44</ele>
        <time>2013-05-07T06:42:35Z</time>
      </trkpt>
      <trkpt lat="45.51458" lon="6.9853">
        <ele>3051.36</ele>
        <time>2013-05-07T06:42:51Z</time>
      </trkpt>
      <trkpt lat="45.51454" lon="6.98539">
        <ele>3053.28</ele>
        <time>2013-05-07T06:43:05Z</time>
      </trkpt>
      <trkpt lat="45.51454" lon="6.98548">
        <ele>3055.21</ele>
        <time>2013-05-07T06:43:17Z</time>
      </trkpt>
      <trkpt lat="45.51454" lon="6.98559">
        <ele>3057.13</ele>
        <time>2013-05-07T06:43:31Z</time>
      </trkpt>
      <trkpt lat="45.51455" lon="6.98567">
        <ele>3059.05</ele>
        <time>2013-05-07T06:43:44Z</time>
      </trkpt>
      <trkpt lat="45.51457" lon="6.98578">
        <ele>3060.49</ele>
        <time>2013-05-07T06:43:56Z</time>
      </trkpt>
      <trkpt lat="45.51455" lon="6.9858">
        <ele>3061.94</ele>
        <time>2013-05-07T06:44:06Z</time>
      </trkpt>
      <trkpt lat="45.51448" lon="6.98577">
        <ele>3064.34</ele>
        <time>2013-05-07T06:44:21Z</time>
      </trkpt>
      <trkpt lat="45.51441" lon="6.98574">
        <ele>3066.26</ele>
        <time>2013-05-07T06:44:33Z</time>
      </trkpt>
      <trkpt lat="45.51436" lon="6.98573">
        <ele>3068.19</ele>
        <time>2013-05-07T06:44:47Z</time>
      </trkpt>
      <trkpt lat="45.51429" lon="6.98568">
        <ele>3070.11</ele>
        <time>2013-05-07T06:44:59Z</time>
      </trkpt>
      <trkpt lat="45.51425" lon="6.98568">
        <ele>3071.07</ele>
        <time>2013-05-07T06:45:09Z</time>
      </trkpt>
      <trkpt lat="45.51427" lon="6.98577">
        <ele>3072.51</ele>
        <time>2013-05-07T06:45:22Z</time>
      </trkpt>
      <trkpt lat="45.51428" lon="6.98587">
        <ele>3074.43</ele>
        <time>2013-05-07T06:45:33Z</time>
      </trkpt>
      <trkpt lat="45.5143" lon="6.98596">
        <ele>3075.88</ele>
        <time>2013-05-07T06:45:45Z</time>
      </trkpt>
      <trkpt lat="45.5143" lon="6.98606">
        <ele>3078.76</ele>
        <time>2013-05-07T06:46:02Z</time>
      </trkpt>
      <trkpt lat="45.51429" lon="6.98612">
        <ele>3079.24</ele>
        <time>2013-05-07T06:46:07Z</time>
      </trkpt>
      <trkpt lat="45.51429" lon="6.98621">
        <ele>3081.16</ele>
        <time>2013-05-07T06:46:21Z</time>
      </trkpt>
      <trkpt lat="45.51429" lon="6.98625">
        <ele>3082.12</ele>
        <time>2013-05-07T06:46:25Z</time>
      </trkpt>
      <trkpt lat="45.51429" lon="6.98637">
        <ele>3084.53</ele>
        <time>2013-05-07T06:46:40Z</time>
      </trkpt>
      <trkpt lat="45.51429" lon="6.98648">
        <ele>3086.45</ele>
        <time>2013-05-07T06:46:54Z</time>
      </trkpt>
      <trkpt lat="45.51431" lon="6.98658">
        <ele>3088.85</ele>
        <time>2013-05-07T06:47:07Z</time>
      </trkpt>
      <trkpt lat="45.51433" lon="6.98665">
        <ele>3090.29</ele>
        <time>2013-05-07T06:47:20Z</time>
      </trkpt>
      <trkpt lat="45.51436" lon="6.98674">
        <ele>3092.7</ele>
        <time>2013-05-07T06:47:33Z</time>
      </trkpt>
      <trkpt lat="45.51436" lon="6.98683">
        <ele>3094.62</ele>
        <time>2013-05-07T06:47:45Z</time>
      </trkpt>
      <trkpt lat="45.51434" lon="6.98693">
        <ele>3096.06</ele>
        <time>2013-05-07T06:47:58Z</time>
      </trkpt>
      <trkpt lat="45.51432" lon="6.987">
        <ele>3098.47</ele>
        <time>2013-05-07T06:48:12Z</time>
      </trkpt>
      <trkpt lat="45.51428" lon="6.98709">
        <ele>3100.87</ele>
        <time>2013-05-07T06:48:25Z</time>
      </trkpt>
      <trkpt lat="45.51425" lon="6.98717">
        <ele>3102.31</ele>
        <time>2013-05-07T06:48:37Z</time>
      </trkpt>
      <trkpt lat="45.51421" lon="6.98728">
        <ele>3104.71</ele>
        <time>2013-05-07T06:48:55Z</time>
      </trkpt>
      <trkpt lat="45.51419" lon="6.98732">
        <ele>3105.2</ele>
        <time>2013-05-07T06:48:59Z</time>
      </trkpt>
      <trkpt lat="45.51416" lon="6.98744">
        <ele>3106.64</ele>
        <time>2013-05-07T06:49:13Z</time>
      </trkpt>
      <trkpt lat="45.51413" lon="6.98755">
        <ele>3108.56</ele>
        <time>2013-05-07T06:49:28Z</time>
      </trkpt>
      <trkpt lat="45.51411" lon="6.98766">
        <ele>3110.48</ele>
        <time>2013-05-07T06:49:42Z</time>
      </trkpt>
      <trkpt lat="45.5141" lon="6.98777">
        <ele>3112.41</ele>
        <time>2013-05-07T06:49:56Z</time>
      </trkpt>
      <trkpt lat="45.5141" lon="6.98787">
        <ele>3114.33</ele>
        <time>2013-05-07T06:50:09Z</time>
      </trkpt>
      <trkpt lat="45.51409" lon="6.98796">
        <ele>3116.25</ele>
        <time>2013-05-07T06:50:21Z</time>
      </trkpt>
      <trkpt lat="45.51409" lon="6.98806">
        <ele>3118.17</ele>
        <time>2013-05-07T06:50:35Z</time>
      </trkpt>
      <trkpt lat="45.51408" lon="6.98815">
        <ele>3120.1</ele>
        <time>2013-05-07T06:50:49Z</time>
      </trkpt>
      <trkpt lat="45.51408" lon="6.98824">
        <ele>3122.02</ele>
        <time>2013-05-07T06:51:02Z</time>
      </trkpt>
      <trkpt lat="45.51408" lon="6.98834">
        <ele>3123.46</ele>
        <time>2013-05-07T06:51:15Z</time>
      </trkpt>
      <trkpt lat="45.5141" lon="6.98843">
        <ele>3125.86</ele>
        <time>2013-05-07T06:51:28Z</time>
      </trkpt>
      <trkpt lat="45.51412" lon="6.98849">
        <ele>3127.31</ele>
        <time>2013-05-07T06:51:40Z</time>
      </trkpt>
      <trkpt lat="45.51415" lon="6.98857">
        <ele>3128.75</ele>
        <time>2013-05-07T06:51:52Z</time>
      </trkpt>
      <trkpt lat="45.51418" lon="6.98863">
        <ele>3130.67</ele>
        <time>2013-05-07T06:52:05Z</time>
      </trkpt>
      <trkpt lat="45.51421" lon="6.9887">
        <ele>3132.59</ele>
        <time>2013-05-07T06:52:18Z</time>
      </trkpt>
      <trkpt lat="45.51423" lon="6.98879">
        <ele>3134.52</ele>
        <time>2013-05-07T06:52:30Z</time>
      </trkpt>
      <trkpt lat="45.51425" lon="6.98886">
        <ele>3135.96</ele>
        <time>2013-05-07T06:52:42Z</time>
      </trkpt>
      <trkpt lat="45.51427" lon="6.98893">
        <ele>3137.4</ele>
        <time>2013-05-07T06:52:54Z</time>
      </trkpt>
      <trkpt lat="45.51427" lon="6.98902">
        <ele>3138.84</ele>
        <time>2013-05-07T06:53:07Z</time>
      </trkpt>
      <trkpt lat="45.51427" lon="6.98909">
        <ele>3140.76</ele>
        <time>2013-05-07T06:53:18Z</time>
      </trkpt>
      <trkpt lat="45.51427" lon="6.98916">
        <ele>3142.69</ele>
        <time>2013-05-07T06:53:30Z</time>
      </trkpt>
      <trkpt lat="45.51428" lon="6.98923">
        <ele>3144.13</ele>
        <time>2013-05-07T06:53:42Z</time>
      </trkpt>
      <trkpt lat="45.51428" lon="6.9893">
        <ele>3146.05</ele>
        <time>2013-05-07T06:53:54Z</time>
      </trkpt>
      <trkpt lat="45.51428" lon="6.98938">
        <ele>3147.01</ele>
        <time>2013-05-07T06:54:05Z</time>
      </trkpt>
      <trkpt lat="45.51429" lon="6.98944">
        <ele>3148.46</ele>
        <time>2013-05-07T06:54:16Z</time>
      </trkpt>
      <trkpt lat="45.51431" lon="6.98952">
        <ele>3150.38</ele>
        <time>2013-05-07T06:54:28Z</time>
      </trkpt>
      <trkpt lat="45.5143" lon="6.98958">
        <ele>3151.82</ele>
        <time>2013-05-07T06:54:39Z</time>
      </trkpt>
      <trkpt lat="45.51429" lon="6.98961">
        <ele>3152.78</ele>
        <time>2013-05-07T06:54:52Z</time>
      </trkpt>
      <trkpt lat="45.51427" lon="6.98961">
        <ele>3152.78</ele>
        <time>2013-05-07T06:55:17Z</time>
      </trkpt>
      <trkpt lat="45.51427" lon="6.98964">
        <ele>3153.74</ele>
        <time>2013-05-07T06:55:32Z</time>
      </trkpt>
      <trkpt lat="45.51424" lon="6.9897">
        <ele>3155.66</ele>
        <time>2013-05-07T06:55:44Z</time>
      </trkpt>
      <trkpt lat="45.51419" lon="6.98977">
        <ele>3157.11</ele>
        <time>2013-05-07T06:55:57Z</time>
      </trkpt>
      <trkpt lat="45.51414" lon="6.98981">
        <ele>3159.03</ele>
        <time>2013-05-07T06:56:10Z</time>
      </trkpt>
      <trkpt lat="45.5141" lon="6.98985">
        <ele>3160.95</ele>
        <time>2013-05-07T06:56:22Z</time>
      </trkpt>
      <trkpt lat="45.51406" lon="6.98989">
        <ele>3162.39</ele>
        <time>2013-05-07T06:56:33Z</time>
      </trkpt>
      <trkpt lat="45.51402" lon="6.98993">
        <ele>3163.84</ele>
        <time>2013-05-07T06:56:44Z</time>
      </trkpt>
      <trkpt lat="45.51399" lon="6.98995">
        <ele>3165.28</ele>
        <time>2013-05-07T06:56:55Z</time>
      </trkpt>
      <trkpt lat="45.51394" lon="6.98998">
        <ele>3166.72</ele>
        <time>2013-05-07T06:57:06Z</time>
      </trkpt>
      <trkpt lat="45.5139" lon="6.98998">
        <ele>3168.16</ele>
        <time>2013-05-07T06:57:16Z</time>
      </trkpt>
      <trkpt lat="45.51386" lon="6.98998">
        <ele>3169.6</ele>
        <time>2013-05-07T06:57:29Z</time>
      </trkpt>
      <trkpt lat="45.51386" lon="6.98999">
        <ele>3169.6</ele>
        <time>2013-05-07T06:57:59Z</time>
      </trkpt>
      <trkpt lat="45.51385" lon="6.98999">
        <ele>3169.6</ele>
        <time>2013-05-07T06:58:24Z</time>
      </trkpt>
      <trkpt lat="45.51385" lon="6.99009">
        <ele>3171.53</ele>
        <time>2013-05-07T06:58:34Z</time>
      </trkpt>
      <trkpt lat="45.51384" lon="6.99017">
        <ele>3172.97</ele>
        <time>2013-05-07T06:58:46Z</time>
      </trkpt>
      <trkpt lat="45.51384" lon="6.99026">
        <ele>3174.89</ele>
        <time>2013-05-07T06:58:59Z</time>
      </trkpt>
      <trkpt lat="45.51383" lon="6.99034">
        <ele>3176.81</ele>
        <time>2013-05-07T06:59:11Z</time>
      </trkpt>
      <trkpt lat="45.51383" lon="6.99041">
        <ele>3178.74</ele>
        <time>2013-05-07T06:59:22Z</time>
      </trkpt>
      <trkpt lat="45.51383" lon="6.99049">
        <ele>3179.7</ele>
        <time>2013-05-07T06:59:33Z</time>
      </trkpt>
      <trkpt lat="45.51384" lon="6.99055">
        <ele>3181.14</ele>
        <time>2013-05-07T06:59:44Z</time>
      </trkpt>
      <trkpt lat="45.51382" lon="6.99061">
        <ele>3182.58</ele>
        <time>2013-05-07T06:59:54Z</time>
      </trkpt>
      <trkpt lat="45.51381" lon="6.99067">
        <ele>3184.5</ele>
        <time>2013-05-07T07:00:04Z</time>
      </trkpt>
      <trkpt lat="45.51382" lon="6.99072">
        <ele>3185.95</ele>
        <time>2013-05-07T07:00:14Z</time>
      </trkpt>
      <trkpt lat="45.51381" lon="6.99077">
        <ele>3186.91</ele>
        <time>2013-05-07T07:00:25Z</time>
      </trkpt>
      <trkpt lat="45.51381" lon="6.99084">
        <ele>3188.35</ele>
        <time>2013-05-07T07:00:35Z</time>
      </trkpt>
      <trkpt lat="45.5138" lon="6.99089">
        <ele>3190.27</ele>
        <time>2013-05-07T07:00:45Z</time>
      </trkpt>
      <trkpt lat="45.5138" lon="6.99096">
        <ele>3191.71</ele>
        <time>2013-05-07T07:00:55Z</time>
      </trkpt>
      <trkpt lat="45.5138" lon="6.99102">
        <ele>3192.68</ele>
        <time>2013-05-07T07:01:05Z</time>
      </trkpt>
      <trkpt lat="45.51378" lon="6.99107">
        <ele>3194.12</ele>
        <time>2013-05-07T07:01:15Z</time>
      </trkpt>
      <trkpt lat="45.51376" lon="6.99111">
        <ele>3195.08</ele>
        <time>2013-05-07T07:01:25Z</time>
      </trkpt>
      <trkpt lat="45.51373" lon="6.99116">
        <ele>3196.52</ele>
        <time>2013-05-07T07:01:35Z</time>
      </trkpt>
      <trkpt lat="45.5137" lon="6.99121">
        <ele>3198.44</ele>
        <time>2013-05-07T07:01:46Z</time>
      </trkpt>
      <trkpt lat="45.51369" lon="6.99126">
        <ele>3199.89</ele>
        <time>2013-05-07T07:01:57Z</time>
      </trkpt>
      <trkpt lat="45.51366" lon="6.99132">
        <ele>3201.33</ele>
        <time>2013-05-07T07:02:08Z</time>
      </trkpt>
      <trkpt lat="45.51363" lon="6.99138">
        <ele>3202.77</ele>
        <time>2013-05-07T07:02:18Z</time>
      </trkpt>
      <trkpt lat="45.5136" lon="6.99145">
        <ele>3204.69</ele>
        <time>2013-05-07T07:02:30Z</time>
      </trkpt>
      <trkpt lat="45.51356" lon="6.99151">
        <ele>3206.13</ele>
        <time>2013-05-07T07:02:41Z</time>
      </trkpt>
      <trkpt lat="45.51353" lon="6.99158">
        <ele>3208.06</ele>
        <time>2013-05-07T07:02:53Z</time>
      </trkpt>
      <trkpt lat="45.5135" lon="6.99164">
        <ele>3209.5</ele>
        <time>2013-05-07T07:03:04Z</time>
      </trkpt>
      <trkpt lat="45.51347" lon="6.99169">
        <ele>3210.94</ele>
        <time>2013-05-07T07:03:15Z</time>
      </trkpt>
      <trkpt lat="45.51344" lon="6.99176">
        <ele>3212.86</ele>
        <time>2013-05-07T07:03:27Z</time>
      </trkpt>
      <trkpt lat="45.51341" lon="6.9918">
        <ele>3214.31</ele>
        <time>2013-05-07T07:03:38Z</time>
      </trkpt>
      <trkpt lat="45.5134" lon="6.99186">
        <ele>3215.75</ele>
        <time>2013-05-07T07:03:48Z</time>
      </trkpt>
      <trkpt lat="45.51339" lon="6.99187">
        <ele>3216.23</ele>
        <time>2013-05-07T07:03:59Z</time>
      </trkpt>
      <trkpt lat="45.51338" lon="6.99193">
        <ele>3218.15</ele>
        <time>2013-05-07T07:04:15Z</time>
      </trkpt>
      <trkpt lat="45.51335" lon="6.99201">
        <ele>3220.55</ele>
        <time>2013-05-07T07:04:27Z</time>
      </trkpt>
      <trkpt lat="45.51333" lon="6.99209">
        <ele>3222</ele>
        <time>2013-05-07T07:04:38Z</time>
      </trkpt>
      <trkpt lat="45.51331" lon="6.99216">
        <ele>3223.92</ele>
        <time>2013-05-07T07:04:49Z</time>
      </trkpt>
      <trkpt lat="45.51329" lon="6.99223">
        <ele>3225.36</ele>
        <time>2013-05-07T07:05:00Z</time>
      </trkpt>
      <trkpt lat="45.51328" lon="6.99228">
        <ele>3226.32</ele>
        <time>2013-05-07T07:05:11Z</time>
      </trkpt>
      <trkpt lat="45.51325" lon="6.99233">
        <ele>3228.24</ele>
        <time>2013-05-07T07:05:21Z</time>
      </trkpt>
      <trkpt lat="45.51323" lon="6.99239">
        <ele>3229.21</ele>
        <time>2013-05-07T07:05:31Z</time>
      </trkpt>
      <trkpt lat="45.51321" lon="6.99243">
        <ele>3231.13</ele>
        <time>2013-05-07T07:05:41Z</time>
      </trkpt>
      <trkpt lat="45.51318" lon="6.99249">
        <ele>3232.57</ele>
        <time>2013-05-07T07:05:51Z</time>
      </trkpt>
      <trkpt lat="45.51315" lon="6.99255">
        <ele>3234.01</ele>
        <time>2013-05-07T07:06:02Z</time>
      </trkpt>
      <trkpt lat="45.51313" lon="6.9926">
        <ele>3235.45</ele>
        <time>2013-05-07T07:06:13Z</time>
      </trkpt>
      <trkpt lat="45.5131" lon="6.99264">
        <ele>3236.9</ele>
        <time>2013-05-07T07:06:23Z</time>
      </trkpt>
      <trkpt lat="45.51307" lon="6.99269">
        <ele>3238.82</ele>
        <time>2013-05-07T07:06:33Z</time>
      </trkpt>
      <trkpt lat="45.51304" lon="6.99273">
        <ele>3240.26</ele>
        <time>2013-05-07T07:06:43Z</time>
      </trkpt>
      <trkpt lat="45.51303" lon="6.99279">
        <ele>3241.7</ele>
        <time>2013-05-07T07:06:53Z</time>
      </trkpt>
      <trkpt lat="45.51298" lon="6.99286">
        <ele>3243.63</ele>
        <time>2013-05-07T07:07:05Z</time>
      </trkpt>
      <trkpt lat="45.51297" lon="6.9929">
        <ele>3245.07</ele>
        <time>2013-05-07T07:07:17Z</time>
      </trkpt>
      <trkpt lat="45.51294" lon="6.99292">
        <ele>3246.03</ele>
        <time>2013-05-07T07:07:30Z</time>
      </trkpt>
      <trkpt lat="45.5129" lon="6.993">
        <ele>3247.47</ele>
        <time>2013-05-07T07:07:42Z</time>
      </trkpt>
      <trkpt lat="45.51286" lon="6.99303">
        <ele>3249.87</ele>
        <time>2013-05-07T07:07:54Z</time>
      </trkpt>
      <trkpt lat="45.51282" lon="6.99309">
        <ele>3251.8</ele>
        <time>2013-05-07T07:08:06Z</time>
      </trkpt>
      <trkpt lat="45.5128" lon="6.9932">
        <ele>3253.24</ele>
        <time>2013-05-07T07:08:17Z</time>
      </trkpt>
      <trkpt lat="45.51275" lon="6.99322">
        <ele>3255.16</ele>
        <time>2013-05-07T07:08:28Z</time>
      </trkpt>
      <trkpt lat="45.51273" lon="6.99327">
        <ele>3257.56</ele>
        <time>2013-05-07T07:08:39Z</time>
      </trkpt>
      <trkpt lat="45.51269" lon="6.99335">
        <ele>3258.53</ele>
        <time>2013-05-07T07:08:50Z</time>
      </trkpt>
      <trkpt lat="45.51266" lon="6.99339">
        <ele>3260.45</ele>
        <time>2013-05-07T07:09:01Z</time>
      </trkpt>
      <trkpt lat="45.51263" lon="6.99345">
        <ele>3262.85</ele>
        <time>2013-05-07T07:09:13Z</time>
      </trkpt>
      <trkpt lat="45.5126" lon="6.99351">
        <ele>3263.81</ele>
        <time>2013-05-07T07:09:24Z</time>
      </trkpt>
      <trkpt lat="45.51257" lon="6.99357">
        <ele>3265.26</ele>
        <time>2013-05-07T07:09:36Z</time>
      </trkpt>
      <trkpt lat="45.51254" lon="6.99364">
        <ele>3266.7</ele>
        <time>2013-05-07T07:09:47Z</time>
      </trkpt>
      <trkpt lat="45.51251" lon="6.99371">
        <ele>3268.62</ele>
        <time>2013-05-07T07:09:59Z</time>
      </trkpt>
      <trkpt lat="45.51249" lon="6.99377">
        <ele>3270.54</ele>
        <time>2013-05-07T07:10:11Z</time>
      </trkpt>
      <trkpt lat="45.51245" lon="6.99384">
        <ele>3272.46</ele>
        <time>2013-05-07T07:10:24Z</time>
      </trkpt>
      <trkpt lat="45.51243" lon="6.99391">
        <ele>3273.91</ele>
        <time>2013-05-07T07:10:36Z</time>
      </trkpt>
      <trkpt lat="45.51241" lon="6.99397">
        <ele>3275.83</ele>
        <time>2013-05-07T07:10:48Z</time>
      </trkpt>
      <trkpt lat="45.51239" lon="6.99405">
        <ele>3277.75</ele>
        <time>2013-05-07T07:10:59Z</time>
      </trkpt>
      <trkpt lat="45.51237" lon="6.99413">
        <ele>3279.67</ele>
        <time>2013-05-07T07:11:12Z</time>
      </trkpt>
      <trkpt lat="45.51235" lon="6.9942">
        <ele>3281.12</ele>
        <time>2013-05-07T07:11:24Z</time>
      </trkpt>
      <trkpt lat="45.51231" lon="6.99422">
        <ele>3282.56</ele>
        <time>2013-05-07T07:11:35Z</time>
      </trkpt>
      <trkpt lat="45.51232" lon="6.99423">
        <ele>3283.04</ele>
        <time>2013-05-07T07:11:58Z</time>
      </trkpt>
      <trkpt lat="45.51232" lon="6.99425">
        <ele>3283.52</ele>
        <time>2013-05-07T07:12:38Z</time>
      </trkpt>
      <trkpt lat="45.51232" lon="6.99427">
        <ele>3283.52</ele>
        <time>2013-05-07T07:13:06Z</time>
      </trkpt>
      <trkpt lat="45.51233" lon="6.99428">
        <ele>3283.52</ele>
        <time>2013-05-07T07:13:41Z</time>
      </trkpt>
      <trkpt lat="45.51235" lon="6.9943">
        <ele>3283.52</ele>
        <time>2013-05-07T07:14:05Z</time>
      </trkpt>
      <trkpt lat="45.51227" lon="6.99423">
        <ele>3284.96</ele>
        <time>2013-05-07T07:14:17Z</time>
      </trkpt>
      <trkpt lat="45.51218" lon="6.99417">
        <ele>3287.85</ele>
        <time>2013-05-07T07:14:34Z</time>
      </trkpt>
      <trkpt lat="45.51212" lon="6.99411">
        <ele>3289.77</ele>
        <time>2013-05-07T07:14:48Z</time>
      </trkpt>
      <trkpt lat="45.51207" lon="6.99405">
        <ele>3291.69</ele>
        <time>2013-05-07T07:15:01Z</time>
      </trkpt>
      <trkpt lat="45.51202" lon="6.994">
        <ele>3293.13</ele>
        <time>2013-05-07T07:15:14Z</time>
      </trkpt>
      <trkpt lat="45.51198" lon="6.99395">
        <ele>3295.06</ele>
        <time>2013-05-07T07:15:27Z</time>
      </trkpt>
      <trkpt lat="45.51194" lon="6.99392">
        <ele>3296.5</ele>
        <time>2013-05-07T07:15:39Z</time>
      </trkpt>
      <trkpt lat="45.51189" lon="6.99386">
        <ele>3297.94</ele>
        <time>2013-05-07T07:15:51Z</time>
      </trkpt>
      <trkpt lat="45.51187" lon="6.99386">
        <ele>3298.9</ele>
        <time>2013-05-07T07:16:07Z</time>
      </trkpt>
      <trkpt lat="45.51184" lon="6.99381">
        <ele>3299.86</ele>
        <time>2013-05-07T07:16:22Z</time>
      </trkpt>
      <trkpt lat="45.51179" lon="6.99376">
        <ele>3301.79</ele>
        <time>2013-05-07T07:16:34Z</time>
      </trkpt>
      <trkpt lat="45.51174" lon="6.99372">
        <ele>3303.71</ele>
        <time>2013-05-07T07:16:47Z</time>
      </trkpt>
      <trkpt lat="45.51168" lon="6.99368">
        <ele>3305.15</ele>
        <time>2013-05-07T07:16:59Z</time>
      </trkpt>
      <trkpt lat="45.51163" lon="6.99367">
        <ele>3307.07</ele>
        <time>2013-05-07T07:17:12Z</time>
      </trkpt>
      <trkpt lat="45.51159" lon="6.99364">
        <ele>3309</ele>
        <time>2013-05-07T07:17:24Z</time>
      </trkpt>
      <trkpt lat="45.51154" lon="6.99362">
        <ele>3310.44</ele>
        <time>2013-05-07T07:17:36Z</time>
      </trkpt>
      <trkpt lat="45.51149" lon="6.99361">
        <ele>3311.88</ele>
        <time>2013-05-07T07:17:48Z</time>
      </trkpt>
      <trkpt lat="45.51144" lon="6.99359">
        <ele>3313.32</ele>
        <time>2013-05-07T07:18:00Z</time>
      </trkpt>
      <trkpt lat="45.51139" lon="6.99358">
        <ele>3315.24</ele>
        <time>2013-05-07T07:18:13Z</time>
      </trkpt>
      <trkpt lat="45.51133" lon="6.99356">
        <ele>3316.69</ele>
        <time>2013-05-07T07:18:25Z</time>
      </trkpt>
      <trkpt lat="45.51131" lon="6.99354">
        <ele>3318.61</ele>
        <time>2013-05-07T07:18:38Z</time>
      </trkpt>
      <trkpt lat="45.51129" lon="6.99353">
        <ele>3318.61</ele>
        <time>2013-05-07T07:19:10Z</time>
      </trkpt>
      <trkpt lat="45.51128" lon="6.9936">
        <ele>3319.57</ele>
        <time>2013-05-07T07:19:22Z</time>
      </trkpt>
      <trkpt lat="45.51127" lon="6.99371">
        <ele>3321.01</ele>
        <time>2013-05-07T07:19:36Z</time>
      </trkpt>
      <trkpt lat="45.51125" lon="6.99379">
        <ele>3322.93</ele>
        <time>2013-05-07T07:19:48Z</time>
      </trkpt>
      <trkpt lat="45.51123" lon="6.99387">
        <ele>3325.34</ele>
        <time>2013-05-07T07:20:02Z</time>
      </trkpt>
      <trkpt lat="45.51122" lon="6.99396">
        <ele>3326.3</ele>
        <time>2013-05-07T07:20:14Z</time>
      </trkpt>
      <trkpt lat="45.51119" lon="6.99402">
        <ele>3328.7</ele>
        <time>2013-05-07T07:20:28Z</time>
      </trkpt>
      <trkpt lat="45.51118" lon="6.99409">
        <ele>3330.62</ele>
        <time>2013-05-07T07:20:41Z</time>
      </trkpt>
      <trkpt lat="45.51117" lon="6.99419">
        <ele>3332.07</ele>
        <time>2013-05-07T07:20:54Z</time>
      </trkpt>
      <trkpt lat="45.51116" lon="6.99428">
        <ele>3333.99</ele>
        <time>2013-05-07T07:21:07Z</time>
      </trkpt>
      <trkpt lat="45.51115" lon="6.99436">
        <ele>3335.91</ele>
        <time>2013-05-07T07:21:19Z</time>
      </trkpt>
      <trkpt lat="45.51114" lon="6.99443">
        <ele>3336.87</ele>
        <time>2013-05-07T07:21:31Z</time>
      </trkpt>
      <trkpt lat="45.51115" lon="6.9945">
        <ele>3338.32</ele>
        <time>2013-05-07T07:21:43Z</time>
      </trkpt>
      <trkpt lat="45.51113" lon="6.99455">
        <ele>3340.72</ele>
        <time>2013-05-07T07:21:54Z</time>
      </trkpt>
      <trkpt lat="45.51112" lon="6.99461">
        <ele>3341.68</ele>
        <time>2013-05-07T07:22:06Z</time>
      </trkpt>
      <trkpt lat="45.51112" lon="6.9947">
        <ele>3343.6</ele>
        <time>2013-05-07T07:22:17Z</time>
      </trkpt>
      <trkpt lat="45.51112" lon="6.99477">
        <ele>3345.04</ele>
        <time>2013-05-07T07:22:28Z</time>
      </trkpt>
      <trkpt lat="45.51111" lon="6.99483">
        <ele>3346.01</ele>
        <time>2013-05-07T07:22:39Z</time>
      </trkpt>
      <trkpt lat="45.51109" lon="6.99489">
        <ele>3347.45</ele>
        <time>2013-05-07T07:22:50Z</time>
      </trkpt>
      <trkpt lat="45.51109" lon="6.99495">
        <ele>3348.89</ele>
        <time>2013-05-07T07:23:00Z</time>
      </trkpt>
      <trkpt lat="45.51109" lon="6.99501">
        <ele>3350.33</ele>
        <time>2013-05-07T07:23:11Z</time>
      </trkpt>
      <trkpt lat="45.51108" lon="6.99506">
        <ele>3351.77</ele>
        <time>2013-05-07T07:23:22Z</time>
      </trkpt>
      <trkpt lat="45.51107" lon="6.99513">
        <ele>3352.74</ele>
        <time>2013-05-07T07:23:33Z</time>
      </trkpt>
      <trkpt lat="45.51107" lon="6.99517">
        <ele>3354.66</ele>
        <time>2013-05-07T07:23:44Z</time>
      </trkpt>
      <trkpt lat="45.51105" lon="6.99523">
        <ele>3355.62</ele>
        <time>2013-05-07T07:23:55Z</time>
      </trkpt>
      <trkpt lat="45.51104" lon="6.9953">
        <ele>3357.54</ele>
        <time>2013-05-07T07:24:07Z</time>
      </trkpt>
      <trkpt lat="45.51103" lon="6.99531">
        <ele>3358.5</ele>
        <time>2013-05-07T07:24:18Z</time>
      </trkpt>
      <trkpt lat="45.511" lon="6.99529">
        <ele>3359.95</ele>
        <time>2013-05-07T07:24:30Z</time>
      </trkpt>
      <trkpt lat="45.51096" lon="6.99529">
        <ele>3361.39</ele>
        <time>2013-05-07T07:24:42Z</time>
      </trkpt>
      <trkpt lat="45.51092" lon="6.99526">
        <ele>3362.83</ele>
        <time>2013-05-07T07:24:55Z</time>
      </trkpt>
      <trkpt lat="45.51087" lon="6.99523">
        <ele>3364.75</ele>
        <time>2013-05-07T07:25:08Z</time>
      </trkpt>
      <trkpt lat="45.51083" lon="6.99522">
        <ele>3366.19</ele>
        <time>2013-05-07T07:25:20Z</time>
      </trkpt>
      <trkpt lat="45.51078" lon="6.99517">
        <ele>3368.12</ele>
        <time>2013-05-07T07:25:32Z</time>
      </trkpt>
      <trkpt lat="45.51074" lon="6.99514">
        <ele>3369.08</ele>
        <time>2013-05-07T07:25:43Z</time>
      </trkpt>
      <trkpt lat="45.51069" lon="6.99513">
        <ele>3371.48</ele>
        <time>2013-05-07T07:25:55Z</time>
      </trkpt>
      <trkpt lat="45.51065" lon="6.99508">
        <ele>3372.92</ele>
        <time>2013-05-07T07:26:07Z</time>
      </trkpt>
      <trkpt lat="45.5106" lon="6.99506">
        <ele>3373.88</ele>
        <time>2013-05-07T07:26:19Z</time>
      </trkpt>
      <trkpt lat="45.51055" lon="6.99504">
        <ele>3375.33</ele>
        <time>2013-05-07T07:26:31Z</time>
      </trkpt>
      <trkpt lat="45.51051" lon="6.99504">
        <ele>3377.25</ele>
        <time>2013-05-07T07:26:44Z</time>
      </trkpt>
      <trkpt lat="45.51044" lon="6.99503">
        <ele>3379.17</ele>
        <time>2013-05-07T07:26:57Z</time>
      </trkpt>
      <trkpt lat="45.5104" lon="6.99503">
        <ele>3380.13</ele>
        <time>2013-05-07T07:27:09Z</time>
      </trkpt>
      <trkpt lat="45.51034" lon="6.99507">
        <ele>3382.54</ele>
        <time>2013-05-07T07:27:23Z</time>
      </trkpt>
      <trkpt lat="45.5103" lon="6.99509">
        <ele>3383.98</ele>
        <time>2013-05-07T07:27:36Z</time>
      </trkpt>
      <trkpt lat="45.51026" lon="6.99511">
        <ele>3385.9</ele>
        <time>2013-05-07T07:27:47Z</time>
      </trkpt>
      <trkpt lat="45.51022" lon="6.99514">
        <ele>3386.86</ele>
        <time>2013-05-07T07:27:59Z</time>
      </trkpt>
      <trkpt lat="45.51016" lon="6.99517">
        <ele>3388.78</ele>
        <time>2013-05-07T07:28:11Z</time>
      </trkpt>
      <trkpt lat="45.51011" lon="6.99519">
        <ele>3390.23</ele>
        <time>2013-05-07T07:28:23Z</time>
      </trkpt>
      <trkpt lat="45.51006" lon="6.99521">
        <ele>3392.15</ele>
        <time>2013-05-07T07:28:34Z</time>
      </trkpt>
      <trkpt lat="45.51001" lon="6.99521">
        <ele>3394.07</ele>
        <time>2013-05-07T07:28:45Z</time>
      </trkpt>
      <trkpt lat="45.50996" lon="6.99522">
        <ele>3395.51</ele>
        <time>2013-05-07T07:28:58Z</time>
      </trkpt>
      <trkpt lat="45.50991" lon="6.99521">
        <ele>3396.96</ele>
        <time>2013-05-07T07:29:09Z</time>
      </trkpt>
      <trkpt lat="45.50987" lon="6.99523">
        <ele>3398.4</ele>
        <time>2013-05-07T07:29:22Z</time>
      </trkpt>
      <trkpt lat="45.50982" lon="6.99519">
        <ele>3399.36</ele>
        <time>2013-05-07T07:29:38Z</time>
      </trkpt>
      <trkpt lat="45.50975" lon="6.99516">
        <ele>3400.8</ele>
        <time>2013-05-07T07:29:49Z</time>
      </trkpt>
      <trkpt lat="45.5097" lon="6.99513">
        <ele>3403.2</ele>
        <time>2013-05-07T07:30:02Z</time>
      </trkpt>
      <trkpt lat="45.50965" lon="6.99511">
        <ele>3404.65</ele>
        <time>2013-05-07T07:30:14Z</time>
      </trkpt>
      <trkpt lat="45.5096" lon="6.99508">
        <ele>3406.57</ele>
        <time>2013-05-07T07:30:26Z</time>
      </trkpt>
      <trkpt lat="45.50954" lon="6.99504">
        <ele>3408.01</ele>
        <time>2013-05-07T07:30:38Z</time>
      </trkpt>
      <trkpt lat="45.50949" lon="6.995">
        <ele>3409.45</ele>
        <time>2013-05-07T07:30:50Z</time>
      </trkpt>
      <trkpt lat="45.50944" lon="6.99497">
        <ele>3411.38</ele>
        <time>2013-05-07T07:31:02Z</time>
      </trkpt>
      <trkpt lat="45.5094" lon="6.99494">
        <ele>3413.3</ele>
        <time>2013-05-07T07:31:13Z</time>
      </trkpt>
      <trkpt lat="45.50937" lon="6.99493">
        <ele>3414.74</ele>
        <time>2013-05-07T07:31:19Z</time>
      </trkpt>
      <trkpt lat="45.50935" lon="6.99493">
        <ele>3415.22</ele>
        <time>2013-05-07T07:31:25Z</time>
      </trkpt>
      <trkpt lat="45.50928" lon="6.99487">
        <ele>3415.7</ele>
        <time>2013-05-07T07:31:39Z</time>
      </trkpt>
      <trkpt lat="45.50923" lon="6.99487">
        <ele>3417.62</ele>
        <time>2013-05-07T07:31:50Z</time>
      </trkpt>
      <trkpt lat="45.50919" lon="6.9949">
        <ele>3419.55</ele>
        <time>2013-05-07T07:32:00Z</time>
      </trkpt>
      <trkpt lat="45.50917" lon="6.99493">
        <ele>3420.99</ele>
        <time>2013-05-07T07:32:16Z</time>
      </trkpt>
      <trkpt lat="45.50915" lon="6.99496">
        <ele>3419.07</ele>
        <time>2013-05-07T07:32:34Z</time>
      </trkpt>
      <trkpt lat="45.50914" lon="6.99494">
        <ele>3420.99</ele>
        <time>2013-05-07T07:32:36Z</time>
      </trkpt>
      <trkpt lat="45.50911" lon="6.99493">
        <ele>3419.55</ele>
        <time>2013-05-07T07:32:56Z</time>
      </trkpt>
      <trkpt lat="45.50908" lon="6.99497">
        <ele>3419.07</ele>
        <time>2013-05-07T07:33:46Z</time>
      </trkpt>
      <trkpt lat="45.50914" lon="6.99495">
        <ele>3420.99</ele>
        <time>2013-05-07T07:34:01Z</time>
      </trkpt>
      <trkpt lat="45.50914" lon="6.99497">
        <ele>3420.99</ele>
        <time>2013-05-07T07:34:19Z</time>
      </trkpt>
      <trkpt lat="45.50912" lon="6.99494">
        <ele>3421.47</ele>
        <time>2013-05-07T07:34:45Z</time>
      </trkpt>
      <trkpt lat="45.50912" lon="6.995">
        <ele>3422.91</ele>
        <time>2013-05-07T07:34:59Z</time>
      </trkpt>
      <trkpt lat="45.50909" lon="6.99507">
        <ele>3423.87</ele>
        <time>2013-05-07T07:35:11Z</time>
      </trkpt>
      <trkpt lat="45.50906" lon="6.99514">
        <ele>3426.28</ele>
        <time>2013-05-07T07:35:23Z</time>
      </trkpt>
      <trkpt lat="45.50905" lon="6.99523">
        <ele>3428.2</ele>
        <time>2013-05-07T07:35:35Z</time>
      </trkpt>
      <trkpt lat="45.50905" lon="6.9953">
        <ele>3429.64</ele>
        <time>2013-05-07T07:35:46Z</time>
      </trkpt>
      <trkpt lat="45.50903" lon="6.99535">
        <ele>3431.56</ele>
        <time>2013-05-07T07:35:57Z</time>
      </trkpt>
      <trkpt lat="45.50901" lon="6.99541">
        <ele>3432.52</ele>
        <time>2013-05-07T07:36:08Z</time>
      </trkpt>
      <trkpt lat="45.50898" lon="6.99546">
        <ele>3434.45</ele>
        <time>2013-05-07T07:36:20Z</time>
      </trkpt>
      <trkpt lat="45.50896" lon="6.99552">
        <ele>3436.37</ele>
        <time>2013-05-07T07:36:31Z</time>
      </trkpt>
      <trkpt lat="45.50891" lon="6.99553">
        <ele>3437.81</ele>
        <time>2013-05-07T07:36:42Z</time>
      </trkpt>
      <trkpt lat="45.50886" lon="6.99551">
        <ele>3438.77</ele>
        <time>2013-05-07T07:36:53Z</time>
      </trkpt>
      <trkpt lat="45.50884" lon="6.99552">
        <ele>3440.21</ele>
        <time>2013-05-07T07:37:05Z</time>
      </trkpt>
      <trkpt lat="45.5088" lon="6.99553">
        <ele>3441.66</ele>
        <time>2013-05-07T07:37:16Z</time>
      </trkpt>
      <trkpt lat="45.50875" lon="6.99555">
        <ele>3442.62</ele>
        <time>2013-05-07T07:37:27Z</time>
      </trkpt>
      <trkpt lat="45.50871" lon="6.99557">
        <ele>3444.06</ele>
        <time>2013-05-07T07:37:38Z</time>
      </trkpt>
      <trkpt lat="45.50867" lon="6.99558">
        <ele>3445.02</ele>
        <time>2013-05-07T07:37:49Z</time>
      </trkpt>
      <trkpt lat="45.50861" lon="6.99559">
        <ele>3446.94</ele>
        <time>2013-05-07T07:38:01Z</time>
      </trkpt>
      <trkpt lat="45.50857" lon="6.9956">
        <ele>3447.91</ele>
        <time>2013-05-07T07:38:12Z</time>
      </trkpt>
      <trkpt lat="45.50853" lon="6.99562">
        <ele>3449.35</ele>
        <time>2013-05-07T07:38:25Z</time>
      </trkpt>
      <trkpt lat="45.50848" lon="6.99561">
        <ele>3451.27</ele>
        <time>2013-05-07T07:38:36Z</time>
      </trkpt>
      <trkpt lat="45.50844" lon="6.99563">
        <ele>3451.75</ele>
        <time>2013-05-07T07:38:48Z</time>
      </trkpt>
      <trkpt lat="45.50839" lon="6.99562">
        <ele>3453.67</ele>
        <time>2013-05-07T07:38:59Z</time>
      </trkpt>
      <trkpt lat="45.50834" lon="6.99564">
        <ele>3455.12</ele>
        <time>2013-05-07T07:39:10Z</time>
      </trkpt>
      <trkpt lat="45.5083" lon="6.99566">
        <ele>3456.56</ele>
        <time>2013-05-07T07:39:22Z</time>
      </trkpt>
      <trkpt lat="45.50827" lon="6.99567">
        <ele>3458</ele>
        <time>2013-05-07T07:39:33Z</time>
      </trkpt>
      <trkpt lat="45.50823" lon="6.99567">
        <ele>3458.96</ele>
        <time>2013-05-07T07:39:43Z</time>
      </trkpt>
      <trkpt lat="45.50819" lon="6.99568">
        <ele>3460.4</ele>
        <time>2013-05-07T07:39:54Z</time>
      </trkpt>
      <trkpt lat="45.50814" lon="6.9957">
        <ele>3462.33</ele>
        <time>2013-05-07T07:40:05Z</time>
      </trkpt>
      <trkpt lat="45.5081" lon="6.99573">
        <ele>3463.77</ele>
        <time>2013-05-07T07:40:16Z</time>
      </trkpt>
      <trkpt lat="45.50806" lon="6.99576">
        <ele>3465.21</ele>
        <time>2013-05-07T07:40:27Z</time>
      </trkpt>
      <trkpt lat="45.50803" lon="6.99579">
        <ele>3466.17</ele>
        <time>2013-05-07T07:40:38Z</time>
      </trkpt>
      <trkpt lat="45.508" lon="6.99583">
        <ele>3467.61</ele>
        <time>2013-05-07T07:40:48Z</time>
      </trkpt>
      <trkpt lat="45.508" lon="6.9959">
        <ele>3469.54</ele>
        <time>2013-05-07T07:40:59Z</time>
      </trkpt>
      <trkpt lat="45.50799" lon="6.99595">
        <ele>3470.02</ele>
        <time>2013-05-07T07:41:12Z</time>
      </trkpt>
      <trkpt lat="45.50801" lon="6.996">
        <ele>3470.5</ele>
        <time>2013-05-07T07:41:25Z</time>
      </trkpt>
      <trkpt lat="45.50799" lon="6.99605">
        <ele>3472.9</ele>
        <time>2013-05-07T07:41:38Z</time>
      </trkpt>
      <trkpt lat="45.50801" lon="6.99611">
        <ele>3474.82</ele>
        <time>2013-05-07T07:41:50Z</time>
      </trkpt>
      <trkpt lat="45.50803" lon="6.9962">
        <ele>3475.78</ele>
        <time>2013-05-07T07:42:01Z</time>
      </trkpt>
      <trkpt lat="45.50803" lon="6.99625">
        <ele>3477.71</ele>
        <time>2013-05-07T07:42:13Z</time>
      </trkpt>
      <trkpt lat="45.50805" lon="6.99632">
        <ele>3478.67</ele>
        <time>2013-05-07T07:42:24Z</time>
      </trkpt>
      <trkpt lat="45.50806" lon="6.99638">
        <ele>3480.59</ele>
        <time>2013-05-07T07:42:35Z</time>
      </trkpt>
      <trkpt lat="45.50806" lon="6.99644">
        <ele>3482.03</ele>
        <time>2013-05-07T07:42:46Z</time>
      </trkpt>
      <trkpt lat="45.50808" lon="6.9965">
        <ele>3482.51</ele>
        <time>2013-05-07T07:42:57Z</time>
      </trkpt>
      <trkpt lat="45.50809" lon="6.99655">
        <ele>3484.44</ele>
        <time>2013-05-07T07:43:08Z</time>
      </trkpt>
      <trkpt lat="45.50808" lon="6.99663">
        <ele>3485.88</ele>
        <time>2013-05-07T07:43:20Z</time>
      </trkpt>
      <trkpt lat="45.5081" lon="6.99672">
        <ele>3487.8</ele>
        <time>2013-05-07T07:43:33Z</time>
      </trkpt>
      <trkpt lat="45.50811" lon="6.99679">
        <ele>3489.24</ele>
        <time>2013-05-07T07:43:45Z</time>
      </trkpt>
      <trkpt lat="45.50812" lon="6.99685">
        <ele>3490.68</ele>
        <time>2013-05-07T07:43:57Z</time>
      </trkpt>
      <trkpt lat="45.50814" lon="6.9969">
        <ele>3492.61</ele>
        <time>2013-05-07T07:44:09Z</time>
      </trkpt>
      <trkpt lat="45.50815" lon="6.99698">
        <ele>3495.01</ele>
        <time>2013-05-07T07:44:21Z</time>
      </trkpt>
      <trkpt lat="45.50815" lon="6.99706">
        <ele>3495.49</ele>
        <time>2013-05-07T07:44:32Z</time>
      </trkpt>
      <trkpt lat="45.50817" lon="6.99712">
        <ele>3496.93</ele>
        <time>2013-05-07T07:44:45Z</time>
      </trkpt>
      <trkpt lat="45.50819" lon="6.99718">
        <ele>3498.86</ele>
        <time>2013-05-07T07:44:57Z</time>
      </trkpt>
      <trkpt lat="45.5082" lon="6.99725">
        <ele>3500.78</ele>
        <time>2013-05-07T07:45:08Z</time>
      </trkpt>
      <trkpt lat="45.50821" lon="6.9973">
        <ele>3501.74</ele>
        <time>2013-05-07T07:45:18Z</time>
      </trkpt>
      <trkpt lat="45.50822" lon="6.99736">
        <ele>3503.18</ele>
        <time>2013-05-07T07:45:30Z</time>
      </trkpt>
      <trkpt lat="45.50823" lon="6.99742">
        <ele>3504.62</ele>
        <time>2013-05-07T07:45:41Z</time>
      </trkpt>
      <trkpt lat="45.50824" lon="6.99749">
        <ele>3505.58</ele>
        <time>2013-05-07T07:45:52Z</time>
      </trkpt>
      <trkpt lat="45.50825" lon="6.99755">
        <ele>3507.03</ele>
        <time>2013-05-07T07:46:03Z</time>
      </trkpt>
      <trkpt lat="45.50826" lon="6.99763">
        <ele>3508.47</ele>
        <time>2013-05-07T07:46:14Z</time>
      </trkpt>
      <trkpt lat="45.50827" lon="6.99768">
        <ele>3509.91</ele>
        <time>2013-05-07T07:46:26Z</time>
      </trkpt>
      <trkpt lat="45.50828" lon="6.99774">
        <ele>3511.35</ele>
        <time>2013-05-07T07:46:38Z</time>
      </trkpt>
      <trkpt lat="45.50829" lon="6.99782">
        <ele>3512.79</ele>
        <time>2013-05-07T07:46:50Z</time>
      </trkpt>
      <trkpt lat="45.50829" lon="6.99789">
        <ele>3514.72</ele>
        <time>2013-05-07T07:47:02Z</time>
      </trkpt>
      <trkpt lat="45.50829" lon="6.99796">
        <ele>3516.16</ele>
        <time>2013-05-07T07:47:14Z</time>
      </trkpt>
      <trkpt lat="45.50829" lon="6.99804">
        <ele>3517.6</ele>
        <time>2013-05-07T07:47:26Z</time>
      </trkpt>
      <trkpt lat="45.50827" lon="6.9981">
        <ele>3520</ele>
        <time>2013-05-07T07:47:38Z</time>
      </trkpt>
      <trkpt lat="45.50826" lon="6.99815">
        <ele>3520.97</ele>
        <time>2013-05-07T07:47:49Z</time>
      </trkpt>
      <trkpt lat="45.50821" lon="6.99819">
        <ele>3522.89</ele>
        <time>2013-05-07T07:48:02Z</time>
      </trkpt>
      <trkpt lat="45.50817" lon="6.9982">
        <ele>3524.33</ele>
        <time>2013-05-07T07:48:14Z</time>
      </trkpt>
      <trkpt lat="45.50813" lon="6.99822">
        <ele>3526.25</ele>
        <time>2013-05-07T07:48:26Z</time>
      </trkpt>
      <trkpt lat="45.50807" lon="6.99823">
        <ele>3527.21</ele>
        <time>2013-05-07T07:48:37Z</time>
      </trkpt>
      <trkpt lat="45.50804" lon="6.99826">
        <ele>3528.66</ele>
        <time>2013-05-07T07:48:48Z</time>
      </trkpt>
      <trkpt lat="45.50799" lon="6.99827">
        <ele>3530.1</ele>
        <time>2013-05-07T07:49:00Z</time>
      </trkpt>
      <trkpt lat="45.50795" lon="6.99829">
        <ele>3532.02</ele>
        <time>2013-05-07T07:49:12Z</time>
      </trkpt>
      <trkpt lat="45.50791" lon="6.99832">
        <ele>3533.46</ele>
        <time>2013-05-07T07:49:24Z</time>
      </trkpt>
      <trkpt lat="45.50787" lon="6.99835">
        <ele>3534.9</ele>
        <time>2013-05-07T07:49:35Z</time>
      </trkpt>
      <trkpt lat="45.50785" lon="6.9984">
        <ele>3536.35</ele>
        <time>2013-05-07T07:49:47Z</time>
      </trkpt>
      <trkpt lat="45.50786" lon="6.99844">
        <ele>3536.83</ele>
        <time>2013-05-07T07:50:04Z</time>
      </trkpt>
      <trkpt lat="45.5079" lon="6.99851">
        <ele>3539.71</ele>
        <time>2013-05-07T07:50:19Z</time>
      </trkpt>
      <trkpt lat="45.50792" lon="6.99859">
        <ele>3541.15</ele>
        <time>2013-05-07T07:50:32Z</time>
      </trkpt>
      <trkpt lat="45.50793" lon="6.99867">
        <ele>3542.12</ele>
        <time>2013-05-07T07:50:44Z</time>
      </trkpt>
      <trkpt lat="45.50795" lon="6.99873">
        <ele>3543.56</ele>
        <time>2013-05-07T07:50:55Z</time>
      </trkpt>
      <trkpt lat="45.50796" lon="6.99878">
        <ele>3544.52</ele>
        <time>2013-05-07T07:51:07Z</time>
      </trkpt>
      <trkpt lat="45.50798" lon="6.99886">
        <ele>3546.44</ele>
        <time>2013-05-07T07:51:18Z</time>
      </trkpt>
      <trkpt lat="45.508" lon="6.99893">
        <ele>3547.88</ele>
        <time>2013-05-07T07:51:31Z</time>
      </trkpt>
      <trkpt lat="45.508" lon="6.99899">
        <ele>3548.84</ele>
        <time>2013-05-07T07:51:43Z</time>
      </trkpt>
      <trkpt lat="45.50804" lon="6.99906">
        <ele>3550.77</ele>
        <time>2013-05-07T07:51:56Z</time>
      </trkpt>
      <trkpt lat="45.50806" lon="6.99914">
        <ele>3552.21</ele>
        <time>2013-05-07T07:52:08Z</time>
      </trkpt>
      <trkpt lat="45.50807" lon="6.99921">
        <ele>3553.65</ele>
        <time>2013-05-07T07:52:20Z</time>
      </trkpt>
      <trkpt lat="45.50809" lon="6.99927">
        <ele>3555.57</ele>
        <time>2013-05-07T07:52:32Z</time>
      </trkpt>
      <trkpt lat="45.50811" lon="6.99932">
        <ele>3556.53</ele>
        <time>2013-05-07T07:52:43Z</time>
      </trkpt>
      <trkpt lat="45.50813" lon="6.99938">
        <ele>3558.46</ele>
        <time>2013-05-07T07:52:54Z</time>
      </trkpt>
      <trkpt lat="45.50815" lon="6.99943">
        <ele>3559.42</ele>
        <time>2013-05-07T07:53:05Z</time>
      </trkpt>
      <trkpt lat="45.50816" lon="6.99949">
        <ele>3560.86</ele>
        <time>2013-05-07T07:53:16Z</time>
      </trkpt>
      <trkpt lat="45.50817" lon="6.99956">
        <ele>3561.34</ele>
        <time>2013-05-07T07:53:28Z</time>
      </trkpt>
      <trkpt lat="45.50817" lon="6.99962">
        <ele>3562.3</ele>
        <time>2013-05-07T07:53:39Z</time>
      </trkpt>
      <trkpt lat="45.50818" lon="6.99968">
        <ele>3564.23</ele>
        <time>2013-05-07T07:53:51Z</time>
      </trkpt>
      <trkpt lat="45.50819" lon="6.99975">
        <ele>3565.67</ele>
        <time>2013-05-07T07:54:02Z</time>
      </trkpt>
      <trkpt lat="45.50819" lon="6.99979">
        <ele>3567.59</ele>
        <time>2013-05-07T07:54:14Z</time>
      </trkpt>
      <trkpt lat="45.50815" lon="6.99982">
        <ele>3569.03</ele>
        <time>2013-05-07T07:54:26Z</time>
      </trkpt>
      <trkpt lat="45.50811" lon="6.99985">
        <ele>3570.47</ele>
        <time>2013-05-07T07:54:38Z</time>
      </trkpt>
      <trkpt lat="45.50807" lon="6.99986">
        <ele>3571.44</ele>
        <time>2013-05-07T07:54:49Z</time>
      </trkpt>
      <trkpt lat="45.50803" lon="6.99989">
        <ele>3573.36</ele>
        <time>2013-05-07T07:55:00Z</time>
      </trkpt>
      <trkpt lat="45.50802" lon="6.99993">
        <ele>3574.32</ele>
        <time>2013-05-07T07:55:11Z</time>
      </trkpt>
      <trkpt lat="45.50802" lon="7.00001">
        <ele>3576.24</ele>
        <time>2013-05-07T07:55:23Z</time>
      </trkpt>
      <trkpt lat="45.50803" lon="7.00007">
        <ele>3577.68</ele>
        <time>2013-05-07T07:55:34Z</time>
      </trkpt>
      <trkpt lat="45.50802" lon="7.00012">
        <ele>3578.65</ele>
        <time>2013-05-07T07:55:45Z</time>
      </trkpt>
      <trkpt lat="45.50802" lon="7.00016">
        <ele>3580.09</ele>
        <time>2013-05-07T07:55:56Z</time>
      </trkpt>
      <trkpt lat="45.50802" lon="7.00023">
        <ele>3581.53</ele>
        <time>2013-05-07T07:56:07Z</time>
      </trkpt>
      <trkpt lat="45.50802" lon="7.00029">
        <ele>3582.97</ele>
        <time>2013-05-07T07:56:18Z</time>
      </trkpt>
      <trkpt lat="45.50802" lon="7.00034">
        <ele>3584.41</ele>
        <time>2013-05-07T07:56:29Z</time>
      </trkpt>
      <trkpt lat="45.50803" lon="7.0004">
        <ele>3585.85</ele>
        <time>2013-05-07T07:56:40Z</time>
      </trkpt>
      <trkpt lat="45.50802" lon="7.00047">
        <ele>3587.78</ele>
        <time>2013-05-07T07:56:52Z</time>
      </trkpt>
      <trkpt lat="45.508" lon="7.00053">
        <ele>3589.7</ele>
        <time>2013-05-07T07:57:04Z</time>
      </trkpt>
      <trkpt lat="45.50798" lon="7.0006">
        <ele>3590.66</ele>
        <time>2013-05-07T07:57:18Z</time>
      </trkpt>
      <trkpt lat="45.50799" lon="7.00059">
        <ele>3591.62</ele>
        <time>2013-05-07T07:57:34Z</time>
      </trkpt>
      <trkpt lat="45.50797" lon="7.00061">
        <ele>3592.1</ele>
        <time>2013-05-07T07:58:05Z</time>
      </trkpt>
      <trkpt lat="45.50797" lon="7.00061">
        <ele>3590.18</ele>
        <time>2013-05-07T07:58:09Z</time>
      </trkpt>
      <trkpt lat="45.50799" lon="7.00062">
        <ele>3589.7</ele>
        <time>2013-05-07T07:58:30Z</time>
      </trkpt>
      <trkpt lat="45.50799" lon="7.00061">
        <ele>3588.26</ele>
        <time>2013-05-07T07:58:43Z</time>
      </trkpt>
      <trkpt lat="45.50799" lon="7.00062">
        <ele>3589.7</ele>
        <time>2013-05-07T07:58:47Z</time>
      </trkpt>
      <trkpt lat="45.50799" lon="7.0006">
        <ele>3589.7</ele>
        <time>2013-05-07T07:59:15Z</time>
      </trkpt>
      <trkpt lat="45.50798" lon="7.00062">
        <ele>3589.7</ele>
        <time>2013-05-07T07:59:50Z</time>
      </trkpt>
      <trkpt lat="45.50798" lon="7.00063">
        <ele>3589.7</ele>
        <time>2013-05-07T08:00:18Z</time>
      </trkpt>
      <trkpt lat="45.50797" lon="7.00063">
        <ele>3589.7</ele>
        <time>2013-05-07T08:00:50Z</time>
      </trkpt>
      <trkpt lat="45.50797" lon="7.00062">
        <ele>3591.14</ele>
        <time>2013-05-07T08:01:07Z</time>
      </trkpt>
      <trkpt lat="45.50797" lon="7.00062">
        <ele>3589.7</ele>
        <time>2013-05-07T08:01:16Z</time>
      </trkpt>
      <trkpt lat="45.50796" lon="7.00063">
        <ele>3589.7</ele>
        <time>2013-05-07T08:01:44Z</time>
      </trkpt>
      <trkpt lat="45.50798" lon="7.00064">
        <ele>3590.18</ele>
        <time>2013-05-07T08:02:05Z</time>
      </trkpt>
      <trkpt lat="45.50798" lon="7.00063">
        <ele>3590.18</ele>
        <time>2013-05-07T08:02:29Z</time>
      </trkpt>
      <trkpt lat="45.50798" lon="7.00061">
        <ele>3591.14</ele>
        <time>2013-05-07T08:02:45Z</time>
      </trkpt>
      <trkpt lat="45.50796" lon="7.00059">
        <ele>3591.14</ele>
        <time>2013-05-07T08:03:00Z</time>
      </trkpt>
      <trkpt lat="45.5079" lon="7.00057">
        <ele>3592.58</ele>
        <time>2013-05-07T08:03:11Z</time>
      </trkpt>
      <trkpt lat="45.50785" lon="7.00056">
        <ele>3594.99</ele>
        <time>2013-05-07T08:03:23Z</time>
      </trkpt>
      <trkpt lat="45.50782" lon="7.00056">
        <ele>3595.95</ele>
        <time>2013-05-07T08:03:34Z</time>
      </trkpt>
      <trkpt lat="45.50777" lon="7.00056">
        <ele>3596.43</ele>
        <time>2013-05-07T08:03:46Z</time>
      </trkpt>
      <trkpt lat="45.50774" lon="7.00055">
        <ele>3598.35</ele>
        <time>2013-05-07T08:03:57Z</time>
      </trkpt>
      <trkpt lat="45.50771" lon="7.00055">
        <ele>3598.83</ele>
        <time>2013-05-07T08:04:07Z</time>
      </trkpt>
      <trkpt lat="45.50768" lon="7.00054">
        <ele>3600.27</ele>
        <time>2013-05-07T08:04:16Z</time>
      </trkpt>
      <trkpt lat="45.50765" lon="7.00053">
        <ele>3601.24</ele>
        <time>2013-05-07T08:04:26Z</time>
      </trkpt>
      <trkpt lat="45.50763" lon="7.00053">
        <ele>3602.2</ele>
        <time>2013-05-07T08:04:38Z</time>
      </trkpt>
      <trkpt lat="45.5076" lon="7.00052">
        <ele>3603.16</ele>
        <time>2013-05-07T08:04:52Z</time>
      </trkpt>
      <trkpt lat="45.50758" lon="7.00051">
        <ele>3604.12</ele>
        <time>2013-05-07T08:05:03Z</time>
      </trkpt>
      <trkpt lat="45.50755" lon="7.0005">
        <ele>3606.04</ele>
        <time>2013-05-07T08:05:15Z</time>
      </trkpt>
      <trkpt lat="45.50752" lon="7.00049">
        <ele>3607.48</ele>
        <time>2013-05-07T08:05:25Z</time>
      </trkpt>
      <trkpt lat="45.50749" lon="7.00049">
        <ele>3608.45</ele>
        <time>2013-05-07T08:05:36Z</time>
      </trkpt>
      <trkpt lat="45.50745" lon="7.00048">
        <ele>3608.93</ele>
        <time>2013-05-07T08:05:46Z</time>
      </trkpt>
      <trkpt lat="45.50743" lon="7.00048">
        <ele>3609.89</ele>
        <time>2013-05-07T08:05:56Z</time>
      </trkpt>
      <trkpt lat="45.5074" lon="7.00047">
        <ele>3610.85</ele>
        <time>2013-05-07T08:06:10Z</time>
      </trkpt>
      <trkpt lat="45.50737" lon="7.00046">
        <ele>3612.29</ele>
        <time>2013-05-07T08:06:22Z</time>
      </trkpt>
      <trkpt lat="45.50733" lon="7.00046">
        <ele>3613.73</ele>
        <time>2013-05-07T08:06:32Z</time>
      </trkpt>
      <trkpt lat="45.5073" lon="7.00045">
        <ele>3614.69</ele>
        <time>2013-05-07T08:06:43Z</time>
      </trkpt>
      <trkpt lat="45.50726" lon="7.00044">
        <ele>3616.14</ele>
        <time>2013-05-07T08:06:53Z</time>
      </trkpt>
      <trkpt lat="45.50727" lon="7.00046">
        <ele>3616.14</ele>
        <time>2013-05-07T08:07:11Z</time>
      </trkpt>
      <trkpt lat="45.50729" lon="7.00047">
        <ele>3616.62</ele>
        <time>2013-05-07T08:07:29Z</time>
      </trkpt>
      <trkpt lat="45.5073" lon="7.00053">
        <ele>3618.54</ele>
        <time>2013-05-07T08:07:40Z</time>
      </trkpt>
      <trkpt lat="45.50731" lon="7.00057">
        <ele>3619.98</ele>
        <time>2013-05-07T08:07:50Z</time>
      </trkpt>
      <trkpt lat="45.50732" lon="7.00063">
        <ele>3622.87</ele>
        <time>2013-05-07T08:08:01Z</time>
      </trkpt>
      <trkpt lat="45.50732" lon="7.00068">
        <ele>3623.35</ele>
        <time>2013-05-07T08:08:11Z</time>
      </trkpt>
      <trkpt lat="45.50732" lon="7.00072">
        <ele>3623.83</ele>
        <time>2013-05-07T08:08:21Z</time>
      </trkpt>
      <trkpt lat="45.50731" lon="7.00072">
        <ele>3623.35</ele>
        <time>2013-05-07T08:08:44Z</time>
      </trkpt>
      <trkpt lat="45.50731" lon="7.00072">
        <ele>3624.79</ele>
        <time>2013-05-07T08:08:46Z</time>
      </trkpt>
      <trkpt lat="45.50729" lon="7.0007">
        <ele>3623.83</ele>
        <time>2013-05-07T08:09:06Z</time>
      </trkpt>
      <trkpt lat="45.50727" lon="7.00069">
        <ele>3625.27</ele>
        <time>2013-05-07T08:09:11Z</time>
      </trkpt>
      <trkpt lat="45.50722" lon="7.00067">
        <ele>3626.23</ele>
        <time>2013-05-07T08:09:23Z</time>
      </trkpt>
      <trkpt lat="45.50718" lon="7.00065">
        <ele>3628.15</ele>
        <time>2013-05-07T08:09:35Z</time>
      </trkpt>
      <trkpt lat="45.50716" lon="7.00063">
        <ele>3629.11</ele>
        <time>2013-05-07T08:09:46Z</time>
      </trkpt>
      <trkpt lat="45.50712" lon="7.0006">
        <ele>3630.56</ele>
        <time>2013-05-07T08:09:57Z</time>
      </trkpt>
      <trkpt lat="45.50711" lon="7.00059">
        <ele>3631.04</ele>
        <time>2013-05-07T08:10:08Z</time>
      </trkpt>
      <trkpt lat="45.50708" lon="7.00057">
        <ele>3632.48</ele>
        <time>2013-05-07T08:10:19Z</time>
      </trkpt>
      <trkpt lat="45.50708" lon="7.00059">
        <ele>3632.48</ele>
        <time>2013-05-07T08:10:34Z</time>
      </trkpt>
      <trkpt lat="45.50709" lon="7.00059">
        <ele>3632.48</ele>
        <time>2013-05-07T08:10:46Z</time>
      </trkpt>
      <trkpt lat="45.50709" lon="7.00064">
        <ele>3633.44</ele>
        <time>2013-05-07T08:11:00Z</time>
      </trkpt>
      <trkpt lat="45.50709" lon="7.00072">
        <ele>3635.36</ele>
        <time>2013-05-07T08:11:13Z</time>
      </trkpt>
      <trkpt lat="45.50708" lon="7.00078">
        <ele>3637.77</ele>
        <time>2013-05-07T08:11:25Z</time>
      </trkpt>
      <trkpt lat="45.50708" lon="7.00081">
        <ele>3639.69</ele>
        <time>2013-05-07T08:11:38Z</time>
      </trkpt>
      <trkpt lat="45.50706" lon="7.00081">
        <ele>3639.69</ele>
        <time>2013-05-07T08:11:53Z</time>
      </trkpt>
      <trkpt lat="45.50705" lon="7.00079">
        <ele>3639.69</ele>
        <time>2013-05-07T08:12:18Z</time>
      </trkpt>
      <trkpt lat="45.50702" lon="7.00075">
        <ele>3640.65</ele>
        <time>2013-05-07T08:12:30Z</time>
      </trkpt>
      <trkpt lat="45.50699" lon="7.00071">
        <ele>3642.09</ele>
        <time>2013-05-07T08:12:41Z</time>
      </trkpt>
      <trkpt lat="45.50696" lon="7.00067">
        <ele>3643.53</ele>
        <time>2013-05-07T08:12:52Z</time>
      </trkpt>
      <trkpt lat="45.50694" lon="7.00062">
        <ele>3644.98</ele>
        <time>2013-05-07T08:13:04Z</time>
      </trkpt>
      <trkpt lat="45.50692" lon="7.00058">
        <ele>3646.42</ele>
        <time>2013-05-07T08:13:15Z</time>
      </trkpt>
      <trkpt lat="45.5069" lon="7.00054">
        <ele>3647.38</ele>
        <time>2013-05-07T08:13:26Z</time>
      </trkpt>
      <trkpt lat="45.50687" lon="7.00051">
        <ele>3648.34</ele>
        <time>2013-05-07T08:13:37Z</time>
      </trkpt>
      <trkpt lat="45.50685" lon="7.00046">
        <ele>3649.3</ele>
        <time>2013-05-07T08:13:48Z</time>
      </trkpt>
      <trkpt lat="45.50682" lon="7.00043">
        <ele>3650.74</ele>
        <time>2013-05-07T08:13:59Z</time>
      </trkpt>
      <trkpt lat="45.5068" lon="7.0004">
        <ele>3651.71</ele>
        <time>2013-05-07T08:14:12Z</time>
      </trkpt>
      <trkpt lat="45.50679" lon="7.00041">
        <ele>3652.19</ele>
        <time>2013-05-07T08:14:29Z</time>
      </trkpt>
      <trkpt lat="45.5068" lon="7.00042">
        <ele>3652.19</ele>
        <time>2013-05-07T08:14:51Z</time>
      </trkpt>
      <trkpt lat="45.5068" lon="7.00049">
        <ele>3653.15</ele>
        <time>2013-05-07T08:15:04Z</time>
      </trkpt>
      <trkpt lat="45.5068" lon="7.00056">
        <ele>3655.07</ele>
        <time>2013-05-07T08:15:16Z</time>
      </trkpt>
      <trkpt lat="45.50679" lon="7.00062">
        <ele>3656.99</ele>
        <time>2013-05-07T08:15:29Z</time>
      </trkpt>
      <trkpt lat="45.50679" lon="7.00067">
        <ele>3658.43</ele>
        <time>2013-05-07T08:15:40Z</time>
      </trkpt>
      <trkpt lat="45.5068" lon="7.0007">
        <ele>3659.88</ele>
        <time>2013-05-07T08:15:55Z</time>
      </trkpt>
      <trkpt lat="45.50678" lon="7.00073">
        <ele>3660.36</ele>
        <time>2013-05-07T08:16:09Z</time>
      </trkpt>
      <trkpt lat="45.50678" lon="7.00076">
        <ele>3661.8</ele>
        <time>2013-05-07T08:16:21Z</time>
      </trkpt>
      <trkpt lat="45.50677" lon="7.00075">
        <ele>3661.32</ele>
        <time>2013-05-07T08:16:36Z</time>
      </trkpt>
      <trkpt lat="45.50675" lon="7.00073">
        <ele>3662.28</ele>
        <time>2013-05-07T08:17:04Z</time>
      </trkpt>
      <trkpt lat="45.50674" lon="7.0007">
        <ele>3663.24</ele>
        <time>2013-05-07T08:17:16Z</time>
      </trkpt>
      <trkpt lat="45.50671" lon="7.00065">
        <ele>3664.2</ele>
        <time>2013-05-07T08:17:27Z</time>
      </trkpt>
      <trkpt lat="45.50669" lon="7.00062">
        <ele>3665.16</ele>
        <time>2013-05-07T08:17:38Z</time>
      </trkpt>
      <trkpt lat="45.50668" lon="7.00058">
        <ele>3666.12</ele>
        <time>2013-05-07T08:17:50Z</time>
      </trkpt>
      <trkpt lat="45.50666" lon="7.00052">
        <ele>3667.57</ele>
        <time>2013-05-07T08:18:04Z</time>
      </trkpt>
      <trkpt lat="45.50666" lon="7.00053">
        <ele>3667.57</ele>
        <time>2013-05-07T08:18:20Z</time>
      </trkpt>
      <trkpt lat="45.50663" lon="7.00051">
        <ele>3668.05</ele>
        <time>2013-05-07T08:18:30Z</time>
      </trkpt>
      <trkpt lat="45.50661" lon="7.00048">
        <ele>3669.01</ele>
        <time>2013-05-07T08:18:41Z</time>
      </trkpt>
      <trkpt lat="45.50658" lon="7.00044">
        <ele>3670.45</ele>
        <time>2013-05-07T08:18:55Z</time>
      </trkpt>
      <trkpt lat="45.50656" lon="7.00042">
        <ele>3670.93</ele>
        <time>2013-05-07T08:19:15Z</time>
      </trkpt>
      <trkpt lat="45.50653" lon="7.00038">
        <ele>3671.41</ele>
        <time>2013-05-07T08:19:28Z</time>
      </trkpt>
      <trkpt lat="45.50651" lon="7.00037">
        <ele>3671.89</ele>
        <time>2013-05-07T08:19:41Z</time>
      </trkpt>
      <trkpt lat="45.50649" lon="7.00035">
        <ele>3672.85</ele>
        <time>2013-05-07T08:19:53Z</time>
      </trkpt>
      <trkpt lat="45.50647" lon="7.00032">
        <ele>3673.33</ele>
        <time>2013-05-07T08:20:03Z</time>
      </trkpt>
      <trkpt lat="45.50644" lon="7.0003">
        <ele>3673.82</ele>
        <time>2013-05-07T08:20:16Z</time>
      </trkpt>
      <trkpt lat="45.50641" lon="7.00028">
        <ele>3674.78</ele>
        <time>2013-05-07T08:20:28Z</time>
      </trkpt>
      <trkpt lat="45.5064" lon="7.00028">
        <ele>3675.74</ele>
        <time>2013-05-07T08:20:46Z</time>
      </trkpt>
      <trkpt lat="45.50642" lon="7.00028">
        <ele>3675.74</ele>
        <time>2013-05-07T08:20:59Z</time>
      </trkpt>
      <trkpt lat="45.50642" lon="7.00029">
        <ele>3675.74</ele>
        <time>2013-05-07T08:21:26Z</time>
      </trkpt>
      <trkpt lat="45.50642" lon="7.00031">
        <ele>3675.74</ele>
        <time>2013-05-07T08:21:51Z</time>
      </trkpt>
      <trkpt lat="45.50644" lon="7.00035">
        <ele>3676.7</ele>
        <time>2013-05-07T08:22:04Z</time>
      </trkpt>
      <trkpt lat="45.50646" lon="7.0004">
        <ele>3677.18</ele>
        <time>2013-05-07T08:22:16Z</time>
      </trkpt>
      <trkpt lat="45.50647" lon="7.00044">
        <ele>3678.14</ele>
        <time>2013-05-07T08:22:30Z</time>
      </trkpt>
      <trkpt lat="45.50648" lon="7.00048">
        <ele>3679.1</ele>
        <time>2013-05-07T08:22:45Z</time>
      </trkpt>
      <trkpt lat="45.50649" lon="7.0005">
        <ele>3680.06</ele>
        <time>2013-05-07T08:22:58Z</time>
      </trkpt>
      <trkpt lat="45.50648" lon="7.00051">
        <ele>3680.54</ele>
        <time>2013-05-07T08:23:12Z</time>
      </trkpt>
      <trkpt lat="45.50648" lon="7.00051">
        <ele>3681.03</ele>
        <time>2013-05-07T08:23:27Z</time>
      </trkpt>
      <trkpt lat="45.50648" lon="7.0005">
        <ele>3681.03</ele>
        <time>2013-05-07T08:23:51Z</time>
      </trkpt>
      <trkpt lat="45.50646" lon="7.0005">
        <ele>3681.99</ele>
        <time>2013-05-07T08:24:07Z</time>
      </trkpt>
      <trkpt lat="45.50644" lon="7.00048">
        <ele>3682.47</ele>
        <time>2013-05-07T08:24:17Z</time>
      </trkpt>
      <trkpt lat="45.50642" lon="7.00047">
        <ele>3682.95</ele>
        <time>2013-05-07T08:24:31Z</time>
      </trkpt>
      <trkpt lat="45.50641" lon="7.00046">
        <ele>3683.91</ele>
        <time>2013-05-07T08:24:45Z</time>
      </trkpt>
      <trkpt lat="45.50639" lon="7.00045">
        <ele>3684.39</ele>
        <time>2013-05-07T08:24:57Z</time>
      </trkpt>
      <trkpt lat="45.50638" lon="7.00045">
        <ele>3685.83</ele>
        <time>2013-05-07T08:25:08Z</time>
      </trkpt>
      <trkpt lat="45.50636" lon="7.00043">
        <ele>3685.83</ele>
        <time>2013-05-07T08:25:23Z</time>
      </trkpt>
      <trkpt lat="45.50635" lon="7.00043">
        <ele>3686.79</ele>
        <time>2013-05-07T08:25:36Z</time>
      </trkpt>
      <trkpt lat="45.50634" lon="7.00042">
        <ele>3687.27</ele>
        <time>2013-05-07T08:25:56Z</time>
      </trkpt>
      <trkpt lat="45.50633" lon="7.0004">
        <ele>3688.24</ele>
        <time>2013-05-07T08:26:11Z</time>
      </trkpt>
      <trkpt lat="45.5063" lon="7.00039">
        <ele>3688.72</ele>
        <time>2013-05-07T08:26:29Z</time>
      </trkpt>
      <trkpt lat="45.50628" lon="7.00038">
        <ele>3689.68</ele>
        <time>2013-05-07T08:26:41Z</time>
      </trkpt>
      <trkpt lat="45.50628" lon="7.00038">
        <ele>3690.16</ele>
        <time>2013-05-07T08:26:51Z</time>
      </trkpt>
      <trkpt lat="45.50626" lon="7.00036">
        <ele>3691.12</ele>
        <time>2013-05-07T08:27:09Z</time>
      </trkpt>
      <trkpt lat="45.50624" lon="7.00035">
        <ele>3692.56</ele>
        <time>2013-05-07T08:27:20Z</time>
      </trkpt>
      <trkpt lat="45.50622" lon="7.00033">
        <ele>3693.04</ele>
        <time>2013-05-07T08:27:33Z</time>
      </trkpt>
      <trkpt lat="45.50622" lon="7.00035">
        <ele>3693.52</ele>
        <time>2013-05-07T08:27:44Z</time>
      </trkpt>
      <trkpt lat="45.50622" lon="7.00038">
        <ele>3693.52</ele>
        <time>2013-05-07T08:27:57Z</time>
      </trkpt>
      <trkpt lat="45.50621" lon="7.0004">
        <ele>3694.48</ele>
        <time>2013-05-07T08:28:08Z</time>
      </trkpt>
      <trkpt lat="45.50618" lon="7.00038">
        <ele>3695.93</ele>
        <time>2013-05-07T08:28:21Z</time>
      </trkpt>
      <trkpt lat="45.50615" lon="7.00036">
        <ele>3697.37</ele>
        <time>2013-05-07T08:28:31Z</time>
      </trkpt>
      <trkpt lat="45.50613" lon="7.00033">
        <ele>3698.33</ele>
        <time>2013-05-07T08:28:41Z</time>
      </trkpt>
      <trkpt lat="45.5061" lon="7.0003">
        <ele>3699.29</ele>
        <time>2013-05-07T08:28:51Z</time>
      </trkpt>
      <trkpt lat="45.50608" lon="7.00028">
        <ele>3699.77</ele>
        <time>2013-05-07T08:29:00Z</time>
      </trkpt>
      <trkpt lat="45.50606" lon="7.00027">
        <ele>3700.73</ele>
        <time>2013-05-07T08:29:09Z</time>
      </trkpt>
      <trkpt lat="45.50603" lon="7.00025">
        <ele>3701.69</ele>
        <time>2013-05-07T08:29:19Z</time>
      </trkpt>
      <trkpt lat="45.506" lon="7.00023">
        <ele>3702.66</ele>
        <time>2013-05-07T08:29:29Z</time>
      </trkpt>
      <trkpt lat="45.50598" lon="7.0002">
        <ele>3703.14</ele>
        <time>2013-05-07T08:29:39Z</time>
      </trkpt>
      <trkpt lat="45.50595" lon="7.00019">
        <ele>3704.58</ele>
        <time>2013-05-07T08:29:50Z</time>
      </trkpt>
      <trkpt lat="45.50594" lon="7.00018">
        <ele>3705.54</ele>
        <time>2013-05-07T08:30:01Z</time>
      </trkpt>
      <trkpt lat="45.50594" lon="7.00019">
        <ele>3705.54</ele>
        <time>2013-05-07T08:30:13Z</time>
      </trkpt>
      <trkpt lat="45.50595" lon="7.00024">
        <ele>3706.02</ele>
        <time>2013-05-07T08:30:29Z</time>
      </trkpt>
      <trkpt lat="45.50594" lon="7.00025">
        <ele>3707.46</ele>
        <time>2013-05-07T08:30:43Z</time>
      </trkpt>
      <trkpt lat="45.50594" lon="7.00025">
        <ele>3707.46</ele>
        <time>2013-05-07T08:31:05Z</time>
      </trkpt>
      <trkpt lat="45.50592" lon="7.00023">
        <ele>3708.42</ele>
        <time>2013-05-07T08:31:15Z</time>
      </trkpt>
      <trkpt lat="45.50589" lon="7.00021">
        <ele>3709.38</ele>
        <time>2013-05-07T08:31:24Z</time>
      </trkpt>
      <trkpt lat="45.50587" lon="7.00019">
        <ele>3710.35</ele>
        <time>2013-05-07T08:31:35Z</time>
      </trkpt>
      <trkpt lat="45.50584" lon="7.00018">
        <ele>3711.79</ele>
        <time>2013-05-07T08:31:45Z</time>
      </trkpt>
      <trkpt lat="45.50582" lon="7.00016">
        <ele>3712.75</ele>
        <time>2013-05-07T08:31:56Z</time>
      </trkpt>
      <trkpt lat="45.5058" lon="7.00015">
        <ele>3713.23</ele>
        <time>2013-05-07T08:32:06Z</time>
      </trkpt>
      <trkpt lat="45.50577" lon="7.00014">
        <ele>3714.19</ele>
        <time>2013-05-07T08:32:15Z</time>
      </trkpt>
      <trkpt lat="45.50575" lon="7.00012">
        <ele>3715.15</ele>
        <time>2013-05-07T08:32:25Z</time>
      </trkpt>
      <trkpt lat="45.50572" lon="7.00011">
        <ele>3716.59</ele>
        <time>2013-05-07T08:32:36Z</time>
      </trkpt>
      <trkpt lat="45.50569" lon="7.00009">
        <ele>3717.07</ele>
        <time>2013-05-07T08:32:48Z</time>
      </trkpt>
      <trkpt lat="45.50567" lon="7.00007">
        <ele>3718.52</ele>
        <time>2013-05-07T08:32:59Z</time>
      </trkpt>
      <trkpt lat="45.50564" lon="7.00005">
        <ele>3719.48</ele>
        <time>2013-05-07T08:33:10Z</time>
      </trkpt>
      <trkpt lat="45.5056" lon="7.00003">
        <ele>3720.92</ele>
        <time>2013-05-07T08:33:22Z</time>
      </trkpt>
      <trkpt lat="45.50557" lon="7.00001">
        <ele>3722.36</ele>
        <time>2013-05-07T08:33:44Z</time>
      </trkpt>
      <trkpt lat="45.50553" lon="6.99998">
        <ele>3723.32</ele>
        <time>2013-05-07T08:33:56Z</time>
      </trkpt>
      <trkpt lat="45.5055" lon="6.99997">
        <ele>3723.8</ele>
        <time>2013-05-07T08:34:06Z</time>
      </trkpt>
      <trkpt lat="45.50549" lon="6.99995">
        <ele>3725.25</ele>
        <time>2013-05-07T08:34:15Z</time>
      </trkpt>
      <trkpt lat="45.50549" lon="6.99996">
        <ele>3725.25</ele>
        <time>2013-05-07T08:34:32Z</time>
      </trkpt>
      <trkpt lat="45.50549" lon="6.99996">
        <ele>3725.73</ele>
        <time>2013-05-07T08:34:46Z</time>
      </trkpt>
      <trkpt lat="45.50549" lon="6.99995">
        <ele>3725.73</ele>
        <time>2013-05-07T08:35:05Z</time>
      </trkpt>
      <trkpt lat="45.50549" lon="6.99995">
        <ele>3725.73</ele>
        <time>2013-05-07T08:35:20Z</time>
      </trkpt>
      <trkpt lat="45.50549" lon="6.99996">
        <ele>3724.28</ele>
        <time>2013-05-07T08:35:33Z</time>
      </trkpt>
      <trkpt lat="45.50549" lon="6.99996">
        <ele>3723.32</ele>
        <time>2013-05-07T08:35:46Z</time>
      </trkpt>
      <trkpt lat="45.50549" lon="6.99996">
        <ele>3723.8</ele>
        <time>2013-05-07T08:35:56Z</time>
      </trkpt>
      <trkpt lat="45.50548" lon="6.99997">
        <ele>3721.88</ele>
        <time>2013-05-07T08:36:05Z</time>
      </trkpt>
      <trkpt lat="45.50548" lon="6.99997">
        <ele>3724.77</ele>
        <time>2013-05-07T08:36:06Z</time>
      </trkpt>
      <trkpt lat="45.50548" lon="6.99997">
        <ele>3724.77</ele>
        <time>2013-05-07T08:36:07Z</time>
      </trkpt>
      <trkpt lat="45.50548" lon="6.99997">
        <ele>3723.32</ele>
        <time>2013-05-07T08:36:09Z</time>
      </trkpt>
      <trkpt lat="45.50549" lon="6.99996">
        <ele>3719.96</ele>
        <time>2013-05-07T08:36:19Z</time>
      </trkpt>
      <trkpt lat="45.50549" lon="6.99996">
        <ele>3723.32</ele>
        <time>2013-05-07T08:36:20Z</time>
      </trkpt>
      <trkpt lat="45.50549" lon="6.99996">
        <ele>3718.52</ele>
        <time>2013-05-07T08:36:21Z</time>
      </trkpt>
      <trkpt lat="45.50549" lon="6.99996">
        <ele>3722.36</ele>
        <time>2013-05-07T08:36:22Z</time>
      </trkpt>
      <trkpt lat="45.50549" lon="6.99996">
        <ele>3723.32</ele>
        <time>2013-05-07T08:36:24Z</time>
      </trkpt>
      <trkpt lat="45.50549" lon="6.99995">
        <ele>3726.69</ele>
        <time>2013-05-07T08:36:35Z</time>
      </trkpt>
      <trkpt lat="45.50549" lon="6.99995">
        <ele>3723.32</ele>
        <time>2013-05-07T08:36:36Z</time>
      </trkpt>
      <trkpt lat="45.50549" lon="6.99995">
        <ele>3719.48</ele>
        <time>2013-05-07T08:36:43Z</time>
      </trkpt>
      <trkpt lat="45.50549" lon="6.99994">
        <ele>3723.32</ele>
        <time>2013-05-07T08:36:44Z</time>
      </trkpt>
      <trkpt lat="45.5055" lon="6.99994">
        <ele>3727.65</ele>
        <time>2013-05-07T08:37:11Z</time>
      </trkpt>
      <trkpt lat="45.50549" lon="6.99994">
        <ele>3724.77</ele>
        <time>2013-05-07T08:37:12Z</time>
      </trkpt>
      <trkpt lat="45.5055" lon="6.99994">
        <ele>3722.84</ele>
        <time>2013-05-07T08:37:14Z</time>
      </trkpt>
      <trkpt lat="45.5055" lon="6.99994">
        <ele>3723.8</ele>
        <time>2013-05-07T08:37:17Z</time>
      </trkpt>
      <trkpt lat="45.5055" lon="6.99994">
        <ele>3722.36</ele>
        <time>2013-05-07T08:37:20Z</time>
      </trkpt>
      <trkpt lat="45.5055" lon="6.99994">
        <ele>3716.11</ele>
        <time>2013-05-07T08:37:24Z</time>
      </trkpt>
      <trkpt lat="45.5055" lon="6.99994">
        <ele>3723.8</ele>
        <time>2013-05-07T08:37:25Z</time>
      </trkpt>
      <trkpt lat="45.50549" lon="6.99994">
        <ele>3726.69</ele>
        <time>2013-05-07T08:37:28Z</time>
      </trkpt>
      <trkpt lat="45.50549" lon="6.99994">
        <ele>3723.8</ele>
        <time>2013-05-07T08:37:31Z</time>
      </trkpt>
      <trkpt lat="45.50549" lon="6.99995">
        <ele>3725.25</ele>
        <time>2013-05-07T08:37:41Z</time>
      </trkpt>
      <trkpt lat="45.50548" lon="6.99995">
        <ele>3720.92</ele>
        <time>2013-05-07T08:37:45Z</time>
      </trkpt>
      <trkpt lat="45.50548" lon="6.99995">
        <ele>3720.92</ele>
        <time>2013-05-07T08:37:46Z</time>
      </trkpt>
      <trkpt lat="45.50548" lon="6.99995">
        <ele>3725.25</ele>
        <time>2013-05-07T08:37:48Z</time>
      </trkpt>
      <trkpt lat="45.50548" lon="6.99995">
        <ele>3723.32</ele>
        <time>2013-05-07T08:37:49Z</time>
      </trkpt>
      <trkpt lat="45.50549" lon="6.99996">
        <ele>3725.73</ele>
        <time>2013-05-07T08:38:17Z</time>
      </trkpt>
      <trkpt lat="45.50549" lon="6.99996">
        <ele>3723.32</ele>
        <time>2013-05-07T08:38:20Z</time>
      </trkpt>
      <trkpt lat="45.50548" lon="6.99997">
        <ele>3724.28</ele>
        <time>2013-05-07T08:38:45Z</time>
      </trkpt>
      <trkpt lat="45.50549" lon="6.99997">
        <ele>3724.28</ele>
        <time>2013-05-07T08:39:06Z</time>
      </trkpt>
      <trkpt lat="45.50549" lon="6.99996">
        <ele>3722.84</ele>
        <time>2013-05-07T08:39:08Z</time>
      </trkpt>
      <trkpt lat="45.50549" lon="6.99996">
        <ele>3724.28</ele>
        <time>2013-05-07T08:39:12Z</time>
      </trkpt>
      <trkpt lat="45.50549" lon="6.99996">
        <ele>3722.36</ele>
        <time>2013-05-07T08:39:14Z</time>
      </trkpt>
      <trkpt lat="45.50548" lon="6.99996">
        <ele>3723.32</ele>
        <time>2013-05-07T08:39:37Z</time>
      </trkpt>
      <trkpt lat="45.50548" lon="6.99995">
        <ele>3719</ele>
        <time>2013-05-07T08:39:50Z</time>
      </trkpt>
      <trkpt lat="45.50548" lon="6.99996">
        <ele>3724.28</ele>
        <time>2013-05-07T08:39:51Z</time>
      </trkpt>
      <trkpt lat="45.50548" lon="6.99996">
        <ele>3721.88</ele>
        <time>2013-05-07T08:39:54Z</time>
      </trkpt>
      <trkpt lat="45.50549" lon="6.99995">
        <ele>3723.8</ele>
        <time>2013-05-07T08:40:03Z</time>
      </trkpt>
      <trkpt lat="45.50549" lon="6.99995">
        <ele>3724.77</ele>
        <time>2013-05-07T08:40:14Z</time>
      </trkpt>
      <trkpt lat="45.5055" lon="6.99996">
        <ele>3724.77</ele>
        <time>2013-05-07T08:40:36Z</time>
      </trkpt>
      <trkpt lat="45.50549" lon="6.99996">
        <ele>3724.77</ele>
        <time>2013-05-07T08:40:58Z</time>
      </trkpt>
      <trkpt lat="45.50549" lon="6.99993">
        <ele>3724.77</ele>
        <time>2013-05-07T08:41:14Z</time>
      </trkpt>
      <trkpt lat="45.50546" lon="6.99992">
        <ele>3726.21</ele>
        <time>2013-05-07T08:41:26Z</time>
      </trkpt>
      <trkpt lat="45.50545" lon="6.99991">
        <ele>3726.69</ele>
        <time>2013-05-07T08:41:37Z</time>
      </trkpt>
      <trkpt lat="45.50543" lon="6.99989">
        <ele>3727.65</ele>
        <time>2013-05-07T08:41:49Z</time>
      </trkpt>
      <trkpt lat="45.50541" lon="6.99989">
        <ele>3728.13</ele>
        <time>2013-05-07T08:42:02Z</time>
      </trkpt>
      <trkpt lat="45.5054" lon="6.99989">
        <ele>3728.61</ele>
        <time>2013-05-07T08:42:17Z</time>
      </trkpt>
      <trkpt lat="45.5054" lon="6.99989">
        <ele>3729.09</ele>
        <time>2013-05-07T08:42:31Z</time>
      </trkpt>
      <trkpt lat="45.50539" lon="6.9999">
        <ele>3729.09</ele>
        <time>2013-05-07T08:42:38Z</time>
      </trkpt>
      <trkpt lat="45.50539" lon="6.9999">
        <ele>3730.05</ele>
        <time>2013-05-07T08:42:49Z</time>
      </trkpt>
      <trkpt lat="45.50537" lon="6.9999">
        <ele>3731.01</ele>
        <time>2013-05-07T08:43:05Z</time>
      </trkpt>
      <trkpt lat="45.50536" lon="6.9999">
        <ele>3731.98</ele>
        <time>2013-05-07T08:43:15Z</time>
      </trkpt>
      <trkpt lat="45.50535" lon="6.99989">
        <ele>3732.94</ele>
        <time>2013-05-07T08:43:29Z</time>
      </trkpt>
      <trkpt lat="45.50533" lon="6.99988">
        <ele>3732.94</ele>
        <time>2013-05-07T08:43:39Z</time>
      </trkpt>
      <trkpt lat="45.50531" lon="6.99987">
        <ele>3733.9</ele>
        <time>2013-05-07T08:43:51Z</time>
      </trkpt>
      <trkpt lat="45.50529" lon="6.99986">
        <ele>3734.86</ele>
        <time>2013-05-07T08:44:03Z</time>
      </trkpt>
      <trkpt lat="45.50527" lon="6.99986">
        <ele>3735.82</ele>
        <time>2013-05-07T08:44:12Z</time>
      </trkpt>
      <trkpt lat="45.50526" lon="6.99986">
        <ele>3737.26</ele>
        <time>2013-05-07T08:44:22Z</time>
      </trkpt>
      <trkpt lat="45.50524" lon="6.99984">
        <ele>3737.74</ele>
        <time>2013-05-07T08:44:34Z</time>
      </trkpt>
      <trkpt lat="45.50523" lon="6.99982">
        <ele>3738.22</ele>
        <time>2013-05-07T08:44:48Z</time>
      </trkpt>
      <trkpt lat="45.50521" lon="6.99981">
        <ele>3738.22</ele>
        <time>2013-05-07T08:44:57Z</time>
      </trkpt>
      <trkpt lat="45.50519" lon="6.99979">
        <ele>3738.7</ele>
        <time>2013-05-07T08:45:13Z</time>
      </trkpt>
      <trkpt lat="45.50517" lon="6.99977">
        <ele>3739.67</ele>
        <time>2013-05-07T08:45:25Z</time>
      </trkpt>
      <trkpt lat="45.50515" lon="6.99975">
        <ele>3740.63</ele>
        <time>2013-05-07T08:45:37Z</time>
      </trkpt>
      <trkpt lat="45.50513" lon="6.99974">
        <ele>3741.11</ele>
        <time>2013-05-07T08:45:48Z</time>
      </trkpt>
      <trkpt lat="45.50511" lon="6.99973">
        <ele>3742.55</ele>
        <time>2013-05-07T08:46:01Z</time>
      </trkpt>
      <trkpt lat="45.50508" lon="6.99972">
        <ele>3742.55</ele>
        <time>2013-05-07T08:46:15Z</time>
      </trkpt>
      <trkpt lat="45.50505" lon="6.99971">
        <ele>3743.99</ele>
        <time>2013-05-07T08:46:30Z</time>
      </trkpt>
      <trkpt lat="45.50502" lon="6.99971">
        <ele>3745.43</ele>
        <time>2013-05-07T08:46:43Z</time>
      </trkpt>
      <trkpt lat="45.505" lon="6.99972">
        <ele>3746.4</ele>
        <time>2013-05-07T08:46:56Z</time>
      </trkpt>
      <trkpt lat="45.50499" lon="6.99974">
        <ele>3747.36</ele>
        <time>2013-05-07T08:47:09Z</time>
      </trkpt>
      <trkpt lat="45.50498" lon="6.99975">
        <ele>3748.32</ele>
        <time>2013-05-07T08:47:21Z</time>
      </trkpt>
      <trkpt lat="45.50497" lon="6.99977">
        <ele>3749.28</ele>
        <time>2013-05-07T08:47:33Z</time>
      </trkpt>
      <trkpt lat="45.50495" lon="6.9998">
        <ele>3751.2</ele>
        <time>2013-05-07T08:47:46Z</time>
      </trkpt>
      <trkpt lat="45.50494" lon="6.99982">
        <ele>3751.68</ele>
        <time>2013-05-07T08:48:03Z</time>
      </trkpt>
      <trkpt lat="45.50494" lon="6.99984">
        <ele>3752.64</ele>
        <time>2013-05-07T08:48:15Z</time>
      </trkpt>
      <trkpt lat="45.50494" lon="6.99983">
        <ele>3753.12</ele>
        <time>2013-05-07T08:48:34Z</time>
      </trkpt>
      <trkpt lat="45.50494" lon="6.99983">
        <ele>3750.72</ele>
        <time>2013-05-07T08:48:39Z</time>
      </trkpt>
      <trkpt lat="45.50493" lon="6.99984">
        <ele>3751.68</ele>
        <time>2013-05-07T08:49:04Z</time>
      </trkpt>
      <trkpt lat="45.50493" lon="6.99984">
        <ele>3750.24</ele>
        <time>2013-05-07T08:49:25Z</time>
      </trkpt>
      <trkpt lat="45.50494" lon="6.99983">
        <ele>3753.6</ele>
        <time>2013-05-07T08:49:30Z</time>
      </trkpt>
      <trkpt lat="45.50494" lon="6.99984">
        <ele>3747.36</ele>
        <time>2013-05-07T08:49:34Z</time>
      </trkpt>
      <trkpt lat="45.50495" lon="6.99984">
        <ele>3752.16</ele>
        <time>2013-05-07T08:49:35Z</time>
      </trkpt>
      <trkpt lat="45.50495" lon="6.99984">
        <ele>3752.16</ele>
        <time>2013-05-07T08:49:36Z</time>
      </trkpt>
      <trkpt lat="45.50494" lon="6.99983">
        <ele>3750.72</ele>
        <time>2013-05-07T08:49:54Z</time>
      </trkpt>
      <trkpt lat="45.50494" lon="6.99984">
        <ele>3752.64</ele>
        <time>2013-05-07T08:49:56Z</time>
      </trkpt>
      <trkpt lat="45.50494" lon="6.99983">
        <ele>3748.32</ele>
        <time>2013-05-07T08:50:00Z</time>
      </trkpt>
      <trkpt lat="45.50494" lon="6.99983">
        <ele>3752.16</ele>
        <time>2013-05-07T08:50:01Z</time>
      </trkpt>
      <trkpt lat="45.50494" lon="6.99983">
        <ele>3751.2</ele>
        <time>2013-05-07T08:50:32Z</time>
      </trkpt>
      <trkpt lat="45.50494" lon="6.99983">
        <ele>3751.68</ele>
        <time>2013-05-07T08:51:10Z</time>
      </trkpt>
      <trkpt lat="45.50494" lon="6.99983">
        <ele>3751.68</ele>
        <time>2013-05-07T08:51:57Z</time>
      </trkpt>
      <trkpt lat="45.50494" lon="6.99984">
        <ele>3751.68</ele>
        <time>2013-05-07T08:52:35Z</time>
      </trkpt>
      <trkpt lat="45.50494" lon="6.99984">
        <ele>3750.24</ele>
        <time>2013-05-07T08:52:59Z</time>
      </trkpt>
      <trkpt lat="45.50494" lon="6.99983">
        <ele>3750.24</ele>
        <time>2013-05-07T08:53:04Z</time>
      </trkpt>
      <trkpt lat="45.50494" lon="6.99983">
        <ele>3751.2</ele>
        <time>2013-05-07T08:53:06Z</time>
      </trkpt>
      <trkpt lat="45.50495" lon="6.99984">
        <ele>3751.68</ele>
        <time>2013-05-07T08:53:20Z</time>
      </trkpt>
      <trkpt lat="45.50495" lon="6.99984">
        <ele>3751.68</ele>
        <time>2013-05-07T08:53:40Z</time>
      </trkpt>
      <trkpt lat="45.50494" lon="6.99984">
        <ele>3751.68</ele>
        <time>2013-05-07T08:54:05Z</time>
      </trkpt>
      <trkpt lat="45.50494" lon="6.99984">
        <ele>3751.68</ele>
        <time>2013-05-07T08:54:27Z</time>
      </trkpt>
      <trkpt lat="45.50494" lon="6.99985">
        <ele>3751.68</ele>
        <time>2013-05-07T08:55:00Z</time>
      </trkpt>
      <trkpt lat="45.50494" lon="6.99985">
        <ele>3751.68</ele>
        <time>2013-05-07T08:55:25Z</time>
      </trkpt>
      <trkpt lat="45.50494" lon="6.99985">
        <ele>3751.68</ele>
        <time>2013-05-07T08:55:47Z</time>
      </trkpt>
      <trkpt lat="45.50494" lon="6.99984">
        <ele>3751.68</ele>
        <time>2013-05-07T08:56:02Z</time>
      </trkpt>
      <trkpt lat="45.50495" lon="6.99983">
        <ele>3751.68</ele>
        <time>2013-05-07T08:56:29Z</time>
      </trkpt>
      <trkpt lat="45.50495" lon="6.99983">
        <ele>3751.68</ele>
        <time>2013-05-07T08:56:56Z</time>
      </trkpt>
      <trkpt lat="45.50496" lon="6.99983">
        <ele>3751.2</ele>
        <time>2013-05-07T08:57:16Z</time>
      </trkpt>
      <trkpt lat="45.50495" lon="6.99983">
        <ele>3752.64</ele>
        <time>2013-05-07T08:57:36Z</time>
      </trkpt>
      <trkpt lat="45.50495" lon="6.99983">
        <ele>3752.64</ele>
        <time>2013-05-07T08:57:37Z</time>
      </trkpt>
      <trkpt lat="45.50495" lon="6.99983">
        <ele>3753.12</ele>
        <time>2013-05-07T08:57:57Z</time>
      </trkpt>
      <trkpt lat="45.50495" lon="6.99983">
        <ele>3753.12</ele>
        <time>2013-05-07T08:58:25Z</time>
      </trkpt>
      <trkpt lat="45.50495" lon="6.99984">
        <ele>3753.12</ele>
        <time>2013-05-07T08:58:48Z</time>
      </trkpt>
      <trkpt lat="45.50495" lon="6.99984">
        <ele>3753.12</ele>
        <time>2013-05-07T08:59:14Z</time>
      </trkpt>
      <trkpt lat="45.50499" lon="6.99981">
        <ele>3751.68</ele>
        <time>2013-05-07T08:59:27Z</time>
      </trkpt>
      <trkpt lat="45.50502" lon="6.99977">
        <ele>3748.32</ele>
        <time>2013-05-07T08:59:37Z</time>
      </trkpt>
      <trkpt lat="45.50505" lon="6.99974">
        <ele>3745.91</ele>
        <time>2013-05-07T08:59:44Z</time>
      </trkpt>
      <trkpt lat="45.50506" lon="6.99969">
        <ele>3742.55</ele>
        <time>2013-05-07T08:59:50Z</time>
      </trkpt>
      <trkpt lat="45.50506" lon="6.99969">
        <ele>3742.55</ele>
        <time>2013-05-07T08:59:51Z</time>
      </trkpt>
      <trkpt lat="45.50508" lon="6.99966">
        <ele>3739.67</ele>
        <time>2013-05-07T08:59:56Z</time>
      </trkpt>
      <trkpt lat="45.50507" lon="6.9996">
        <ele>3736.3</ele>
        <time>2013-05-07T09:00:00Z</time>
      </trkpt>
      <trkpt lat="45.50503" lon="6.99957">
        <ele>3735.82</ele>
        <time>2013-05-07T09:00:03Z</time>
      </trkpt>
      <trkpt lat="45.50505" lon="6.99954">
        <ele>3735.82</ele>
        <time>2013-05-07T09:00:05Z</time>
      </trkpt>
      <trkpt lat="45.50507" lon="6.99954">
        <ele>3733.9</ele>
        <time>2013-05-07T09:00:07Z</time>
      </trkpt>
      <trkpt lat="45.50508" lon="6.99954">
        <ele>3732.94</ele>
        <time>2013-05-07T09:00:08Z</time>
      </trkpt>
      <trkpt lat="45.50506" lon="6.99948">
        <ele>3730.05</ele>
        <time>2013-05-07T09:00:12Z</time>
      </trkpt>
      <trkpt lat="45.5051" lon="6.99944">
        <ele>3727.65</ele>
        <time>2013-05-07T09:00:17Z</time>
      </trkpt>
      <trkpt lat="45.50511" lon="6.99939">
        <ele>3723.32</ele>
        <time>2013-05-07T09:00:20Z</time>
      </trkpt>
      <trkpt lat="45.5051" lon="6.99937">
        <ele>3723.32</ele>
        <time>2013-05-07T09:00:21Z</time>
      </trkpt>
      <trkpt lat="45.50511" lon="6.99935">
        <ele>3721.88</ele>
        <time>2013-05-07T09:00:25Z</time>
      </trkpt>
      <trkpt lat="45.50512" lon="6.99935">
        <ele>3721.88</ele>
        <time>2013-05-07T09:00:46Z</time>
      </trkpt>
      <trkpt lat="45.50514" lon="6.99935">
        <ele>3721.88</ele>
        <time>2013-05-07T09:00:48Z</time>
      </trkpt>
      <trkpt lat="45.50514" lon="6.99927">
        <ele>3718.04</ele>
        <time>2013-05-07T09:00:51Z</time>
      </trkpt>
      <trkpt lat="45.50521" lon="6.9993">
        <ele>3714.19</ele>
        <time>2013-05-07T09:00:56Z</time>
      </trkpt>
      <trkpt lat="45.50523" lon="6.99931">
        <ele>3712.75</ele>
        <time>2013-05-07T09:00:57Z</time>
      </trkpt>
      <trkpt lat="45.50523" lon="6.99923">
        <ele>3708.42</ele>
        <time>2013-05-07T09:01:00Z</time>
      </trkpt>
      <trkpt lat="45.50529" lon="6.9992">
        <ele>3704.58</ele>
        <time>2013-05-07T09:01:04Z</time>
      </trkpt>
      <trkpt lat="45.50528" lon="6.99912">
        <ele>3700.73</ele>
        <time>2013-05-07T09:01:06Z</time>
      </trkpt>
      <trkpt lat="45.50529" lon="6.9991">
        <ele>3700.73</ele>
        <time>2013-05-07T09:01:07Z</time>
      </trkpt>
      <trkpt lat="45.50534" lon="6.99912">
        <ele>3697.37</ele>
        <time>2013-05-07T09:01:09Z</time>
      </trkpt>
      <trkpt lat="45.50535" lon="6.99905">
        <ele>3693.52</ele>
        <time>2013-05-07T09:01:11Z</time>
      </trkpt>
      <trkpt lat="45.50533" lon="6.99901">
        <ele>3692.08</ele>
        <time>2013-05-07T09:01:13Z</time>
      </trkpt>
      <trkpt lat="45.50533" lon="6.99901">
        <ele>3692.08</ele>
        <time>2013-05-07T09:01:25Z</time>
      </trkpt>
      <trkpt lat="45.50533" lon="6.99902">
        <ele>3692.56</ele>
        <time>2013-05-07T09:01:47Z</time>
      </trkpt>
      <trkpt lat="45.50535" lon="6.99901">
        <ele>3692.56</ele>
        <time>2013-05-07T09:02:04Z</time>
      </trkpt>
      <trkpt lat="45.50542" lon="6.99905">
        <ele>3690.16</ele>
        <time>2013-05-07T09:02:07Z</time>
      </trkpt>
      <trkpt lat="45.50542" lon="6.99895">
        <ele>3684.87</ele>
        <time>2013-05-07T09:02:10Z</time>
      </trkpt>
      <trkpt lat="45.50543" lon="6.99889">
        <ele>3684.39</ele>
        <time>2013-05-07T09:02:12Z</time>
      </trkpt>
      <trkpt lat="45.50546" lon="6.99883">
        <ele>3679.58</ele>
        <time>2013-05-07T09:02:14Z</time>
      </trkpt>
      <trkpt lat="45.50547" lon="6.99876">
        <ele>3677.18</ele>
        <time>2013-05-07T09:02:16Z</time>
      </trkpt>
      <trkpt lat="45.50551" lon="6.99872">
        <ele>3671.89</ele>
        <time>2013-05-07T09:02:18Z</time>
      </trkpt>
      <trkpt lat="45.50554" lon="6.9986">
        <ele>3663.24</ele>
        <time>2013-05-07T09:02:22Z</time>
      </trkpt>
      <trkpt lat="45.50553" lon="6.99856">
        <ele>3663.24</ele>
        <time>2013-05-07T09:02:23Z</time>
      </trkpt>
      <trkpt lat="45.50558" lon="6.99855">
        <ele>3659.88</ele>
        <time>2013-05-07T09:02:25Z</time>
      </trkpt>
      <trkpt lat="45.5056" lon="6.99851">
        <ele>3656.03</ele>
        <time>2013-05-07T09:02:27Z</time>
      </trkpt>
      <trkpt lat="45.50561" lon="6.99845">
        <ele>3654.59</ele>
        <time>2013-05-07T09:02:29Z</time>
      </trkpt>
      <trkpt lat="45.50566" lon="6.9985">
        <ele>3650.74</ele>
        <time>2013-05-07T09:02:31Z</time>
      </trkpt>
      <trkpt lat="45.50569" lon="6.99854">
        <ele>3649.78</ele>
        <time>2013-05-07T09:02:33Z</time>
      </trkpt>
      <trkpt lat="45.50573" lon="6.99847">
        <ele>3646.42</ele>
        <time>2013-05-07T09:02:37Z</time>
      </trkpt>
      <trkpt lat="45.50573" lon="6.99841">
        <ele>3644.5</ele>
        <time>2013-05-07T09:02:39Z</time>
      </trkpt>
      <trkpt lat="45.50584" lon="6.99853">
        <ele>3640.17</ele>
        <time>2013-05-07T09:02:42Z</time>
      </trkpt>
      <trkpt lat="45.50594" lon="6.99868">
        <ele>3636.81</ele>
        <time>2013-05-07T09:02:47Z</time>
      </trkpt>
      <trkpt lat="45.50594" lon="6.99868">
        <ele>3636.81</ele>
        <time>2013-05-07T09:03:10Z</time>
      </trkpt>
      <trkpt lat="45.50595" lon="6.99868">
        <ele>3636.81</ele>
        <time>2013-05-07T09:03:37Z</time>
      </trkpt>
      <trkpt lat="45.5061" lon="6.99885">
        <ele>3633.44</ele>
        <time>2013-05-07T09:03:43Z</time>
      </trkpt>
      <trkpt lat="45.50622" lon="6.999">
        <ele>3630.56</ele>
        <time>2013-05-07T09:03:47Z</time>
      </trkpt>
      <trkpt lat="45.50625" lon="6.99891">
        <ele>3626.23</ele>
        <time>2013-05-07T09:03:50Z</time>
      </trkpt>
      <trkpt lat="45.50631" lon="6.99892">
        <ele>3619.98</ele>
        <time>2013-05-07T09:03:52Z</time>
      </trkpt>
      <trkpt lat="45.50636" lon="6.99896">
        <ele>3617.1</ele>
        <time>2013-05-07T09:03:54Z</time>
      </trkpt>
      <trkpt lat="45.50644" lon="6.99894">
        <ele>3609.89</ele>
        <time>2013-05-07T09:03:57Z</time>
      </trkpt>
      <trkpt lat="45.50652" lon="6.99898">
        <ele>3604.6</ele>
        <time>2013-05-07T09:03:59Z</time>
      </trkpt>
      <trkpt lat="45.50657" lon="6.999">
        <ele>3600.76</ele>
        <time>2013-05-07T09:04:00Z</time>
      </trkpt>
      <trkpt lat="45.50659" lon="6.99899">
        <ele>3599.79</ele>
        <time>2013-05-07T09:04:01Z</time>
      </trkpt>
      <trkpt lat="45.50668" lon="6.99892">
        <ele>3589.7</ele>
        <time>2013-05-07T09:04:04Z</time>
      </trkpt>
      <trkpt lat="45.50675" lon="6.99886">
        <ele>3586.34</ele>
        <time>2013-05-07T09:04:06Z</time>
      </trkpt>
      <trkpt lat="45.5068" lon="6.99882">
        <ele>3582.01</ele>
        <time>2013-05-07T09:04:07Z</time>
      </trkpt>
      <trkpt lat="45.50686" lon="6.9988">
        <ele>3577.68</ele>
        <time>2013-05-07T09:04:08Z</time>
      </trkpt>
      <trkpt lat="45.5069" lon="6.99873">
        <ele>3573.84</ele>
        <time>2013-05-07T09:04:09Z</time>
      </trkpt>
      <trkpt lat="45.50698" lon="6.99859">
        <ele>3567.11</ele>
        <time>2013-05-07T09:04:11Z</time>
      </trkpt>
      <trkpt lat="45.50701" lon="6.99852">
        <ele>3563.74</ele>
        <time>2013-05-07T09:04:12Z</time>
      </trkpt>
      <trkpt lat="45.50703" lon="6.99843">
        <ele>3559.9</ele>
        <time>2013-05-07T09:04:13Z</time>
      </trkpt>
      <trkpt lat="45.50703" lon="6.99826">
        <ele>3553.17</ele>
        <time>2013-05-07T09:04:15Z</time>
      </trkpt>
      <trkpt lat="45.50706" lon="6.9982">
        <ele>3547.88</ele>
        <time>2013-05-07T09:04:17Z</time>
      </trkpt>
      <trkpt lat="45.50707" lon="6.99821">
        <ele>3545</ele>
        <time>2013-05-07T09:04:21Z</time>
      </trkpt>
      <trkpt lat="45.50708" lon="6.99821">
        <ele>3547.4</ele>
        <time>2013-05-07T09:04:24Z</time>
      </trkpt>
      <trkpt lat="45.50707" lon="6.99821">
        <ele>3547.88</ele>
        <time>2013-05-07T09:04:45Z</time>
      </trkpt>
      <trkpt lat="45.50707" lon="6.99822">
        <ele>3547.88</ele>
        <time>2013-05-07T09:05:14Z</time>
      </trkpt>
      <trkpt lat="45.50706" lon="6.99822">
        <ele>3547.88</ele>
        <time>2013-05-07T09:05:40Z</time>
      </trkpt>
      <trkpt lat="45.50707" lon="6.99822">
        <ele>3547.88</ele>
        <time>2013-05-07T09:05:47Z</time>
      </trkpt>
      <trkpt lat="45.50718" lon="6.99819">
        <ele>3546.44</ele>
        <time>2013-05-07T09:05:50Z</time>
      </trkpt>
      <trkpt lat="45.50742" lon="6.998">
        <ele>3539.71</ele>
        <time>2013-05-07T09:05:54Z</time>
      </trkpt>
      <trkpt lat="45.50755" lon="6.99791">
        <ele>3534.9</ele>
        <time>2013-05-07T09:05:56Z</time>
      </trkpt>
      <trkpt lat="45.50769" lon="6.99777">
        <ele>3529.14</ele>
        <time>2013-05-07T09:05:58Z</time>
      </trkpt>
      <trkpt lat="45.50782" lon="6.99765">
        <ele>3523.37</ele>
        <time>2013-05-07T09:06:00Z</time>
      </trkpt>
      <trkpt lat="45.50787" lon="6.99758">
        <ele>3519.52</ele>
        <time>2013-05-07T09:06:01Z</time>
      </trkpt>
      <trkpt lat="45.50793" lon="6.99752">
        <ele>3516.64</ele>
        <time>2013-05-07T09:06:02Z</time>
      </trkpt>
      <trkpt lat="45.50808" lon="6.99729">
        <ele>3507.99</ele>
        <time>2013-05-07T09:06:05Z</time>
      </trkpt>
      <trkpt lat="45.50815" lon="6.99713">
        <ele>3502.22</ele>
        <time>2013-05-07T09:06:07Z</time>
      </trkpt>
      <trkpt lat="45.50822" lon="6.99696">
        <ele>3495.97</ele>
        <time>2013-05-07T09:06:09Z</time>
      </trkpt>
      <trkpt lat="45.50829" lon="6.99677">
        <ele>3491.17</ele>
        <time>2013-05-07T09:06:11Z</time>
      </trkpt>
      <trkpt lat="45.50832" lon="6.9967">
        <ele>3487.8</ele>
        <time>2013-05-07T09:06:12Z</time>
      </trkpt>
      <trkpt lat="45.50833" lon="6.99661">
        <ele>3484.44</ele>
        <time>2013-05-07T09:06:13Z</time>
      </trkpt>
      <trkpt lat="45.50839" lon="6.99643">
        <ele>3479.15</ele>
        <time>2013-05-07T09:06:15Z</time>
      </trkpt>
      <trkpt lat="45.50848" lon="6.99628">
        <ele>3473.86</ele>
        <time>2013-05-07T09:06:17Z</time>
      </trkpt>
      <trkpt lat="45.50848" lon="6.99619">
        <ele>3469.05</ele>
        <time>2013-05-07T09:06:18Z</time>
      </trkpt>
      <trkpt lat="45.50853" lon="6.99607">
        <ele>3464.73</ele>
        <time>2013-05-07T09:06:20Z</time>
      </trkpt>
      <trkpt lat="45.50857" lon="6.99602">
        <ele>3462.81</ele>
        <time>2013-05-07T09:06:21Z</time>
      </trkpt>
      <trkpt lat="45.50871" lon="6.99581">
        <ele>3454.15</ele>
        <time>2013-05-07T09:06:24Z</time>
      </trkpt>
      <trkpt lat="45.50884" lon="6.99569">
        <ele>3447.43</ele>
        <time>2013-05-07T09:06:26Z</time>
      </trkpt>
      <trkpt lat="45.50892" lon="6.99566">
        <ele>3443.58</ele>
        <time>2013-05-07T09:06:27Z</time>
      </trkpt>
      <trkpt lat="45.50909" lon="6.9955">
        <ele>3433.97</ele>
        <time>2013-05-07T09:06:30Z</time>
      </trkpt>
      <trkpt lat="45.50915" lon="6.99536">
        <ele>3429.64</ele>
        <time>2013-05-07T09:06:33Z</time>
      </trkpt>
      <trkpt lat="45.50916" lon="6.9954">
        <ele>3427.24</ele>
        <time>2013-05-07T09:06:39Z</time>
      </trkpt>
      <trkpt lat="45.50916" lon="6.99539">
        <ele>3428.2</ele>
        <time>2013-05-07T09:07:17Z</time>
      </trkpt>
      <trkpt lat="45.50915" lon="6.99537">
        <ele>3428.2</ele>
        <time>2013-05-07T09:07:31Z</time>
      </trkpt>
      <trkpt lat="45.50915" lon="6.99539">
        <ele>3427.72</ele>
        <time>2013-05-07T09:07:56Z</time>
      </trkpt>
      <trkpt lat="45.50915" lon="6.99538">
        <ele>3427.72</ele>
        <time>2013-05-07T09:08:16Z</time>
      </trkpt>
      <trkpt lat="45.5093" lon="6.99525">
        <ele>3423.87</ele>
        <time>2013-05-07T09:08:21Z</time>
      </trkpt>
      <trkpt lat="45.5094" lon="6.9952">
        <ele>3420.03</ele>
        <time>2013-05-07T09:08:23Z</time>
      </trkpt>
      <trkpt lat="45.5095" lon="6.99517">
        <ele>3416.66</ele>
        <time>2013-05-07T09:08:25Z</time>
      </trkpt>
      <trkpt lat="45.5096" lon="6.99527">
        <ele>3412.34</ele>
        <time>2013-05-07T09:08:27Z</time>
      </trkpt>
      <trkpt lat="45.50979" lon="6.99527">
        <ele>3405.61</ele>
        <time>2013-05-07T09:08:30Z</time>
      </trkpt>
      <trkpt lat="45.50987" lon="6.99526">
        <ele>3402.24</ele>
        <time>2013-05-07T09:08:31Z</time>
      </trkpt>
      <trkpt lat="45.51002" lon="6.99521">
        <ele>3397.92</ele>
        <time>2013-05-07T09:08:33Z</time>
      </trkpt>
      <trkpt lat="45.51017" lon="6.99513">
        <ele>3392.15</ele>
        <time>2013-05-07T09:08:35Z</time>
      </trkpt>
      <trkpt lat="45.51031" lon="6.99506">
        <ele>3386.86</ele>
        <time>2013-05-07T09:08:37Z</time>
      </trkpt>
      <trkpt lat="45.5104" lon="6.99506">
        <ele>3381.09</ele>
        <time>2013-05-07T09:08:39Z</time>
      </trkpt>
      <trkpt lat="45.5104" lon="6.99509">
        <ele>3379.65</ele>
        <time>2013-05-07T09:08:41Z</time>
      </trkpt>
      <trkpt lat="45.5104" lon="6.99509">
        <ele>3380.61</ele>
        <time>2013-05-07T09:09:06Z</time>
      </trkpt>
      <trkpt lat="45.51038" lon="6.9951">
        <ele>3380.61</ele>
        <time>2013-05-07T09:09:32Z</time>
      </trkpt>
      <trkpt lat="45.51038" lon="6.99511">
        <ele>3380.61</ele>
        <time>2013-05-07T09:09:41Z</time>
      </trkpt>
      <trkpt lat="45.5106" lon="6.99522">
        <ele>3376.77</ele>
        <time>2013-05-07T09:09:48Z</time>
      </trkpt>
      <trkpt lat="45.51072" lon="6.99521">
        <ele>3373.4</ele>
        <time>2013-05-07T09:09:50Z</time>
      </trkpt>
      <trkpt lat="45.51076" lon="6.99517">
        <ele>3370.04</ele>
        <time>2013-05-07T09:09:51Z</time>
      </trkpt>
      <trkpt lat="45.51095" lon="6.99497">
        <ele>3359.95</ele>
        <time>2013-05-07T09:09:55Z</time>
      </trkpt>
      <trkpt lat="45.51105" lon="6.99494">
        <ele>3355.14</ele>
        <time>2013-05-07T09:09:57Z</time>
      </trkpt>
      <trkpt lat="45.5111" lon="6.99489">
        <ele>3351.29</ele>
        <time>2013-05-07T09:09:58Z</time>
      </trkpt>
      <trkpt lat="45.51119" lon="6.99484">
        <ele>3346.01</ele>
        <time>2013-05-07T09:10:00Z</time>
      </trkpt>
      <trkpt lat="45.51125" lon="6.9948">
        <ele>3342.64</ele>
        <time>2013-05-07T09:10:01Z</time>
      </trkpt>
      <trkpt lat="45.51141" lon="6.99466">
        <ele>3333.51</ele>
        <time>2013-05-07T09:10:04Z</time>
      </trkpt>
      <trkpt lat="45.51154" lon="6.99461">
        <ele>3326.3</ele>
        <time>2013-05-07T09:10:06Z</time>
      </trkpt>
      <trkpt lat="45.51159" lon="6.99455">
        <ele>3321.49</ele>
        <time>2013-05-07T09:10:07Z</time>
      </trkpt>
      <trkpt lat="45.51171" lon="6.99451">
        <ele>3314.28</ele>
        <time>2013-05-07T09:10:09Z</time>
      </trkpt>
      <trkpt lat="45.51183" lon="6.99442">
        <ele>3309</ele>
        <time>2013-05-07T09:10:11Z</time>
      </trkpt>
      <trkpt lat="45.5119" lon="6.99443">
        <ele>3305.15</ele>
        <time>2013-05-07T09:10:12Z</time>
      </trkpt>
      <trkpt lat="45.51196" lon="6.99437">
        <ele>3301.79</ele>
        <time>2013-05-07T09:10:13Z</time>
      </trkpt>
      <trkpt lat="45.51205" lon="6.99426">
        <ele>3297.46</ele>
        <time>2013-05-07T09:10:15Z</time>
      </trkpt>
      <trkpt lat="45.51211" lon="6.99428">
        <ele>3294.09</ele>
        <time>2013-05-07T09:10:16Z</time>
      </trkpt>
      <trkpt lat="45.51221" lon="6.9942">
        <ele>3288.33</ele>
        <time>2013-05-07T09:10:18Z</time>
      </trkpt>
      <trkpt lat="45.51233" lon="6.99414">
        <ele>3284.48</ele>
        <time>2013-05-07T09:10:20Z</time>
      </trkpt>
      <trkpt lat="45.51238" lon="6.9941">
        <ele>3281.12</ele>
        <time>2013-05-07T09:10:21Z</time>
      </trkpt>
      <trkpt lat="45.51251" lon="6.99401">
        <ele>3275.83</ele>
        <time>2013-05-07T09:10:23Z</time>
      </trkpt>
      <trkpt lat="45.51263" lon="6.99392">
        <ele>3270.06</ele>
        <time>2013-05-07T09:10:25Z</time>
      </trkpt>
      <trkpt lat="45.5127" lon="6.99379">
        <ele>3265.26</ele>
        <time>2013-05-07T09:10:27Z</time>
      </trkpt>
      <trkpt lat="45.51272" lon="6.9938">
        <ele>3260.93</ele>
        <time>2013-05-07T09:10:29Z</time>
      </trkpt>
      <trkpt lat="45.51272" lon="6.9938">
        <ele>3260.93</ele>
        <time>2013-05-07T09:10:30Z</time>
      </trkpt>
      <trkpt lat="45.51271" lon="6.99382">
        <ele>3263.33</ele>
        <time>2013-05-07T09:10:34Z</time>
      </trkpt>
      <trkpt lat="45.5127" lon="6.99379">
        <ele>3263.33</ele>
        <time>2013-05-07T09:11:09Z</time>
      </trkpt>
      <trkpt lat="45.51269" lon="6.99382">
        <ele>3262.85</ele>
        <time>2013-05-07T09:11:38Z</time>
      </trkpt>
      <trkpt lat="45.51269" lon="6.99381">
        <ele>3262.85</ele>
        <time>2013-05-07T09:11:57Z</time>
      </trkpt>
      <trkpt lat="45.51275" lon="6.99368">
        <ele>3260.93</ele>
        <time>2013-05-07T09:12:01Z</time>
      </trkpt>
      <trkpt lat="45.51276" lon="6.99352">
        <ele>3259.49</ele>
        <time>2013-05-07T09:12:03Z</time>
      </trkpt>
      <trkpt lat="45.51289" lon="6.9932">
        <ele>3254.2</ele>
        <time>2013-05-07T09:12:07Z</time>
      </trkpt>
      <trkpt lat="45.51301" lon="6.99307">
        <ele>3250.35</ele>
        <time>2013-05-07T09:12:09Z</time>
      </trkpt>
      <trkpt lat="45.51313" lon="6.99292">
        <ele>3245.55</ele>
        <time>2013-05-07T09:12:11Z</time>
      </trkpt>
      <trkpt lat="45.51318" lon="6.99282">
        <ele>3241.22</ele>
        <time>2013-05-07T09:12:12Z</time>
      </trkpt>
      <trkpt lat="45.51326" lon="6.99259">
        <ele>3235.94</ele>
        <time>2013-05-07T09:12:14Z</time>
      </trkpt>
      <trkpt lat="45.51335" lon="6.99241">
        <ele>3230.65</ele>
        <time>2013-05-07T09:12:16Z</time>
      </trkpt>
      <trkpt lat="45.5135" lon="6.99214">
        <ele>3222.96</ele>
        <time>2013-05-07T09:12:19Z</time>
      </trkpt>
      <trkpt lat="45.51361" lon="6.99198">
        <ele>3217.67</ele>
        <time>2013-05-07T09:12:21Z</time>
      </trkpt>
      <trkpt lat="45.51374" lon="6.99174">
        <ele>3210.94</ele>
        <time>2013-05-07T09:12:24Z</time>
      </trkpt>
      <trkpt lat="45.51377" lon="6.99146">
        <ele>3206.13</ele>
        <time>2013-05-07T09:12:27Z</time>
      </trkpt>
      <trkpt lat="45.51378" lon="6.99127">
        <ele>3202.29</ele>
        <time>2013-05-07T09:12:29Z</time>
      </trkpt>
      <trkpt lat="45.51386" lon="6.99113">
        <ele>3198.92</ele>
        <time>2013-05-07T09:12:31Z</time>
      </trkpt>
      <trkpt lat="45.51389" lon="6.99105">
        <ele>3195.56</ele>
        <time>2013-05-07T09:12:32Z</time>
      </trkpt>
      <trkpt lat="45.51396" lon="6.99067">
        <ele>3185.47</ele>
        <time>2013-05-07T09:12:36Z</time>
      </trkpt>
      <trkpt lat="45.514" lon="6.99048">
        <ele>3181.14</ele>
        <time>2013-05-07T09:12:38Z</time>
      </trkpt>
      <trkpt lat="45.51402" lon="6.99039">
        <ele>3178.26</ele>
        <time>2013-05-07T09:12:39Z</time>
      </trkpt>
      <trkpt lat="45.51405" lon="6.99019">
        <ele>3173.93</ele>
        <time>2013-05-07T09:12:41Z</time>
      </trkpt>
      <trkpt lat="45.5141" lon="6.99">
        <ele>3168.64</ele>
        <time>2013-05-07T09:12:43Z</time>
      </trkpt>
      <trkpt lat="45.51416" lon="6.98981">
        <ele>3164.32</ele>
        <time>2013-05-07T09:12:45Z</time>
      </trkpt>
      <trkpt lat="45.5142" lon="6.98958">
        <ele>3159.51</ele>
        <time>2013-05-07T09:12:47Z</time>
      </trkpt>
      <trkpt lat="45.51424" lon="6.98949">
        <ele>3156.15</ele>
        <time>2013-05-07T09:12:48Z</time>
      </trkpt>
      <trkpt lat="45.51426" lon="6.98937">
        <ele>3152.3</ele>
        <time>2013-05-07T09:12:49Z</time>
      </trkpt>
      <trkpt lat="45.51433" lon="6.98918">
        <ele>3147.97</ele>
        <time>2013-05-07T09:12:51Z</time>
      </trkpt>
      <trkpt lat="45.51436" lon="6.98909">
        <ele>3144.61</ele>
        <time>2013-05-07T09:12:52Z</time>
      </trkpt>
      <trkpt lat="45.51436" lon="6.98898">
        <ele>3141.25</ele>
        <time>2013-05-07T09:12:53Z</time>
      </trkpt>
      <trkpt lat="45.5144" lon="6.98878">
        <ele>3137.88</ele>
        <time>2013-05-07T09:12:55Z</time>
      </trkpt>
      <trkpt lat="45.51439" lon="6.98866">
        <ele>3135</ele>
        <time>2013-05-07T09:12:56Z</time>
      </trkpt>
      <trkpt lat="45.51441" lon="6.98843">
        <ele>3130.19</ele>
        <time>2013-05-07T09:12:58Z</time>
      </trkpt>
      <trkpt lat="45.51439" lon="6.98831">
        <ele>3126.83</ele>
        <time>2013-05-07T09:12:59Z</time>
      </trkpt>
      <trkpt lat="45.51438" lon="6.98817">
        <ele>3124.42</ele>
        <time>2013-05-07T09:13:00Z</time>
      </trkpt>
      <trkpt lat="45.51431" lon="6.98764">
        <ele>3112.89</ele>
        <time>2013-05-07T09:13:04Z</time>
      </trkpt>
      <trkpt lat="45.51433" lon="6.98741">
        <ele>3108.08</ele>
        <time>2013-05-07T09:13:06Z</time>
      </trkpt>
      <trkpt lat="45.51425" lon="6.9873">
        <ele>3105.2</ele>
        <time>2013-05-07T09:13:09Z</time>
      </trkpt>
      <trkpt lat="45.51424" lon="6.98731">
        <ele>3105.68</ele>
        <time>2013-05-07T09:13:19Z</time>
      </trkpt>
      <trkpt lat="45.51425" lon="6.98732">
        <ele>3105.68</ele>
        <time>2013-05-07T09:13:45Z</time>
      </trkpt>
      <trkpt lat="45.51424" lon="6.98731">
        <ele>3105.68</ele>
        <time>2013-05-07T09:13:56Z</time>
      </trkpt>
      <trkpt lat="45.51424" lon="6.98732">
        <ele>3105.68</ele>
        <time>2013-05-07T09:14:28Z</time>
      </trkpt>
      <trkpt lat="45.51424" lon="6.98732">
        <ele>3105.68</ele>
        <time>2013-05-07T09:14:45Z</time>
      </trkpt>
      <trkpt lat="45.51424" lon="6.98731">
        <ele>3105.2</ele>
        <time>2013-05-07T09:14:55Z</time>
      </trkpt>
      <trkpt lat="45.51424" lon="6.98731">
        <ele>3105.2</ele>
        <time>2013-05-07T09:15:15Z</time>
      </trkpt>
      <trkpt lat="45.51424" lon="6.98731">
        <ele>3105.2</ele>
        <time>2013-05-07T09:15:40Z</time>
      </trkpt>
      <trkpt lat="45.51424" lon="6.9873">
        <ele>3105.2</ele>
        <time>2013-05-07T09:16:08Z</time>
      </trkpt>
      <trkpt lat="45.51425" lon="6.98717">
        <ele>3104.71</ele>
        <time>2013-05-07T09:16:12Z</time>
      </trkpt>
      <trkpt lat="45.51427" lon="6.98686">
        <ele>3100.87</ele>
        <time>2013-05-07T09:16:16Z</time>
      </trkpt>
      <trkpt lat="45.51431" lon="6.98668">
        <ele>3095.1</ele>
        <time>2013-05-07T09:16:18Z</time>
      </trkpt>
      <trkpt lat="45.51435" lon="6.98651">
        <ele>3091.26</ele>
        <time>2013-05-07T09:16:20Z</time>
      </trkpt>
      <trkpt lat="45.51437" lon="6.98633">
        <ele>3086.45</ele>
        <time>2013-05-07T09:16:22Z</time>
      </trkpt>
      <trkpt lat="45.51438" lon="6.98624">
        <ele>3084.53</ele>
        <time>2013-05-07T09:16:23Z</time>
      </trkpt>
      <trkpt lat="45.51446" lon="6.98587">
        <ele>3073.47</ele>
        <time>2013-05-07T09:16:27Z</time>
      </trkpt>
      <trkpt lat="45.51451" lon="6.98579">
        <ele>3069.63</ele>
        <time>2013-05-07T09:16:28Z</time>
      </trkpt>
      <trkpt lat="45.51457" lon="6.98573">
        <ele>3066.26</ele>
        <time>2013-05-07T09:16:29Z</time>
      </trkpt>
      <trkpt lat="45.51461" lon="6.98552">
        <ele>3060.98</ele>
        <time>2013-05-07T09:16:31Z</time>
      </trkpt>
      <trkpt lat="45.51469" lon="6.985">
        <ele>3048.48</ele>
        <time>2013-05-07T09:16:35Z</time>
      </trkpt>
      <trkpt lat="45.51472" lon="6.98479">
        <ele>3044.63</ele>
        <time>2013-05-07T09:16:37Z</time>
      </trkpt>
      <trkpt lat="45.51471" lon="6.98471">
        <ele>3040.31</ele>
        <time>2013-05-07T09:16:38Z</time>
      </trkpt>
      <trkpt lat="45.51466" lon="6.98468">
        <ele>3038.38</ele>
        <time>2013-05-07T09:16:40Z</time>
      </trkpt>
      <trkpt lat="45.51466" lon="6.98469">
        <ele>3040.79</ele>
        <time>2013-05-07T09:16:44Z</time>
      </trkpt>
      <trkpt lat="45.51466" lon="6.9847">
        <ele>3040.79</ele>
        <time>2013-05-07T09:16:57Z</time>
      </trkpt>
      <trkpt lat="45.51466" lon="6.98469">
        <ele>3040.79</ele>
        <time>2013-05-07T09:17:26Z</time>
      </trkpt>
      <trkpt lat="45.51467" lon="6.98468">
        <ele>3040.31</ele>
        <time>2013-05-07T09:17:59Z</time>
      </trkpt>
      <trkpt lat="45.51467" lon="6.98469">
        <ele>3040.31</ele>
        <time>2013-05-07T09:18:20Z</time>
      </trkpt>
      <trkpt lat="45.51468" lon="6.98471">
        <ele>3040.31</ele>
        <time>2013-05-07T09:19:01Z</time>
      </trkpt>
      <trkpt lat="45.51468" lon="6.9847">
        <ele>3040.31</ele>
        <time>2013-05-07T09:19:30Z</time>
      </trkpt>
      <trkpt lat="45.51468" lon="6.9847">
        <ele>3039.83</ele>
        <time>2013-05-07T09:20:00Z</time>
      </trkpt>
      <trkpt lat="45.51468" lon="6.9847">
        <ele>3039.83</ele>
        <time>2013-05-07T09:20:22Z</time>
      </trkpt>
      <trkpt lat="45.51467" lon="6.9847">
        <ele>3039.83</ele>
        <time>2013-05-07T09:20:27Z</time>
      </trkpt>
      <trkpt lat="45.5147" lon="6.98467">
        <ele>3039.83</ele>
        <time>2013-05-07T09:20:29Z</time>
      </trkpt>
      <trkpt lat="45.51471" lon="6.98437">
        <ele>3035.02</ele>
        <time>2013-05-07T09:20:33Z</time>
      </trkpt>
      <trkpt lat="45.51472" lon="6.98416">
        <ele>3031.17</ele>
        <time>2013-05-07T09:20:35Z</time>
      </trkpt>
      <trkpt lat="45.51477" lon="6.98398">
        <ele>3026.85</ele>
        <time>2013-05-07T09:20:37Z</time>
      </trkpt>
      <trkpt lat="45.5148" lon="6.98389">
        <ele>3023.48</ele>
        <time>2013-05-07T09:20:38Z</time>
      </trkpt>
      <trkpt lat="45.51489" lon="6.98377">
        <ele>3018.2</ele>
        <time>2013-05-07T09:20:40Z</time>
      </trkpt>
      <trkpt lat="45.51492" lon="6.98368">
        <ele>3015.31</ele>
        <time>2013-05-07T09:20:41Z</time>
      </trkpt>
      <trkpt lat="45.51503" lon="6.98357">
        <ele>3009.06</ele>
        <time>2013-05-07T09:20:43Z</time>
      </trkpt>
      <trkpt lat="45.5151" lon="6.98341">
        <ele>3003.3</ele>
        <time>2013-05-07T09:20:45Z</time>
      </trkpt>
      <trkpt lat="45.51514" lon="6.98335">
        <ele>2999.93</ele>
        <time>2013-05-07T09:20:46Z</time>
      </trkpt>
      <trkpt lat="45.5152" lon="6.9833">
        <ele>2995.6</ele>
        <time>2013-05-07T09:20:47Z</time>
      </trkpt>
      <trkpt lat="45.51521" lon="6.98314">
        <ele>2989.84</ele>
        <time>2013-05-07T09:20:49Z</time>
      </trkpt>
      <trkpt lat="45.51523" lon="6.98306">
        <ele>2985.99</ele>
        <time>2013-05-07T09:20:50Z</time>
      </trkpt>
      <trkpt lat="45.51533" lon="6.98271">
        <ele>2972.05</ele>
        <time>2013-05-07T09:20:54Z</time>
      </trkpt>
      <trkpt lat="45.51537" lon="6.98261">
        <ele>2968.69</ele>
        <time>2013-05-07T09:20:55Z</time>
      </trkpt>
      <trkpt lat="45.51541" lon="6.9824">
        <ele>2963.4</ele>
        <time>2013-05-07T09:20:57Z</time>
      </trkpt>
      <trkpt lat="45.51551" lon="6.98223">
        <ele>2957.63</ele>
        <time>2013-05-07T09:20:59Z</time>
      </trkpt>
      <trkpt lat="45.51556" lon="6.982">
        <ele>2950.42</ele>
        <time>2013-05-07T09:21:02Z</time>
      </trkpt>
      <trkpt lat="45.51552" lon="6.98197">
        <ele>2948.5</ele>
        <time>2013-05-07T09:21:04Z</time>
      </trkpt>
      <trkpt lat="45.51552" lon="6.98197">
        <ele>2949.94</ele>
        <time>2013-05-07T09:21:11Z</time>
      </trkpt>
      <trkpt lat="45.51552" lon="6.98198">
        <ele>2949.46</ele>
        <time>2013-05-07T09:21:32Z</time>
      </trkpt>
      <trkpt lat="45.51549" lon="6.98189">
        <ele>2948.5</ele>
        <time>2013-05-07T09:21:35Z</time>
      </trkpt>
      <trkpt lat="45.51558" lon="6.98177">
        <ele>2943.69</ele>
        <time>2013-05-07T09:21:38Z</time>
      </trkpt>
      <trkpt lat="45.51565" lon="6.98168">
        <ele>2939.85</ele>
        <time>2013-05-07T09:21:40Z</time>
      </trkpt>
      <trkpt lat="45.51571" lon="6.98157">
        <ele>2934.56</ele>
        <time>2013-05-07T09:21:42Z</time>
      </trkpt>
      <trkpt lat="45.51584" lon="6.9816">
        <ele>2931.2</ele>
        <time>2013-05-07T09:21:44Z</time>
      </trkpt>
      <trkpt lat="45.51598" lon="6.98147">
        <ele>2923.99</ele>
        <time>2013-05-07T09:21:48Z</time>
      </trkpt>
      <trkpt lat="45.51602" lon="6.98125">
        <ele>2915.34</ele>
        <time>2013-05-07T09:21:50Z</time>
      </trkpt>
      <trkpt lat="45.51609" lon="6.98119">
        <ele>2911.97</ele>
        <time>2013-05-07T09:21:51Z</time>
      </trkpt>
      <trkpt lat="45.51613" lon="6.9811">
        <ele>2908.61</ele>
        <time>2013-05-07T09:21:52Z</time>
      </trkpt>
      <trkpt lat="45.51615" lon="6.981">
        <ele>2904.76</ele>
        <time>2013-05-07T09:21:53Z</time>
      </trkpt>
      <trkpt lat="45.51621" lon="6.98092">
        <ele>2900.44</ele>
        <time>2013-05-07T09:21:54Z</time>
      </trkpt>
      <trkpt lat="45.5163" lon="6.98086">
        <ele>2895.63</ele>
        <time>2013-05-07T09:21:55Z</time>
      </trkpt>
      <trkpt lat="45.51641" lon="6.98069">
        <ele>2889.38</ele>
        <time>2013-05-07T09:21:57Z</time>
      </trkpt>
      <trkpt lat="45.51637" lon="6.98061">
        <ele>2885.05</ele>
        <time>2013-05-07T09:21:58Z</time>
      </trkpt>
      <trkpt lat="45.51634" lon="6.98044">
        <ele>2881.21</ele>
        <time>2013-05-07T09:22:00Z</time>
      </trkpt>
      <trkpt lat="45.51637" lon="6.98035">
        <ele>2877.84</ele>
        <time>2013-05-07T09:22:01Z</time>
      </trkpt>
      <trkpt lat="45.51632" lon="6.98018">
        <ele>2873.04</ele>
        <time>2013-05-07T09:22:03Z</time>
      </trkpt>
      <trkpt lat="45.51629" lon="6.98009">
        <ele>2869.19</ele>
        <time>2013-05-07T09:22:04Z</time>
      </trkpt>
      <trkpt lat="45.51632" lon="6.97999">
        <ele>2866.31</ele>
        <time>2013-05-07T09:22:05Z</time>
      </trkpt>
      <trkpt lat="45.51632" lon="6.9799">
        <ele>2862.46</ele>
        <time>2013-05-07T09:22:06Z</time>
      </trkpt>
      <trkpt lat="45.51627" lon="6.97982">
        <ele>2859.58</ele>
        <time>2013-05-07T09:22:07Z</time>
      </trkpt>
      <trkpt lat="45.5162" lon="6.97959">
        <ele>2851.41</ele>
        <time>2013-05-07T09:22:09Z</time>
      </trkpt>
      <trkpt lat="45.51616" lon="6.9792">
        <ele>2839.39</ele>
        <time>2013-05-07T09:22:12Z</time>
      </trkpt>
      <trkpt lat="45.51611" lon="6.97907">
        <ele>2836.03</ele>
        <time>2013-05-07T09:22:13Z</time>
      </trkpt>
      <trkpt lat="45.51612" lon="6.97894">
        <ele>2832.18</ele>
        <time>2013-05-07T09:22:14Z</time>
      </trkpt>
      <trkpt lat="45.51615" lon="6.97882">
        <ele>2828.82</ele>
        <time>2013-05-07T09:22:15Z</time>
      </trkpt>
      <trkpt lat="45.51614" lon="6.97872">
        <ele>2825.45</ele>
        <time>2013-05-07T09:22:16Z</time>
      </trkpt>
      <trkpt lat="45.51604" lon="6.97855">
        <ele>2822.09</ele>
        <time>2013-05-07T09:22:18Z</time>
      </trkpt>
      <trkpt lat="45.51603" lon="6.97844">
        <ele>2818.72</ele>
        <time>2013-05-07T09:22:19Z</time>
      </trkpt>
      <trkpt lat="45.51601" lon="6.97832">
        <ele>2815.84</ele>
        <time>2013-05-07T09:22:20Z</time>
      </trkpt>
      <trkpt lat="45.51585" lon="6.97815">
        <ele>2810.07</ele>
        <time>2013-05-07T09:22:22Z</time>
      </trkpt>
      <trkpt lat="45.51572" lon="6.97807">
        <ele>2807.19</ele>
        <time>2013-05-07T09:22:24Z</time>
      </trkpt>
      <trkpt lat="45.51568" lon="6.97804">
        <ele>2804.3</ele>
        <time>2013-05-07T09:22:27Z</time>
      </trkpt>
      <trkpt lat="45.51568" lon="6.97804">
        <ele>2807.19</ele>
        <time>2013-05-07T09:22:29Z</time>
      </trkpt>
      <trkpt lat="45.5157" lon="6.97805">
        <ele>2806.71</ele>
        <time>2013-05-07T09:22:47Z</time>
      </trkpt>
      <trkpt lat="45.5157" lon="6.97805">
        <ele>2806.71</ele>
        <time>2013-05-07T09:23:05Z</time>
      </trkpt>
      <trkpt lat="45.51568" lon="6.97806">
        <ele>2806.71</ele>
        <time>2013-05-07T09:23:28Z</time>
      </trkpt>
      <trkpt lat="45.51568" lon="6.97805">
        <ele>2806.71</ele>
        <time>2013-05-07T09:23:36Z</time>
      </trkpt>
      <trkpt lat="45.51579" lon="6.97786">
        <ele>2803.34</ele>
        <time>2013-05-07T09:23:42Z</time>
      </trkpt>
      <trkpt lat="45.51591" lon="6.97783">
        <ele>2802.38</ele>
        <time>2013-05-07T09:23:44Z</time>
      </trkpt>
      <trkpt lat="45.51601" lon="6.9776">
        <ele>2797.09</ele>
        <time>2013-05-07T09:23:47Z</time>
      </trkpt>
      <trkpt lat="45.51607" lon="6.9774">
        <ele>2791.33</ele>
        <time>2013-05-07T09:23:49Z</time>
      </trkpt>
      <trkpt lat="45.51607" lon="6.9772">
        <ele>2786.04</ele>
        <time>2013-05-07T09:23:51Z</time>
      </trkpt>
      <trkpt lat="45.51605" lon="6.97706">
        <ele>2780.27</ele>
        <time>2013-05-07T09:23:53Z</time>
      </trkpt>
      <trkpt lat="45.51604" lon="6.97695">
        <ele>2775.46</ele>
        <time>2013-05-07T09:23:56Z</time>
      </trkpt>
      <trkpt lat="45.51607" lon="6.97686">
        <ele>2774.02</ele>
        <time>2013-05-07T09:23:59Z</time>
      </trkpt>
      <trkpt lat="45.51602" lon="6.97682">
        <ele>2770.66</ele>
        <time>2013-05-07T09:24:01Z</time>
      </trkpt>
      <trkpt lat="45.51603" lon="6.97675">
        <ele>2766.81</ele>
        <time>2013-05-07T09:24:03Z</time>
      </trkpt>
      <trkpt lat="45.51605" lon="6.9767">
        <ele>2763.93</ele>
        <time>2013-05-07T09:24:06Z</time>
      </trkpt>
      <trkpt lat="45.51605" lon="6.97668">
        <ele>2763.45</ele>
        <time>2013-05-07T09:24:10Z</time>
      </trkpt>
      <trkpt lat="45.516" lon="6.97656">
        <ele>2757.68</ele>
        <time>2013-05-07T09:24:13Z</time>
      </trkpt>
      <trkpt lat="45.51593" lon="6.97643">
        <ele>2751.91</ele>
        <time>2013-05-07T09:24:15Z</time>
      </trkpt>
      <trkpt lat="45.51592" lon="6.97637">
        <ele>2748.07</ele>
        <time>2013-05-07T09:24:16Z</time>
      </trkpt>
      <trkpt lat="45.51597" lon="6.97623">
        <ele>2742.3</ele>
        <time>2013-05-07T09:24:18Z</time>
      </trkpt>
      <trkpt lat="45.516" lon="6.97616">
        <ele>2739.89</ele>
        <time>2013-05-07T09:24:19Z</time>
      </trkpt>
      <trkpt lat="45.51613" lon="6.976">
        <ele>2727.88</ele>
        <time>2013-05-07T09:24:23Z</time>
      </trkpt>
      <trkpt lat="45.51616" lon="6.97589">
        <ele>2724.51</ele>
        <time>2013-05-07T09:24:25Z</time>
      </trkpt>
      <trkpt lat="45.51624" lon="6.97582">
        <ele>2719.23</ele>
        <time>2013-05-07T09:24:27Z</time>
      </trkpt>
      <trkpt lat="45.51628" lon="6.97568">
        <ele>2715.38</ele>
        <time>2013-05-07T09:24:29Z</time>
      </trkpt>
      <trkpt lat="45.51628" lon="6.97557">
        <ele>2710.57</ele>
        <time>2013-05-07T09:24:31Z</time>
      </trkpt>
      <trkpt lat="45.51626" lon="6.97554">
        <ele>2709.61</ele>
        <time>2013-05-07T09:24:33Z</time>
      </trkpt>
      <trkpt lat="45.51626" lon="6.97549">
        <ele>2709.13</ele>
        <time>2013-05-07T09:24:38Z</time>
      </trkpt>
      <trkpt lat="45.51627" lon="6.97544">
        <ele>2707.69</ele>
        <time>2013-05-07T09:24:51Z</time>
      </trkpt>
      <trkpt lat="45.51627" lon="6.97544">
        <ele>2707.69</ele>
        <time>2013-05-07T09:24:59Z</time>
      </trkpt>
      <trkpt lat="45.51634" lon="6.97539">
        <ele>2705.77</ele>
        <time>2013-05-07T09:25:03Z</time>
      </trkpt>
      <trkpt lat="45.5164" lon="6.97536">
        <ele>2704.81</ele>
        <time>2013-05-07T09:25:05Z</time>
      </trkpt>
      <trkpt lat="45.51638" lon="6.97526">
        <ele>2700</ele>
        <time>2013-05-07T09:25:10Z</time>
      </trkpt>
      <trkpt lat="45.51636" lon="6.97527">
        <ele>2700</ele>
        <time>2013-05-07T09:25:28Z</time>
      </trkpt>
      <trkpt lat="45.51638" lon="6.97517">
        <ele>2695.67</ele>
        <time>2013-05-07T09:25:32Z</time>
      </trkpt>
      <trkpt lat="45.51633" lon="6.97509">
        <ele>2691.35</ele>
        <time>2013-05-07T09:25:35Z</time>
      </trkpt>
      <trkpt lat="45.51629" lon="6.97496">
        <ele>2687.02</ele>
        <time>2013-05-07T09:25:39Z</time>
      </trkpt>
      <trkpt lat="45.51631" lon="6.97491">
        <ele>2682.22</ele>
        <time>2013-05-07T09:25:41Z</time>
      </trkpt>
      <trkpt lat="45.5163" lon="6.97489">
        <ele>2680.77</ele>
        <time>2013-05-07T09:25:43Z</time>
      </trkpt>
      <trkpt lat="45.5163" lon="6.97477">
        <ele>2679.33</ele>
        <time>2013-05-07T09:25:53Z</time>
      </trkpt>
      <trkpt lat="45.51625" lon="6.97454">
        <ele>2675.01</ele>
        <time>2013-05-07T09:25:56Z</time>
      </trkpt>
      <trkpt lat="45.51623" lon="6.97423">
        <ele>2671.16</ele>
        <time>2013-05-07T09:25:59Z</time>
      </trkpt>
      <trkpt lat="45.51623" lon="6.97414">
        <ele>2670.2</ele>
        <time>2013-05-07T09:26:00Z</time>
      </trkpt>
      <trkpt lat="45.51627" lon="6.97384">
        <ele>2666.35</ele>
        <time>2013-05-07T09:26:08Z</time>
      </trkpt>
      <trkpt lat="45.51626" lon="6.97376">
        <ele>2664.91</ele>
        <time>2013-05-07T09:26:17Z</time>
      </trkpt>
      <trkpt lat="45.51627" lon="6.97366">
        <ele>2663.47</ele>
        <time>2013-05-07T09:26:32Z</time>
      </trkpt>
      <trkpt lat="45.51626" lon="6.97355">
        <ele>2660.11</ele>
        <time>2013-05-07T09:26:34Z</time>
      </trkpt>
      <trkpt lat="45.51625" lon="6.97335">
        <ele>2656.26</ele>
        <time>2013-05-07T09:26:36Z</time>
      </trkpt>
      <trkpt lat="45.51627" lon="6.97319">
        <ele>2655.3</ele>
        <time>2013-05-07T09:26:38Z</time>
      </trkpt>
      <trkpt lat="45.51637" lon="6.97334">
        <ele>2648.57</ele>
        <time>2013-05-07T09:26:41Z</time>
      </trkpt>
      <trkpt lat="45.51651" lon="6.97357">
        <ele>2643.28</ele>
        <time>2013-05-07T09:26:45Z</time>
      </trkpt>
      <trkpt lat="45.51659" lon="6.97356">
        <ele>2637.99</ele>
        <time>2013-05-07T09:26:47Z</time>
      </trkpt>
      <trkpt lat="45.51663" lon="6.97352">
        <ele>2635.11</ele>
        <time>2013-05-07T09:26:48Z</time>
      </trkpt>
      <trkpt lat="45.51667" lon="6.9735">
        <ele>2631.75</ele>
        <time>2013-05-07T09:26:49Z</time>
      </trkpt>
      <trkpt lat="45.51672" lon="6.97353">
        <ele>2628.38</ele>
        <time>2013-05-07T09:26:50Z</time>
      </trkpt>
      <trkpt lat="45.51678" lon="6.97358">
        <ele>2624.54</ele>
        <time>2013-05-07T09:26:52Z</time>
      </trkpt>
      <trkpt lat="45.51679" lon="6.97358">
        <ele>2623.58</ele>
        <time>2013-05-07T09:26:53Z</time>
      </trkpt>
      <trkpt lat="45.51687" lon="6.97359">
        <ele>2619.73</ele>
        <time>2013-05-07T09:26:58Z</time>
      </trkpt>
      <trkpt lat="45.51689" lon="6.97362">
        <ele>2617.81</ele>
        <time>2013-05-07T09:27:00Z</time>
      </trkpt>
      <trkpt lat="45.51693" lon="6.97367">
        <ele>2615.4</ele>
        <time>2013-05-07T09:27:03Z</time>
      </trkpt>
      <trkpt lat="45.51701" lon="6.97372">
        <ele>2610.6</ele>
        <time>2013-05-07T09:27:07Z</time>
      </trkpt>
      <trkpt lat="45.51703" lon="6.97374">
        <ele>2608.67</ele>
        <time>2013-05-07T09:27:08Z</time>
      </trkpt>
      <trkpt lat="45.51711" lon="6.97368">
        <ele>2602.91</ele>
        <time>2013-05-07T09:27:12Z</time>
      </trkpt>
      <trkpt lat="45.51718" lon="6.97365">
        <ele>2598.58</ele>
        <time>2013-05-07T09:27:14Z</time>
      </trkpt>
      <trkpt lat="45.51721" lon="6.97359">
        <ele>2595.22</ele>
        <time>2013-05-07T09:27:15Z</time>
      </trkpt>
      <trkpt lat="45.51732" lon="6.97341">
        <ele>2590.89</ele>
        <time>2013-05-07T09:27:18Z</time>
      </trkpt>
      <trkpt lat="45.51738" lon="6.97344">
        <ele>2589.45</ele>
        <time>2013-05-07T09:27:19Z</time>
      </trkpt>
      <trkpt lat="45.51751" lon="6.97347">
        <ele>2586.08</ele>
        <time>2013-05-07T09:27:24Z</time>
      </trkpt>
      <trkpt lat="45.51752" lon="6.97349">
        <ele>2585.6</ele>
        <time>2013-05-07T09:27:41Z</time>
      </trkpt>
      <trkpt lat="45.51751" lon="6.97349">
        <ele>2584.16</ele>
        <time>2013-05-07T09:27:52Z</time>
      </trkpt>
      <trkpt lat="45.51751" lon="6.97349">
        <ele>2580.32</ele>
        <time>2013-05-07T09:27:54Z</time>
      </trkpt>
      <trkpt lat="45.51751" lon="6.97349">
        <ele>2586.56</ele>
        <time>2013-05-07T09:27:55Z</time>
      </trkpt>
      <trkpt lat="45.5175" lon="6.97349">
        <ele>2584.16</ele>
        <time>2013-05-07T09:28:23Z</time>
      </trkpt>
      <trkpt lat="45.51747" lon="6.97346">
        <ele>2582.72</ele>
        <time>2013-05-07T09:28:57Z</time>
      </trkpt>
      <trkpt lat="45.51747" lon="6.97347">
        <ele>2585.12</ele>
        <time>2013-05-07T09:28:59Z</time>
      </trkpt>
      <trkpt lat="45.51748" lon="6.97352">
        <ele>2585.12</ele>
        <time>2013-05-07T09:29:27Z</time>
      </trkpt>
      <trkpt lat="45.51747" lon="6.97351">
        <ele>2584.16</ele>
        <time>2013-05-07T09:29:51Z</time>
      </trkpt>
      <trkpt lat="45.51747" lon="6.9735">
        <ele>2584.16</ele>
        <time>2013-05-07T09:29:54Z</time>
      </trkpt>
      <trkpt lat="45.51749" lon="6.9735">
        <ele>2585.12</ele>
        <time>2013-05-07T09:30:02Z</time>
      </trkpt>
      <trkpt lat="45.51751" lon="6.97349">
        <ele>2585.12</ele>
        <time>2013-05-07T09:30:26Z</time>
      </trkpt>
      <trkpt lat="45.5175" lon="6.97349">
        <ele>2585.12</ele>
        <time>2013-05-07T09:30:48Z</time>
      </trkpt>
      <trkpt lat="45.51754" lon="6.97331">
        <ele>2583.68</ele>
        <time>2013-05-07T09:30:53Z</time>
      </trkpt>
      <trkpt lat="45.51765" lon="6.97308">
        <ele>2580.32</ele>
        <time>2013-05-07T09:30:57Z</time>
      </trkpt>
      <trkpt lat="45.51781" lon="6.97278">
        <ele>2576.95</ele>
        <time>2013-05-07T09:31:05Z</time>
      </trkpt>
      <trkpt lat="45.51784" lon="6.97267">
        <ele>2575.51</ele>
        <time>2013-05-07T09:31:07Z</time>
      </trkpt>
      <trkpt lat="45.51786" lon="6.97243">
        <ele>2573.11</ele>
        <time>2013-05-07T09:31:11Z</time>
      </trkpt>
      <trkpt lat="45.51781" lon="6.97222">
        <ele>2570.7</ele>
        <time>2013-05-07T09:31:14Z</time>
      </trkpt>
      <trkpt lat="45.51779" lon="6.97189">
        <ele>2566.38</ele>
        <time>2013-05-07T09:31:17Z</time>
      </trkpt>
      <trkpt lat="45.51778" lon="6.97158">
        <ele>2562.53</ele>
        <time>2013-05-07T09:31:20Z</time>
      </trkpt>
      <trkpt lat="45.51778" lon="6.97138">
        <ele>2560.13</ele>
        <time>2013-05-07T09:31:22Z</time>
      </trkpt>
      <trkpt lat="45.51793" lon="6.97112">
        <ele>2555.8</ele>
        <time>2013-05-07T09:31:26Z</time>
      </trkpt>
      <trkpt lat="45.51812" lon="6.97078">
        <ele>2550.51</ele>
        <time>2013-05-07T09:31:31Z</time>
      </trkpt>
      <trkpt lat="45.51814" lon="6.97043">
        <ele>2547.63</ele>
        <time>2013-05-07T09:31:38Z</time>
      </trkpt>
      <trkpt lat="45.51813" lon="6.9704">
        <ele>2547.63</ele>
        <time>2013-05-07T09:31:39Z</time>
      </trkpt>
      <trkpt lat="45.51813" lon="6.97011">
        <ele>2546.67</ele>
        <time>2013-05-07T09:31:49Z</time>
      </trkpt>
      <trkpt lat="45.51821" lon="6.96981">
        <ele>2542.82</ele>
        <time>2013-05-07T09:31:56Z</time>
      </trkpt>
      <trkpt lat="45.51825" lon="6.96962">
        <ele>2539.94</ele>
        <time>2013-05-07T09:31:58Z</time>
      </trkpt>
      <trkpt lat="45.51829" lon="6.9693">
        <ele>2537.06</ele>
        <time>2013-05-07T09:32:02Z</time>
      </trkpt>
      <trkpt lat="45.51832" lon="6.96914">
        <ele>2536.58</ele>
        <time>2013-05-07T09:32:06Z</time>
      </trkpt>
      <trkpt lat="45.51841" lon="6.96892">
        <ele>2535.61</ele>
        <time>2013-05-07T09:32:15Z</time>
      </trkpt>
      <trkpt lat="45.51851" lon="6.96853">
        <ele>2533.21</ele>
        <time>2013-05-07T09:32:25Z</time>
      </trkpt>
      <trkpt lat="45.51852" lon="6.96849">
        <ele>2533.21</ele>
        <time>2013-05-07T09:32:26Z</time>
      </trkpt>
      <trkpt lat="45.51864" lon="6.96814">
        <ele>2529.85</ele>
        <time>2013-05-07T09:32:34Z</time>
      </trkpt>
      <trkpt lat="45.5187" lon="6.96797">
        <ele>2529.37</ele>
        <time>2013-05-07T09:32:40Z</time>
      </trkpt>
      <trkpt lat="45.51882" lon="6.96752">
        <ele>2526.96</ele>
        <time>2013-05-07T09:32:54Z</time>
      </trkpt>
      <trkpt lat="45.51892" lon="6.96706">
        <ele>2523.6</ele>
        <time>2013-05-07T09:33:06Z</time>
      </trkpt>
      <trkpt lat="45.51898" lon="6.96675">
        <ele>2522.16</ele>
        <time>2013-05-07T09:33:14Z</time>
      </trkpt>
      <trkpt lat="45.51903" lon="6.96654">
        <ele>2521.19</ele>
        <time>2013-05-07T09:33:20Z</time>
      </trkpt>
      <trkpt lat="45.51913" lon="6.96614">
        <ele>2519.27</ele>
        <time>2013-05-07T09:33:29Z</time>
      </trkpt>
      <trkpt lat="45.51914" lon="6.9661">
        <ele>2518.79</ele>
        <time>2013-05-07T09:33:30Z</time>
      </trkpt>
      <trkpt lat="45.51921" lon="6.9659">
        <ele>2518.31</ele>
        <time>2013-05-07T09:33:38Z</time>
      </trkpt>
      <trkpt lat="45.5193" lon="6.9656">
        <ele>2516.39</ele>
        <time>2013-05-07T09:33:49Z</time>
      </trkpt>
      <trkpt lat="45.51932" lon="6.96553">
        <ele>2516.39</ele>
        <time>2013-05-07T09:33:52Z</time>
      </trkpt>
      <trkpt lat="45.5194" lon="6.96519">
        <ele>2514.95</ele>
        <time>2013-05-07T09:34:02Z</time>
      </trkpt>
      <trkpt lat="45.51945" lon="6.96498">
        <ele>2513.98</ele>
        <time>2013-05-07T09:34:09Z</time>
      </trkpt>
      <trkpt lat="45.51949" lon="6.96487">
        <ele>2513.98</ele>
        <time>2013-05-07T09:34:13Z</time>
      </trkpt>
      <trkpt lat="45.51959" lon="6.96452">
        <ele>2512.06</ele>
        <time>2013-05-07T09:34:24Z</time>
      </trkpt>
      <trkpt lat="45.51965" lon="6.96433">
        <ele>2511.1</ele>
        <time>2013-05-07T09:34:33Z</time>
      </trkpt>
      <trkpt lat="45.51974" lon="6.96396">
        <ele>2509.66</ele>
        <time>2013-05-07T09:34:47Z</time>
      </trkpt>
      <trkpt lat="45.51976" lon="6.96387">
        <ele>2508.7</ele>
        <time>2013-05-07T09:34:52Z</time>
      </trkpt>
      <trkpt lat="45.51977" lon="6.96381">
        <ele>2508.7</ele>
        <time>2013-05-07T09:34:56Z</time>
      </trkpt>
      <trkpt lat="45.51978" lon="6.96371">
        <ele>2508.7</ele>
        <time>2013-05-07T09:35:00Z</time>
      </trkpt>
      <trkpt lat="45.5198" lon="6.96327">
        <ele>2506.77</ele>
        <time>2013-05-07T09:35:13Z</time>
      </trkpt>
      <trkpt lat="45.51986" lon="6.96297">
        <ele>2505.81</ele>
        <time>2013-05-07T09:35:24Z</time>
      </trkpt>
      <trkpt lat="45.51993" lon="6.96286">
        <ele>2504.85</ele>
        <time>2013-05-07T09:35:29Z</time>
      </trkpt>
      <trkpt lat="45.51998" lon="6.96275">
        <ele>2504.37</ele>
        <time>2013-05-07T09:35:34Z</time>
      </trkpt>
      <trkpt lat="45.52" lon="6.96262">
        <ele>2503.41</ele>
        <time>2013-05-07T09:35:38Z</time>
      </trkpt>
      <trkpt lat="45.52005" lon="6.96239">
        <ele>2501.49</ele>
        <time>2013-05-07T09:35:42Z</time>
      </trkpt>
      <trkpt lat="45.52007" lon="6.96229">
        <ele>2501.01</ele>
        <time>2013-05-07T09:35:44Z</time>
      </trkpt>
      <trkpt lat="45.52014" lon="6.96211">
        <ele>2501.01</ele>
        <time>2013-05-07T09:35:51Z</time>
      </trkpt>
      <trkpt lat="45.52016" lon="6.96201">
        <ele>2501.01</ele>
        <time>2013-05-07T09:35:55Z</time>
      </trkpt>
      <trkpt lat="45.52018" lon="6.96187">
        <ele>2500.53</ele>
        <time>2013-05-07T09:36:06Z</time>
      </trkpt>
      <trkpt lat="45.52023" lon="6.96166">
        <ele>2500.05</ele>
        <time>2013-05-07T09:36:19Z</time>
      </trkpt>
      <trkpt lat="45.52035" lon="6.96121">
        <ele>2497.16</ele>
        <time>2013-05-07T09:36:34Z</time>
      </trkpt>
      <trkpt lat="45.52038" lon="6.96102">
        <ele>2495.24</ele>
        <time>2013-05-07T09:36:37Z</time>
      </trkpt>
      <trkpt lat="45.5204" lon="6.9608">
        <ele>2492.84</ele>
        <time>2013-05-07T09:36:40Z</time>
      </trkpt>
      <trkpt lat="45.52048" lon="6.9605">
        <ele>2490.43</ele>
        <time>2013-05-07T09:36:44Z</time>
      </trkpt>
      <trkpt lat="45.52061" lon="6.96021">
        <ele>2487.07</ele>
        <time>2013-05-07T09:36:49Z</time>
      </trkpt>
      <trkpt lat="45.52064" lon="6.96015">
        <ele>2486.59</ele>
        <time>2013-05-07T09:36:50Z</time>
      </trkpt>
      <trkpt lat="45.52069" lon="6.96007">
        <ele>2485.63</ele>
        <time>2013-05-07T09:36:52Z</time>
      </trkpt>
      <trkpt lat="45.52073" lon="6.95999">
        <ele>2485.63</ele>
        <time>2013-05-07T09:37:00Z</time>
      </trkpt>
      <trkpt lat="45.52078" lon="6.95985">
        <ele>2487.07</ele>
        <time>2013-05-07T09:37:15Z</time>
      </trkpt>
      <trkpt lat="45.52082" lon="6.95975">
        <ele>2487.55</ele>
        <time>2013-05-07T09:37:28Z</time>
      </trkpt>
      <trkpt lat="45.52083" lon="6.95967">
        <ele>2487.55</ele>
        <time>2013-05-07T09:37:35Z</time>
      </trkpt>
      <trkpt lat="45.52089" lon="6.95947">
        <ele>2487.55</ele>
        <time>2013-05-07T09:37:46Z</time>
      </trkpt>
      <trkpt lat="45.52093" lon="6.95934">
        <ele>2487.55</ele>
        <time>2013-05-07T09:37:57Z</time>
      </trkpt>
      <trkpt lat="45.521" lon="6.95912">
        <ele>2486.59</ele>
        <time>2013-05-07T09:38:10Z</time>
      </trkpt>
      <trkpt lat="45.52103" lon="6.9591">
        <ele>2486.59</ele>
        <time>2013-05-07T09:38:22Z</time>
      </trkpt>
      <trkpt lat="45.52103" lon="6.95912">
        <ele>2486.59</ele>
        <time>2013-05-07T09:38:47Z</time>
      </trkpt>
      <trkpt lat="45.52103" lon="6.95907">
        <ele>2486.59</ele>
        <time>2013-05-07T09:39:12Z</time>
      </trkpt>
      <trkpt lat="45.52101" lon="6.9591">
        <ele>2486.59</ele>
        <time>2013-05-07T09:39:34Z</time>
      </trkpt>
      <trkpt lat="45.52101" lon="6.9591">
        <ele>2486.59</ele>
        <time>2013-05-07T09:39:41Z</time>
      </trkpt>
      <trkpt lat="45.52105" lon="6.95901">
        <ele>2486.11</ele>
        <time>2013-05-07T09:39:45Z</time>
      </trkpt>
      <trkpt lat="45.52116" lon="6.95886">
        <ele>2483.7</ele>
        <time>2013-05-07T09:39:49Z</time>
      </trkpt>
      <trkpt lat="45.52131" lon="6.95858">
        <ele>2480.82</ele>
        <time>2013-05-07T09:39:53Z</time>
      </trkpt>
      <trkpt lat="45.52137" lon="6.95828">
        <ele>2475.53</ele>
        <time>2013-05-07T09:39:56Z</time>
      </trkpt>
      <trkpt lat="45.52147" lon="6.95815">
        <ele>2473.13</ele>
        <time>2013-05-07T09:39:58Z</time>
      </trkpt>
      <trkpt lat="45.52155" lon="6.95803">
        <ele>2472.65</ele>
        <time>2013-05-07T09:40:00Z</time>
      </trkpt>
      <trkpt lat="45.52167" lon="6.95781">
        <ele>2468.8</ele>
        <time>2013-05-07T09:40:04Z</time>
      </trkpt>
      <trkpt lat="45.52178" lon="6.95758">
        <ele>2465.44</ele>
        <time>2013-05-07T09:40:09Z</time>
      </trkpt>
      <trkpt lat="45.52196" lon="6.95736">
        <ele>2462.07</ele>
        <time>2013-05-07T09:40:16Z</time>
      </trkpt>
      <trkpt lat="45.5221" lon="6.95723">
        <ele>2460.63</ele>
        <time>2013-05-07T09:40:20Z</time>
      </trkpt>
      <trkpt lat="45.5222" lon="6.95711">
        <ele>2459.67</ele>
        <time>2013-05-07T09:40:23Z</time>
      </trkpt>
      <trkpt lat="45.52242" lon="6.9569">
        <ele>2456.31</ele>
        <time>2013-05-07T09:40:31Z</time>
      </trkpt>
      <trkpt lat="45.5224" lon="6.95668">
        <ele>2452.46</ele>
        <time>2013-05-07T09:40:35Z</time>
      </trkpt>
      <trkpt lat="45.52242" lon="6.95642">
        <ele>2448.13</ele>
        <time>2013-05-07T09:40:40Z</time>
      </trkpt>
      <trkpt lat="45.52253" lon="6.95619">
        <ele>2442.37</ele>
        <time>2013-05-07T09:40:45Z</time>
      </trkpt>
      <trkpt lat="45.52271" lon="6.95606">
        <ele>2437.08</ele>
        <time>2013-05-07T09:40:49Z</time>
      </trkpt>
      <trkpt lat="45.52274" lon="6.956">
        <ele>2435.16</ele>
        <time>2013-05-07T09:40:50Z</time>
      </trkpt>
      <trkpt lat="45.52285" lon="6.95589">
        <ele>2430.35</ele>
        <time>2013-05-07T09:40:55Z</time>
      </trkpt>
      <trkpt lat="45.52288" lon="6.95589">
        <ele>2428.91</ele>
        <time>2013-05-07T09:40:56Z</time>
      </trkpt>
      <trkpt lat="45.52294" lon="6.95576">
        <ele>2424.1</ele>
        <time>2013-05-07T09:40:59Z</time>
      </trkpt>
      <trkpt lat="45.52293" lon="6.95568">
        <ele>2422.18</ele>
        <time>2013-05-07T09:41:00Z</time>
      </trkpt>
      <trkpt lat="45.52303" lon="6.9554">
        <ele>2416.89</ele>
        <time>2013-05-07T09:41:05Z</time>
      </trkpt>
      <trkpt lat="45.52308" lon="6.95526">
        <ele>2412.09</ele>
        <time>2013-05-07T09:41:08Z</time>
      </trkpt>
      <trkpt lat="45.52313" lon="6.95524">
        <ele>2411.6</ele>
        <time>2013-05-07T09:41:09Z</time>
      </trkpt>
      <trkpt lat="45.52327" lon="6.95517">
        <ele>2409.68</ele>
        <time>2013-05-07T09:41:12Z</time>
      </trkpt>
      <trkpt lat="45.52329" lon="6.95516">
        <ele>2408.72</ele>
        <time>2013-05-07T09:41:14Z</time>
      </trkpt>
      <trkpt lat="45.52323" lon="6.95503">
        <ele>2405.84</ele>
        <time>2013-05-07T09:41:19Z</time>
      </trkpt>
      <trkpt lat="45.52322" lon="6.95487">
        <ele>2401.51</ele>
        <time>2013-05-07T09:41:22Z</time>
      </trkpt>
      <trkpt lat="45.52315" lon="6.95476">
        <ele>2398.15</ele>
        <time>2013-05-07T09:41:24Z</time>
      </trkpt>
      <trkpt lat="45.52312" lon="6.9547">
        <ele>2398.15</ele>
        <time>2013-05-07T09:41:25Z</time>
      </trkpt>
      <trkpt lat="45.52311" lon="6.95465">
        <ele>2398.15</ele>
        <time>2013-05-07T09:41:26Z</time>
      </trkpt>
      <trkpt lat="45.52311" lon="6.95458">
        <ele>2398.15</ele>
        <time>2013-05-07T09:41:28Z</time>
      </trkpt>
      <trkpt lat="45.52306" lon="6.95452">
        <ele>2398.15</ele>
        <time>2013-05-07T09:41:36Z</time>
      </trkpt>
      <trkpt lat="45.52298" lon="6.9544">
        <ele>2394.78</ele>
        <time>2013-05-07T09:41:40Z</time>
      </trkpt>
      <trkpt lat="45.52301" lon="6.95429">
        <ele>2390.46</ele>
        <time>2013-05-07T09:41:42Z</time>
      </trkpt>
      <trkpt lat="45.52307" lon="6.9542">
        <ele>2387.09</ele>
        <time>2013-05-07T09:41:44Z</time>
      </trkpt>
      <trkpt lat="45.52305" lon="6.95405">
        <ele>2383.73</ele>
        <time>2013-05-07T09:41:46Z</time>
      </trkpt>
      <trkpt lat="45.52317" lon="6.95393">
        <ele>2379.4</ele>
        <time>2013-05-07T09:41:49Z</time>
      </trkpt>
      <trkpt lat="45.5232" lon="6.95386">
        <ele>2376.52</ele>
        <time>2013-05-07T09:41:50Z</time>
      </trkpt>
      <trkpt lat="45.52331" lon="6.95359">
        <ele>2369.31</ele>
        <time>2013-05-07T09:41:54Z</time>
      </trkpt>
      <trkpt lat="45.52333" lon="6.95352">
        <ele>2366.9</ele>
        <time>2013-05-07T09:41:55Z</time>
      </trkpt>
      <trkpt lat="45.52342" lon="6.9532">
        <ele>2361.62</ele>
        <time>2013-05-07T09:41:59Z</time>
      </trkpt>
      <trkpt lat="45.52344" lon="6.95307">
        <ele>2359.69</ele>
        <time>2013-05-07T09:42:01Z</time>
      </trkpt>
      <trkpt lat="45.5235" lon="6.95298">
        <ele>2358.73</ele>
        <time>2013-05-07T09:42:03Z</time>
      </trkpt>
      <trkpt lat="45.52359" lon="6.95304">
        <ele>2353.93</ele>
        <time>2013-05-07T09:42:05Z</time>
      </trkpt>
      <trkpt lat="45.52372" lon="6.95294">
        <ele>2350.08</ele>
        <time>2013-05-07T09:42:08Z</time>
      </trkpt>
      <trkpt lat="45.5238" lon="6.95272">
        <ele>2347.2</ele>
        <time>2013-05-07T09:42:12Z</time>
      </trkpt>
      <trkpt lat="45.52384" lon="6.95265">
        <ele>2345.75</ele>
        <time>2013-05-07T09:42:13Z</time>
      </trkpt>
      <trkpt lat="45.52393" lon="6.95245">
        <ele>2341.91</ele>
        <time>2013-05-07T09:42:15Z</time>
      </trkpt>
      <trkpt lat="45.52406" lon="6.95209">
        <ele>2335.66</ele>
        <time>2013-05-07T09:42:18Z</time>
      </trkpt>
      <trkpt lat="45.5241" lon="6.95201">
        <ele>2335.66</ele>
        <time>2013-05-07T09:42:19Z</time>
      </trkpt>
      <trkpt lat="45.52413" lon="6.95194">
        <ele>2335.18</ele>
        <time>2013-05-07T09:42:20Z</time>
      </trkpt>
      <trkpt lat="45.52423" lon="6.95176">
        <ele>2333.74</ele>
        <time>2013-05-07T09:42:24Z</time>
      </trkpt>
      <trkpt lat="45.52424" lon="6.95171">
        <ele>2331.81</ele>
        <time>2013-05-07T09:42:27Z</time>
      </trkpt>
      <trkpt lat="45.52424" lon="6.95172">
        <ele>2331.81</ele>
        <time>2013-05-07T09:42:32Z</time>
      </trkpt>
      <trkpt lat="45.52433" lon="6.95183">
        <ele>2329.41</ele>
        <time>2013-05-07T09:42:39Z</time>
      </trkpt>
      <trkpt lat="45.52437" lon="6.95197">
        <ele>2327.49</ele>
        <time>2013-05-07T09:42:42Z</time>
      </trkpt>
      <trkpt lat="45.52437" lon="6.95198">
        <ele>2327.49</ele>
        <time>2013-05-07T09:42:44Z</time>
      </trkpt>
      <trkpt lat="45.52444" lon="6.95185">
        <ele>2326.53</ele>
        <time>2013-05-07T09:42:48Z</time>
      </trkpt>
      <trkpt lat="45.52453" lon="6.9517">
        <ele>2326.05</ele>
        <time>2013-05-07T09:42:53Z</time>
      </trkpt>
      <trkpt lat="45.52456" lon="6.95164">
        <ele>2326.53</ele>
        <time>2013-05-07T09:43:03Z</time>
      </trkpt>
      <trkpt lat="45.52459" lon="6.9516">
        <ele>2326.53</ele>
        <time>2013-05-07T09:43:13Z</time>
      </trkpt>
      <trkpt lat="45.52459" lon="6.95157">
        <ele>2326.05</ele>
        <time>2013-05-07T09:43:30Z</time>
      </trkpt>
      <trkpt lat="45.52459" lon="6.95158">
        <ele>2326.05</ele>
        <time>2013-05-07T09:43:44Z</time>
      </trkpt>
      <trkpt lat="45.52459" lon="6.95158">
        <ele>2326.05</ele>
        <time>2013-05-07T09:44:03Z</time>
      </trkpt>
      <trkpt lat="45.5246" lon="6.95155">
        <ele>2325.57</ele>
        <time>2013-05-07T09:44:16Z</time>
      </trkpt>
      <trkpt lat="45.5246" lon="6.95154">
        <ele>2325.57</ele>
        <time>2013-05-07T09:44:32Z</time>
      </trkpt>
      <trkpt lat="45.5246" lon="6.95154">
        <ele>2325.57</ele>
        <time>2013-05-07T09:44:41Z</time>
      </trkpt>
      <trkpt lat="45.52459" lon="6.95154">
        <ele>2321.72</ele>
        <time>2013-05-07T09:44:45Z</time>
      </trkpt>
      <trkpt lat="45.52459" lon="6.95154">
        <ele>2325.09</ele>
        <time>2013-05-07T09:44:47Z</time>
      </trkpt>
      <trkpt lat="45.52459" lon="6.95154">
        <ele>2325.09</ele>
        <time>2013-05-07T09:44:48Z</time>
      </trkpt>
      <trkpt lat="45.52459" lon="6.95157">
        <ele>2324.61</ele>
        <time>2013-05-07T09:45:18Z</time>
      </trkpt>
      <trkpt lat="45.52459" lon="6.95156">
        <ele>2323.16</ele>
        <time>2013-05-07T09:45:46Z</time>
      </trkpt>
      <trkpt lat="45.5246" lon="6.95156">
        <ele>2323.16</ele>
        <time>2013-05-07T09:46:17Z</time>
      </trkpt>
      <trkpt lat="45.52461" lon="6.95157">
        <ele>2323.16</ele>
        <time>2013-05-07T09:46:34Z</time>
      </trkpt>
      <trkpt lat="45.5246" lon="6.95156">
        <ele>2323.16</ele>
        <time>2013-05-07T09:47:02Z</time>
      </trkpt>
      <trkpt lat="45.52461" lon="6.95155">
        <ele>2323.16</ele>
        <time>2013-05-07T09:47:27Z</time>
      </trkpt>
      <trkpt lat="45.52464" lon="6.95159">
        <ele>2322.68</ele>
        <time>2013-05-07T09:47:56Z</time>
      </trkpt>
      <trkpt lat="45.52464" lon="6.9516">
        <ele>2322.68</ele>
        <time>2013-05-07T09:48:25Z</time>
      </trkpt>
      <trkpt lat="45.52461" lon="6.95158">
        <ele>2324.12</ele>
        <time>2013-05-07T09:48:51Z</time>
      </trkpt>
      <trkpt lat="45.5246" lon="6.95155">
        <ele>2324.12</ele>
        <time>2013-05-07T09:49:02Z</time>
      </trkpt>
      <trkpt lat="45.52461" lon="6.95156">
        <ele>2324.12</ele>
        <time>2013-05-07T09:49:20Z</time>
      </trkpt>
      <trkpt lat="45.52461" lon="6.9515">
        <ele>2324.12</ele>
        <time>2013-05-07T09:49:39Z</time>
      </trkpt>
      <trkpt lat="45.52459" lon="6.95148">
        <ele>2324.12</ele>
        <time>2013-05-07T09:49:51Z</time>
      </trkpt>
      <trkpt lat="45.5246" lon="6.95147">
        <ele>2324.12</ele>
        <time>2013-05-07T09:49:52Z</time>
      </trkpt>
      <trkpt lat="45.52461" lon="6.95143">
        <ele>2324.12</ele>
        <time>2013-05-07T09:49:55Z</time>
      </trkpt>
      <trkpt lat="45.52465" lon="6.95133">
        <ele>2323.16</ele>
        <time>2013-05-07T09:50:02Z</time>
      </trkpt>
      <trkpt lat="45.52466" lon="6.95132">
        <ele>2323.16</ele>
        <time>2013-05-07T09:50:03Z</time>
      </trkpt>
      <trkpt lat="45.5247" lon="6.95121">
        <ele>2321.24</ele>
        <time>2013-05-07T09:50:17Z</time>
      </trkpt>
      <trkpt lat="45.52472" lon="6.95119">
        <ele>2321.24</ele>
        <time>2013-05-07T09:50:26Z</time>
      </trkpt>
      <trkpt lat="45.52478" lon="6.95107">
        <ele>2319.32</ele>
        <time>2013-05-07T09:50:38Z</time>
      </trkpt>
      <trkpt lat="45.5248" lon="6.95095">
        <ele>2315.95</ele>
        <time>2013-05-07T09:50:50Z</time>
      </trkpt>
      <trkpt lat="45.52483" lon="6.95078">
        <ele>2313.07</ele>
        <time>2013-05-07T09:51:02Z</time>
      </trkpt>
      <trkpt lat="45.52485" lon="6.95063">
        <ele>2310.67</ele>
        <time>2013-05-07T09:51:14Z</time>
      </trkpt>
      <trkpt lat="45.52488" lon="6.95057">
        <ele>2310.19</ele>
        <time>2013-05-07T09:51:23Z</time>
      </trkpt>
      <trkpt lat="45.52492" lon="6.95043">
        <ele>2307.3</ele>
        <time>2013-05-07T09:51:36Z</time>
      </trkpt>
      <trkpt lat="45.52499" lon="6.95029">
        <ele>2305.38</ele>
        <time>2013-05-07T09:51:48Z</time>
      </trkpt>
      <trkpt lat="45.52502" lon="6.95024">
        <ele>2304.42</ele>
        <time>2013-05-07T09:51:53Z</time>
      </trkpt>
      <trkpt lat="45.52507" lon="6.95018">
        <ele>2301.53</ele>
        <time>2013-05-07T09:52:01Z</time>
      </trkpt>
      <trkpt lat="45.52509" lon="6.95009">
        <ele>2299.13</ele>
        <time>2013-05-07T09:52:10Z</time>
      </trkpt>
      <trkpt lat="45.52512" lon="6.95005">
        <ele>2299.13</ele>
        <time>2013-05-07T09:52:14Z</time>
      </trkpt>
      <trkpt lat="45.52516" lon="6.94992">
        <ele>2298.17</ele>
        <time>2013-05-07T09:52:23Z</time>
      </trkpt>
      <trkpt lat="45.52522" lon="6.94976">
        <ele>2296.25</ele>
        <time>2013-05-07T09:52:38Z</time>
      </trkpt>
      <trkpt lat="45.52528" lon="6.94959">
        <ele>2294.32</ele>
        <time>2013-05-07T09:52:50Z</time>
      </trkpt>
      <trkpt lat="45.52536" lon="6.94944">
        <ele>2293.36</ele>
        <time>2013-05-07T09:53:02Z</time>
      </trkpt>
      <trkpt lat="45.52538" lon="6.94933">
        <ele>2291.92</ele>
        <time>2013-05-07T09:53:09Z</time>
      </trkpt>
      <trkpt lat="45.5254" lon="6.94926">
        <ele>2291.44</ele>
        <time>2013-05-07T09:53:15Z</time>
      </trkpt>
      <trkpt lat="45.52545" lon="6.94914">
        <ele>2290.48</ele>
        <time>2013-05-07T09:53:29Z</time>
      </trkpt>
      <trkpt lat="45.52549" lon="6.94904">
        <ele>2290</ele>
        <time>2013-05-07T09:53:37Z</time>
      </trkpt>
      <trkpt lat="45.5255" lon="6.94891">
        <ele>2290</ele>
        <time>2013-05-07T09:53:51Z</time>
      </trkpt>
      <trkpt lat="45.52551" lon="6.94886">
        <ele>2289.52</ele>
        <time>2013-05-07T09:54:00Z</time>
      </trkpt>
      <trkpt lat="45.52553" lon="6.94866">
        <ele>2288.08</ele>
        <time>2013-05-07T09:54:14Z</time>
      </trkpt>
      <trkpt lat="45.52559" lon="6.94852">
        <ele>2286.63</ele>
        <time>2013-05-07T09:54:29Z</time>
      </trkpt>
      <trkpt lat="45.52562" lon="6.94843">
        <ele>2285.67</ele>
        <time>2013-05-07T09:54:39Z</time>
      </trkpt>
      <trkpt lat="45.52563" lon="6.94835">
        <ele>2285.19</ele>
        <time>2013-05-07T09:54:47Z</time>
      </trkpt>
      <trkpt lat="45.52565" lon="6.94827">
        <ele>2284.71</ele>
        <time>2013-05-07T09:54:54Z</time>
      </trkpt>
      <trkpt lat="45.52568" lon="6.94819">
        <ele>2284.71</ele>
        <time>2013-05-07T09:55:05Z</time>
      </trkpt>
      <trkpt lat="45.52572" lon="6.94804">
        <ele>2286.15</ele>
        <time>2013-05-07T09:55:21Z</time>
      </trkpt>
      <trkpt lat="45.52572" lon="6.94801">
        <ele>2286.15</ele>
        <time>2013-05-07T09:55:25Z</time>
      </trkpt>
      <trkpt lat="45.52573" lon="6.94797">
        <ele>2286.15</ele>
        <time>2013-05-07T09:55:28Z</time>
      </trkpt>
      <trkpt lat="45.52576" lon="6.94787">
        <ele>2284.23</ele>
        <time>2013-05-07T09:55:38Z</time>
      </trkpt>
      <trkpt lat="45.52576" lon="6.94785">
        <ele>2283.27</ele>
        <time>2013-05-07T09:55:40Z</time>
      </trkpt>
      <trkpt lat="45.52581" lon="6.94774">
        <ele>2282.79</ele>
        <time>2013-05-07T09:55:50Z</time>
      </trkpt>
      <trkpt lat="45.5259" lon="6.94755">
        <ele>2280.87</ele>
        <time>2013-05-07T09:56:06Z</time>
      </trkpt>
      <trkpt lat="45.52591" lon="6.94755">
        <ele>2280.38</ele>
        <time>2013-05-07T09:56:07Z</time>
      </trkpt>
      <trkpt lat="45.52598" lon="6.94749">
        <ele>2279.42</ele>
        <time>2013-05-07T09:56:20Z</time>
      </trkpt>
      <trkpt lat="45.52598" lon="6.94754">
        <ele>2278.94</ele>
        <time>2013-05-07T09:56:36Z</time>
      </trkpt>
      <trkpt lat="45.52601" lon="6.94749">
        <ele>2278.46</ele>
        <time>2013-05-07T09:56:49Z</time>
      </trkpt>
      <trkpt lat="45.52601" lon="6.94747">
        <ele>2278.46</ele>
        <time>2013-05-07T09:56:51Z</time>
      </trkpt>
      <trkpt lat="45.52601" lon="6.94739">
        <ele>2277.98</ele>
        <time>2013-05-07T09:56:55Z</time>
      </trkpt>
      <trkpt lat="45.52606" lon="6.94731">
        <ele>2277.02</ele>
        <time>2013-05-07T09:57:03Z</time>
      </trkpt>
      <trkpt lat="45.52603" lon="6.94726">
        <ele>2277.02</ele>
        <time>2013-05-07T09:57:16Z</time>
      </trkpt>
      <trkpt lat="45.52603" lon="6.94725">
        <ele>2276.06</ele>
        <time>2013-05-07T09:57:31Z</time>
      </trkpt>
      <trkpt lat="45.52604" lon="6.94727">
        <ele>2276.06</ele>
        <time>2013-05-07T09:57:43Z</time>
      </trkpt>
      <trkpt lat="45.52603" lon="6.94726">
        <ele>2276.06</ele>
        <time>2013-05-07T09:58:17Z</time>
      </trkpt>
      <trkpt lat="45.52602" lon="6.94724">
        <ele>2276.06</ele>
        <time>2013-05-07T09:58:45Z</time>
      </trkpt>
      <trkpt lat="45.52601" lon="6.94723">
        <ele>2277.02</ele>
        <time>2013-05-07T09:59:00Z</time>
      </trkpt>
      <trkpt lat="45.52602" lon="6.94719">
        <ele>2277.02</ele>
        <time>2013-05-07T09:59:12Z</time>
      </trkpt>
      <trkpt lat="45.52601" lon="6.9471">
        <ele>2273.66</ele>
        <time>2013-05-07T09:59:15Z</time>
      </trkpt>
      <trkpt lat="45.52603" lon="6.94698">
        <ele>2270.77</ele>
        <time>2013-05-07T09:59:18Z</time>
      </trkpt>
      <trkpt lat="45.52599" lon="6.94694">
        <ele>2270.29</ele>
        <time>2013-05-07T09:59:20Z</time>
      </trkpt>
      <trkpt lat="45.52589" lon="6.94694">
        <ele>2266.45</ele>
        <time>2013-05-07T09:59:22Z</time>
      </trkpt>
      <trkpt lat="45.52582" lon="6.94686">
        <ele>2262.6</ele>
        <time>2013-05-07T09:59:24Z</time>
      </trkpt>
      <trkpt lat="45.52583" lon="6.94679">
        <ele>2260.68</ele>
        <time>2013-05-07T09:59:25Z</time>
      </trkpt>
      <trkpt lat="45.52587" lon="6.94638">
        <ele>2252.99</ele>
        <time>2013-05-07T09:59:29Z</time>
      </trkpt>
      <trkpt lat="45.52594" lon="6.94615">
        <ele>2251.06</ele>
        <time>2013-05-07T09:59:31Z</time>
      </trkpt>
      <trkpt lat="45.52599" lon="6.94606">
        <ele>2251.06</ele>
        <time>2013-05-07T09:59:32Z</time>
      </trkpt>
      <trkpt lat="45.5261" lon="6.94591">
        <ele>2249.62</ele>
        <time>2013-05-07T09:59:34Z</time>
      </trkpt>
      <trkpt lat="45.52613" lon="6.94569">
        <ele>2247.7</ele>
        <time>2013-05-07T09:59:39Z</time>
      </trkpt>
      <trkpt lat="45.52606" lon="6.94546">
        <ele>2244.33</ele>
        <time>2013-05-07T09:59:43Z</time>
      </trkpt>
      <trkpt lat="45.52604" lon="6.94538">
        <ele>2242.89</ele>
        <time>2013-05-07T09:59:45Z</time>
      </trkpt>
      <trkpt lat="45.52604" lon="6.94531">
        <ele>2242.41</ele>
        <time>2013-05-07T09:59:47Z</time>
      </trkpt>
      <trkpt lat="45.52606" lon="6.9452">
        <ele>2240.97</ele>
        <time>2013-05-07T09:59:49Z</time>
      </trkpt>
      <trkpt lat="45.52609" lon="6.94508">
        <ele>2239.53</ele>
        <time>2013-05-07T09:59:51Z</time>
      </trkpt>
      <trkpt lat="45.52609" lon="6.94503">
        <ele>2238.57</ele>
        <time>2013-05-07T09:59:52Z</time>
      </trkpt>
      <trkpt lat="45.52617" lon="6.94485">
        <ele>2236.64</ele>
        <time>2013-05-07T09:59:56Z</time>
      </trkpt>
      <trkpt lat="45.52621" lon="6.94458">
        <ele>2231.84</ele>
        <time>2013-05-07T10:00:00Z</time>
      </trkpt>
      <trkpt lat="45.5263" lon="6.94435">
        <ele>2227.03</ele>
        <time>2013-05-07T10:00:04Z</time>
      </trkpt>
      <trkpt lat="45.52632" lon="6.94429">
        <ele>2225.11</ele>
        <time>2013-05-07T10:00:05Z</time>
      </trkpt>
      <trkpt lat="45.52636" lon="6.94404">
        <ele>2218.38</ele>
        <time>2013-05-07T10:00:09Z</time>
      </trkpt>
      <trkpt lat="45.52638" lon="6.94391">
        <ele>2216.46</ele>
        <time>2013-05-07T10:00:12Z</time>
      </trkpt>
      <trkpt lat="45.5264" lon="6.94388">
        <ele>2216.46</ele>
        <time>2013-05-07T10:00:18Z</time>
      </trkpt>
      <trkpt lat="45.52644" lon="6.94379">
        <ele>2215.01</ele>
        <time>2013-05-07T10:00:23Z</time>
      </trkpt>
      <trkpt lat="45.52642" lon="6.94373">
        <ele>2214.53</ele>
        <time>2013-05-07T10:00:25Z</time>
      </trkpt>
      <trkpt lat="45.52641" lon="6.94369">
        <ele>2213.57</ele>
        <time>2013-05-07T10:00:35Z</time>
      </trkpt>
      <trkpt lat="45.52641" lon="6.94367">
        <ele>2213.57</ele>
        <time>2013-05-07T10:00:44Z</time>
      </trkpt>
      <trkpt lat="45.52645" lon="6.94352">
        <ele>2210.21</ele>
        <time>2013-05-07T10:00:53Z</time>
      </trkpt>
      <trkpt lat="45.52645" lon="6.94352">
        <ele>2210.21</ele>
        <time>2013-05-07T10:00:56Z</time>
      </trkpt>
      <trkpt lat="45.52642" lon="6.94341">
        <ele>2207.32</ele>
        <time>2013-05-07T10:01:04Z</time>
      </trkpt>
      <trkpt lat="45.52643" lon="6.94333">
        <ele>2206.36</ele>
        <time>2013-05-07T10:01:06Z</time>
      </trkpt>
      <trkpt lat="45.52646" lon="6.94329">
        <ele>2205.88</ele>
        <time>2013-05-07T10:01:14Z</time>
      </trkpt>
      <trkpt lat="45.52643" lon="6.94329">
        <ele>2205.4</ele>
        <time>2013-05-07T10:01:18Z</time>
      </trkpt>
      <trkpt lat="45.52642" lon="6.94329">
        <ele>2204.92</ele>
        <time>2013-05-07T10:01:29Z</time>
      </trkpt>
      <trkpt lat="45.52642" lon="6.94331">
        <ele>2204.44</ele>
        <time>2013-05-07T10:01:36Z</time>
      </trkpt>
      <trkpt lat="45.52641" lon="6.94333">
        <ele>2203</ele>
        <time>2013-05-07T10:01:39Z</time>
      </trkpt>
      <trkpt lat="45.52642" lon="6.9433">
        <ele>2203</ele>
        <time>2013-05-07T10:02:09Z</time>
      </trkpt>
      <trkpt lat="45.52641" lon="6.94329">
        <ele>2202.52</ele>
        <time>2013-05-07T10:02:39Z</time>
      </trkpt>
      <trkpt lat="45.52642" lon="6.94334">
        <ele>2202.52</ele>
        <time>2013-05-07T10:03:02Z</time>
      </trkpt>
      <trkpt lat="45.52643" lon="6.94338">
        <ele>2202.52</ele>
        <time>2013-05-07T10:03:25Z</time>
      </trkpt>
      <trkpt lat="45.52641" lon="6.94331">
        <ele>2203</ele>
        <time>2013-05-07T10:03:57Z</time>
      </trkpt>
      <trkpt lat="45.52641" lon="6.94331">
        <ele>2203.96</ele>
        <time>2013-05-07T10:04:14Z</time>
      </trkpt>
      <trkpt lat="45.52641" lon="6.9433">
        <ele>2203.96</ele>
        <time>2013-05-07T10:04:23Z</time>
      </trkpt>
      <trkpt lat="45.52641" lon="6.94326">
        <ele>2203.96</ele>
        <time>2013-05-07T10:04:39Z</time>
      </trkpt>
      <trkpt lat="45.52642" lon="6.94325">
        <ele>2203.96</ele>
        <time>2013-05-07T10:04:41Z</time>
      </trkpt>
      <trkpt lat="45.52641" lon="6.94319">
        <ele>2203</ele>
        <time>2013-05-07T10:04:45Z</time>
      </trkpt>
      <trkpt lat="45.52641" lon="6.94302">
        <ele>2199.63</ele>
        <time>2013-05-07T10:04:57Z</time>
      </trkpt>
      <trkpt lat="45.52641" lon="6.94301">
        <ele>2199.63</ele>
        <time>2013-05-07T10:04:58Z</time>
      </trkpt>
      <trkpt lat="45.52642" lon="6.94282">
        <ele>2196.75</ele>
        <time>2013-05-07T10:05:12Z</time>
      </trkpt>
      <trkpt lat="45.52643" lon="6.94269">
        <ele>2193.87</ele>
        <time>2013-05-07T10:05:22Z</time>
      </trkpt>
      <trkpt lat="45.52648" lon="6.94261">
        <ele>2191.94</ele>
        <time>2013-05-07T10:05:34Z</time>
      </trkpt>
      <trkpt lat="45.52653" lon="6.94255">
        <ele>2191.46</ele>
        <time>2013-05-07T10:05:47Z</time>
      </trkpt>
      <trkpt lat="45.52654" lon="6.94245">
        <ele>2191.46</ele>
        <time>2013-05-07T10:05:59Z</time>
      </trkpt>
      <trkpt lat="45.52653" lon="6.94244">
        <ele>2191.46</ele>
        <time>2013-05-07T10:06:00Z</time>
      </trkpt>
      <trkpt lat="45.52654" lon="6.94239">
        <ele>2191.46</ele>
        <time>2013-05-07T10:06:03Z</time>
      </trkpt>
      <trkpt lat="45.5266" lon="6.94222">
        <ele>2190.98</ele>
        <time>2013-05-07T10:06:16Z</time>
      </trkpt>
      <trkpt lat="45.52662" lon="6.94219">
        <ele>2190.98</ele>
        <time>2013-05-07T10:06:18Z</time>
      </trkpt>
      <trkpt lat="45.52663" lon="6.94217">
        <ele>2190.5</ele>
        <time>2013-05-07T10:06:20Z</time>
      </trkpt>
      <trkpt lat="45.52666" lon="6.94195">
        <ele>2189.54</ele>
        <time>2013-05-07T10:06:35Z</time>
      </trkpt>
      <trkpt lat="45.52667" lon="6.94191">
        <ele>2189.06</ele>
        <time>2013-05-07T10:06:37Z</time>
      </trkpt>
      <trkpt lat="45.52672" lon="6.94181">
        <ele>2188.1</ele>
        <time>2013-05-07T10:06:47Z</time>
      </trkpt>
      <trkpt lat="45.52673" lon="6.94172">
        <ele>2187.14</ele>
        <time>2013-05-07T10:06:53Z</time>
      </trkpt>
      <trkpt lat="45.52676" lon="6.9415">
        <ele>2184.73</ele>
        <time>2013-05-07T10:07:06Z</time>
      </trkpt>
      <trkpt lat="45.52677" lon="6.94141">
        <ele>2184.73</ele>
        <time>2013-05-07T10:07:11Z</time>
      </trkpt>
      <trkpt lat="45.52683" lon="6.94117">
        <ele>2184.25</ele>
        <time>2013-05-07T10:07:26Z</time>
      </trkpt>
      <trkpt lat="45.52684" lon="6.94102">
        <ele>2182.33</ele>
        <time>2013-05-07T10:07:39Z</time>
      </trkpt>
      <trkpt lat="45.52687" lon="6.94097">
        <ele>2182.33</ele>
        <time>2013-05-07T10:07:46Z</time>
      </trkpt>
      <trkpt lat="45.52694" lon="6.94079">
        <ele>2182.33</ele>
        <time>2013-05-07T10:07:59Z</time>
      </trkpt>
      <trkpt lat="45.52695" lon="6.94065">
        <ele>2179.93</ele>
        <time>2013-05-07T10:08:11Z</time>
      </trkpt>
      <trkpt lat="45.52697" lon="6.94057">
        <ele>2179.45</ele>
        <time>2013-05-07T10:08:17Z</time>
      </trkpt>
      <trkpt lat="45.52689" lon="6.94043">
        <ele>2175.12</ele>
        <time>2013-05-07T10:08:28Z</time>
      </trkpt>
      <trkpt lat="45.52689" lon="6.9404">
        <ele>2174.64</ele>
        <time>2013-05-07T10:08:30Z</time>
      </trkpt>
      <trkpt lat="45.52695" lon="6.9402">
        <ele>2172.72</ele>
        <time>2013-05-07T10:08:43Z</time>
      </trkpt>
      <trkpt lat="45.52695" lon="6.94008">
        <ele>2170.79</ele>
        <time>2013-05-07T10:08:54Z</time>
      </trkpt>
      <trkpt lat="45.52693" lon="6.93998">
        <ele>2168.39</ele>
        <time>2013-05-07T10:09:04Z</time>
      </trkpt>
      <trkpt lat="45.52696" lon="6.93987">
        <ele>2166.95</ele>
        <time>2013-05-07T10:09:15Z</time>
      </trkpt>
      <trkpt lat="45.52696" lon="6.93985">
        <ele>2166.95</ele>
        <time>2013-05-07T10:09:19Z</time>
      </trkpt>
      <trkpt lat="45.52696" lon="6.93982">
        <ele>2166.47</ele>
        <time>2013-05-07T10:09:22Z</time>
      </trkpt>
      <trkpt lat="45.527" lon="6.93963">
        <ele>2165.03</ele>
        <time>2013-05-07T10:09:36Z</time>
      </trkpt>
      <trkpt lat="45.52702" lon="6.93958">
        <ele>2165.03</ele>
        <time>2013-05-07T10:09:40Z</time>
      </trkpt>
      <trkpt lat="45.52708" lon="6.93944">
        <ele>2164.06</ele>
        <time>2013-05-07T10:09:52Z</time>
      </trkpt>
      <trkpt lat="45.52712" lon="6.9394">
        <ele>2164.06</ele>
        <time>2013-05-07T10:09:56Z</time>
      </trkpt>
      <trkpt lat="45.52726" lon="6.93921">
        <ele>2162.14</ele>
        <time>2013-05-07T10:10:12Z</time>
      </trkpt>
      <trkpt lat="45.52732" lon="6.93912">
        <ele>2161.18</ele>
        <time>2013-05-07T10:10:22Z</time>
      </trkpt>
      <trkpt lat="45.52736" lon="6.9391">
        <ele>2162.62</ele>
        <time>2013-05-07T10:10:28Z</time>
      </trkpt>
      <trkpt lat="45.52742" lon="6.93903">
        <ele>2162.62</ele>
        <time>2013-05-07T10:10:36Z</time>
      </trkpt>
      <trkpt lat="45.52745" lon="6.93897">
        <ele>2161.18</ele>
        <time>2013-05-07T10:10:40Z</time>
      </trkpt>
      <trkpt lat="45.52751" lon="6.9388">
        <ele>2159.74</ele>
        <time>2013-05-07T10:10:50Z</time>
      </trkpt>
      <trkpt lat="45.52751" lon="6.93859">
        <ele>2157.82</ele>
        <time>2013-05-07T10:11:05Z</time>
      </trkpt>
      <trkpt lat="45.52751" lon="6.93856">
        <ele>2157.34</ele>
        <time>2013-05-07T10:11:07Z</time>
      </trkpt>
      <trkpt lat="45.52752" lon="6.93839">
        <ele>2154.93</ele>
        <time>2013-05-07T10:11:17Z</time>
      </trkpt>
      <trkpt lat="45.5275" lon="6.93821">
        <ele>2153.01</ele>
        <time>2013-05-07T10:11:28Z</time>
      </trkpt>
      <trkpt lat="45.52752" lon="6.93808">
        <ele>2152.05</ele>
        <time>2013-05-07T10:11:41Z</time>
      </trkpt>
      <trkpt lat="45.52753" lon="6.93803">
        <ele>2152.53</ele>
        <time>2013-05-07T10:11:45Z</time>
      </trkpt>
      <trkpt lat="45.52752" lon="6.93798">
        <ele>2152.05</ele>
        <time>2013-05-07T10:11:48Z</time>
      </trkpt>
      <trkpt lat="45.52754" lon="6.93777">
        <ele>2149.16</ele>
        <time>2013-05-07T10:12:01Z</time>
      </trkpt>
      <trkpt lat="45.52752" lon="6.93764">
        <ele>2146.76</ele>
        <time>2013-05-07T10:12:09Z</time>
      </trkpt>
      <trkpt lat="45.52752" lon="6.93762">
        <ele>2146.28</ele>
        <time>2013-05-07T10:12:10Z</time>
      </trkpt>
      <trkpt lat="45.52755" lon="6.93748">
        <ele>2144.36</ele>
        <time>2013-05-07T10:12:18Z</time>
      </trkpt>
      <trkpt lat="45.52762" lon="6.93714">
        <ele>2140.51</ele>
        <time>2013-05-07T10:12:37Z</time>
      </trkpt>
      <trkpt lat="45.52762" lon="6.9371">
        <ele>2140.03</ele>
        <time>2013-05-07T10:12:39Z</time>
      </trkpt>
      <trkpt lat="45.52765" lon="6.937">
        <ele>2138.59</ele>
        <time>2013-05-07T10:12:45Z</time>
      </trkpt>
      <trkpt lat="45.52773" lon="6.93676">
        <ele>2135.23</ele>
        <time>2013-05-07T10:13:00Z</time>
      </trkpt>
      <trkpt lat="45.52775" lon="6.93667">
        <ele>2133.3</ele>
        <time>2013-05-07T10:13:07Z</time>
      </trkpt>
      <trkpt lat="45.52776" lon="6.93662">
        <ele>2133.3</ele>
        <time>2013-05-07T10:13:11Z</time>
      </trkpt>
      <trkpt lat="45.52776" lon="6.93654">
        <ele>2132.34</ele>
        <time>2013-05-07T10:13:16Z</time>
      </trkpt>
      <trkpt lat="45.52781" lon="6.9363">
        <ele>2128.98</ele>
        <time>2013-05-07T10:13:31Z</time>
      </trkpt>
      <trkpt lat="45.52785" lon="6.93606">
        <ele>2126.09</ele>
        <time>2013-05-07T10:13:44Z</time>
      </trkpt>
      <trkpt lat="45.52799" lon="6.93587">
        <ele>2125.61</ele>
        <time>2013-05-07T10:14:00Z</time>
      </trkpt>
      <trkpt lat="45.52813" lon="6.93569">
        <ele>2125.13</ele>
        <time>2013-05-07T10:14:15Z</time>
      </trkpt>
      <trkpt lat="45.52826" lon="6.93551">
        <ele>2125.13</ele>
        <time>2013-05-07T10:14:30Z</time>
      </trkpt>
      <trkpt lat="45.52832" lon="6.93543">
        <ele>2124.65</ele>
        <time>2013-05-07T10:14:40Z</time>
      </trkpt>
      <trkpt lat="45.5284" lon="6.93538">
        <ele>2124.65</ele>
        <time>2013-05-07T10:14:53Z</time>
      </trkpt>
      <trkpt lat="45.52849" lon="6.93531">
        <ele>2124.65</ele>
        <time>2013-05-07T10:15:04Z</time>
      </trkpt>
      <trkpt lat="45.52859" lon="6.93525">
        <ele>2126.09</ele>
        <time>2013-05-07T10:15:17Z</time>
      </trkpt>
      <trkpt lat="45.5286" lon="6.93525">
        <ele>2126.09</ele>
        <time>2013-05-07T10:15:18Z</time>
      </trkpt>
      <trkpt lat="45.52864" lon="6.93519">
        <ele>2126.57</ele>
        <time>2013-05-07T10:15:26Z</time>
      </trkpt>
      <trkpt lat="45.52867" lon="6.93513">
        <ele>2125.13</ele>
        <time>2013-05-07T10:15:30Z</time>
      </trkpt>
      <trkpt lat="45.52882" lon="6.93492">
        <ele>2122.25</ele>
        <time>2013-05-07T10:15:47Z</time>
      </trkpt>
      <trkpt lat="45.52888" lon="6.93479">
        <ele>2120.32</ele>
        <time>2013-05-07T10:15:55Z</time>
      </trkpt>
      <trkpt lat="45.52903" lon="6.93465">
        <ele>2117.44</ele>
        <time>2013-05-07T10:16:09Z</time>
      </trkpt>
      <trkpt lat="45.52911" lon="6.9346">
        <ele>2115.52</ele>
        <time>2013-05-07T10:16:16Z</time>
      </trkpt>
      <trkpt lat="45.52925" lon="6.93442">
        <ele>2112.63</ele>
        <time>2013-05-07T10:16:31Z</time>
      </trkpt>
      <trkpt lat="45.52938" lon="6.93433">
        <ele>2110.71</ele>
        <time>2013-05-07T10:16:47Z</time>
      </trkpt>
      <trkpt lat="45.52939" lon="6.93433">
        <ele>2110.23</ele>
        <time>2013-05-07T10:16:49Z</time>
      </trkpt>
      <trkpt lat="45.52942" lon="6.93428">
        <ele>2110.23</ele>
        <time>2013-05-07T10:16:56Z</time>
      </trkpt>
      <trkpt lat="45.52944" lon="6.93425">
        <ele>2110.23</ele>
        <time>2013-05-07T10:16:59Z</time>
      </trkpt>
      <trkpt lat="45.52951" lon="6.93419">
        <ele>2108.79</ele>
        <time>2013-05-07T10:17:11Z</time>
      </trkpt>
      <trkpt lat="45.52958" lon="6.9341">
        <ele>2106.39</ele>
        <time>2013-05-07T10:17:23Z</time>
      </trkpt>
      <trkpt lat="45.52959" lon="6.93409">
        <ele>2106.39</ele>
        <time>2013-05-07T10:17:24Z</time>
      </trkpt>
      <trkpt lat="45.52962" lon="6.93401">
        <ele>2104.46</ele>
        <time>2013-05-07T10:17:30Z</time>
      </trkpt>
      <trkpt lat="45.52966" lon="6.93396">
        <ele>2103.02</ele>
        <time>2013-05-07T10:17:35Z</time>
      </trkpt>
      <trkpt lat="45.52968" lon="6.93392">
        <ele>2102.54</ele>
        <time>2013-05-07T10:17:40Z</time>
      </trkpt>
      <trkpt lat="45.5297" lon="6.9339">
        <ele>2102.54</ele>
        <time>2013-05-07T10:17:42Z</time>
      </trkpt>
      <trkpt lat="45.52975" lon="6.93384">
        <ele>2101.1</ele>
        <time>2013-05-07T10:17:48Z</time>
      </trkpt>
      <trkpt lat="45.52981" lon="6.93374">
        <ele>2100.14</ele>
        <time>2013-05-07T10:17:57Z</time>
      </trkpt>
      <trkpt lat="45.52988" lon="6.93367">
        <ele>2098.21</ele>
        <time>2013-05-07T10:18:12Z</time>
      </trkpt>
      <trkpt lat="45.52988" lon="6.93367">
        <ele>2098.21</ele>
        <time>2013-05-07T10:18:21Z</time>
      </trkpt>
      <trkpt lat="45.52991" lon="6.93362">
        <ele>2097.25</ele>
        <time>2013-05-07T10:18:29Z</time>
      </trkpt>
      <trkpt lat="45.52989" lon="6.93359">
        <ele>2093.89</ele>
        <time>2013-05-07T10:18:41Z</time>
      </trkpt>
      <trkpt lat="45.52986" lon="6.93358">
        <ele>2092.93</ele>
        <time>2013-05-07T10:18:44Z</time>
      </trkpt>
      <trkpt lat="45.52979" lon="6.93357">
        <ele>2090.04</ele>
        <time>2013-05-07T10:18:52Z</time>
      </trkpt>
      <trkpt lat="45.52976" lon="6.93347">
        <ele>2086.68</ele>
        <time>2013-05-07T10:19:02Z</time>
      </trkpt>
      <trkpt lat="45.52976" lon="6.93337">
        <ele>2083.31</ele>
        <time>2013-05-07T10:19:12Z</time>
      </trkpt>
      <trkpt lat="45.52979" lon="6.9333">
        <ele>2079.95</ele>
        <time>2013-05-07T10:19:21Z</time>
      </trkpt>
      <trkpt lat="45.52982" lon="6.93323">
        <ele>2077.07</ele>
        <time>2013-05-07T10:19:31Z</time>
      </trkpt>
      <trkpt lat="45.52983" lon="6.93322">
        <ele>2076.59</ele>
        <time>2013-05-07T10:19:34Z</time>
      </trkpt>
      <trkpt lat="45.5299" lon="6.93316">
        <ele>2072.74</ele>
        <time>2013-05-07T10:19:47Z</time>
      </trkpt>
      <trkpt lat="45.52992" lon="6.93308">
        <ele>2069.38</ele>
        <time>2013-05-07T10:19:58Z</time>
      </trkpt>
      <trkpt lat="45.52994" lon="6.933">
        <ele>2066.01</ele>
        <time>2013-05-07T10:20:09Z</time>
      </trkpt>
      <trkpt lat="45.52996" lon="6.93292">
        <ele>2062.65</ele>
        <time>2013-05-07T10:20:21Z</time>
      </trkpt>
      <trkpt lat="45.52997" lon="6.93284">
        <ele>2059.28</ele>
        <time>2013-05-07T10:20:32Z</time>
      </trkpt>
      <trkpt lat="45.52998" lon="6.9328">
        <ele>2057.84</ele>
        <time>2013-05-07T10:20:37Z</time>
      </trkpt>
      <trkpt lat="45.53" lon="6.93276">
        <ele>2055.92</ele>
        <time>2013-05-07T10:20:50Z</time>
      </trkpt>
      <trkpt lat="45.53002" lon="6.93267">
        <ele>2052.55</ele>
        <time>2013-05-07T10:21:00Z</time>
      </trkpt>
      <trkpt lat="45.53005" lon="6.93259">
        <ele>2049.19</ele>
        <time>2013-05-07T10:21:08Z</time>
      </trkpt>
      <trkpt lat="45.53006" lon="6.93252">
        <ele>2046.3</ele>
        <time>2013-05-07T10:21:18Z</time>
      </trkpt>
      <trkpt lat="45.53008" lon="6.93246">
        <ele>2044.86</ele>
        <time>2013-05-07T10:21:25Z</time>
      </trkpt>
      <trkpt lat="45.53007" lon="6.93237">
        <ele>2041.02</ele>
        <time>2013-05-07T10:21:36Z</time>
      </trkpt>
      <trkpt lat="45.53005" lon="6.93229">
        <ele>2037.65</ele>
        <time>2013-05-07T10:21:46Z</time>
      </trkpt>
      <trkpt lat="45.53005" lon="6.93221">
        <ele>2034.29</ele>
        <time>2013-05-07T10:21:58Z</time>
      </trkpt>
      <trkpt lat="45.53" lon="6.93217">
        <ele>2030.92</ele>
        <time>2013-05-07T10:22:09Z</time>
      </trkpt>
      <trkpt lat="45.52997" lon="6.9321">
        <ele>2028.04</ele>
        <time>2013-05-07T10:22:19Z</time>
      </trkpt>
      <trkpt lat="45.52995" lon="6.93205">
        <ele>2024.67</ele>
        <time>2013-05-07T10:22:26Z</time>
      </trkpt>
      <trkpt lat="45.52994" lon="6.93202">
        <ele>2022.75</ele>
        <time>2013-05-07T10:22:32Z</time>
      </trkpt>
      <trkpt lat="45.52994" lon="6.93202">
        <ele>2022.75</ele>
        <time>2013-05-07T10:22:47Z</time>
      </trkpt>
      <trkpt lat="45.52995" lon="6.93203">
        <ele>2018.91</ele>
        <time>2013-05-07T10:22:53Z</time>
      </trkpt>
      <trkpt lat="45.52995" lon="6.93203">
        <ele>2020.83</ele>
        <time>2013-05-07T10:22:54Z</time>
      </trkpt>
      <trkpt lat="45.52995" lon="6.93203">
        <ele>2022.75</ele>
        <time>2013-05-07T10:22:56Z</time>
      </trkpt>
      <trkpt lat="45.52993" lon="6.93203">
        <ele>2021.79</ele>
        <time>2013-05-07T10:23:28Z</time>
      </trkpt>
      <trkpt lat="45.52992" lon="6.93201">
        <ele>2021.79</ele>
        <time>2013-05-07T10:24:06Z</time>
      </trkpt>
      <trkpt lat="45.52992" lon="6.93202">
        <ele>2023.23</ele>
        <time>2013-05-07T10:24:20Z</time>
      </trkpt>
      <trkpt lat="45.52991" lon="6.93197">
        <ele>2021.31</ele>
        <time>2013-05-07T10:24:30Z</time>
      </trkpt>
      <trkpt lat="45.52988" lon="6.93195">
        <ele>2019.39</ele>
        <time>2013-05-07T10:24:40Z</time>
      </trkpt>
      <trkpt lat="45.52986" lon="6.93193">
        <ele>2018.91</ele>
        <time>2013-05-07T10:24:42Z</time>
      </trkpt>
      <trkpt lat="45.52984" lon="6.9319">
        <ele>2017.46</ele>
        <time>2013-05-07T10:24:46Z</time>
      </trkpt>
      <trkpt lat="45.52982" lon="6.93187">
        <ele>2015.06</ele>
        <time>2013-05-07T10:24:52Z</time>
      </trkpt>
      <trkpt lat="45.52977" lon="6.93174">
        <ele>2013.14</ele>
        <time>2013-05-07T10:24:56Z</time>
      </trkpt>
      <trkpt lat="45.52975" lon="6.93172">
        <ele>2010.25</ele>
        <time>2013-05-07T10:24:58Z</time>
      </trkpt>
      <trkpt lat="45.52972" lon="6.93167">
        <ele>2010.25</ele>
        <time>2013-05-07T10:25:03Z</time>
      </trkpt>
      <trkpt lat="45.52969" lon="6.93144">
        <ele>2005.45</ele>
        <time>2013-05-07T10:25:07Z</time>
      </trkpt>
      <trkpt lat="45.52967" lon="6.93134">
        <ele>2003.04</ele>
        <time>2013-05-07T10:25:09Z</time>
      </trkpt>
      <trkpt lat="45.5296" lon="6.93115">
        <ele>1999.68</ele>
        <time>2013-05-07T10:25:13Z</time>
      </trkpt>
      <trkpt lat="45.52964" lon="6.93107">
        <ele>1997.28</ele>
        <time>2013-05-07T10:25:16Z</time>
      </trkpt>
      <trkpt lat="45.52966" lon="6.93106">
        <ele>1996.8</ele>
        <time>2013-05-07T10:25:17Z</time>
      </trkpt>
      <trkpt lat="45.52971" lon="6.93103">
        <ele>1995.35</ele>
        <time>2013-05-07T10:25:19Z</time>
      </trkpt>
      <trkpt lat="45.52974" lon="6.93087">
        <ele>1991.99</ele>
        <time>2013-05-07T10:25:23Z</time>
      </trkpt>
      <trkpt lat="45.52971" lon="6.93046">
        <ele>1985.74</ele>
        <time>2013-05-07T10:25:28Z</time>
      </trkpt>
      <trkpt lat="45.52977" lon="6.93032">
        <ele>1982.86</ele>
        <time>2013-05-07T10:25:30Z</time>
      </trkpt>
      <trkpt lat="45.52997" lon="6.93005">
        <ele>1976.61</ele>
        <time>2013-05-07T10:25:35Z</time>
      </trkpt>
      <trkpt lat="45.53002" lon="6.92999">
        <ele>1975.17</ele>
        <time>2013-05-07T10:25:36Z</time>
      </trkpt>
      <trkpt lat="45.5302" lon="6.92967">
        <ele>1969.88</ele>
        <time>2013-05-07T10:25:41Z</time>
      </trkpt>
      <trkpt lat="45.53021" lon="6.9295">
        <ele>1966.99</ele>
        <time>2013-05-07T10:25:44Z</time>
      </trkpt>
      <trkpt lat="45.53019" lon="6.92926">
        <ele>1963.15</ele>
        <time>2013-05-07T10:25:49Z</time>
      </trkpt>
      <trkpt lat="45.53024" lon="6.92909">
        <ele>1959.78</ele>
        <time>2013-05-07T10:25:53Z</time>
      </trkpt>
      <trkpt lat="45.53025" lon="6.92904">
        <ele>1958.82</ele>
        <time>2013-05-07T10:25:54Z</time>
      </trkpt>
      <trkpt lat="45.53038" lon="6.92881">
        <ele>1954.5</ele>
        <time>2013-05-07T10:25:59Z</time>
      </trkpt>
      <trkpt lat="45.53041" lon="6.92863">
        <ele>1951.13</ele>
        <time>2013-05-07T10:26:02Z</time>
      </trkpt>
      <trkpt lat="45.53045" lon="6.92861">
        <ele>1948.25</ele>
        <time>2013-05-07T10:26:05Z</time>
      </trkpt>
      <trkpt lat="45.53051" lon="6.92861">
        <ele>1948.25</ele>
        <time>2013-05-07T10:26:16Z</time>
      </trkpt>
      <trkpt lat="45.53065" lon="6.92849">
        <ele>1946.33</ele>
        <time>2013-05-07T10:26:23Z</time>
      </trkpt>
      <trkpt lat="45.53076" lon="6.9282">
        <ele>1942.48</ele>
        <time>2013-05-07T10:26:28Z</time>
      </trkpt>
      <trkpt lat="45.53082" lon="6.92808">
        <ele>1938.64</ele>
        <time>2013-05-07T10:26:30Z</time>
      </trkpt>
      <trkpt lat="45.5309" lon="6.92789">
        <ele>1933.83</ele>
        <time>2013-05-07T10:26:33Z</time>
      </trkpt>
      <trkpt lat="45.53096" lon="6.92768">
        <ele>1930.46</ele>
        <time>2013-05-07T10:26:36Z</time>
      </trkpt>
      <trkpt lat="45.53107" lon="6.92737">
        <ele>1925.18</ele>
        <time>2013-05-07T10:26:40Z</time>
      </trkpt>
      <trkpt lat="45.53112" lon="6.92711">
        <ele>1921.33</ele>
        <time>2013-05-07T10:26:44Z</time>
      </trkpt>
      <trkpt lat="45.53112" lon="6.92702">
        <ele>1919.89</ele>
        <time>2013-05-07T10:26:47Z</time>
      </trkpt>
      <trkpt lat="45.53112" lon="6.92702">
        <ele>1919.41</ele>
        <time>2013-05-07T10:27:03Z</time>
      </trkpt>
      <trkpt lat="45.53112" lon="6.92702">
        <ele>1919.41</ele>
        <time>2013-05-07T10:27:24Z</time>
      </trkpt>
      <trkpt lat="45.53112" lon="6.92704">
        <ele>1917.97</ele>
        <time>2013-05-07T10:27:27Z</time>
      </trkpt>
      <trkpt lat="45.53112" lon="6.92703">
        <ele>1917.97</ele>
        <time>2013-05-07T10:28:08Z</time>
      </trkpt>
      <trkpt lat="45.53112" lon="6.92703">
        <ele>1917.49</ele>
        <time>2013-05-07T10:28:29Z</time>
      </trkpt>
      <trkpt lat="45.53112" lon="6.92703">
        <ele>1917.97</ele>
        <time>2013-05-07T10:29:02Z</time>
      </trkpt>
      <trkpt lat="45.53113" lon="6.92702">
        <ele>1918.93</ele>
        <time>2013-05-07T10:29:24Z</time>
      </trkpt>
      <trkpt lat="45.53112" lon="6.92702">
        <ele>1919.41</ele>
        <time>2013-05-07T10:29:40Z</time>
      </trkpt>
      <trkpt lat="45.53112" lon="6.92703">
        <ele>1919.41</ele>
        <time>2013-05-07T10:29:56Z</time>
      </trkpt>
      <trkpt lat="45.53112" lon="6.92703">
        <ele>1919.41</ele>
        <time>2013-05-07T10:30:19Z</time>
      </trkpt>
      <trkpt lat="45.53112" lon="6.92703">
        <ele>1919.41</ele>
        <time>2013-05-07T10:30:52Z</time>
      </trkpt>
      <trkpt lat="45.53112" lon="6.92703">
        <ele>1919.41</ele>
        <time>2013-05-07T10:31:18Z</time>
      </trkpt>
      <trkpt lat="45.53111" lon="6.92702">
        <ele>1919.41</ele>
        <time>2013-05-07T10:31:59Z</time>
      </trkpt>
      <trkpt lat="45.53112" lon="6.92703">
        <ele>1919.41</ele>
        <time>2013-05-07T10:32:35Z</time>
      </trkpt>
      <trkpt lat="45.53112" lon="6.92702">
        <ele>1919.89</ele>
        <time>2013-05-07T10:32:56Z</time>
      </trkpt>
      <trkpt lat="45.53112" lon="6.92701">
        <ele>1919.41</ele>
        <time>2013-05-07T10:33:21Z</time>
      </trkpt>
      <trkpt lat="45.53111" lon="6.92702">
        <ele>1919.41</ele>
        <time>2013-05-07T10:33:56Z</time>
      </trkpt>
      <trkpt lat="45.53112" lon="6.92701">
        <ele>1919.41</ele>
        <time>2013-05-07T10:34:17Z</time>
      </trkpt>
      <trkpt lat="45.53112" lon="6.92695">
        <ele>1919.41</ele>
        <time>2013-05-07T10:34:36Z</time>
      </trkpt>
      <trkpt lat="45.53112" lon="6.92683">
        <ele>1917.01</ele>
        <time>2013-05-07T10:34:45Z</time>
      </trkpt>
      <trkpt lat="45.53113" lon="6.92679">
        <ele>1917.01</ele>
        <time>2013-05-07T10:34:48Z</time>
      </trkpt>
      <trkpt lat="45.53116" lon="6.92671">
        <ele>1916.53</ele>
        <time>2013-05-07T10:34:56Z</time>
      </trkpt>
      <trkpt lat="45.53122" lon="6.92652">
        <ele>1914.12</ele>
        <time>2013-05-07T10:35:11Z</time>
      </trkpt>
      <trkpt lat="45.53122" lon="6.92649">
        <ele>1914.12</ele>
        <time>2013-05-07T10:35:13Z</time>
      </trkpt>
      <trkpt lat="45.53123" lon="6.92645">
        <ele>1913.64</ele>
        <time>2013-05-07T10:35:16Z</time>
      </trkpt>
      <trkpt lat="45.53128" lon="6.9263">
        <ele>1912.68</ele>
        <time>2013-05-07T10:35:27Z</time>
      </trkpt>
      <trkpt lat="45.5313" lon="6.92621">
        <ele>1912.2</ele>
        <time>2013-05-07T10:35:33Z</time>
      </trkpt>
      <trkpt lat="45.53133" lon="6.92602">
        <ele>1911.72</ele>
        <time>2013-05-07T10:35:45Z</time>
      </trkpt>
      <trkpt lat="45.53139" lon="6.9259">
        <ele>1911.24</ele>
        <time>2013-05-07T10:35:54Z</time>
      </trkpt>
      <trkpt lat="45.53144" lon="6.92584">
        <ele>1910.76</ele>
        <time>2013-05-07T10:36:01Z</time>
      </trkpt>
      <trkpt lat="45.53156" lon="6.92576">
        <ele>1909.8</ele>
        <time>2013-05-07T10:36:13Z</time>
      </trkpt>
      <trkpt lat="45.53161" lon="6.92565">
        <ele>1907.87</ele>
        <time>2013-05-07T10:36:21Z</time>
      </trkpt>
      <trkpt lat="45.53166" lon="6.92543">
        <ele>1904.03</ele>
        <time>2013-05-07T10:36:34Z</time>
      </trkpt>
      <trkpt lat="45.5317" lon="6.92522">
        <ele>1900.66</ele>
        <time>2013-05-07T10:36:47Z</time>
      </trkpt>
      <trkpt lat="45.53177" lon="6.92511">
        <ele>1897.78</ele>
        <time>2013-05-07T10:36:57Z</time>
      </trkpt>
      <trkpt lat="45.53181" lon="6.92509">
        <ele>1896.34</ele>
        <time>2013-05-07T10:37:01Z</time>
      </trkpt>
      <trkpt lat="45.53188" lon="6.92503">
        <ele>1894.9</ele>
        <time>2013-05-07T10:37:08Z</time>
      </trkpt>
      <trkpt lat="45.53189" lon="6.925">
        <ele>1893.93</ele>
        <time>2013-05-07T10:37:10Z</time>
      </trkpt>
      <trkpt lat="45.53202" lon="6.92489">
        <ele>1891.53</ele>
        <time>2013-05-07T10:37:22Z</time>
      </trkpt>
      <trkpt lat="45.53207" lon="6.92484">
        <ele>1890.57</ele>
        <time>2013-05-07T10:37:27Z</time>
      </trkpt>
      <trkpt lat="45.53219" lon="6.92473">
        <ele>1886.72</ele>
        <time>2013-05-07T10:37:37Z</time>
      </trkpt>
      <trkpt lat="45.53221" lon="6.9247">
        <ele>1886.24</ele>
        <time>2013-05-07T10:37:39Z</time>
      </trkpt>
      <trkpt lat="45.53235" lon="6.92461">
        <ele>1882.88</ele>
        <time>2013-05-07T10:37:50Z</time>
      </trkpt>
      <trkpt lat="45.53247" lon="6.9246">
        <ele>1880</ele>
        <time>2013-05-07T10:38:00Z</time>
      </trkpt>
      <trkpt lat="45.53252" lon="6.92455">
        <ele>1878.55</ele>
        <time>2013-05-07T10:38:05Z</time>
      </trkpt>
      <trkpt lat="45.53257" lon="6.92453">
        <ele>1877.11</ele>
        <time>2013-05-07T10:38:09Z</time>
      </trkpt>
      <trkpt lat="45.53266" lon="6.92444">
        <ele>1876.15</ele>
        <time>2013-05-07T10:38:17Z</time>
      </trkpt>
      <trkpt lat="45.53266" lon="6.92441">
        <ele>1875.19</ele>
        <time>2013-05-07T10:38:19Z</time>
      </trkpt>
      <trkpt lat="45.53281" lon="6.92428">
        <ele>1872.79</ele>
        <time>2013-05-07T10:38:35Z</time>
      </trkpt>
      <trkpt lat="45.53286" lon="6.92432">
        <ele>1870.86</ele>
        <time>2013-05-07T10:38:44Z</time>
      </trkpt>
      <trkpt lat="45.53292" lon="6.92435">
        <ele>1869.42</ele>
        <time>2013-05-07T10:38:49Z</time>
      </trkpt>
      <trkpt lat="45.53299" lon="6.92437">
        <ele>1868.94</ele>
        <time>2013-05-07T10:38:55Z</time>
      </trkpt>
      <trkpt lat="45.53306" lon="6.92434">
        <ele>1867.02</ele>
        <time>2013-05-07T10:39:02Z</time>
      </trkpt>
      <trkpt lat="45.53316" lon="6.92416">
        <ele>1863.65</ele>
        <time>2013-05-07T10:39:16Z</time>
      </trkpt>
      <trkpt lat="45.53328" lon="6.92408">
        <ele>1860.77</ele>
        <time>2013-05-07T10:39:26Z</time>
      </trkpt>
      <trkpt lat="45.5334" lon="6.92395">
        <ele>1859.33</ele>
        <time>2013-05-07T10:39:38Z</time>
      </trkpt>
      <trkpt lat="45.53349" lon="6.92388">
        <ele>1858.37</ele>
        <time>2013-05-07T10:39:46Z</time>
      </trkpt>
      <trkpt lat="45.53368" lon="6.92372">
        <ele>1856.92</ele>
        <time>2013-05-07T10:40:03Z</time>
      </trkpt>
      <trkpt lat="45.53372" lon="6.92368">
        <ele>1856.44</ele>
        <time>2013-05-07T10:40:07Z</time>
      </trkpt>
      <trkpt lat="45.53376" lon="6.92362">
        <ele>1855.48</ele>
        <time>2013-05-07T10:40:12Z</time>
      </trkpt>
      <trkpt lat="45.53388" lon="6.92355">
        <ele>1855</ele>
        <time>2013-05-07T10:40:24Z</time>
      </trkpt>
      <trkpt lat="45.53392" lon="6.92353">
        <ele>1854.52</ele>
        <time>2013-05-07T10:40:27Z</time>
      </trkpt>
      <trkpt lat="45.53395" lon="6.92347">
        <ele>1854.04</ele>
        <time>2013-05-07T10:40:31Z</time>
      </trkpt>
      <trkpt lat="45.5341" lon="6.92342">
        <ele>1852.12</ele>
        <time>2013-05-07T10:40:46Z</time>
      </trkpt>
      <trkpt lat="45.53411" lon="6.92343">
        <ele>1852.12</ele>
        <time>2013-05-07T10:40:48Z</time>
      </trkpt>
      <trkpt lat="45.5342" lon="6.92347">
        <ele>1852.12</ele>
        <time>2013-05-07T10:40:56Z</time>
      </trkpt>
      <trkpt lat="45.53437" lon="6.92359">
        <ele>1850.68</ele>
        <time>2013-05-07T10:41:12Z</time>
      </trkpt>
      <trkpt lat="45.53444" lon="6.9236">
        <ele>1849.71</ele>
        <time>2013-05-07T10:41:18Z</time>
      </trkpt>
      <trkpt lat="45.53449" lon="6.92363">
        <ele>1849.23</ele>
        <time>2013-05-07T10:41:23Z</time>
      </trkpt>
      <trkpt lat="45.53456" lon="6.92363">
        <ele>1848.27</ele>
        <time>2013-05-07T10:41:29Z</time>
      </trkpt>
      <trkpt lat="45.53469" lon="6.92367">
        <ele>1846.35</ele>
        <time>2013-05-07T10:41:40Z</time>
      </trkpt>
      <trkpt lat="45.53476" lon="6.92365">
        <ele>1845.87</ele>
        <time>2013-05-07T10:41:45Z</time>
      </trkpt>
      <trkpt lat="45.53494" lon="6.92357">
        <ele>1842.5</ele>
        <time>2013-05-07T10:42:00Z</time>
      </trkpt>
      <trkpt lat="45.53502" lon="6.9235">
        <ele>1839.62</ele>
        <time>2013-05-07T10:42:09Z</time>
      </trkpt>
      <trkpt lat="45.53502" lon="6.92349">
        <ele>1839.62</ele>
        <time>2013-05-07T10:42:10Z</time>
      </trkpt>
      <trkpt lat="45.53503" lon="6.92342">
        <ele>1837.7</ele>
        <time>2013-05-07T10:42:14Z</time>
      </trkpt>
      <trkpt lat="45.53506" lon="6.92338">
        <ele>1837.22</ele>
        <time>2013-05-07T10:42:18Z</time>
      </trkpt>
      <trkpt lat="45.53521" lon="6.92325">
        <ele>1833.85</ele>
        <time>2013-05-07T10:42:32Z</time>
      </trkpt>
      <trkpt lat="45.53537" lon="6.92316">
        <ele>1830.97</ele>
        <time>2013-05-07T10:42:45Z</time>
      </trkpt>
      <trkpt lat="45.53559" lon="6.92312">
        <ele>1828.56</ele>
        <time>2013-05-07T10:43:02Z</time>
      </trkpt>
      <trkpt lat="45.53575" lon="6.92302">
        <ele>1827.12</ele>
        <time>2013-05-07T10:43:15Z</time>
      </trkpt>
      <trkpt lat="45.53582" lon="6.92298">
        <ele>1827.12</ele>
        <time>2013-05-07T10:43:21Z</time>
      </trkpt>
      <trkpt lat="45.53604" lon="6.92283">
        <ele>1825.68</ele>
        <time>2013-05-07T10:43:39Z</time>
      </trkpt>
      <trkpt lat="45.53625" lon="6.9228">
        <ele>1824.72</ele>
        <time>2013-05-07T10:43:55Z</time>
      </trkpt>
      <trkpt lat="45.53635" lon="6.92278">
        <ele>1824.72</ele>
        <time>2013-05-07T10:44:03Z</time>
      </trkpt>
      <trkpt lat="45.53658" lon="6.9227">
        <ele>1823.76</ele>
        <time>2013-05-07T10:44:21Z</time>
      </trkpt>
      <trkpt lat="45.53677" lon="6.92265">
        <ele>1823.28</ele>
        <time>2013-05-07T10:44:36Z</time>
      </trkpt>
      <trkpt lat="45.53698" lon="6.92256">
        <ele>1822.32</ele>
        <time>2013-05-07T10:44:52Z</time>
      </trkpt>
      <trkpt lat="45.53716" lon="6.92245">
        <ele>1821.35</ele>
        <time>2013-05-07T10:45:07Z</time>
      </trkpt>
      <trkpt lat="45.53739" lon="6.9224">
        <ele>1820.39</ele>
        <time>2013-05-07T10:45:25Z</time>
      </trkpt>
      <trkpt lat="45.53757" lon="6.92234">
        <ele>1819.91</ele>
        <time>2013-05-07T10:45:39Z</time>
      </trkpt>
      <trkpt lat="45.53776" lon="6.92225">
        <ele>1819.91</ele>
        <time>2013-05-07T10:45:54Z</time>
      </trkpt>
      <trkpt lat="45.53795" lon="6.92219">
        <ele>1819.43</ele>
        <time>2013-05-07T10:46:09Z</time>
      </trkpt>
      <trkpt lat="45.53807" lon="6.92212">
        <ele>1818.95</ele>
        <time>2013-05-07T10:46:18Z</time>
      </trkpt>
      <trkpt lat="45.53827" lon="6.92197">
        <ele>1817.99</ele>
        <time>2013-05-07T10:46:35Z</time>
      </trkpt>
      <trkpt lat="45.53842" lon="6.92181">
        <ele>1817.51</ele>
        <time>2013-05-07T10:46:49Z</time>
      </trkpt>
      <trkpt lat="45.53846" lon="6.92177">
        <ele>1817.03</ele>
        <time>2013-05-07T10:46:53Z</time>
      </trkpt>
      <trkpt lat="45.53863" lon="6.92159">
        <ele>1815.11</ele>
        <time>2013-05-07T10:47:09Z</time>
      </trkpt>
      <trkpt lat="45.53878" lon="6.92143">
        <ele>1812.7</ele>
        <time>2013-05-07T10:47:24Z</time>
      </trkpt>
      <trkpt lat="45.53895" lon="6.92135">
        <ele>1810.78</ele>
        <time>2013-05-07T10:47:39Z</time>
      </trkpt>
      <trkpt lat="45.53903" lon="6.92129">
        <ele>1809.82</ele>
        <time>2013-05-07T10:47:47Z</time>
      </trkpt>
      <trkpt lat="45.53912" lon="6.92122">
        <ele>1808.38</ele>
        <time>2013-05-07T10:47:56Z</time>
      </trkpt>
      <trkpt lat="45.53926" lon="6.92102">
        <ele>1805.97</ele>
        <time>2013-05-07T10:48:11Z</time>
      </trkpt>
      <trkpt lat="45.53942" lon="6.92081">
        <ele>1803.09</ele>
        <time>2013-05-07T10:48:28Z</time>
      </trkpt>
      <trkpt lat="45.53956" lon="6.9206">
        <ele>1800.21</ele>
        <time>2013-05-07T10:48:43Z</time>
      </trkpt>
      <trkpt lat="45.5397" lon="6.92041">
        <ele>1799.73</ele>
        <time>2013-05-07T10:48:58Z</time>
      </trkpt>
      <trkpt lat="45.53986" lon="6.92022">
        <ele>1797.8</ele>
        <time>2013-05-07T10:49:14Z</time>
      </trkpt>
      <trkpt lat="45.53987" lon="6.92021">
        <ele>1797.8</ele>
        <time>2013-05-07T10:49:15Z</time>
      </trkpt>
      <trkpt lat="45.54001" lon="6.9201">
        <ele>1796.84</ele>
        <time>2013-05-07T10:49:27Z</time>
      </trkpt>
      <trkpt lat="45.54016" lon="6.91996">
        <ele>1795.88</ele>
        <time>2013-05-07T10:49:43Z</time>
      </trkpt>
      <trkpt lat="45.54023" lon="6.9199">
        <ele>1795.88</ele>
        <time>2013-05-07T10:49:53Z</time>
      </trkpt>
      <trkpt lat="45.54038" lon="6.91973">
        <ele>1795.4</ele>
        <time>2013-05-07T10:50:08Z</time>
      </trkpt>
      <trkpt lat="45.54041" lon="6.91969">
        <ele>1795.4</ele>
        <time>2013-05-07T10:50:12Z</time>
      </trkpt>
      <trkpt lat="45.54053" lon="6.91958">
        <ele>1792.03</ele>
        <time>2013-05-07T10:50:24Z</time>
      </trkpt>
      <trkpt lat="45.54072" lon="6.91952">
        <ele>1788.67</ele>
        <time>2013-05-07T10:50:40Z</time>
      </trkpt>
      <trkpt lat="45.54073" lon="6.91951">
        <ele>1788.67</ele>
        <time>2013-05-07T10:50:42Z</time>
      </trkpt>
      <trkpt lat="45.54075" lon="6.91945">
        <ele>1788.67</ele>
        <time>2013-05-07T10:50:46Z</time>
      </trkpt>
      <trkpt lat="45.5408" lon="6.91937">
        <ele>1787.71</ele>
        <time>2013-05-07T10:50:52Z</time>
      </trkpt>
      <trkpt lat="45.5409" lon="6.91919">
        <ele>1784.82</ele>
        <time>2013-05-07T10:51:05Z</time>
      </trkpt>
      <trkpt lat="45.54093" lon="6.91911">
        <ele>1783.86</ele>
        <time>2013-05-07T10:51:10Z</time>
      </trkpt>
      <trkpt lat="45.54105" lon="6.91885">
        <ele>1779.06</ele>
        <time>2013-05-07T10:51:27Z</time>
      </trkpt>
      <trkpt lat="45.5412" lon="6.91869">
        <ele>1776.17</ele>
        <time>2013-05-07T10:51:41Z</time>
      </trkpt>
      <trkpt lat="45.54141" lon="6.91849">
        <ele>1773.29</ele>
        <time>2013-05-07T10:51:59Z</time>
      </trkpt>
      <trkpt lat="45.54154" lon="6.91837">
        <ele>1770.41</ele>
        <time>2013-05-07T10:52:12Z</time>
      </trkpt>
      <trkpt lat="45.54173" lon="6.9182">
        <ele>1768</ele>
        <time>2013-05-07T10:52:29Z</time>
      </trkpt>
      <trkpt lat="45.54186" lon="6.91798">
        <ele>1766.08</ele>
        <time>2013-05-07T10:52:45Z</time>
      </trkpt>
      <trkpt lat="45.54189" lon="6.91792">
        <ele>1765.12</ele>
        <time>2013-05-07T10:52:51Z</time>
      </trkpt>
      <trkpt lat="45.54201" lon="6.91791">
        <ele>1762.71</ele>
        <time>2013-05-07T10:53:06Z</time>
      </trkpt>
      <trkpt lat="45.54205" lon="6.9179">
        <ele>1760.79</ele>
        <time>2013-05-07T10:53:11Z</time>
      </trkpt>
      <trkpt lat="45.54211" lon="6.91787">
        <ele>1760.31</ele>
        <time>2013-05-07T10:53:16Z</time>
      </trkpt>
      <trkpt lat="45.54223" lon="6.91786">
        <ele>1757.91</ele>
        <time>2013-05-07T10:53:26Z</time>
      </trkpt>
      <trkpt lat="45.54233" lon="6.91783">
        <ele>1755.02</ele>
        <time>2013-05-07T10:53:38Z</time>
      </trkpt>
      <trkpt lat="45.54241" lon="6.91786">
        <ele>1754.06</ele>
        <time>2013-05-07T10:53:46Z</time>
      </trkpt>
      <trkpt lat="45.54254" lon="6.91798">
        <ele>1751.66</ele>
        <time>2013-05-07T10:54:00Z</time>
      </trkpt>
      <trkpt lat="45.54262" lon="6.91801">
        <ele>1750.7</ele>
        <time>2013-05-07T10:54:10Z</time>
      </trkpt>
      <trkpt lat="45.54279" lon="6.918">
        <ele>1750.7</ele>
        <time>2013-05-07T10:54:26Z</time>
      </trkpt>
      <trkpt lat="45.54281" lon="6.918">
        <ele>1750.7</ele>
        <time>2013-05-07T10:54:28Z</time>
      </trkpt>
      <trkpt lat="45.54294" lon="6.91788">
        <ele>1750.7</ele>
        <time>2013-05-07T10:54:41Z</time>
      </trkpt>
      <trkpt lat="45.54297" lon="6.91785">
        <ele>1750.22</ele>
        <time>2013-05-07T10:54:45Z</time>
      </trkpt>
      <trkpt lat="45.54305" lon="6.91773">
        <ele>1746.85</ele>
        <time>2013-05-07T10:54:56Z</time>
      </trkpt>
      <trkpt lat="45.54306" lon="6.91763">
        <ele>1743.49</ele>
        <time>2013-05-07T10:55:05Z</time>
      </trkpt>
      <trkpt lat="45.5431" lon="6.91753">
        <ele>1743.01</ele>
        <time>2013-05-07T10:55:12Z</time>
      </trkpt>
      <trkpt lat="45.54312" lon="6.91745">
        <ele>1741.08</ele>
        <time>2013-05-07T10:55:19Z</time>
      </trkpt>
      <trkpt lat="45.54314" lon="6.91744">
        <ele>1740.6</ele>
        <time>2013-05-07T10:55:21Z</time>
      </trkpt>
      <trkpt lat="45.54313" lon="6.91737">
        <ele>1738.2</ele>
        <time>2013-05-07T10:55:29Z</time>
      </trkpt>
      <trkpt lat="45.54307" lon="6.91727">
        <ele>1735.32</ele>
        <time>2013-05-07T10:55:42Z</time>
      </trkpt>
      <trkpt lat="45.54304" lon="6.91718">
        <ele>1731.95</ele>
        <time>2013-05-07T10:55:51Z</time>
      </trkpt>
      <trkpt lat="45.54306" lon="6.91714">
        <ele>1730.99</ele>
        <time>2013-05-07T10:55:55Z</time>
      </trkpt>
      <trkpt lat="45.54307" lon="6.91709">
        <ele>1730.03</ele>
        <time>2013-05-07T10:55:59Z</time>
      </trkpt>
      <trkpt lat="45.54304" lon="6.9169">
        <ele>1725.7</ele>
        <time>2013-05-07T10:56:13Z</time>
      </trkpt>
      <trkpt lat="45.54305" lon="6.91679">
        <ele>1722.34</ele>
        <time>2013-05-07T10:56:23Z</time>
      </trkpt>
      <trkpt lat="45.54302" lon="6.91666">
        <ele>1719.46</ele>
        <time>2013-05-07T10:56:33Z</time>
      </trkpt>
      <trkpt lat="45.54303" lon="6.91657">
        <ele>1717.05</ele>
        <time>2013-05-07T10:56:43Z</time>
      </trkpt>
      <trkpt lat="45.54302" lon="6.91651">
        <ele>1715.61</ele>
        <time>2013-05-07T10:56:48Z</time>
      </trkpt>
      <trkpt lat="45.54303" lon="6.91637">
        <ele>1712.73</ele>
        <time>2013-05-07T10:57:02Z</time>
      </trkpt>
      <trkpt lat="45.54304" lon="6.91636">
        <ele>1712.73</ele>
        <time>2013-05-07T10:57:03Z</time>
      </trkpt>
      <trkpt lat="45.54306" lon="6.91632">
        <ele>1711.76</ele>
        <time>2013-05-07T10:57:08Z</time>
      </trkpt>
      <trkpt lat="45.54312" lon="6.91617">
        <ele>1708.88</ele>
        <time>2013-05-07T10:57:21Z</time>
      </trkpt>
      <trkpt lat="45.5432" lon="6.91606">
        <ele>1706.48</ele>
        <time>2013-05-07T10:57:33Z</time>
      </trkpt>
      <trkpt lat="45.54323" lon="6.91603">
        <ele>1705.04</ele>
        <time>2013-05-07T10:57:37Z</time>
      </trkpt>
      <trkpt lat="45.54325" lon="6.91603">
        <ele>1705.04</ele>
        <time>2013-05-07T10:57:39Z</time>
      </trkpt>
      <trkpt lat="45.54328" lon="6.91598">
        <ele>1704.07</ele>
        <time>2013-05-07T10:57:44Z</time>
      </trkpt>
      <trkpt lat="45.54332" lon="6.91596">
        <ele>1704.07</ele>
        <time>2013-05-07T10:57:49Z</time>
      </trkpt>
      <trkpt lat="45.54335" lon="6.9159">
        <ele>1704.07</ele>
        <time>2013-05-07T10:57:55Z</time>
      </trkpt>
      <trkpt lat="45.54347" lon="6.91577">
        <ele>1701.19</ele>
        <time>2013-05-07T10:58:09Z</time>
      </trkpt>
      <trkpt lat="45.54358" lon="6.91566">
        <ele>1699.27</ele>
        <time>2013-05-07T10:58:22Z</time>
      </trkpt>
      <trkpt lat="45.54365" lon="6.9156">
        <ele>1698.31</ele>
        <time>2013-05-07T10:58:30Z</time>
      </trkpt>
      <trkpt lat="45.54378" lon="6.91554">
        <ele>1696.86</ele>
        <time>2013-05-07T10:58:45Z</time>
      </trkpt>
      <trkpt lat="45.54381" lon="6.91549">
        <ele>1696.86</ele>
        <time>2013-05-07T10:58:49Z</time>
      </trkpt>
      <trkpt lat="45.54384" lon="6.91544">
        <ele>1695.9</ele>
        <time>2013-05-07T10:58:52Z</time>
      </trkpt>
      <trkpt lat="45.54393" lon="6.9152">
        <ele>1693.98</ele>
        <time>2013-05-07T10:59:07Z</time>
      </trkpt>
      <trkpt lat="45.54395" lon="6.91516">
        <ele>1693.98</ele>
        <time>2013-05-07T10:59:11Z</time>
      </trkpt>
      <trkpt lat="45.54403" lon="6.91505">
        <ele>1693.98</ele>
        <time>2013-05-07T10:59:23Z</time>
      </trkpt>
      <trkpt lat="45.54404" lon="6.91502">
        <ele>1693.98</ele>
        <time>2013-05-07T10:59:26Z</time>
      </trkpt>
      <trkpt lat="45.54414" lon="6.91491">
        <ele>1693.02</ele>
        <time>2013-05-07T10:59:40Z</time>
      </trkpt>
      <trkpt lat="45.54417" lon="6.91489">
        <ele>1692.06</ele>
        <time>2013-05-07T10:59:50Z</time>
      </trkpt>
      <trkpt lat="45.54421" lon="6.91483">
        <ele>1692.06</ele>
        <time>2013-05-07T10:59:59Z</time>
      </trkpt>
      <trkpt lat="45.54435" lon="6.91477">
        <ele>1693.02</ele>
        <time>2013-05-07T11:00:14Z</time>
      </trkpt>
      <trkpt lat="45.54449" lon="6.9147">
        <ele>1693.5</ele>
        <time>2013-05-07T11:00:29Z</time>
      </trkpt>
      <trkpt lat="45.54454" lon="6.91468">
        <ele>1693.98</ele>
        <time>2013-05-07T11:00:35Z</time>
      </trkpt>
      <trkpt lat="45.54457" lon="6.91466">
        <ele>1694.46</ele>
        <time>2013-05-07T11:00:39Z</time>
      </trkpt>
      <trkpt lat="45.54461" lon="6.91464">
        <ele>1694.94</ele>
        <time>2013-05-07T11:00:43Z</time>
      </trkpt>
      <trkpt lat="45.54464" lon="6.91459">
        <ele>1694.94</ele>
        <time>2013-05-07T11:00:47Z</time>
      </trkpt>
      <trkpt lat="45.54477" lon="6.91452">
        <ele>1695.9</ele>
        <time>2013-05-07T11:01:03Z</time>
      </trkpt>
      <trkpt lat="45.54489" lon="6.91442">
        <ele>1696.86</ele>
        <time>2013-05-07T11:01:17Z</time>
      </trkpt>
      <trkpt lat="45.5449" lon="6.91442">
        <ele>1696.86</ele>
        <time>2013-05-07T11:01:18Z</time>
      </trkpt>
      <trkpt lat="45.54493" lon="6.9144">
        <ele>1696.86</ele>
        <time>2013-05-07T11:01:22Z</time>
      </trkpt>
      <trkpt lat="45.54505" lon="6.91429">
        <ele>1697.83</ele>
        <time>2013-05-07T11:01:36Z</time>
      </trkpt>
      <trkpt lat="45.54515" lon="6.91418">
        <ele>1698.79</ele>
        <time>2013-05-07T11:01:49Z</time>
      </trkpt>
      <trkpt lat="45.54525" lon="6.91409">
        <ele>1699.75</ele>
        <time>2013-05-07T11:02:01Z</time>
      </trkpt>
      <trkpt lat="45.54529" lon="6.91404">
        <ele>1699.75</ele>
        <time>2013-05-07T11:02:07Z</time>
      </trkpt>
      <trkpt lat="45.54532" lon="6.914">
        <ele>1700.71</ele>
        <time>2013-05-07T11:02:10Z</time>
      </trkpt>
      <trkpt lat="45.54535" lon="6.91395">
        <ele>1700.71</ele>
        <time>2013-05-07T11:02:16Z</time>
      </trkpt>
      <trkpt lat="45.54541" lon="6.91391">
        <ele>1701.19</ele>
        <time>2013-05-07T11:02:24Z</time>
      </trkpt>
      <trkpt lat="45.54553" lon="6.91382">
        <ele>1702.63</ele>
        <time>2013-05-07T11:02:37Z</time>
      </trkpt>
      <trkpt lat="45.54559" lon="6.91377">
        <ele>1703.59</ele>
        <time>2013-05-07T11:02:44Z</time>
      </trkpt>
      <trkpt lat="45.54572" lon="6.91368">
        <ele>1705.04</ele>
        <time>2013-05-07T11:02:58Z</time>
      </trkpt>
      <trkpt lat="45.54585" lon="6.9136">
        <ele>1706</ele>
        <time>2013-05-07T11:03:12Z</time>
      </trkpt>
      <trkpt lat="45.54594" lon="6.91355">
        <ele>1706.48</ele>
        <time>2013-05-07T11:03:22Z</time>
      </trkpt>
      <trkpt lat="45.54604" lon="6.91339">
        <ele>1706.48</ele>
        <time>2013-05-07T11:03:37Z</time>
      </trkpt>
      <trkpt lat="45.54607" lon="6.91337">
        <ele>1706.96</ele>
        <time>2013-05-07T11:03:51Z</time>
      </trkpt>
      <trkpt lat="45.54606" lon="6.91337">
        <ele>1706.96</ele>
        <time>2013-05-07T11:04:07Z</time>
      </trkpt>
      <trkpt lat="45.54606" lon="6.91331">
        <ele>1705.52</ele>
        <time>2013-05-07T11:04:33Z</time>
      </trkpt>
      <trkpt lat="45.54605" lon="6.91334">
        <ele>1705.52</ele>
        <time>2013-05-07T11:05:10Z</time>
      </trkpt>
      <trkpt lat="45.54606" lon="6.91335">
        <ele>1705.52</ele>
        <time>2013-05-07T11:05:20Z</time>
      </trkpt>
      <trkpt lat="45.54604" lon="6.91334">
        <ele>1705.04</ele>
        <time>2013-05-07T11:05:32Z</time>
      </trkpt>
      <trkpt lat="45.54605" lon="6.91342">
        <ele>1705.04</ele>
        <time>2013-05-07T11:06:07Z</time>
      </trkpt>
      <trkpt lat="45.54605" lon="6.91337">
        <ele>1705.04</ele>
        <time>2013-05-07T11:06:36Z</time>
      </trkpt>
      <trkpt lat="45.54603" lon="6.91335">
        <ele>1705.04</ele>
        <time>2013-05-07T11:07:05Z</time>
      </trkpt>
      <trkpt lat="45.54605" lon="6.91335">
        <ele>1706</ele>
        <time>2013-05-07T11:07:29Z</time>
      </trkpt>
      <trkpt lat="45.54605" lon="6.91341">
        <ele>1706</ele>
        <time>2013-05-07T11:07:53Z</time>
      </trkpt>
      <trkpt lat="45.54608" lon="6.91342">
        <ele>1706</ele>
        <time>2013-05-07T11:08:30Z</time>
      </trkpt>
      <trkpt lat="45.54606" lon="6.91337">
        <ele>1706</ele>
        <time>2013-05-07T11:08:59Z</time>
      </trkpt>
      <trkpt lat="45.54607" lon="6.91337">
        <ele>1706</ele>
        <time>2013-05-07T11:09:22Z</time>
      </trkpt>
      <trkpt lat="45.54602" lon="6.91345">
        <ele>1706</ele>
        <time>2013-05-07T11:09:56Z</time>
      </trkpt>
      <trkpt lat="45.54604" lon="6.91343">
        <ele>1706</ele>
        <time>2013-05-07T11:10:24Z</time>
      </trkpt>
      <trkpt lat="45.54603" lon="6.91339">
        <ele>1706</ele>
        <time>2013-05-07T11:10:52Z</time>
      </trkpt>
      <trkpt lat="45.54604" lon="6.91341">
        <ele>1706</ele>
        <time>2013-05-07T11:11:24Z</time>
      </trkpt>
      <trkpt lat="45.54604" lon="6.91338">
        <ele>1706</ele>
        <time>2013-05-07T11:12:02Z</time>
      </trkpt>
      <trkpt lat="45.54603" lon="6.91338">
        <ele>1705.52</ele>
        <time>2013-05-07T11:12:34Z</time>
      </trkpt>
      <trkpt lat="45.54602" lon="6.91345">
        <ele>1705.52</ele>
        <time>2013-05-07T11:13:12Z</time>
      </trkpt>
      <trkpt lat="45.54607" lon="6.91336">
        <ele>1705.52</ele>
        <time>2013-05-07T11:13:48Z</time>
      </trkpt>
      <trkpt lat="45.5461" lon="6.9134">
        <ele>1706</ele>
        <time>2013-05-07T11:14:28Z</time>
      </trkpt>
      <trkpt lat="45.54609" lon="6.91335">
        <ele>1705.04</ele>
        <time>2013-05-07T11:15:08Z</time>
      </trkpt>
      <trkpt lat="45.54607" lon="6.91346">
        <ele>1705.04</ele>
        <time>2013-05-07T11:15:47Z</time>
      </trkpt>
      <trkpt lat="45.54607" lon="6.9134">
        <ele>1705.04</ele>
        <time>2013-05-07T11:16:17Z</time>
      </trkpt>
      <trkpt lat="45.54607" lon="6.91339">
        <ele>1705.04</ele>
        <time>2013-05-07T11:16:49Z</time>
      </trkpt>
      <trkpt lat="45.54605" lon="6.91337">
        <ele>1705.04</ele>
        <time>2013-05-07T11:17:21Z</time>
      </trkpt>
      <trkpt lat="45.54605" lon="6.91331">
        <ele>1704.55</ele>
        <time>2013-05-07T11:17:55Z</time>
      </trkpt>
      <trkpt lat="45.54607" lon="6.91338">
        <ele>1704.55</ele>
        <time>2013-05-07T11:18:25Z</time>
      </trkpt>
      <trkpt lat="45.54605" lon="6.91339">
        <ele>1704.55</ele>
        <time>2013-05-07T11:18:53Z</time>
      </trkpt>
      <trkpt lat="45.54603" lon="6.9134">
        <ele>1705.04</ele>
        <time>2013-05-07T11:19:20Z</time>
      </trkpt>
      <trkpt lat="45.54604" lon="6.91338">
        <ele>1706</ele>
        <time>2013-05-07T11:19:45Z</time>
      </trkpt>
      <trkpt lat="45.54605" lon="6.91335">
        <ele>1705.04</ele>
        <time>2013-05-07T11:20:01Z</time>
      </trkpt>
    </trkseg>
  </trk>
</gpx>